GFSSGP_sfc_wetblb_000.txt.gz
Wetbulb
76.89 74.93 73.48 70.75 60.94 55.78 52.48 56.43 59.63 59.27 59.83 64.55 65.97 64.32 61.87 63.83 60.33 55.48 69.26 72.67 74.35 74.76 75.78 76.61 78.21 78.75 78.31 78.30 78.13 78.29 78.84 78.97 78.81 78.90 79.17 79.40 79.50 79.43 79.31 79.27 78.52 78.50 77.95 77.49 77.54 77.51 77.38 76.66 76.66
74.64 73.76 71.71 66.39 56.43 48.29 49.21 59.38 58.46 60.53 63.60 65.89 66.62 65.80 63.69 61.90 66.69 66.77 69.52 73.26 74.91 75.05 75.40 76.56 78.34 78.96 78.52 78.53 78.48 78.62 79.08 79.24 79.49 79.62 79.51 79.61 79.81 79.55 79.00 77.81 77.78 77.67 77.65 77.41 77.00 76.70 76.73 76.26 76.14
73.02 72.88 65.77 61.31 53.01 47.89 52.08 59.63 61.24 62.46 65.14 65.57 64.58 66.96 65.08 64.42 68.59 69.08 71.83 73.74 74.72 74.85 75.76 76.51 78.64 78.88 78.56 78.98 79.31 79.20 79.24 79.22 79.44 79.77 79.58 79.76 79.46 78.76 78.14 77.74 77.55 77.65 77.49 77.08 76.59 76.23 76.32 75.98 75.57
70.05 66.46 64.98 57.68 48.90 53.29 58.21 61.17 63.13 62.55 64.66 67.45 66.90 63.42 67.67 70.78 69.78 71.25 73.12 73.96 74.08 75.38 76.43 78.66 79.20 78.77 78.99 79.41 79.61 79.16 79.10 78.96 79.45 79.61 79.13 78.93 78.72 77.69 77.80 77.80 77.74 77.51 77.16 76.72 76.48 76.15 75.95 75.79 75.78
68.33 62.48 55.13 49.86 51.32 55.84 61.93 63.34 64.11 63.41 64.79 65.59 66.39 63.59 65.18 70.10 72.80 73.35 73.42 73.96 73.51 75.19 76.78 77.00 78.66 78.90 78.76 79.42 79.94 79.84 79.52 79.27 79.07 79.14 78.80 79.31 78.99 78.06 77.91 77.64 77.23 76.98 76.65 76.54 76.23 75.73 75.73 75.75 75.77
59.16 59.18 53.55 51.17 52.93 55.11 61.47 63.98 64.54 65.62 65.93 65.93 64.99 64.71 65.50 71.19 72.17 73.32 73.92 73.77 74.83 75.50 76.99 77.13 78.54 78.97 79.10 79.33 79.37 79.94 79.68 79.21 79.02 79.00 78.95 79.16 78.78 78.39 77.76 77.31 77.07 76.65 76.15 76.12 75.65 76.12 76.20 76.29 76.25
59.41 57.44 54.46 54.34 55.31 57.50 60.94 64.90 63.93 65.15 65.41 65.51 67.89 63.66 66.08 69.30 72.31 73.66 73.57 74.19 75.06 76.76 76.99 77.40 77.14 77.75 79.32 79.69 79.76 79.35 79.32 79.01 79.05 79.15 78.96 78.43 78.21 77.68 77.47 77.39 77.09 76.73 76.51 76.09 76.15 76.62 76.69 76.82 77.08
61.85 59.67 56.33 55.21 54.09 52.61 62.10 61.09 65.32 65.38 64.55 70.15 69.28 63.66 63.75 68.80 72.75 73.61 73.63 73.78 74.39 75.58 76.82 76.91 77.14 77.17 77.39 78.15 79.56 78.87 79.41 79.07 78.68 78.83 78.37 78.35 77.80 77.34 77.12 76.78 77.81 77.01 76.85 76.54 76.09 76.66 76.92 77.05 76.77
63.99 54.86 53.03 54.76 55.51 56.69 58.75 60.78 65.76 67.52 67.05 67.32 68.27 67.75 69.83 71.52 72.81 72.46 71.91 72.52 73.63 74.45 75.05 75.63 76.31 76.50 76.82 77.47 78.16 79.23 78.72 79.20 78.86 78.40 78.64 78.48 74.86 73.93 71.34 74.01 74.47 75.84 76.64 76.92 76.42 76.68 76.62 77.09 76.42
60.27 55.10 56.01 59.88 60.13 59.33 60.20 61.48 63.05 64.36 64.57 64.91 66.57 69.37 71.46 72.00 71.82 70.81 70.84 70.91 71.77 72.78 73.70 74.59 74.58 75.17 76.19 78.10 75.59 75.59 76.79 76.71 76.21 76.03 75.74 74.80 73.20 72.81 74.26 73.28 72.67 74.37 76.64 76.83 76.33 76.34 76.08 75.21 72.61
59.53 56.94 60.73 60.86 62.54 63.25 62.11 63.46 65.04 63.45 62.00 64.79 64.34 66.65 70.18 70.46 70.65 70.67 71.19 71.16 71.68 73.03 73.89 74.20 75.14 74.97 75.49 75.98 75.05 75.06 75.01 75.48 75.29 74.64 74.27 73.98 73.14 73.09 72.25 71.83 72.52 72.33 74.61 73.71 75.02 74.60 73.71 73.06 71.90
57.92 61.19 61.88 61.16 64.07 62.03 61.99 62.16 60.47 63.58 63.99 67.55 67.63 68.89 69.55 69.26 69.61 70.63 70.46 70.89 71.42 72.12 72.91 74.24 74.74 74.72 74.90 75.13 75.33 75.38 74.28 74.31 74.36 74.04 73.93 73.37 71.98 70.86 72.07 71.69 72.39 72.21 72.26 72.03 72.48 72.05 72.20 71.69 71.32
58.62 60.79 62.30 63.07 61.53 61.52 62.65 60.43 61.87 63.94 66.69 67.81 67.96 68.41 68.05 68.83 69.67 69.91 70.26 71.37 72.08 71.44 72.49 73.79 75.03 74.44 74.36 74.58 74.53 74.47 74.67 74.87 74.35 73.93 74.23 73.67 72.28 71.62 73.01 71.81 72.43 71.83 72.31 71.19 71.28 70.48 70.78 70.89 71.09
61.05 61.74 61.88 62.05 61.01 61.47 59.78 60.47 60.81 65.17 67.28 66.54 66.73 66.27 67.20 67.57 68.35 68.39 68.56 69.70 70.69 72.03 73.35 74.58 74.57 74.33 73.97 73.47 73.10 73.41 72.99 73.09 73.40 73.09 73.65 73.92 72.66 71.71 72.34 71.34 70.94 70.71 71.07 71.67 71.31 70.82 70.48 70.21 70.31
61.25 58.40 59.24 60.81 61.36 61.71 64.19 60.35 60.12 65.14 66.73 65.63 66.02 66.36 66.87 67.32 67.77 67.94 69.35 69.13 69.58 70.62 73.23 73.24 73.26 74.68 74.09 73.48 74.04 72.91 73.89 73.49 72.63 72.56 72.69 72.23 73.19 72.39 71.52 70.32 69.78 70.10 70.74 70.78 70.70 70.05 69.85 69.24 70.14
54.84 54.34 50.79 58.01 61.25 62.27 60.79 55.15 61.44 65.69 64.94 63.99 65.50 66.24 66.78 66.92 67.42 68.36 69.90 69.44 69.34 70.79 72.47 73.03 75.01 74.78 73.43 73.72 73.89 74.22 73.68 72.85 73.02 72.49 72.31 72.69 73.00 72.59 71.26 69.42 69.49 70.44 70.14 70.03 68.81 67.69 67.44 67.46 67.85
49.72 47.77 51.37 53.94 59.33 60.40 59.12 56.45 61.86 63.80 63.34 63.09 64.48 65.36 66.15 66.03 66.90 67.86 69.35 69.76 69.53 70.48 71.85 72.29 73.52 73.98 73.99 74.12 74.41 73.87 73.79 73.34 73.03 73.06 71.73 72.50 71.98 72.54 71.09 69.54 70.40 70.19 68.91 68.30 68.00 67.62 67.08 66.87 66.97
46.31 48.81 52.97 52.42 55.95 57.12 58.10 57.31 61.71 63.16 62.94 62.92 63.70 64.44 65.17 65.42 66.29 67.82 68.89 69.43 69.41 70.27 70.87 70.87 70.83 73.31 74.17 73.80 73.98 73.51 73.36 71.96 72.67 72.63 71.26 72.35 71.45 72.83 72.56 70.21 70.29 70.05 69.24 68.52 68.23 67.60 67.01 67.01 66.81
50.90 51.90 52.49 55.02 56.10 58.31 57.70 58.12 60.70 62.91 63.28 63.22 63.59 64.03 64.79 65.31 67.05 67.94 69.05 69.66 70.30 70.58 70.47 70.32 70.91 71.98 73.24 72.08 71.18 70.80 70.05 70.70 71.26 71.67 72.48 72.59 71.82 72.04 70.98 70.70 70.15 69.98 68.63 68.21 68.27 67.24 66.52 65.86 66.43
49.86 50.43 51.87 54.92 56.36 54.50 57.55 57.81 60.79 62.41 63.26 63.92 64.05 64.65 65.39 66.07 66.28 67.86 69.01 69.99 70.11 70.11 70.20 71.05 70.86 72.45 72.64 72.41 71.29 71.56 71.29 71.54 71.98 72.59 72.97 72.40 71.88 72.10 71.40 70.76 69.98 69.03 68.14 66.84 66.30 66.01 65.48 65.70 66.70
47.88 50.86 51.82 52.75 56.07 56.14 57.31 54.13 56.54 61.71 63.34 63.87 64.93 66.02 66.14 66.39 66.10 67.06 68.35 68.89 70.21 69.97 71.25 71.48 72.26 72.63 72.98 72.74 72.35 72.26 71.42 70.39 69.15 69.67 70.05 68.98 68.03 68.20 68.70 67.86 66.60 66.43 66.35 65.45 65.50 65.70 64.99 63.77 65.07
44.13 51.58 55.40 55.21 53.98 47.88 54.83 46.13 52.09 58.08 58.48 60.05 62.45 63.82 65.12 65.75 67.82 68.10 68.42 67.91 69.70 71.08 72.90 72.47 73.23 73.48 73.34 72.47 72.36 70.43 67.82 63.58 64.79 66.68 67.36 65.69 65.81 67.00 66.85 66.46 67.01 66.86 66.12 65.45 65.79 67.71 65.97 64.84 62.85
48.99 51.37 50.43 55.58 52.90 49.12 50.77 47.10 52.71 53.83 52.29 55.11 60.71 63.48 64.90 65.75 68.01 68.21 68.69 69.05 70.53 72.20 73.29 73.33 73.51 73.23 73.37 71.85 72.26 66.21 61.41 62.44 65.29 65.21 64.26 63.36 63.63 65.46 66.41 67.83 66.75 65.74 65.34 64.92 65.77 64.97 64.72 64.73 63.82
53.58 50.01 47.33 47.13 45.02 41.34 48.85 47.06 46.25 51.54 55.29 56.93 58.99 63.71 64.69 65.50 67.73 68.95 70.01 69.11 70.92 72.58 73.34 73.61 72.32 71.30 69.11 67.99 64.30 61.42 62.13 61.89 63.00 62.79 61.26 61.96 60.68 64.92 66.91 66.30 64.88 65.16 64.37 64.70 64.66 64.90 64.39 64.10 63.86
48.98 42.99 38.31 37.83 37.52 37.72 43.11 47.99 50.17 55.83 58.60 57.91 58.47 62.93 64.60 65.59 65.99 67.31 67.37 67.91 70.72 71.55 72.13 72.96 71.87 69.55 65.81 64.41 62.57 61.29 62.55 61.99 61.77 61.53 61.93 61.64 63.24 63.07 63.40 63.79 63.66 61.97 62.78 64.25 64.79 64.28 63.16 63.47 62.96
45.97 44.27 39.11 35.58 37.49 40.11 45.04 41.78 47.67 57.52 60.45 59.93 61.26 63.72 64.94 64.56 65.70 66.36 66.60 67.79 70.04 71.33 71.62 72.18 70.32 69.00 65.84 64.12 63.13 63.16 63.68 62.41 62.11 62.72 62.91 59.69 60.89 62.99 63.34 62.98 63.08 63.31 63.44 64.65 64.75 63.82 62.88 63.62 63.19
46.66 43.27 47.18 42.43 41.73 40.29 42.46 47.21 53.83 56.46 58.13 58.87 59.18 60.75 62.27 64.03 65.19 65.69 66.78 67.94 69.40 70.72 71.46 71.86 69.76 68.43 66.68 64.93 63.93 63.33 63.47 63.97 64.70 64.42 62.34 60.84 62.48 63.43 63.05 63.55 63.28 63.56 64.67 63.86 63.97 63.86 63.82 62.96 62.55
49.39 49.54 43.15 40.62 36.68 34.99 41.16 43.54 45.63 52.83 55.47 57.75 58.05 57.98 59.84 63.53 65.08 65.84 66.54 67.46 69.77 70.48 71.57 72.35 70.29 68.74 67.31 66.51 64.87 64.46 64.58 64.35 64.05 63.16 62.45 62.99 62.39 62.93 62.91 63.15 63.46 63.57 63.87 63.66 63.07 62.37 62.35 62.34 61.92
47.62 45.21 44.03 43.62 41.20 37.71 36.66 41.14 50.13 55.17 57.03 57.35 58.69 60.28 58.71 61.76 63.84 65.54 66.36 67.48 69.71 70.48 71.24 71.77 70.35 69.40 67.81 67.28 65.99 65.77 65.74 64.93 63.80 63.33 62.93 63.10 62.89 63.71 64.61 64.55 64.15 63.33 62.89 63.56 63.42 63.07 62.85 62.26 61.94
49.63 47.13 44.78 41.06 39.48 39.65 40.25 42.54 54.20 55.41 56.28 59.32 59.87 60.96 59.86 60.88 63.43 64.99 65.98 66.61 68.46 69.20 70.61 71.01 70.77 69.76 69.02 68.44 66.84 66.51 66.40 65.15 64.04 63.58 63.36 63.39 63.36 62.94 62.61 62.74 62.61 62.77 63.36 63.69 63.02 62.78 62.86 62.02 61.43

GFSSGP_sfc_wetblb_003.txt.gz
Wetbulb
75.95 74.39 73.19 70.09 59.83 54.36 51.81 55.21 59.99 58.18 59.64 64.08 65.86 63.32 61.24 62.23 59.25 54.39 68.89 71.91 73.29 73.52 74.07 75.23 77.12 77.31 77.59 77.55 77.70 77.51 77.53 77.19 78.47 78.52 78.93 79.03 78.70 78.73 78.33 77.92 77.79 77.41 77.12 77.06 76.97 76.56 76.35 76.16 75.95
74.70 73.85 71.45 65.98 51.87 47.78 49.63 57.83 57.35 59.54 63.45 65.89 66.02 64.77 62.89 61.07 65.70 67.55 69.08 73.76 74.57 74.82 74.54 75.82 77.23 78.34 77.77 77.57 77.62 78.41 77.93 77.79 78.87 78.99 79.30 79.26 78.94 79.27 78.53 77.76 77.37 77.04 76.85 76.66 76.31 76.09 75.57 75.43 75.45
73.35 72.81 64.93 61.81 51.83 49.43 50.68 57.78 59.18 62.81 66.11 65.58 63.77 66.30 64.75 63.05 67.50 68.65 71.30 73.84 74.69 74.53 75.03 76.37 78.45 77.76 78.11 78.34 78.66 79.04 79.04 78.83 79.41 79.24 79.28 79.38 79.10 78.24 77.50 77.03 76.78 76.77 76.53 76.23 75.90 75.49 75.12 75.07 75.04
69.99 66.50 63.62 55.41 49.83 53.76 57.36 59.01 61.40 62.48 64.46 66.66 65.84 62.81 67.30 70.13 68.83 70.69 73.15 74.31 74.09 74.80 76.08 77.74 78.52 78.28 78.64 78.37 79.32 79.26 79.36 79.36 79.29 79.62 79.38 78.62 78.13 77.78 77.31 77.12 76.94 76.75 76.31 75.87 75.32 75.04 74.88 74.74 74.85
67.86 61.15 53.04 49.50 50.58 59.32 61.40 62.23 62.70 61.15 63.97 65.06 65.77 62.98 64.75 69.55 71.33 72.19 72.73 73.95 73.70 75.33 76.27 76.92 79.04 79.19 79.58 79.45 79.00 79.07 78.98 79.30 79.45 79.23 78.41 78.37 77.80 77.37 77.28 77.20 76.81 76.40 75.98 75.62 75.51 75.43 75.40 75.43 75.09
57.99 57.44 50.59 48.56 52.60 59.73 62.15 63.03 62.91 64.25 65.33 64.91 64.22 63.88 65.08 70.94 70.37 71.96 73.07 73.33 75.37 75.80 76.38 76.80 78.71 78.91 79.37 79.16 79.39 79.28 78.89 78.28 78.72 78.09 78.03 78.07 78.17 78.12 77.44 76.81 76.32 75.93 75.37 75.45 75.57 75.90 75.90 75.83 75.95
56.48 54.51 52.51 51.81 53.16 57.64 60.42 64.67 63.65 63.67 63.69 63.98 66.75 62.54 66.91 69.22 71.58 72.70 72.78 73.32 74.89 76.50 76.31 76.31 76.71 77.51 78.68 79.61 79.53 79.15 78.60 78.42 77.99 78.19 78.33 77.80 77.89 77.68 77.22 76.76 76.32 75.98 75.68 75.93 75.96 76.48 76.49 76.43 76.50
60.25 57.35 53.95 52.84 53.47 54.74 61.40 62.64 65.81 64.54 64.39 68.75 67.81 61.82 63.23 69.02 72.59 72.94 73.08 73.60 75.00 76.06 76.38 75.98 76.08 76.30 76.86 77.45 78.82 78.46 78.72 78.12 77.74 77.86 77.62 77.73 77.44 76.99 76.65 76.85 77.18 76.49 76.85 76.76 76.48 76.23 76.62 76.41 76.31
63.06 54.03 51.15 53.19 54.19 55.57 61.86 61.54 67.04 68.73 65.87 66.44 67.67 66.67 68.22 71.57 72.68 71.67 71.81 72.54 73.49 75.11 75.22 76.13 76.10 75.85 76.10 76.25 77.08 78.04 78.01 78.18 78.16 77.84 77.93 78.36 74.04 74.02 73.02 74.03 75.20 75.15 76.43 76.76 75.75 75.99 75.84 75.61 75.46
58.33 52.41 54.02 58.58 58.68 58.65 60.44 63.19 64.51 64.61 64.11 64.75 65.99 68.40 70.04 71.19 71.15 70.21 70.25 70.80 71.81 72.78 74.33 74.66 75.59 75.74 75.81 77.58 76.01 75.74 75.21 75.44 74.62 74.59 75.35 73.80 72.37 71.99 72.50 73.47 73.74 73.68 75.57 76.47 75.70 75.49 75.82 75.09 72.11
57.81 55.62 59.47 59.75 60.93 60.49 60.50 62.13 63.68 63.52 61.29 64.25 64.71 66.57 68.57 69.46 70.22 69.95 70.53 71.20 71.16 72.57 73.94 74.46 74.59 75.38 75.22 75.56 75.26 75.02 74.79 74.13 74.03 74.34 74.03 73.59 72.11 71.81 71.83 70.31 71.45 71.67 73.74 73.15 73.35 73.08 72.56 71.93 71.45
52.24 59.75 60.20 59.64 62.87 60.80 60.37 62.26 62.72 63.41 63.27 67.14 68.35 68.83 68.92 68.82 69.46 69.89 70.48 70.92 71.29 72.39 73.06 74.08 74.89 74.73 74.86 74.96 74.43 74.10 74.04 73.63 73.84 73.29 73.55 72.45 70.29 70.00 69.45 70.40 70.95 71.03 71.66 70.88 70.90 70.85 70.70 71.13 71.34
53.65 58.58 60.44 61.63 60.45 61.55 61.54 61.28 62.55 62.95 66.19 68.08 69.24 69.53 68.70 69.20 69.85 70.65 71.63 71.86 72.03 72.03 73.09 73.78 74.96 74.60 74.97 73.89 74.42 74.03 73.62 73.87 73.72 73.75 73.52 73.10 70.65 69.90 70.82 71.07 71.17 70.35 70.82 70.25 70.08 69.90 69.94 69.73 69.83
58.61 59.80 60.07 59.15 58.95 60.25 61.17 62.51 63.06 64.32 66.85 66.65 68.41 68.24 68.77 69.36 69.90 70.45 70.85 70.76 71.29 72.19 72.43 73.87 74.78 74.20 74.18 73.31 72.98 73.37 73.69 73.31 73.45 72.53 73.10 73.43 71.17 70.40 71.16 70.19 70.12 69.55 70.19 69.98 70.39 69.65 69.20 68.93 69.31
60.51 56.04 58.20 58.64 59.02 59.00 62.15 58.32 60.73 64.92 66.11 65.58 66.71 67.39 68.40 68.96 70.25 69.17 69.93 70.40 71.50 71.69 72.42 73.51 74.51 73.48 73.79 73.04 71.47 71.36 72.24 72.35 72.16 72.31 72.53 72.92 72.38 71.06 70.68 69.74 68.48 68.95 69.54 69.26 69.29 68.25 67.38 67.33 67.89
56.33 53.64 52.87 57.22 60.13 61.06 59.53 53.79 62.44 64.91 64.13 63.63 64.90 66.05 66.93 67.73 68.63 68.45 69.29 70.40 71.17 71.56 72.28 73.60 75.20 74.40 73.64 73.03 72.81 72.53 72.87 72.30 71.91 71.78 71.37 71.64 72.41 71.89 70.48 68.50 68.73 69.33 68.82 68.73 67.80 66.54 66.20 66.27 66.16
49.60 50.65 49.85 54.09 59.57 59.50 57.76 54.43 62.41 64.74 63.40 62.76 63.93 64.82 65.75 65.71 67.06 68.32 69.42 69.97 69.29 70.76 72.38 72.75 73.67 74.03 73.18 73.40 73.31 72.31 72.60 72.20 72.05 72.03 71.37 71.38 71.31 71.95 70.42 68.18 68.61 68.66 68.37 67.73 66.86 65.96 65.57 65.16 65.39
50.18 47.19 52.21 52.99 58.24 57.14 56.10 55.44 61.49 63.48 62.94 62.69 63.42 64.24 64.74 65.38 65.49 67.74 69.31 70.08 69.35 70.61 72.41 72.94 73.30 73.42 73.12 73.30 72.60 72.49 72.17 71.97 72.35 71.81 70.87 70.93 71.33 71.61 70.74 70.53 69.72 69.25 68.05 67.06 66.33 65.81 65.39 65.12 65.18
50.64 49.01 52.27 55.65 56.54 56.44 55.35 56.12 59.49 62.22 62.01 61.84 62.51 63.27 63.95 64.95 66.63 67.32 68.79 69.91 69.00 69.54 70.80 70.71 70.91 72.37 72.89 71.71 71.08 70.47 70.37 70.37 70.51 71.36 71.83 71.38 70.65 71.58 70.21 69.52 69.13 68.77 67.58 66.99 66.97 65.98 65.10 64.98 65.01
48.50 46.10 48.81 52.54 56.88 56.48 54.65 55.26 59.14 60.58 60.95 61.87 62.04 62.53 63.49 64.48 65.16 66.01 67.31 68.20 68.19 68.57 69.70 69.62 70.35 71.31 72.94 71.75 70.67 70.89 70.31 70.19 70.61 71.04 71.94 72.06 71.31 71.08 70.48 69.67 68.86 68.66 67.20 65.95 65.37 65.42 64.40 64.71 65.59
46.42 45.97 47.29 50.47 55.00 56.92 56.31 53.05 55.99 60.04 61.28 62.40 63.06 63.72 64.28 64.03 64.16 65.20 66.09 66.87 68.35 68.36 69.14 69.97 69.91 71.45 72.58 71.80 70.98 71.14 71.01 70.29 69.43 69.49 70.76 70.91 71.22 71.23 70.04 69.03 68.05 65.70 65.72 64.70 64.43 64.56 63.95 62.66 64.19
42.83 49.80 51.11 52.25 51.88 47.51 55.39 45.98 51.86 57.20 58.95 61.15 62.55 63.35 64.13 64.85 65.51 65.65 66.36 67.12 67.99 68.63 70.17 70.34 70.41 71.74 72.26 71.91 70.70 69.85 69.20 67.17 65.60 66.54 68.61 68.04 67.29 66.42 67.42 66.44 65.34 65.90 65.22 64.77 64.63 66.61 65.05 63.71 61.50
49.33 50.72 49.25 51.30 50.52 48.65 49.58 46.54 49.85 55.90 54.65 58.55 61.46 62.98 64.74 65.74 65.77 65.51 66.58 67.60 68.97 69.68 70.51 70.83 71.25 71.77 72.23 72.00 71.93 70.33 66.43 63.94 63.58 64.75 66.08 63.95 63.80 64.70 65.38 65.47 66.37 65.26 64.66 64.03 64.63 63.93 64.07 63.80 62.58
52.66 48.28 45.41 44.76 44.94 42.09 49.25 46.66 45.54 52.53 56.28 58.70 60.54 62.58 65.00 65.32 66.71 66.77 67.60 68.34 68.59 70.30 71.33 71.87 71.35 71.96 72.14 72.10 71.70 68.91 64.35 62.41 63.44 62.91 62.40 60.61 60.27 61.62 64.68 66.58 64.79 64.20 63.65 63.71 63.73 63.53 63.66 63.19 63.27
47.41 42.17 36.94 37.84 39.43 40.01 45.64 45.87 48.18 54.67 59.52 60.23 60.08 61.13 64.32 65.58 66.50 66.74 67.14 67.30 68.03 69.69 71.11 72.13 71.80 71.44 71.60 71.09 69.09 66.55 62.37 62.63 63.38 62.34 60.94 61.05 61.32 62.26 63.18 62.66 63.11 60.64 61.27 62.55 63.33 63.21 62.18 62.43 62.29
44.56 43.15 37.93 33.41 34.58 40.32 43.55 43.90 50.55 56.12 59.81 61.47 61.72 61.67 64.02 64.74 65.69 67.11 67.84 67.81 68.27 70.16 70.94 71.83 71.83 71.26 69.26 67.68 65.23 61.78 61.88 61.44 61.89 61.50 61.22 60.05 60.85 61.89 61.91 61.92 61.59 60.58 61.70 63.21 63.47 63.08 62.14 62.01 62.65
45.33 41.01 44.61 39.00 37.90 37.50 39.65 43.93 50.34 54.91 55.75 59.40 58.82 59.57 61.87 64.16 64.67 66.95 68.10 67.92 68.67 69.97 70.77 71.53 71.86 71.51 68.48 65.60 63.56 61.45 62.24 61.48 61.01 61.88 61.80 58.84 59.58 62.20 61.98 61.57 61.17 61.49 62.87 63.38 62.51 62.28 62.40 62.63 62.28
48.25 47.32 40.78 38.38 34.90 33.95 38.87 41.06 43.43 50.46 52.74 56.26 57.36 57.63 60.93 63.91 64.31 65.92 67.80 67.19 69.16 70.54 71.29 71.70 72.10 71.37 68.89 65.39 63.80 63.24 62.97 62.76 63.10 62.89 61.03 59.99 60.94 61.51 61.44 61.14 61.55 61.37 62.38 62.64 61.62 61.08 61.62 61.55 61.41
45.25 42.35 41.00 41.38 38.73 36.29 35.63 39.65 47.66 51.02 54.09 55.02 57.22 59.02 60.53 62.23 63.47 64.86 66.42 67.18 68.28 70.29 70.92 71.05 71.05 70.56 68.71 66.06 64.38 63.28 63.27 63.87 63.32 62.44 61.44 61.23 61.05 60.68 61.25 61.59 61.83 62.35 61.83 61.29 61.38 61.70 62.16 61.28 61.08
46.59 45.73 44.83 42.35 37.67 36.61 38.51 40.72 50.43 52.92 55.54 56.90 57.53 58.39 58.38 60.99 63.08 64.80 65.86 66.60 66.85 68.07 69.54 70.33 70.56 69.90 68.94 67.13 64.95 64.03 64.31 64.02 62.92 62.02 61.92 61.59 60.90 61.20 62.31 62.40 62.35 61.50 61.17 61.47 62.09 61.96 62.07 61.59 60.91

GFSSGP_sfc_wetblb_006.txt.gz
Wetbulb
76.06 74.88 73.21 70.40 57.92 54.11 50.97 53.68 58.80 58.30 59.70 63.82 65.06 62.88 60.95 62.01 58.69 53.39 67.96 70.90 72.63 72.33 73.64 75.18 77.49 76.55 76.34 76.58 76.40 76.33 76.48 77.27 77.97 78.43 78.44 77.91 77.87 77.98 77.52 77.27 77.51 77.23 76.86 76.59 76.58 76.60 76.39 75.93 75.22
73.99 72.82 71.47 65.21 52.18 47.99 49.44 56.65 56.08 59.58 63.12 65.18 65.00 64.09 62.63 60.20 66.11 66.99 67.97 73.08 73.86 73.69 73.80 74.61 77.22 77.20 76.84 76.89 77.52 77.20 77.05 77.62 78.22 78.46 78.74 78.23 78.26 77.71 77.61 77.50 77.00 76.78 76.62 76.37 76.27 75.91 75.39 75.14 74.89
73.26 71.60 64.71 60.10 49.59 47.82 49.95 56.67 59.10 63.18 65.46 64.96 63.49 66.01 64.25 62.71 67.36 67.88 71.13 73.83 74.58 74.08 74.75 75.40 77.32 77.54 77.55 77.82 77.67 78.57 78.41 78.27 78.23 78.47 78.22 78.36 78.32 77.85 77.32 76.88 76.73 76.59 76.29 76.05 75.50 75.39 75.22 74.81 74.78
69.03 65.93 62.17 51.42 47.35 53.48 55.61 58.29 62.43 63.08 65.04 65.75 65.04 62.52 66.82 69.03 68.16 70.29 73.27 74.23 73.91 74.34 74.99 77.20 77.75 77.74 77.84 77.86 78.42 78.06 78.13 78.75 78.70 78.93 78.06 78.12 77.58 77.10 76.89 76.36 76.44 76.02 75.64 75.20 74.95 74.89 74.95 75.06 75.11
66.07 59.60 50.79 48.84 51.11 58.09 59.95 61.34 62.49 61.21 63.83 64.23 65.21 62.38 63.90 69.06 71.19 72.15 73.09 73.76 73.80 74.68 75.63 76.21 78.39 78.30 77.92 77.98 78.18 78.73 78.68 78.57 78.73 78.69 77.91 77.77 77.51 77.08 76.88 76.66 76.19 75.83 75.44 75.25 75.09 75.36 75.42 75.53 75.33
57.39 56.02 48.81 46.78 51.39 58.78 60.23 61.41 62.20 63.57 64.40 64.38 63.58 63.15 64.62 69.76 69.94 71.76 73.07 72.96 75.24 75.12 75.83 76.06 77.95 78.12 78.15 78.44 78.34 78.55 78.67 78.56 78.73 78.16 77.72 77.63 77.56 77.24 76.85 76.47 75.67 75.22 75.05 75.22 75.39 75.75 76.00 75.98 76.04
58.02 53.09 50.79 50.33 54.29 57.20 59.43 63.62 62.90 62.84 63.25 63.40 65.88 61.41 66.23 67.84 70.82 72.15 72.56 73.81 75.37 76.10 75.62 76.12 76.41 77.41 78.45 79.00 78.60 78.55 78.32 77.78 77.91 77.25 77.82 77.78 77.44 77.26 76.96 76.69 76.22 75.64 75.58 75.80 76.22 76.11 76.37 76.25 76.33
58.66 54.21 52.61 51.62 53.65 54.63 60.70 63.04 65.06 63.05 63.47 67.80 67.14 61.33 62.30 67.95 71.66 72.08 72.70 73.50 74.90 75.51 75.70 75.54 75.78 76.17 76.00 76.42 77.58 77.69 77.84 77.52 77.49 77.75 77.54 77.56 77.45 77.05 76.75 76.13 76.31 76.47 76.53 76.95 76.78 75.85 75.49 75.96 74.89
62.26 53.34 49.81 51.78 53.52 55.41 61.17 62.53 65.93 67.85 65.11 66.19 66.96 65.60 67.86 70.92 71.83 71.18 71.39 72.88 73.46 74.39 75.13 75.48 75.49 74.86 75.79 76.20 76.82 77.29 77.68 77.38 77.28 76.84 77.45 77.36 75.16 75.24 75.86 74.12 75.45 76.04 75.97 76.10 76.69 75.69 75.83 76.10 75.33
57.05 52.02 53.32 57.01 57.18 58.89 61.03 63.67 64.39 63.69 63.49 63.97 65.03 68.33 70.28 70.94 70.42 69.59 69.31 69.44 71.13 72.14 74.14 74.88 75.25 75.40 75.73 77.42 76.20 75.31 75.44 75.74 75.62 75.86 75.36 75.55 74.24 73.90 71.50 74.34 74.49 74.48 74.39 75.94 76.06 75.27 75.81 74.61 73.22
57.10 54.05 57.44 58.60 59.04 62.79 60.85 63.23 63.85 62.27 60.39 63.70 63.19 66.38 69.13 69.72 69.48 69.53 69.42 69.48 70.45 72.36 73.78 74.39 74.72 75.19 75.47 76.01 75.67 75.05 75.06 74.69 74.93 75.10 75.03 74.82 73.14 72.75 73.42 71.58 72.12 73.07 74.02 73.56 73.89 73.22 72.84 72.79 72.32
53.50 58.14 59.17 59.07 61.62 61.68 60.44 62.03 62.53 62.47 62.47 66.43 66.49 68.06 69.08 68.75 68.93 69.11 69.19 70.18 70.50 71.85 73.34 74.21 74.48 74.80 74.98 74.66 75.05 74.21 74.58 74.56 74.07 74.19 74.42 73.79 71.88 71.69 71.46 71.62 72.45 72.56 72.73 72.13 71.98 71.94 72.22 72.15 72.19
51.69 53.39 58.93 60.97 59.27 60.69 62.21 61.27 62.26 61.97 65.39 67.64 67.56 68.35 68.01 68.32 69.17 70.02 70.55 71.33 71.17 71.25 72.58 73.37 74.21 74.36 74.89 74.13 74.52 74.24 73.76 74.41 74.37 74.10 74.03 73.70 71.79 70.34 70.92 72.13 72.44 72.28 72.34 71.97 71.82 71.94 71.43 71.00 71.23
53.39 57.87 58.81 58.68 58.48 59.06 60.13 61.08 62.26 63.33 67.13 66.96 66.68 66.80 67.62 68.08 69.13 69.68 70.38 70.42 70.90 71.79 72.30 73.37 74.01 74.51 74.58 73.80 74.02 74.00 73.84 74.08 74.01 73.70 74.05 74.04 72.09 71.40 71.24 71.55 71.47 71.31 71.90 71.39 72.08 71.37 70.59 69.75 69.81
58.74 55.29 57.51 57.56 58.07 60.18 62.27 58.30 59.25 64.37 66.43 66.10 66.63 67.28 67.77 68.72 69.98 69.49 70.67 70.64 71.19 72.00 72.58 73.01 73.73 74.81 73.87 73.73 72.80 72.87 73.84 73.85 73.29 73.41 73.68 72.81 72.59 71.59 71.51 71.18 71.13 71.34 70.69 70.83 70.59 70.11 69.02 68.76 68.97
53.69 53.90 50.95 56.26 58.54 60.78 58.31 52.46 61.30 64.45 64.52 64.87 66.46 67.19 67.70 68.47 69.59 70.49 71.20 71.09 71.71 71.87 71.75 72.79 74.54 74.45 73.56 73.48 72.77 72.85 73.07 72.91 72.82 73.23 73.03 72.99 73.71 73.04 71.91 70.75 70.23 70.89 70.94 70.13 69.89 68.81 68.21 68.33 67.95
49.98 48.55 49.24 53.49 58.37 58.98 56.77 53.62 61.38 63.93 63.57 63.99 65.67 66.39 67.12 67.71 68.67 70.02 70.58 71.08 71.30 71.44 71.82 72.14 73.74 73.98 73.65 72.39 72.78 73.33 73.35 72.67 72.72 73.08 72.70 72.53 73.11 73.12 72.16 70.32 70.43 71.00 70.61 70.05 69.14 68.41 68.04 67.77 67.62
47.58 49.42 48.49 52.04 55.98 57.45 55.10 54.27 60.98 62.33 62.30 62.79 64.00 64.54 65.82 66.27 67.12 68.99 69.16 70.52 71.07 71.16 72.00 72.57 73.51 73.58 72.88 73.40 72.80 72.39 72.75 72.69 72.81 72.93 72.13 72.48 72.61 72.74 71.85 71.11 70.95 71.10 70.19 69.30 68.63 68.34 68.27 67.71 67.39
50.91 51.19 52.42 53.76 56.46 54.61 53.97 54.87 59.76 61.62 61.50 61.52 61.98 62.74 64.16 64.94 67.04 68.09 68.76 69.79 69.56 69.91 71.10 71.79 72.28 73.00 73.01 72.15 71.66 71.66 71.36 71.99 71.99 72.12 72.61 72.32 72.01 72.52 71.86 71.38 70.62 70.41 69.82 69.51 69.07 68.38 67.71 67.53 67.48
51.69 48.61 50.22 51.64 55.84 55.28 53.90 54.51 59.61 61.26 61.23 61.61 61.85 62.25 63.04 64.34 64.30 65.72 67.19 68.80 68.06 68.50 70.47 71.12 72.04 72.43 73.06 72.06 71.88 72.09 71.69 71.60 72.02 72.22 72.41 72.61 72.33 72.28 71.37 71.06 70.37 70.46 69.57 68.41 67.70 67.68 66.86 66.86 67.93
45.68 45.51 45.64 51.11 54.83 55.51 54.99 52.26 54.73 60.13 61.38 62.16 62.69 63.35 63.83 63.82 63.86 64.65 65.66 67.38 68.35 67.75 69.22 70.46 71.04 72.10 72.78 72.47 71.61 71.66 71.81 71.45 70.93 71.47 72.12 72.56 72.05 72.18 71.70 71.03 70.64 69.31 68.01 67.50 67.32 66.87 66.52 65.76 66.81
43.09 48.91 49.42 51.48 51.45 45.90 53.12 43.44 51.08 55.99 58.06 59.58 60.92 61.81 62.83 63.73 65.02 65.16 65.14 65.84 67.38 68.00 69.33 70.21 70.68 71.11 71.77 72.23 71.44 71.03 70.10 69.40 69.62 69.46 71.22 71.30 71.40 70.92 70.02 69.19 68.46 67.46 67.50 67.08 67.26 68.10 67.59 66.43 64.95
47.70 50.00 49.37 51.10 48.60 47.68 49.40 45.00 48.00 55.41 54.07 57.12 59.82 61.26 62.67 63.71 64.52 64.76 65.47 66.49 67.34 68.59 68.86 69.74 69.89 70.07 71.55 72.02 72.07 71.00 69.49 69.37 65.61 66.63 68.74 68.63 67.66 67.06 67.86 67.48 67.16 67.70 66.96 66.76 67.14 67.19 66.92 66.54 65.71
50.54 46.23 44.88 43.78 44.29 40.03 46.83 47.62 44.85 50.90 55.70 58.11 60.44 62.19 63.43 64.06 64.79 65.49 66.28 67.07 67.35 68.61 69.24 69.74 69.67 70.15 71.47 71.65 71.57 70.91 69.73 66.10 64.55 65.08 66.63 65.30 64.39 64.56 65.99 66.80 67.79 67.34 66.30 66.23 66.48 66.49 66.36 66.23 66.18
45.64 42.10 36.59 36.09 37.71 38.17 44.06 45.76 49.84 52.90 58.18 59.59 59.88 61.66 63.73 64.98 65.20 65.02 65.06 66.01 66.98 67.74 68.77 69.76 69.72 69.76 71.36 71.81 71.57 71.32 69.90 65.63 64.72 64.89 65.16 62.60 62.24 64.08 65.30 66.50 65.61 65.16 64.94 65.36 65.74 66.07 65.61 65.34 65.41
43.86 43.20 37.48 33.14 34.20 40.11 45.11 43.83 50.09 57.07 57.67 60.03 60.56 62.41 63.32 64.50 65.50 65.77 65.69 66.35 66.98 68.21 68.93 69.84 69.88 69.87 71.39 72.07 71.77 71.42 68.96 65.16 64.83 64.68 63.51 62.85 63.22 64.54 65.39 64.70 64.94 63.17 63.83 65.10 66.15 65.27 65.17 65.08 65.50
42.69 40.26 43.52 37.55 34.35 36.48 39.71 43.91 50.01 52.76 53.83 56.99 58.98 60.42 61.21 63.69 65.07 66.08 66.59 66.86 67.27 68.11 68.89 69.91 70.33 70.69 70.97 71.34 71.14 68.47 66.50 63.75 63.66 64.01 63.62 63.11 63.38 63.84 64.30 64.03 63.99 63.35 63.66 65.75 65.68 64.95 64.96 65.07 65.19
46.19 45.93 40.79 36.80 33.27 32.45 37.79 39.72 43.27 48.08 51.89 53.66 56.36 58.46 60.61 62.80 64.77 65.88 66.99 67.32 67.88 68.58 69.54 70.24 71.01 70.83 71.08 70.67 69.40 67.74 65.20 63.42 62.87 63.14 63.06 61.95 62.07 63.31 63.81 63.86 63.41 63.74 63.76 65.00 64.88 64.17 64.49 64.70 64.40
42.87 40.86 39.47 39.60 37.13 34.67 33.96 38.13 46.09 49.18 52.04 53.82 55.79 59.06 59.85 61.26 63.65 64.85 67.08 68.30 68.58 69.03 69.42 70.13 70.81 71.16 70.86 69.63 68.06 65.93 63.59 63.38 63.19 63.35 63.68 62.55 62.07 62.66 63.25 63.27 63.22 63.70 63.79 64.45 63.82 63.86 64.26 64.21 64.43
46.74 43.48 42.45 40.83 35.83 35.77 36.90 39.42 49.37 51.20 52.01 55.12 56.13 58.77 57.81 60.89 63.37 64.46 66.70 67.90 68.12 68.47 69.11 69.94 70.74 71.18 71.68 70.34 67.10 64.96 63.86 63.79 63.59 63.49 63.66 63.33 62.74 62.63 63.05 63.38 63.73 64.19 64.41 64.28 63.51 63.73 64.90 64.39 64.04

GFSSGP_sfc_wetblb_009.txt.gz
Wetbulb
77.30 76.88 75.19 72.45 61.87 60.38 55.77 57.14 61.96 60.69 61.34 65.57 65.31 63.09 62.09 63.49 60.48 58.09 70.83 73.05 73.78 74.03 75.11 75.88 76.99 76.57 76.38 76.34 76.07 76.74 76.71 77.27 77.85 78.39 78.01 77.29 76.70 76.91 77.07 77.37 77.47 77.13 76.81 76.73 76.67 76.34 76.23 75.96 75.77
74.92 74.60 73.18 68.09 58.08 53.47 55.29 59.74 59.90 61.81 64.67 66.83 66.48 65.50 63.63 61.26 66.64 67.70 69.94 73.62 74.38 74.79 75.18 75.35 76.55 76.97 76.39 76.74 76.79 76.52 77.36 77.25 78.07 78.46 77.74 77.42 77.21 77.11 76.95 77.09 76.78 76.64 76.81 76.73 76.32 75.99 75.77 75.74 75.52
74.62 73.10 69.42 61.73 56.69 53.42 55.25 59.68 62.36 64.59 66.47 65.43 64.48 67.06 64.75 63.51 67.39 68.98 72.62 74.13 74.94 75.19 75.84 76.30 76.49 76.75 76.67 76.70 76.87 77.02 77.82 77.41 77.45 77.51 77.66 77.56 77.44 77.42 77.18 76.76 76.40 76.62 76.51 76.21 75.72 75.64 75.55 75.38 75.49
72.10 70.44 67.47 56.74 54.85 58.10 59.33 61.91 64.58 64.82 66.16 66.81 65.81 62.59 67.34 70.00 68.86 71.55 73.78 74.51 74.64 75.21 75.82 76.80 77.38 77.58 77.29 77.00 77.16 77.44 78.21 77.65 78.29 77.78 77.70 77.59 77.47 76.74 76.52 76.22 76.19 76.18 75.91 75.61 75.33 75.38 75.49 75.71 75.55
70.27 65.88 57.91 56.06 57.08 60.95 62.56 64.60 65.88 64.01 64.97 65.07 65.62 62.31 64.03 70.23 72.52 73.00 73.78 74.34 74.19 75.12 76.36 77.00 77.56 77.64 77.45 77.62 77.76 78.47 78.30 77.74 78.26 77.80 77.55 77.50 77.13 76.77 76.44 76.46 76.27 75.94 75.55 75.25 75.36 75.64 75.72 75.91 75.96
64.36 62.98 56.91 54.75 57.69 61.35 63.03 65.48 65.73 65.15 65.55 65.47 64.30 63.46 65.39 72.05 71.14 72.63 73.98 74.22 74.90 75.22 76.19 76.88 77.46 77.65 77.93 77.96 78.02 78.45 78.41 77.72 78.09 77.70 77.65 77.37 77.02 76.71 76.46 75.99 75.61 75.30 75.27 75.52 75.91 76.16 76.29 76.20 76.19
62.58 60.08 56.32 56.84 58.81 59.92 61.78 66.27 64.97 64.91 64.61 64.20 66.79 63.00 67.30 69.63 71.44 73.14 73.75 74.94 75.38 75.66 76.01 77.09 77.64 78.06 78.13 78.99 77.93 78.17 78.17 77.98 77.75 77.78 77.60 77.39 77.37 76.96 76.43 75.94 75.77 75.72 75.57 75.94 76.53 76.05 75.85 75.98 75.88
64.61 61.95 56.90 58.13 58.42 58.69 64.02 65.32 67.25 65.73 64.31 68.84 68.45 62.83 63.80 69.63 71.96 73.30 73.76 74.44 75.23 75.75 76.33 76.96 77.47 77.84 78.18 77.71 77.99 77.77 77.89 77.81 77.63 77.34 77.29 77.40 77.26 76.99 76.72 76.98 76.04 76.27 76.38 76.55 76.63 75.94 75.55 75.77 75.37
65.38 59.89 56.47 56.87 59.12 60.83 65.31 63.70 67.52 68.99 66.59 67.03 68.04 67.72 68.89 71.78 72.33 71.84 72.19 73.14 74.24 75.08 76.46 76.92 76.77 77.73 78.35 77.81 77.58 77.35 77.38 77.28 77.26 77.16 76.94 77.06 77.66 77.22 76.33 74.92 75.64 75.85 75.69 75.77 76.18 75.47 75.75 75.55 74.67
62.08 59.79 58.42 61.17 62.76 62.56 64.71 65.16 66.08 65.76 65.34 65.25 66.56 69.51 70.87 71.69 70.71 69.68 69.90 70.69 72.30 73.25 75.07 76.61 77.28 77.22 77.47 76.10 77.84 78.03 76.92 76.64 76.80 77.38 77.56 77.15 77.37 77.99 76.22 74.53 75.02 74.69 74.58 75.49 75.75 75.55 75.19 74.82 75.49
61.99 58.83 61.13 61.69 62.80 65.38 64.85 64.79 67.53 64.89 62.91 65.48 65.76 68.04 69.93 70.55 70.17 69.72 69.93 70.77 71.45 73.47 74.62 76.06 76.86 77.62 77.42 77.79 77.52 78.34 77.37 77.40 76.95 77.56 77.38 78.00 77.33 77.33 76.79 76.48 75.82 75.73 75.44 76.89 76.17 76.10 75.85 75.43 75.18
57.93 61.19 61.84 62.17 63.90 64.64 64.13 66.62 64.94 65.37 64.19 68.03 69.11 69.87 69.95 69.63 69.68 69.64 69.87 70.74 71.59 72.90 74.24 75.36 76.72 77.25 77.56 77.74 76.58 77.15 76.03 76.59 75.98 76.54 77.88 77.93 77.52 75.96 76.14 75.89 76.46 77.33 76.85 76.40 76.00 75.75 75.77 75.05 74.44
56.44 57.26 60.74 63.00 64.32 64.97 66.13 64.88 64.57 64.85 66.72 69.30 69.81 69.91 69.44 69.68 70.05 71.04 71.67 71.84 72.57 72.50 74.34 75.53 76.41 77.05 77.45 77.25 76.46 76.34 76.86 75.81 76.22 76.81 76.94 76.50 77.24 75.93 76.02 75.72 76.27 76.94 76.66 76.43 76.18 76.19 75.22 74.53 73.66
56.96 58.72 60.38 62.88 63.84 64.51 63.71 63.96 65.00 65.54 68.62 68.25 68.75 68.84 69.54 69.83 70.52 71.47 71.80 71.58 72.29 72.98 73.94 75.70 76.43 77.30 77.55 77.00 77.54 77.13 76.97 77.68 76.78 76.93 76.64 77.18 76.44 78.26 76.80 75.52 76.19 76.13 76.51 76.14 76.05 75.33 74.39 73.42 73.52
61.83 59.26 61.21 61.53 62.96 62.62 65.05 61.45 62.19 66.27 68.40 67.10 67.62 68.48 69.15 70.03 71.22 71.26 72.01 71.95 73.19 73.58 73.94 74.34 75.50 76.96 77.16 77.51 78.20 77.43 77.24 76.87 76.13 76.37 77.39 77.35 77.35 77.02 77.27 76.95 76.38 76.38 76.14 75.49 75.08 74.63 74.78 73.36 73.09
59.42 59.98 56.42 60.44 62.44 63.35 63.12 57.20 63.60 67.30 67.27 66.07 66.73 67.67 68.39 69.46 70.70 72.04 72.94 73.16 74.37 74.30 74.06 74.43 74.59 75.41 76.50 76.86 77.37 76.74 77.02 76.84 76.83 78.70 78.81 77.37 77.67 77.84 77.76 77.64 76.84 76.15 75.73 75.05 74.64 74.06 73.25 73.25 72.26
57.43 55.03 56.10 57.55 62.58 62.31 61.52 58.47 63.79 67.15 66.97 66.11 66.59 67.35 68.15 69.01 70.74 72.33 73.25 74.00 74.54 74.93 75.19 75.05 76.00 76.16 77.02 77.58 77.58 78.02 77.74 77.39 78.12 77.11 77.08 77.39 77.02 77.27 77.67 77.37 76.55 75.58 74.93 75.54 74.88 73.95 73.10 71.00 70.58
54.14 55.22 56.41 56.91 59.81 61.79 60.09 59.74 63.66 65.78 66.34 66.13 66.99 67.62 68.26 68.91 70.43 72.62 73.54 74.07 74.68 75.19 75.69 76.05 75.88 77.00 77.85 78.27 77.89 78.31 77.59 77.66 78.07 76.61 76.64 77.04 76.94 76.49 76.55 76.11 75.55 75.28 75.09 74.69 74.16 73.58 73.38 71.52 71.12
57.34 57.34 56.51 58.56 60.73 60.01 59.62 59.87 62.27 64.84 65.44 65.60 66.86 67.67 68.13 68.83 71.11 72.52 73.39 73.90 74.28 74.81 75.00 75.53 75.68 76.70 77.12 76.10 75.78 75.87 74.97 76.34 76.19 77.65 77.14 76.74 76.38 76.44 76.51 76.20 75.62 75.16 73.93 74.13 73.82 73.22 71.43 71.14 72.37
57.52 56.71 56.79 58.11 60.42 60.21 59.09 58.86 62.39 64.37 64.49 65.52 66.10 66.97 67.64 68.92 70.16 71.34 72.47 72.93 73.21 74.01 74.42 75.29 75.97 76.73 77.23 76.38 76.71 76.58 76.32 76.41 76.40 76.92 76.96 76.89 76.27 76.57 76.03 75.62 74.45 74.27 73.01 73.16 72.47 72.30 70.63 70.93 72.38
55.81 55.98 56.61 56.39 58.31 59.63 59.28 57.24 59.36 63.50 65.25 65.61 66.20 67.15 67.78 67.95 68.56 69.78 70.76 71.82 72.68 72.95 73.81 74.81 76.26 77.02 77.23 77.55 76.91 76.34 76.59 76.58 75.74 75.77 75.71 76.17 76.35 76.25 76.00 75.09 74.33 73.96 72.75 70.49 72.46 71.76 70.81 69.13 71.07
51.40 56.93 57.97 57.08 56.05 52.50 58.91 50.47 57.65 61.11 62.47 64.03 65.15 65.87 66.56 67.28 68.62 69.30 70.04 70.75 72.05 72.57 73.74 74.88 75.84 76.82 77.00 77.58 76.27 76.04 74.50 73.81 74.78 74.97 75.47 75.82 76.42 75.66 75.40 75.02 73.43 73.13 71.72 72.28 72.26 72.12 72.08 71.36 68.37
53.27 56.19 55.61 56.68 55.88 54.50 55.05 52.38 55.78 59.94 59.67 62.47 64.64 65.76 66.55 67.55 67.99 68.56 69.51 70.64 71.91 72.84 72.90 73.87 75.69 76.60 76.95 77.16 77.31 75.75 75.38 75.28 75.25 74.24 74.85 76.32 75.91 75.63 74.30 73.28 72.51 72.11 71.75 72.54 71.63 71.93 71.35 71.12 69.65
54.17 53.54 53.26 54.86 54.23 48.07 52.77 53.15 52.49 57.07 59.60 61.96 64.53 65.58 66.57 67.31 68.21 69.12 70.35 70.82 71.15 72.45 72.67 73.40 74.98 75.98 76.12 76.23 76.58 76.20 75.73 75.57 73.79 72.74 71.98 73.12 73.99 73.27 72.64 71.74 72.01 72.73 72.32 71.69 70.68 71.23 70.54 70.67 70.47
53.54 51.83 46.50 45.90 45.99 45.54 52.32 52.91 54.31 59.09 61.82 63.06 63.71 64.92 66.23 67.34 67.81 68.55 69.20 69.62 70.66 71.55 72.25 72.91 74.46 74.86 74.59 75.26 75.68 75.90 75.98 76.11 74.80 73.80 71.99 72.10 72.19 71.36 70.67 71.30 71.35 71.43 72.12 71.09 70.96 70.65 70.50 70.00 69.21
51.26 51.68 47.79 42.46 43.69 46.44 50.72 49.32 53.73 60.75 62.24 63.56 65.18 65.84 66.44 66.84 67.77 68.32 69.23 70.47 70.75 71.35 72.11 72.68 74.00 74.65 74.37 74.66 76.11 76.41 76.61 75.60 74.80 74.06 72.22 71.78 71.94 71.31 71.25 71.02 71.32 71.84 70.53 69.90 70.58 69.84 69.82 70.08 68.96
50.73 48.60 53.71 50.02 46.48 46.65 49.91 53.44 55.83 59.11 59.67 61.14 62.86 64.68 65.42 66.64 67.95 68.43 69.67 70.22 71.25 71.81 72.74 73.50 74.10 74.66 74.43 74.50 76.02 75.78 76.23 75.64 74.57 73.64 72.35 71.97 72.30 70.34 70.78 70.85 70.89 70.08 68.54 69.54 70.68 68.73 69.39 69.78 69.69
51.85 53.28 47.51 48.37 44.41 42.37 46.72 48.15 50.05 56.80 58.75 61.30 61.51 63.51 65.37 67.17 68.14 68.92 70.24 70.61 71.80 72.09 73.06 73.69 74.36 74.60 74.88 74.66 75.53 75.41 75.67 75.38 75.23 73.44 70.95 70.97 71.06 70.46 70.43 70.40 69.88 69.10 68.70 69.03 69.98 68.96 69.28 69.00 68.47
48.99 48.51 49.15 50.94 48.88 45.83 43.96 47.40 56.78 58.99 61.95 61.34 61.93 63.65 65.30 66.66 68.21 69.47 70.51 71.14 71.96 72.42 72.79 73.24 73.44 74.47 74.33 74.72 75.72 75.68 74.96 74.11 74.40 72.57 69.57 69.05 70.31 69.94 69.94 69.78 69.02 68.87 68.51 68.95 69.13 69.15 68.76 68.13 68.61
51.47 50.45 51.17 47.36 46.76 47.75 48.02 48.32 56.80 58.26 60.35 61.43 62.54 63.19 65.05 67.45 68.51 69.22 70.07 70.82 71.15 71.74 72.18 72.62 73.18 73.34 74.85 75.60 75.54 74.57 74.25 73.65 70.83 71.74 69.22 70.65 66.23 69.47 69.29 69.27 68.98 68.84 68.69 69.11 69.09 68.35 67.50 67.81 67.87

GFSSGP_sfc_wetblb_012.txt.gz
Wetbulb
77.71 78.29 78.65 75.50 65.30 62.06 56.62 59.27 63.93 62.71 63.16 66.95 66.02 64.31 64.43 66.32 63.33 61.06 73.63 74.71 75.15 75.41 76.25 76.48 76.31 76.22 75.90 76.14 76.47 76.85 77.44 77.05 77.87 77.63 76.96 76.81 77.07 77.25 77.72 77.53 77.05 77.08 76.94 77.00 76.59 76.12 75.95 76.01 75.70
78.73 77.13 75.84 71.32 60.28 54.86 58.03 62.29 61.68 64.42 66.31 67.91 67.59 66.45 65.41 63.66 69.13 70.44 72.07 74.81 75.32 75.38 76.05 76.33 76.62 76.44 76.05 76.17 76.59 77.09 76.63 76.66 77.32 77.06 76.64 76.66 76.91 77.05 77.19 76.92 76.70 76.83 76.87 76.40 76.15 76.07 75.90 75.68 75.79
76.60 75.93 70.02 62.63 58.36 56.24 57.88 62.64 64.39 65.95 67.14 66.43 66.13 68.59 66.65 65.78 69.95 71.33 74.65 75.58 75.68 75.78 76.03 76.71 76.59 76.72 76.80 76.57 76.76 77.25 76.99 77.23 77.36 76.90 76.64 76.78 76.84 77.19 76.87 76.59 76.62 76.53 76.26 76.01 75.71 75.68 75.65 75.95 76.01
73.79 72.84 70.68 57.80 55.32 59.31 61.37 64.64 66.49 66.09 67.03 67.46 67.15 64.63 68.96 71.53 70.91 73.59 75.50 76.04 75.72 76.13 76.08 75.95 76.51 76.84 76.89 76.81 77.08 77.30 77.34 77.41 77.31 76.88 76.98 77.25 77.22 76.79 76.46 76.54 76.57 76.18 75.84 75.71 75.51 75.62 75.73 75.96 75.84
74.14 69.49 59.95 56.81 57.78 60.57 63.76 66.32 67.26 65.56 66.07 66.25 66.82 64.19 66.64 71.55 73.96 74.95 75.69 75.93 75.65 76.03 76.13 76.47 77.30 77.37 77.33 77.37 77.45 77.71 77.23 77.34 77.42 77.34 77.47 77.58 76.98 76.65 76.43 76.54 76.21 75.76 75.34 75.37 75.48 75.93 76.09 76.20 76.11
67.77 66.59 58.31 55.39 57.95 61.10 64.08 66.83 67.06 66.16 67.13 66.81 65.87 66.14 67.91 72.69 73.34 74.72 75.95 76.11 76.49 76.12 76.93 77.77 77.67 77.73 77.63 77.71 77.83 78.14 77.42 77.61 77.60 77.46 77.28 77.09 76.84 76.59 76.46 76.04 75.53 75.33 75.21 75.30 76.23 76.15 76.15 75.98 76.03
65.24 62.37 57.78 58.57 58.45 59.94 62.52 66.97 65.69 66.31 66.59 65.88 67.94 65.36 69.12 70.80 74.06 75.23 75.63 76.14 76.37 76.86 77.25 77.72 78.05 78.64 78.10 77.89 78.32 78.02 77.61 77.57 77.25 77.25 77.14 77.01 76.76 76.51 76.09 75.87 75.57 75.61 75.61 76.37 76.59 75.70 75.46 75.43 75.15
67.37 63.83 58.40 59.78 58.71 58.99 63.70 65.83 67.57 66.55 66.13 70.04 68.93 64.66 66.17 70.46 73.69 74.67 75.41 75.63 75.98 76.50 77.11 76.75 77.79 78.01 78.23 78.26 78.15 78.06 77.66 77.03 76.87 77.23 76.98 76.98 76.87 76.54 76.37 76.37 75.79 75.62 75.93 75.87 76.29 75.20 75.18 75.23 75.26
68.34 61.43 58.66 58.91 59.60 62.11 65.56 64.28 67.78 69.30 67.97 68.30 69.16 68.39 70.57 72.02 73.58 73.43 73.91 74.57 75.10 75.54 75.67 77.52 77.41 78.20 78.45 77.31 77.36 77.46 77.36 77.47 76.98 77.15 77.10 77.03 77.11 78.13 76.62 75.90 75.12 75.62 75.37 75.39 75.62 75.04 75.52 75.02 74.92
63.79 61.20 59.54 62.00 62.59 63.86 64.85 64.98 66.87 66.49 66.67 66.71 68.25 70.34 71.47 71.65 72.40 71.95 72.26 72.76 74.20 74.88 75.71 76.70 77.53 77.62 77.28 76.52 78.01 78.07 77.26 76.63 76.52 76.59 77.10 76.25 78.01 78.35 76.69 76.14 74.54 74.65 74.89 75.20 75.26 75.01 75.43 76.15 76.68
61.58 60.27 62.79 62.75 63.02 65.78 65.45 65.19 67.72 65.05 64.49 66.62 67.20 69.21 70.60 71.04 71.48 71.77 72.36 73.24 73.71 74.95 75.75 76.36 76.81 77.80 77.21 77.05 77.17 76.88 76.70 76.69 76.89 77.97 77.24 77.01 77.61 78.26 77.96 78.17 77.46 77.18 75.24 77.23 76.91 76.86 76.95 76.23 76.07
58.31 60.53 61.28 62.37 64.18 65.51 65.00 66.94 65.62 65.44 64.90 68.55 69.80 71.02 70.96 70.67 70.56 71.24 71.85 72.95 73.56 74.61 75.28 76.14 76.89 77.17 77.36 77.45 76.84 77.04 76.35 76.51 75.99 76.18 77.78 77.50 76.07 77.22 77.15 77.21 78.09 77.38 78.27 77.02 77.49 77.13 76.79 76.22 76.04
57.75 58.91 59.92 61.66 63.65 65.44 66.95 65.63 65.43 65.74 67.75 69.80 70.63 70.91 70.44 70.76 70.91 71.91 72.48 73.10 73.74 74.01 75.13 75.91 77.17 77.74 78.06 77.89 76.76 76.66 76.39 75.89 75.94 76.21 77.11 76.65 76.32 77.02 76.29 77.27 77.36 76.63 77.63 77.56 76.32 76.83 76.45 76.03 75.16
59.41 59.31 59.96 61.62 63.98 65.81 65.13 65.83 66.47 66.60 68.72 69.47 70.02 70.35 70.64 70.74 71.17 71.90 72.19 72.55 73.24 74.10 75.02 76.36 76.79 77.87 77.96 77.54 77.78 76.75 76.78 76.47 76.63 76.21 76.48 77.69 76.64 78.19 76.45 76.40 75.99 76.28 76.95 77.44 76.90 76.42 75.69 75.39 75.28
60.02 59.12 61.95 62.87 65.21 64.70 66.27 63.63 64.11 67.64 69.05 69.23 69.49 70.21 70.44 70.88 71.85 71.94 72.78 72.95 73.87 74.49 75.32 76.24 77.03 77.64 78.04 78.06 78.04 77.69 77.03 76.78 76.31 76.15 77.94 78.33 78.81 77.53 76.98 76.86 75.61 75.94 77.75 77.25 76.88 76.42 75.86 74.54 74.69
59.06 59.79 57.62 62.89 64.69 65.25 65.25 59.47 65.17 68.74 68.30 68.23 68.81 69.62 69.81 70.65 71.54 72.87 73.54 74.02 74.77 75.06 75.00 76.01 76.36 77.07 77.78 77.94 77.97 77.41 77.00 77.11 79.46 77.16 77.60 77.50 78.14 77.90 77.49 75.94 75.93 76.15 76.34 76.46 75.46 75.56 74.25 73.49 72.14
58.41 55.23 56.91 60.32 64.72 64.17 64.04 59.93 65.33 68.67 68.37 68.07 68.31 68.65 69.31 70.26 71.66 73.21 73.81 74.14 74.68 75.56 76.01 75.80 76.21 76.08 77.11 78.20 78.20 78.03 78.71 78.90 77.75 78.16 77.90 77.78 77.98 77.77 77.10 76.22 76.85 76.93 76.69 75.84 75.68 74.29 73.76 70.52 69.76
54.66 55.23 57.06 57.60 62.56 63.86 62.41 61.68 64.77 67.78 67.67 67.72 68.58 68.55 68.77 69.40 70.64 72.87 73.89 74.96 75.42 76.06 76.71 76.67 76.30 77.14 78.03 80.30 79.25 78.38 77.28 77.03 77.13 79.41 79.64 78.43 77.90 77.38 76.86 76.52 76.28 76.15 76.11 75.34 74.70 73.39 72.66 70.93 69.84
57.42 57.05 56.73 59.02 63.32 62.40 61.26 61.26 64.10 67.17 67.45 67.27 68.44 68.73 68.65 68.85 71.23 73.01 74.15 74.85 75.17 76.13 76.54 77.10 77.16 77.95 78.83 75.91 75.19 75.50 75.05 75.92 76.45 77.14 77.96 78.20 77.88 77.73 77.61 76.26 76.08 76.22 74.98 74.64 74.33 71.95 70.37 68.53 71.79
56.80 56.15 56.48 59.55 62.82 62.37 61.20 60.94 63.39 65.80 67.02 67.62 68.03 68.87 69.53 69.55 70.32 72.20 73.74 74.40 74.62 75.55 76.52 77.25 77.58 78.25 78.46 76.84 78.91 77.06 76.73 76.18 76.81 77.44 77.80 78.06 77.87 77.96 77.22 76.89 76.10 76.05 74.51 74.09 72.48 71.51 69.25 69.87 71.96
56.56 55.76 56.52 58.14 61.31 62.58 60.87 59.63 61.60 63.99 66.67 67.92 68.60 69.21 70.36 70.04 69.96 71.14 72.25 73.43 74.46 74.79 76.20 77.04 78.00 78.47 78.75 78.84 78.17 77.94 77.80 77.99 76.16 76.37 76.57 77.56 78.09 78.02 77.67 77.21 75.99 75.34 73.01 69.91 71.84 71.66 70.37 68.16 71.30
53.89 57.55 57.67 58.14 58.28 54.98 61.12 53.32 58.89 61.97 63.76 66.06 67.67 68.24 68.45 70.27 71.13 71.67 71.99 72.75 73.76 74.62 76.15 77.31 78.08 78.62 78.91 79.49 79.17 78.33 75.40 73.57 73.93 74.76 75.13 75.71 77.02 77.01 76.63 76.54 75.58 73.39 71.43 72.11 71.95 72.00 71.42 70.80 68.76
54.68 58.21 57.74 57.65 57.66 57.27 57.83 55.76 57.50 61.02 61.01 63.95 66.81 68.24 68.52 68.81 70.31 71.03 71.84 72.48 73.91 74.82 75.47 76.80 78.05 78.49 79.12 79.27 79.68 77.35 77.12 75.12 74.95 74.72 75.27 76.15 76.67 76.21 75.18 76.02 73.78 72.67 71.34 72.70 73.17 71.94 71.49 70.83 68.55
57.05 56.69 57.44 57.61 56.33 51.95 56.22 55.75 54.91 57.70 61.12 62.40 65.75 67.84 68.82 68.18 69.09 70.45 71.85 72.72 73.30 74.56 75.11 75.81 77.52 78.91 78.91 78.80 78.89 78.55 77.49 76.37 74.33 74.99 73.67 73.04 73.68 74.79 75.58 75.61 73.54 73.19 72.29 72.50 72.29 71.85 71.22 70.92 70.54
55.50 54.81 50.35 49.39 49.66 49.51 56.64 54.89 56.22 59.04 60.96 62.34 62.52 66.45 68.91 68.78 68.78 69.31 70.37 71.46 72.70 73.50 74.32 75.14 76.69 77.60 78.09 78.26 78.04 78.30 78.22 77.82 76.87 76.28 74.01 73.59 72.03 72.18 74.25 75.43 72.90 71.83 73.51 73.14 72.41 71.58 71.00 70.83 69.79
53.16 54.49 50.62 45.99 47.20 49.75 55.83 51.98 55.31 61.11 62.23 62.62 64.33 65.51 68.57 68.81 68.51 69.21 70.50 71.36 72.50 73.10 74.17 75.01 75.85 77.34 77.54 77.46 77.82 79.17 78.83 77.33 76.73 77.05 73.87 72.62 71.54 71.88 74.02 74.48 72.74 72.44 72.80 72.83 71.48 70.19 69.97 70.71 69.71
52.87 52.18 56.50 52.75 53.56 50.49 52.58 55.64 58.65 60.45 61.08 62.58 63.05 65.43 67.04 68.77 68.22 68.97 70.43 71.52 72.45 73.30 74.86 76.12 77.51 76.86 77.08 77.04 77.84 78.55 78.50 78.10 77.31 77.75 76.64 74.26 74.63 72.24 73.79 73.28 72.42 72.03 72.73 71.45 71.34 69.54 70.28 70.38 70.33
54.06 56.37 51.30 52.91 48.00 46.32 50.16 52.33 53.47 57.75 58.37 60.24 62.95 64.58 66.73 68.77 69.30 68.69 70.28 71.41 72.59 73.73 74.36 75.40 76.11 76.73 76.89 76.89 77.01 77.26 77.59 78.11 78.15 77.80 76.48 75.99 74.29 73.92 73.32 72.81 71.33 71.91 71.64 70.84 71.25 70.15 70.50 70.15 68.43
51.35 51.79 53.66 54.16 52.41 48.24 47.53 50.48 58.30 58.27 59.83 59.72 61.33 64.97 65.97 68.36 69.52 69.92 70.05 71.45 72.87 73.51 74.01 74.79 75.43 76.21 76.28 76.66 77.74 77.50 77.17 77.44 77.85 77.58 77.06 76.06 74.91 74.00 73.03 72.60 71.33 71.48 70.25 70.58 70.73 70.29 69.22 69.03 69.14
53.61 52.76 54.24 50.03 50.48 52.28 51.18 51.12 59.26 60.16 60.00 60.50 60.98 62.11 64.94 68.02 69.99 70.85 71.39 71.76 72.19 73.23 73.63 74.11 74.84 75.24 75.95 77.83 78.18 77.03 77.58 77.56 77.06 77.71 76.84 76.42 74.44 73.33 73.13 72.31 71.55 70.59 70.24 70.18 70.13 68.90 68.21 67.95 67.57

GFSSGP_sfc_wetblb_015.txt.gz
Wetbulb
77.07 77.37 77.21 73.59 61.81 60.05 58.26 60.09 63.37 62.32 63.08 67.08 67.21 65.44 64.52 64.93 62.19 60.00 70.74 73.88 75.54 74.91 75.82 75.95 76.42 76.41 76.55 76.65 77.12 77.16 77.00 77.54 77.54 77.77 77.92 77.34 77.64 77.87 77.58 77.23 77.26 77.21 77.07 76.60 76.44 76.27 76.13 76.22 75.99
78.57 78.07 76.77 72.42 60.62 54.28 56.45 62.38 61.06 64.03 66.99 68.31 67.90 67.16 65.28 64.80 69.56 70.12 71.23 74.19 74.62 74.85 75.69 75.77 76.78 76.70 76.70 76.38 76.56 77.22 76.62 76.76 76.84 77.33 77.01 76.87 77.21 77.46 77.10 76.77 76.96 76.91 76.72 76.49 76.13 75.96 76.05 76.13 75.94
79.20 78.06 71.11 65.80 58.19 54.78 56.83 62.37 64.51 66.15 67.83 67.03 66.63 68.69 67.88 65.51 70.40 70.72 74.20 74.19 74.38 74.21 75.28 76.40 76.74 76.47 76.50 76.92 76.82 77.39 77.00 76.85 76.70 76.70 76.82 76.80 77.10 77.16 76.69 76.55 76.55 76.52 76.24 75.88 75.93 76.10 76.10 76.22 76.10
76.03 73.62 70.96 58.87 56.89 61.18 61.95 64.13 65.89 65.73 67.26 67.97 68.28 65.70 69.94 72.67 71.27 73.83 75.01 74.83 73.94 74.08 75.31 76.60 76.93 76.67 76.90 76.97 77.49 77.30 77.27 77.24 76.60 76.55 76.69 77.21 77.19 76.71 76.52 76.58 76.30 76.13 75.96 76.02 76.10 76.27 76.24 76.27 76.13
74.34 70.88 62.79 56.52 56.65 61.12 64.99 66.30 66.54 64.73 66.24 66.52 68.10 65.96 67.46 72.15 74.80 75.34 74.80 74.51 73.94 75.77 76.22 76.04 77.40 77.09 77.12 77.13 77.60 77.66 77.51 77.19 76.79 76.66 77.13 77.02 76.86 76.43 76.66 76.18 75.75 75.59 75.68 76.07 76.49 76.41 76.49 76.10 75.88
68.49 66.79 58.20 55.67 56.68 60.46 64.77 66.81 66.18 65.76 66.97 66.67 67.21 67.07 68.90 73.94 73.95 74.44 74.88 75.16 75.32 75.94 75.80 76.37 77.28 77.33 77.37 77.48 77.65 77.25 77.17 77.09 77.12 77.10 77.07 76.74 76.60 76.35 76.15 75.43 75.41 75.43 75.41 75.86 76.54 75.84 75.77 75.80 75.44
66.82 62.36 58.14 57.92 57.95 58.79 61.85 66.57 65.09 65.57 66.13 66.03 69.23 66.34 69.67 72.36 74.73 75.83 75.59 76.03 75.41 76.28 75.76 77.25 77.42 77.98 77.89 77.83 77.52 77.39 77.53 77.45 77.12 77.07 77.02 76.63 76.63 76.13 75.82 75.56 75.12 75.43 75.80 76.57 76.23 75.59 75.40 75.38 74.80
68.35 62.21 58.72 60.20 57.64 57.81 62.65 64.42 65.89 65.81 66.08 69.63 70.35 66.13 67.02 72.48 74.95 75.33 76.10 74.75 74.99 75.36 76.44 76.93 77.40 77.45 77.67 77.87 77.70 77.40 77.36 76.93 76.55 77.00 76.69 76.63 76.97 76.96 76.29 76.19 75.66 75.31 75.36 75.27 75.68 75.03 75.07 74.91 75.08
68.64 60.04 58.58 58.44 60.52 59.99 63.28 62.59 65.95 68.79 67.25 67.50 68.52 69.99 71.76 73.86 74.45 73.82 73.79 74.27 73.58 74.62 75.97 75.85 76.34 76.73 78.36 78.02 78.40 77.77 77.27 76.66 76.47 76.84 77.08 76.95 76.32 76.33 77.57 76.85 75.53 74.92 75.19 74.86 75.31 74.92 75.88 75.55 75.77
64.78 56.69 59.54 62.27 63.67 62.30 63.17 62.76 64.53 65.02 65.60 66.50 67.61 71.18 72.37 73.08 73.03 72.34 72.25 72.54 73.48 73.74 74.74 76.09 75.80 76.63 76.75 75.74 77.44 77.07 76.24 76.07 76.28 76.37 77.33 76.10 77.97 78.08 76.67 76.56 75.73 75.19 75.56 75.78 76.01 76.27 76.49 76.69 75.70
62.50 60.01 62.79 62.66 63.30 65.04 63.89 63.28 65.18 64.33 63.16 66.31 66.77 68.95 70.85 71.69 72.29 72.25 72.49 72.99 73.31 74.54 75.63 76.23 76.01 76.98 76.57 77.82 76.34 76.65 76.66 76.53 76.44 77.59 77.39 76.93 77.24 76.51 77.06 75.16 76.33 77.21 76.27 75.46 76.33 75.49 76.41 75.96 75.53
59.20 62.11 61.45 62.27 64.26 64.01 63.55 65.41 63.15 63.39 64.93 67.80 69.56 70.52 70.67 71.08 71.51 72.03 72.16 72.98 73.91 74.73 75.15 75.64 77.01 77.25 76.97 76.27 76.25 76.22 75.68 75.78 75.63 76.69 77.98 77.62 76.49 76.88 77.32 76.26 76.02 77.44 76.29 76.08 76.74 76.25 77.32 75.77 75.83
59.29 61.18 61.18 61.67 63.52 63.98 65.62 64.23 63.57 63.06 65.98 68.61 70.17 70.34 70.26 70.85 71.76 72.62 72.96 73.49 74.15 73.90 74.87 75.42 76.60 77.70 77.90 78.26 76.37 76.40 76.00 75.54 75.76 76.13 77.62 77.01 76.04 77.96 76.73 76.79 76.52 77.06 76.90 75.04 76.42 76.10 76.09 76.40 75.43
61.10 60.60 60.69 61.76 62.80 64.18 63.70 64.10 64.93 64.57 67.29 68.17 69.67 69.69 70.22 70.57 71.24 72.14 72.41 72.71 73.68 74.43 74.96 75.85 76.66 77.79 78.13 78.41 79.02 77.22 77.79 76.84 75.94 77.80 76.70 77.82 76.91 78.42 78.45 77.71 75.77 75.84 77.26 76.52 76.13 76.53 75.39 75.58 75.44
60.92 58.71 61.48 61.25 62.67 62.98 64.65 62.03 62.55 65.71 68.03 67.77 68.77 69.44 69.64 70.37 71.30 71.61 72.45 72.71 73.72 74.76 75.70 75.96 76.54 77.46 77.82 78.06 78.09 77.33 76.54 76.23 76.18 75.99 77.95 78.48 78.28 77.84 78.32 76.60 76.05 76.85 77.84 77.60 76.82 75.91 76.09 75.11 74.73
58.31 59.35 57.29 60.93 62.30 63.82 64.10 59.12 63.60 66.99 66.84 66.87 67.80 69.04 69.21 70.13 70.79 72.28 72.83 73.36 74.13 74.93 75.26 76.30 76.25 76.61 77.52 78.43 78.25 77.33 76.60 76.50 76.48 76.49 76.76 78.19 78.72 78.62 78.24 76.27 75.96 77.30 77.11 76.52 76.99 75.21 74.23 73.28 71.30
58.04 54.64 56.58 58.41 62.61 63.76 63.00 57.27 64.41 67.13 66.36 65.88 67.47 68.13 68.97 69.74 71.09 72.37 73.05 73.69 74.10 75.12 75.69 76.07 76.89 76.68 77.45 79.37 78.43 78.33 79.50 78.32 77.53 78.16 76.44 77.64 78.41 78.60 77.72 76.55 76.97 77.55 76.05 77.05 75.48 74.77 73.61 70.72 69.86
54.95 55.54 57.17 58.73 60.74 63.30 61.38 61.18 64.77 66.82 66.19 65.45 66.68 67.52 68.38 69.00 70.27 72.26 73.22 73.98 74.67 75.29 76.15 76.42 76.56 78.09 79.06 80.92 79.44 78.76 76.89 77.56 77.45 76.86 78.25 78.66 78.05 78.13 78.16 76.53 76.82 76.71 77.24 75.88 75.73 73.60 72.49 70.95 70.14
57.84 57.52 55.94 59.44 61.35 61.33 61.15 61.45 63.56 66.66 66.72 65.88 66.51 66.90 67.61 68.40 71.07 72.39 73.47 74.07 74.35 75.20 75.96 76.70 77.55 80.01 78.09 76.28 76.82 75.37 75.23 75.87 76.26 76.41 78.39 78.76 78.04 78.40 77.80 76.80 76.44 76.68 75.50 75.03 74.07 72.25 71.18 68.98 71.49
56.90 56.75 56.92 59.48 60.27 61.30 60.88 60.86 63.91 66.24 66.33 67.14 67.14 67.17 67.57 68.32 69.47 71.15 72.80 73.51 74.22 74.67 76.41 78.22 78.64 80.28 79.40 77.30 77.85 76.78 76.35 75.90 75.96 76.10 78.57 78.15 78.16 78.68 77.19 78.06 76.58 77.24 74.71 74.80 73.18 71.80 69.04 68.78 71.35
56.34 55.95 56.85 57.20 61.35 62.24 60.66 58.71 61.26 64.14 66.95 67.63 67.82 68.82 68.84 68.41 68.05 70.16 71.54 73.03 74.00 74.71 76.21 78.44 79.92 80.53 80.16 80.11 78.93 78.48 79.77 77.47 75.91 75.41 76.56 77.36 77.74 77.74 77.91 77.41 77.10 76.63 74.64 70.75 72.44 71.73 70.61 67.97 70.08
54.01 57.82 57.70 57.54 56.78 55.55 60.04 53.45 60.14 61.73 63.19 65.88 67.56 68.10 68.77 68.84 69.26 69.75 71.45 72.62 73.44 74.79 76.31 79.01 80.07 80.71 80.33 80.84 78.61 79.20 75.56 73.45 73.43 74.73 75.02 76.40 76.97 76.59 77.62 77.26 75.84 75.42 72.73 74.95 72.48 71.39 71.37 70.64 68.31
54.81 58.49 57.89 57.71 57.76 58.10 56.83 54.58 57.59 61.31 60.77 62.92 66.12 68.04 68.91 69.19 69.67 69.45 70.88 72.42 73.63 74.69 75.32 77.52 80.35 80.83 81.12 81.20 79.71 77.30 77.12 74.58 74.74 74.21 77.63 78.27 78.09 76.24 75.26 75.70 75.74 74.09 70.98 73.46 73.09 71.73 71.88 71.14 68.85
57.07 56.73 57.71 57.46 56.37 52.03 56.99 55.05 56.68 58.21 60.95 62.76 64.71 67.31 69.18 69.83 69.46 70.85 71.65 72.70 73.08 74.40 75.23 77.03 79.84 80.87 81.12 81.27 80.50 80.39 79.93 77.40 75.00 75.69 74.38 73.29 73.69 74.49 75.46 75.22 75.08 73.85 73.37 73.19 72.28 72.30 71.66 71.41 71.16
55.19 53.86 50.27 50.02 49.89 49.62 57.23 55.51 58.13 61.39 62.40 63.06 63.11 65.28 68.16 70.29 69.85 69.61 71.25 71.36 73.30 74.50 75.80 77.19 79.19 80.02 80.81 79.71 79.72 79.68 80.01 80.03 78.53 77.48 74.22 75.43 72.63 73.11 76.48 76.27 74.88 72.32 73.81 73.56 73.09 72.65 72.12 71.13 70.21
52.68 53.26 50.11 46.65 48.29 50.62 56.19 53.09 56.41 62.90 63.36 63.30 63.82 64.13 66.32 69.11 70.32 69.10 70.18 72.00 73.62 73.99 76.54 77.20 78.25 79.60 80.44 79.90 80.39 80.81 81.04 77.24 76.45 77.71 75.29 73.06 72.72 73.88 78.10 75.41 74.49 72.90 73.30 73.13 73.38 70.89 70.24 72.08 69.80
51.98 50.77 55.68 52.67 54.33 51.60 53.70 56.47 59.97 62.15 62.44 62.70 62.79 63.14 63.91 68.20 69.85 69.63 69.89 70.72 72.75 73.90 75.94 76.95 78.44 79.37 80.01 78.17 80.63 80.62 80.53 80.07 77.22 78.81 78.71 75.52 76.43 73.69 74.71 75.36 73.75 72.74 72.90 73.07 73.19 69.96 71.35 71.22 71.09
52.40 54.96 50.89 53.95 49.21 48.45 51.42 53.44 54.34 59.04 60.25 61.64 62.00 62.29 63.87 67.27 69.77 69.93 69.78 70.55 72.68 73.13 75.01 77.07 78.26 78.95 78.82 79.31 79.65 79.31 79.89 80.74 80.40 80.68 79.82 77.79 77.51 76.74 76.57 74.69 73.59 72.99 72.72 72.57 72.62 71.87 71.73 71.08 69.78
50.88 50.67 53.48 53.96 53.37 49.30 48.76 52.51 59.69 60.76 61.69 61.14 62.05 62.72 63.63 66.02 69.19 70.04 69.96 70.66 72.02 72.68 73.90 75.12 76.34 78.04 78.35 78.88 79.12 79.19 78.81 79.38 80.28 79.88 79.53 79.34 76.77 77.41 76.00 75.47 73.32 72.32 72.40 71.53 71.50 71.60 70.87 70.45 70.79
53.82 51.87 52.44 51.50 51.72 52.92 52.96 52.58 60.11 60.93 61.42 61.63 62.12 62.93 64.43 65.86 68.66 70.29 70.44 70.72 71.27 72.25 72.32 73.45 74.78 74.66 77.01 78.17 79.18 78.97 79.55 79.28 78.91 79.55 79.88 79.88 78.11 77.26 76.21 75.18 73.61 73.02 71.41 71.89 70.79 70.15 69.78 68.84 68.36

GFSSGP_sfc_wetblb_018.txt.gz
Wetbulb
75.98 75.96 76.23 69.24 60.80 58.59 55.55 58.99 63.18 62.39 62.55 66.34 66.55 63.85 62.76 65.29 61.81 58.61 70.82 73.20 73.94 73.50 74.72 75.00 76.56 76.69 76.47 77.16 77.87 78.22 78.50 78.63 78.62 78.66 78.73 78.70 78.80 78.64 78.34 78.14 77.96 77.53 77.16 76.64 76.53 76.47 76.52 76.22 76.08
76.11 75.65 73.06 63.69 57.36 53.01 55.43 62.01 59.34 61.76 65.60 67.42 66.93 66.51 64.69 63.01 67.73 68.36 70.57 73.58 74.18 73.96 74.24 74.78 76.93 77.11 76.90 77.49 77.88 77.87 78.01 78.09 78.36 78.28 78.09 78.65 78.49 78.23 77.72 77.10 76.91 76.74 76.61 76.39 76.22 76.44 76.42 76.47 76.22
76.24 75.58 68.28 65.02 59.32 53.09 56.83 62.01 63.85 65.90 67.57 66.97 66.07 67.66 66.77 65.03 69.64 70.31 72.96 74.07 73.64 73.47 74.91 75.36 77.06 77.53 77.47 77.67 77.93 77.99 77.85 77.84 78.13 78.20 78.10 78.51 78.28 77.82 77.00 76.78 76.53 76.25 76.22 76.19 76.30 76.47 76.33 76.14 76.25
75.55 72.27 71.19 61.76 57.12 60.32 60.83 63.09 65.27 64.72 67.27 67.94 67.67 64.36 69.14 71.54 70.67 72.31 73.83 73.63 73.75 74.76 74.66 76.75 77.32 77.27 77.95 77.76 77.81 77.80 78.10 77.68 77.87 77.89 78.28 78.03 77.53 76.83 76.92 76.53 75.88 75.66 76.05 76.39 76.81 76.72 76.39 76.25 76.00
75.67 68.32 60.81 59.66 57.97 62.36 64.25 65.27 65.79 64.00 65.49 66.59 67.45 64.80 66.38 71.06 73.19 73.44 73.26 73.63 73.60 73.99 74.61 75.63 77.81 77.91 77.91 78.05 78.04 77.93 77.43 77.09 77.58 77.76 77.63 77.42 77.03 76.64 76.69 75.78 75.53 75.59 75.85 76.47 76.80 76.22 76.25 75.80 75.44
66.49 67.89 59.38 54.50 56.29 61.63 64.24 67.00 65.32 64.58 65.82 66.49 66.16 65.62 66.64 72.91 72.28 73.45 73.89 73.63 74.00 73.75 74.06 75.13 77.45 78.00 77.92 78.13 78.21 78.16 77.47 77.18 77.40 77.27 77.36 77.00 76.66 76.32 76.18 75.30 75.29 75.37 75.69 76.55 76.72 76.02 75.86 75.44 74.63
63.02 62.23 59.02 57.67 56.48 58.91 62.19 66.81 65.10 64.60 64.93 65.64 68.98 64.47 68.04 70.66 73.41 74.14 74.08 74.96 74.40 74.48 75.12 75.52 76.05 77.08 77.66 78.40 77.78 77.83 77.50 77.40 77.32 77.02 76.92 76.61 76.53 76.32 75.98 75.45 75.22 75.23 76.14 76.18 76.27 75.48 75.26 75.07 74.54
64.33 62.13 59.90 59.27 56.27 56.74 62.09 64.15 65.72 65.08 64.84 69.35 69.66 64.29 65.20 70.70 74.05 74.65 74.59 74.36 74.09 74.75 75.13 75.94 76.50 75.94 76.61 76.67 77.53 77.42 77.29 77.02 76.58 76.55 76.58 76.47 76.69 76.83 76.62 77.22 76.13 75.33 75.12 75.24 75.53 75.28 74.97 74.98 75.57
67.05 59.93 58.18 57.87 58.60 58.37 62.75 61.16 66.29 68.33 66.12 67.36 69.02 68.39 70.79 72.47 74.59 72.76 73.31 73.17 74.20 74.34 74.90 75.64 75.55 76.92 77.56 77.14 76.60 77.40 77.10 76.53 76.11 76.44 77.03 77.41 75.67 76.82 77.04 77.50 76.86 75.75 75.78 74.89 75.64 76.26 76.94 76.64 76.97
62.48 57.99 58.19 62.08 63.07 60.72 62.31 62.10 63.11 63.72 64.10 65.24 68.03 70.44 71.41 71.95 72.98 71.61 71.43 71.20 70.60 72.71 73.50 74.12 75.43 76.26 76.69 75.62 77.58 77.61 76.27 75.01 75.31 76.07 77.17 76.36 74.42 76.97 76.73 76.67 76.28 76.07 76.21 75.09 76.94 77.69 77.39 76.92 75.76
62.69 56.98 61.58 63.13 64.06 63.92 62.51 62.18 63.33 63.32 61.97 65.06 66.55 68.77 70.23 70.68 70.64 71.47 71.35 71.64 72.42 72.72 73.24 74.42 76.32 76.57 76.19 76.49 76.19 75.81 75.62 75.75 76.17 78.20 76.79 78.57 75.19 74.10 75.40 76.30 74.69 75.81 76.42 75.09 75.43 76.52 74.78 76.81 75.56
60.33 62.87 63.00 63.31 64.60 64.54 62.31 63.32 61.88 63.81 63.60 67.49 69.79 70.69 70.52 69.82 69.92 70.06 70.74 71.37 72.93 73.45 74.01 75.27 76.44 75.94 77.39 75.59 75.06 75.99 76.01 76.32 75.97 77.11 79.20 79.72 77.90 77.76 74.65 77.56 75.21 75.81 76.01 75.01 76.90 75.39 75.28 76.40 75.68
58.99 59.91 63.09 61.78 61.66 62.99 64.71 62.65 61.95 62.75 66.15 68.10 69.41 69.88 69.83 70.08 70.06 70.84 71.70 72.46 73.54 72.52 74.72 75.81 77.00 77.14 78.88 77.02 77.77 75.88 77.62 75.35 75.75 77.34 77.79 77.04 78.26 74.08 76.47 77.48 76.84 77.80 76.44 76.77 74.81 76.04 75.16 74.76 75.61
60.04 60.31 60.84 61.20 61.46 62.31 63.11 63.11 62.92 63.14 66.13 66.75 68.15 68.34 69.43 69.93 70.18 71.18 71.78 72.29 73.45 73.56 74.37 76.52 76.83 78.27 79.82 78.07 79.92 77.81 72.79 78.76 73.87 74.92 77.08 79.65 79.08 79.21 78.17 77.65 76.25 75.00 77.19 78.15 77.33 76.71 76.66 76.29 75.94
59.85 57.71 59.71 60.56 61.18 61.39 64.38 60.68 61.14 64.33 65.49 66.04 67.00 67.86 68.74 69.82 70.83 70.88 71.97 72.51 73.72 74.12 75.26 76.08 76.47 77.34 78.23 79.01 80.15 80.15 78.80 77.17 74.42 76.79 78.09 77.02 79.36 79.38 79.97 77.76 77.36 76.95 76.16 76.67 78.32 76.55 76.94 75.15 74.72
56.54 57.25 54.69 59.84 60.82 62.23 62.13 58.17 62.27 65.07 64.01 64.36 66.51 67.16 68.13 69.12 69.83 71.80 72.16 72.77 74.01 74.24 75.58 76.66 75.47 76.64 77.10 78.38 79.52 77.94 76.55 78.17 77.21 75.72 78.95 77.14 79.86 80.14 79.56 78.01 76.57 75.50 75.56 76.07 74.20 75.14 74.53 73.48 73.30
55.43 52.55 54.29 56.95 61.19 61.70 60.61 58.97 63.93 65.24 64.40 64.12 65.65 66.57 67.16 69.00 70.13 71.73 72.11 73.33 73.61 75.34 76.53 76.53 76.97 76.73 77.21 78.76 78.46 78.16 77.72 76.90 78.54 78.45 75.80 78.03 77.04 79.03 78.36 76.79 77.06 77.42 77.72 76.87 75.75 75.10 73.81 71.65 70.90
51.65 53.26 55.18 56.62 59.98 60.90 60.26 58.77 61.33 63.36 64.22 64.19 64.76 66.05 67.18 67.36 68.84 71.38 72.20 72.92 74.16 75.37 76.64 76.71 77.34 79.43 78.12 77.48 78.84 79.10 77.83 76.28 75.80 78.62 77.32 76.95 78.99 79.25 77.98 77.31 76.39 78.27 77.82 76.40 76.10 73.21 73.77 71.80 70.21
55.03 55.73 55.02 58.26 60.96 59.22 60.79 57.91 58.94 63.21 64.53 63.77 64.65 65.23 66.43 67.72 70.17 71.73 72.38 72.90 73.52 74.89 76.08 76.36 76.99 78.90 78.98 77.98 75.47 76.30 75.86 77.66 77.21 78.72 77.74 77.11 79.35 79.58 78.31 77.06 77.83 78.38 75.33 75.69 73.40 73.76 70.94 70.38 71.24
55.01 54.50 55.52 58.91 61.20 60.72 60.21 60.33 61.91 64.15 64.55 64.64 64.61 64.73 65.32 66.45 68.51 70.82 72.10 72.46 73.06 74.57 75.34 76.48 76.91 79.26 78.51 77.98 77.67 77.14 76.30 76.29 77.02 74.20 77.93 78.30 78.05 78.95 78.34 77.80 76.61 75.16 75.63 73.78 73.95 72.40 70.37 70.53 71.92
54.19 54.14 55.13 55.68 59.58 60.61 59.14 57.41 60.38 63.58 64.99 65.81 65.95 66.54 66.24 66.40 66.75 69.96 71.19 72.01 73.37 74.01 75.35 76.59 77.45 78.28 77.91 79.04 77.66 78.18 78.34 76.39 75.86 76.30 77.38 76.38 78.65 78.15 77.31 77.32 77.64 76.90 75.59 73.90 73.34 72.60 71.97 68.37 71.29
52.01 56.66 56.29 56.10 56.66 53.45 59.40 51.90 59.69 61.51 63.47 64.53 65.43 66.49 67.06 67.19 68.20 69.43 70.86 72.18 72.87 74.27 76.28 77.24 77.78 77.93 78.67 78.18 77.53 76.94 74.44 74.26 76.55 77.72 77.13 77.87 77.81 77.86 78.04 78.18 77.51 77.11 75.42 73.88 73.12 72.97 71.46 71.67 68.02
54.26 57.33 56.41 56.11 55.25 56.91 57.70 54.30 58.56 61.89 60.99 63.68 64.91 66.20 67.20 69.12 68.44 68.50 70.51 72.01 73.24 74.77 75.49 76.99 78.06 78.53 78.48 78.91 77.74 77.07 76.31 75.64 75.59 75.50 78.18 76.92 78.91 77.81 77.70 77.85 77.23 75.48 73.43 75.32 73.72 72.34 71.72 72.07 70.03
56.58 55.53 55.76 55.88 54.84 50.63 55.58 54.83 55.66 59.00 59.63 61.01 64.75 66.45 67.74 68.66 69.67 69.72 70.83 72.27 72.97 74.40 75.79 76.16 77.97 78.09 78.36 78.87 78.16 78.26 75.84 74.90 75.12 77.03 75.36 75.99 75.39 75.83 77.67 76.33 76.61 75.13 73.59 74.10 73.30 73.07 72.85 71.64 72.14
53.27 51.60 48.78 48.24 49.26 48.74 56.03 55.21 56.83 61.23 62.71 62.76 61.93 65.54 68.05 69.43 69.89 69.83 69.88 71.18 72.62 73.35 74.75 76.06 77.53 77.50 78.18 78.72 78.40 77.64 78.44 77.48 78.06 79.00 75.69 74.33 72.20 73.64 75.56 76.78 75.03 73.83 74.64 75.56 74.08 73.63 73.60 71.87 71.13
51.38 51.14 49.38 44.75 46.76 49.28 55.46 51.90 56.90 63.37 63.91 63.67 65.12 66.08 67.29 68.85 69.58 70.09 70.78 71.17 72.60 73.03 74.70 75.55 77.05 77.20 78.38 77.76 78.68 78.68 78.57 78.48 77.01 78.17 76.61 75.50 74.48 74.56 74.58 75.20 74.85 74.64 73.90 74.08 74.00 72.96 71.18 72.04 70.74
51.36 48.91 53.34 50.02 52.03 50.15 52.67 55.24 58.33 61.46 63.13 62.68 62.99 64.52 64.51 67.92 69.43 70.16 71.20 71.91 73.06 73.15 73.85 75.29 77.07 77.70 78.39 78.33 78.38 78.92 78.13 78.09 77.45 77.63 77.57 76.24 76.11 77.35 74.45 74.67 74.70 73.43 74.00 73.80 73.91 71.45 71.01 71.89 71.99
52.22 54.16 47.78 49.39 45.51 45.85 50.68 53.02 54.24 59.23 61.38 63.12 62.13 63.15 64.16 65.28 69.65 70.29 70.65 72.00 72.94 74.05 74.41 75.90 76.83 77.39 78.56 78.51 78.39 78.28 78.48 78.19 77.80 77.76 77.45 75.71 76.72 75.94 75.18 74.94 74.19 72.87 72.63 73.62 72.62 70.54 71.46 71.36 70.73
50.79 49.66 50.40 50.72 50.29 47.73 47.79 51.76 60.65 61.51 63.46 63.42 63.56 63.95 64.11 65.13 68.57 69.69 70.88 71.15 73.10 74.01 74.36 74.98 75.71 77.28 78.03 78.34 78.20 78.42 78.31 78.73 78.16 78.50 77.47 76.84 77.24 75.56 75.29 74.81 73.18 72.42 71.89 72.67 70.89 69.51 69.80 68.74 70.12
53.71 51.22 50.70 47.13 48.76 50.37 50.65 52.50 60.43 61.99 62.17 64.03 63.73 64.51 65.04 65.88 67.66 69.68 71.06 70.84 71.36 72.35 73.23 74.52 75.53 76.47 77.45 78.18 77.78 77.97 78.58 78.44 78.35 77.44 78.58 78.05 76.73 77.24 75.54 74.50 73.01 71.89 71.19 71.48 69.83 68.49 68.62 68.61 68.29

GFSSGP_sfc_wetblb_021.txt.gz
Wetbulb
75.72 75.47 74.03 69.32 60.56 58.13 55.72 57.77 62.34 60.93 61.47 64.80 65.27 64.20 62.81 63.63 60.90 55.87 68.95 71.71 72.51 72.25 73.89 74.51 76.61 77.02 77.19 77.64 78.24 78.44 78.40 78.74 78.98 79.02 78.86 78.59 77.81 77.86 77.94 77.39 77.19 77.48 77.03 76.32 76.38 76.32 76.10 75.96 75.65
74.63 74.24 72.07 63.47 57.62 52.99 55.28 59.49 59.71 62.57 64.24 66.00 66.32 65.43 63.12 61.31 66.19 66.59 68.34 72.33 73.00 72.99 73.14 74.32 76.66 77.28 77.31 77.87 78.51 78.27 78.09 77.80 78.63 78.71 78.88 78.49 77.89 78.06 77.63 76.98 76.87 76.68 76.57 76.13 76.08 75.94 76.13 75.96 75.76
74.73 73.57 67.25 61.62 57.26 54.18 55.35 59.84 62.21 64.90 66.81 66.05 64.94 67.25 64.98 63.53 68.16 68.60 71.44 72.84 73.00 72.50 73.22 74.42 77.30 77.72 77.56 77.69 78.39 78.29 78.06 77.65 77.98 78.30 78.86 78.49 78.07 77.28 76.90 76.65 76.43 76.24 76.41 76.30 76.16 76.02 75.94 76.07 75.96
72.94 71.09 68.37 59.95 55.48 59.33 60.21 62.48 64.66 64.67 66.31 67.13 66.41 63.38 67.43 70.37 69.33 71.27 72.91 72.57 71.76 72.84 74.43 76.98 77.68 77.07 77.90 77.76 78.09 77.45 77.81 77.84 78.16 78.41 78.77 78.33 77.91 77.07 76.72 76.27 75.99 75.99 76.08 76.49 76.27 76.22 75.80 75.71 75.66
72.92 67.45 59.68 58.21 57.67 60.58 62.57 64.08 65.49 64.22 65.00 65.65 65.90 62.94 64.35 69.88 71.88 72.82 72.28 72.78 71.86 72.82 74.46 75.83 78.17 78.29 78.21 77.88 77.67 78.16 77.38 77.30 78.16 78.57 78.49 78.28 77.92 77.08 76.44 75.93 75.68 75.68 75.82 76.22 76.10 75.63 75.49 75.11 75.24
66.33 65.60 57.24 54.96 56.99 61.86 63.12 63.99 64.42 64.50 66.10 66.37 64.88 64.11 64.65 70.92 70.74 71.35 73.03 72.60 72.73 72.82 74.10 75.17 77.61 78.15 78.55 77.85 77.74 77.85 77.41 77.42 78.18 78.50 78.39 78.32 78.10 77.75 77.02 75.96 75.62 75.30 75.50 76.10 75.88 75.24 75.38 74.94 74.77
60.30 58.42 56.30 56.50 55.29 59.04 62.64 65.36 64.82 64.62 64.85 65.10 67.60 62.76 66.11 68.41 70.78 72.27 72.56 72.93 72.53 73.00 73.29 74.39 75.33 76.40 78.20 78.84 78.00 77.65 77.68 77.88 78.14 78.31 78.06 77.88 77.68 76.74 76.58 77.02 75.78 75.33 75.58 75.41 75.51 75.09 75.52 75.99 75.63
64.22 60.52 57.65 56.79 56.59 54.80 63.61 64.08 66.39 65.31 64.86 69.27 69.74 63.38 63.36 68.72 71.55 72.05 72.35 72.43 71.51 72.67 73.57 73.74 74.60 74.85 75.37 75.77 77.62 77.55 77.81 77.51 77.49 77.69 77.18 77.07 76.49 76.46 76.18 77.34 77.38 75.50 75.07 75.30 75.45 76.10 77.02 77.12 77.28
66.23 57.25 55.01 56.62 57.59 56.73 61.88 62.40 66.59 68.61 66.55 67.79 68.76 68.15 69.75 71.59 72.08 71.33 71.17 71.36 72.30 72.77 72.89 73.78 74.06 74.20 74.14 74.23 75.67 77.43 77.44 77.30 77.36 76.99 77.53 77.15 74.33 74.29 75.42 76.34 76.64 75.64 76.06 75.98 76.10 77.40 77.64 77.55 77.92
60.58 57.03 57.34 61.50 61.52 59.31 62.42 63.95 64.25 64.90 64.79 65.05 67.06 69.92 71.46 71.62 70.83 69.59 69.39 69.83 70.44 71.06 72.54 73.50 73.69 74.07 74.20 75.16 74.20 74.43 74.94 73.88 73.14 73.80 73.68 74.37 73.47 72.68 75.77 76.35 77.61 76.03 76.24 77.11 77.07 77.57 77.65 76.93 73.84
61.11 55.83 61.36 62.22 63.14 62.93 60.03 61.07 63.05 62.08 62.22 65.05 65.38 67.59 70.05 70.43 69.88 69.59 69.60 70.18 70.76 70.87 72.94 73.24 73.75 74.37 73.84 73.77 73.98 74.28 73.66 72.49 72.19 72.45 73.61 73.55 74.30 73.07 72.51 73.42 72.69 73.03 75.66 73.04 74.38 75.07 74.15 72.52 73.20
57.75 60.96 60.94 61.61 64.12 60.76 59.49 60.39 61.55 62.32 64.43 68.35 68.09 68.21 70.17 69.10 69.13 69.19 69.49 69.78 70.33 70.38 71.62 72.90 73.66 73.89 73.31 74.35 73.77 73.68 72.99 72.47 72.22 73.32 74.34 73.28 73.42 71.33 73.03 73.24 71.61 73.23 73.28 72.64 73.50 72.90 72.50 73.11 71.81
58.23 60.10 61.73 62.27 62.91 61.73 62.61 61.62 62.20 62.97 67.83 69.30 69.03 68.51 68.53 68.89 69.48 69.83 70.25 70.96 70.58 70.63 71.63 72.78 73.47 72.91 73.44 72.86 71.79 72.60 72.92 73.69 73.22 74.16 74.14 72.91 72.91 72.37 71.53 73.53 73.13 72.79 73.13 73.71 72.49 73.93 72.42 71.94 72.23
59.56 59.53 58.29 60.51 61.50 61.87 60.66 60.84 61.70 64.33 68.64 68.29 68.42 67.50 67.86 67.38 68.58 69.66 69.75 69.81 70.43 71.42 71.94 73.26 73.37 73.26 73.76 72.58 73.34 74.16 72.71 73.66 73.61 73.89 74.45 74.07 72.83 71.97 73.58 72.74 72.84 73.72 73.55 74.37 73.17 72.19 71.85 71.61 72.52
58.14 55.46 56.82 57.27 57.03 59.98 62.91 59.33 59.58 64.51 67.21 66.71 67.13 67.61 68.11 68.11 68.05 67.48 70.71 70.14 70.13 71.37 72.41 73.05 72.83 74.96 74.07 72.91 74.44 74.10 74.61 71.79 71.00 73.89 74.48 74.32 74.09 73.17 73.33 73.13 71.97 73.71 73.94 74.03 73.21 72.35 72.29 72.63 73.01
53.85 51.85 47.83 55.13 58.04 59.86 59.72 53.35 61.47 62.83 65.01 64.93 66.06 67.03 67.71 67.89 68.12 68.25 70.32 70.82 70.33 71.41 72.59 73.42 75.11 74.41 74.61 73.71 74.65 73.52 72.61 73.72 72.84 72.01 74.39 74.85 74.87 74.70 73.06 73.69 73.01 73.07 73.39 72.51 71.32 70.95 70.63 71.28 69.22
49.01 45.99 48.46 51.89 57.86 58.78 58.49 55.12 60.66 61.75 63.55 63.16 64.77 65.54 66.58 66.92 67.81 68.47 69.49 70.61 70.67 72.04 72.94 73.17 73.61 73.08 73.08 74.31 75.38 73.69 73.18 73.91 72.66 74.19 73.91 74.63 75.19 75.08 73.21 73.46 73.43 73.33 72.75 71.75 71.58 69.83 69.34 66.04 64.66
44.76 46.20 49.23 50.42 56.18 58.77 57.19 56.51 60.51 61.56 60.35 62.88 63.78 64.74 65.32 66.02 66.78 68.98 69.35 70.36 71.41 72.66 73.17 72.87 73.14 73.25 72.90 75.04 74.33 74.32 73.36 74.00 74.86 73.57 72.27 73.42 74.53 75.68 73.87 72.80 73.21 73.08 71.34 71.51 70.03 69.48 69.22 65.42 65.00
50.65 49.59 49.71 53.08 58.36 57.96 57.58 57.29 58.98 59.59 59.56 59.61 62.83 63.47 64.43 65.51 67.25 69.09 69.67 70.56 71.39 73.00 72.41 72.77 72.44 73.66 73.66 73.83 73.52 72.70 71.46 73.36 72.21 73.18 74.39 74.65 74.83 74.97 73.61 72.18 72.74 73.00 71.46 70.99 69.98 68.00 64.42 64.17 66.25
50.38 49.15 49.41 53.35 58.60 58.23 57.87 56.92 59.00 58.77 59.29 60.45 62.24 63.20 64.15 65.15 66.15 68.00 68.79 69.61 70.61 71.74 72.32 72.07 72.89 75.03 74.20 74.13 72.83 72.78 72.59 73.11 73.23 73.58 75.16 75.83 74.87 74.73 73.31 72.92 72.58 72.27 71.86 71.18 67.32 65.46 63.83 65.10 67.40
49.43 48.32 49.45 50.61 56.87 58.60 58.01 54.69 55.72 58.09 60.61 62.04 63.03 63.88 65.00 64.75 65.17 66.95 67.91 68.62 69.74 71.06 72.05 72.51 72.94 74.97 74.92 74.18 73.98 73.75 73.42 73.15 71.82 72.94 73.83 74.96 75.27 75.48 73.85 73.61 72.72 72.43 70.69 68.04 66.37 65.69 65.01 62.99 66.79
46.78 52.45 52.63 52.25 51.89 49.39 58.06 49.15 54.46 56.74 59.59 61.44 61.87 62.24 63.48 64.87 66.10 67.14 68.01 68.18 69.22 71.17 73.03 73.04 73.58 75.25 74.14 74.85 73.05 71.72 70.35 69.92 71.77 73.54 73.26 75.00 75.05 74.58 74.18 73.83 72.92 71.03 69.81 68.02 66.60 66.73 64.69 64.90 61.93
49.11 53.45 52.54 52.57 50.54 52.68 53.44 49.31 53.64 58.37 57.74 59.80 61.24 62.64 62.98 64.07 65.23 66.58 68.19 68.81 70.11 71.92 72.50 73.78 73.85 74.11 74.32 74.46 73.49 72.76 71.44 71.63 72.65 70.98 72.04 73.87 73.31 73.48 74.62 73.65 72.94 69.63 68.48 68.71 67.38 65.71 64.44 66.12 65.51
52.04 51.14 51.29 51.40 49.93 45.62 50.87 51.23 49.82 54.91 58.26 59.96 62.21 63.49 63.77 63.90 64.87 66.72 68.53 69.53 69.53 71.99 72.97 74.21 73.89 73.76 75.04 73.49 73.96 73.46 72.17 71.70 70.90 70.87 72.40 72.96 72.96 71.71 73.52 73.28 70.88 69.20 66.44 67.83 67.10 67.19 66.20 65.02 65.89
49.25 43.52 42.44 41.68 42.77 41.48 50.03 49.94 51.90 57.97 59.62 62.32 62.79 63.41 64.99 65.43 64.93 64.81 67.16 68.49 69.30 70.73 72.63 73.88 73.76 73.67 74.67 74.96 74.29 73.98 73.41 71.71 70.50 71.93 71.96 71.03 70.23 69.64 71.44 71.96 70.04 68.61 68.01 68.81 68.52 66.58 65.85 64.77 65.21
46.71 45.41 41.97 36.18 39.76 42.75 48.41 47.17 52.39 59.85 61.21 63.94 64.32 63.40 65.10 65.56 66.07 65.60 67.08 68.25 69.34 70.38 72.04 73.83 74.02 73.88 75.12 75.14 75.06 74.54 74.67 73.29 72.91 73.18 71.35 70.08 70.24 70.32 71.36 72.14 70.08 68.65 67.89 69.83 69.14 67.06 66.84 66.21 65.25
46.20 43.97 46.93 40.19 43.03 41.41 45.73 48.37 53.35 59.64 59.81 61.35 61.17 62.49 63.37 63.36 66.71 66.41 66.79 67.98 69.19 70.04 71.94 72.50 74.45 74.38 74.83 75.32 75.63 74.94 74.42 75.08 74.75 72.91 73.63 71.07 69.29 71.45 71.60 72.44 70.27 68.85 68.21 67.84 68.54 67.05 66.42 67.14 65.34
48.77 48.37 41.86 44.13 37.12 38.15 44.09 45.35 48.07 51.93 57.66 59.20 59.55 60.68 62.06 63.16 66.17 67.08 67.02 67.90 69.51 70.47 72.04 73.06 74.96 74.66 75.17 74.54 75.89 76.06 75.40 74.95 74.95 73.43 72.86 72.21 70.20 71.95 71.11 72.06 70.54 69.69 68.58 68.17 68.38 66.14 67.56 66.03 67.38
47.39 45.88 44.47 43.07 43.72 39.60 39.19 44.22 50.74 54.19 59.12 59.08 60.10 61.27 60.36 63.96 65.21 67.26 67.86 68.42 69.92 70.85 71.64 72.56 74.33 74.70 75.12 75.45 74.92 75.74 76.26 75.38 75.13 74.39 73.43 72.66 72.29 71.18 71.40 71.50 70.84 69.00 68.76 69.27 68.09 65.98 65.65 67.11 65.26
50.61 47.08 44.60 41.84 37.50 41.19 41.84 43.57 53.57 53.91 59.24 61.05 60.78 60.92 60.46 61.43 66.56 67.65 68.07 68.54 69.92 70.14 70.61 72.26 74.72 74.80 75.52 76.17 75.62 74.98 75.73 75.90 74.81 74.34 74.30 73.95 72.10 71.76 72.33 71.75 70.86 69.44 67.70 68.74 68.51 65.85 66.54 65.54 65.94

GFSSGP_sfc_wetblb_024.txt.gz
Wetbulb
74.82 74.35 73.96 68.73 60.27 58.50 55.13 57.91 62.42 60.15 60.75 64.32 65.99 63.92 61.59 62.58 59.84 55.89 68.28 70.77 71.29 71.76 73.44 74.51 76.31 77.19 77.54 78.36 78.52 78.56 78.52 78.21 78.66 78.63 77.86 77.31 77.31 77.22 77.13 76.87 76.63 76.52 76.26 76.12 76.14 76.11 75.84 75.70 75.53
75.24 74.18 71.41 64.83 57.26 53.14 53.63 59.88 59.98 61.60 62.96 65.30 65.55 64.33 62.77 60.22 65.49 66.19 68.10 70.48 72.26 72.80 73.05 73.99 76.32 77.11 77.85 78.20 78.41 78.50 78.04 77.80 78.50 78.18 77.88 77.34 77.34 77.24 76.88 76.63 76.39 76.12 76.23 76.04 75.90 75.88 75.84 75.45 75.40
74.54 71.86 64.49 60.65 57.10 53.56 53.40 59.72 61.27 63.59 66.10 65.41 64.11 65.80 64.01 62.15 66.45 67.66 70.53 72.13 72.67 72.11 73.32 74.36 77.05 77.64 77.92 77.93 78.23 78.18 78.03 77.29 77.62 77.58 77.14 77.03 77.12 76.94 76.53 76.26 76.15 76.12 76.29 76.26 75.88 75.43 75.18 75.43 75.29
72.07 68.98 67.86 60.57 55.98 58.73 59.34 62.38 63.48 64.01 65.93 66.33 65.39 62.00 66.69 69.49 68.29 70.06 72.14 72.28 71.65 72.08 73.57 76.12 77.22 77.03 77.57 77.72 77.80 77.31 77.26 77.02 77.38 77.68 77.06 76.90 77.05 76.60 76.21 76.02 75.99 76.13 76.34 76.40 75.71 75.38 75.07 75.02 75.35
71.80 66.57 58.43 57.74 57.54 60.73 62.64 64.82 65.14 63.09 64.17 64.66 65.41 62.38 63.92 69.06 71.29 71.72 71.92 72.03 71.41 72.30 73.83 75.06 77.72 77.76 77.75 77.76 77.34 77.37 76.95 76.92 77.58 77.72 77.07 76.94 76.84 76.24 76.02 75.88 75.71 75.80 76.13 76.24 75.13 74.91 74.77 75.07 75.35
65.67 64.41 56.12 53.89 56.67 61.09 63.45 65.57 65.15 63.98 64.65 64.59 64.03 63.43 63.65 69.95 70.29 71.15 71.59 71.52 72.99 73.20 74.44 75.28 77.17 77.99 77.83 77.11 77.14 77.05 76.76 77.00 77.55 77.60 77.15 77.00 77.01 76.32 75.85 75.63 75.46 75.32 75.62 75.93 75.54 74.85 75.07 75.02 75.18
60.71 57.07 55.25 55.88 55.96 58.88 62.81 66.28 63.94 63.92 63.77 63.71 66.21 61.61 65.05 68.28 70.89 71.24 71.75 72.27 72.59 73.90 74.12 74.69 75.03 75.47 77.31 77.84 77.35 76.99 76.56 76.89 77.30 77.25 77.42 77.15 76.56 76.13 75.26 75.26 75.15 75.26 75.45 75.40 75.63 74.77 75.05 75.30 75.35
63.91 59.17 56.58 56.75 55.20 57.79 63.33 65.21 66.39 64.67 64.16 68.40 67.92 61.57 62.24 67.80 70.67 71.74 71.39 71.53 71.78 73.00 73.55 73.58 73.96 74.69 75.33 76.07 77.51 77.47 77.03 76.95 77.25 77.40 77.02 76.94 76.82 76.41 75.93 77.22 76.52 75.57 75.11 74.99 75.26 75.38 75.85 75.23 75.12
65.40 54.91 54.69 54.69 56.51 59.70 64.51 63.51 67.15 68.59 65.88 66.60 68.40 66.45 67.85 69.93 70.92 70.52 69.43 69.72 70.92 71.72 72.81 73.56 73.63 73.88 74.51 74.39 75.80 77.47 77.40 77.17 77.34 77.02 77.27 77.40 73.82 73.84 75.26 76.01 76.50 76.90 75.76 75.33 75.31 76.16 76.73 75.59 75.95
59.26 53.43 56.46 59.91 60.23 60.93 63.61 64.28 64.99 64.99 64.83 65.66 66.10 68.55 69.32 69.69 69.23 68.37 67.89 67.73 69.16 70.49 71.55 73.21 73.38 73.67 73.71 75.18 73.80 73.96 74.57 74.25 73.82 74.07 73.42 74.28 73.25 72.57 74.91 76.02 77.32 76.63 76.24 76.15 76.55 76.49 76.96 75.37 72.19
61.00 55.59 59.84 61.70 62.60 63.40 63.53 64.34 66.15 64.30 62.48 65.09 64.62 66.66 68.34 68.62 68.64 68.84 68.49 69.37 69.50 70.97 71.91 72.53 72.95 73.51 73.23 73.39 73.42 73.45 73.27 72.68 72.01 71.90 72.33 72.60 73.36 72.35 73.26 71.88 73.43 72.90 75.20 72.09 73.74 73.97 72.93 72.97 72.08
57.49 61.84 61.45 62.01 63.52 61.42 61.88 65.22 63.98 64.55 64.37 67.66 68.53 68.86 68.56 68.03 68.08 68.67 68.46 69.76 69.92 70.75 71.92 72.55 72.89 73.12 72.88 72.48 73.47 73.37 72.87 72.03 70.84 71.07 71.67 71.96 71.92 70.43 70.86 71.55 72.29 71.38 72.40 73.07 72.61 72.56 71.79 72.77 71.39
56.78 58.18 62.03 63.34 62.45 60.44 61.07 60.87 64.14 64.40 67.05 68.73 69.38 69.21 68.21 68.32 68.52 69.43 69.97 70.49 70.55 70.69 71.73 72.37 73.03 72.94 72.79 72.50 72.40 71.46 72.29 71.56 71.19 71.39 72.50 72.54 71.96 70.31 70.89 71.72 72.61 72.34 72.03 72.05 71.54 73.10 71.98 71.11 71.59
56.34 56.71 57.69 60.07 61.13 61.23 59.71 60.22 62.67 64.95 67.92 67.75 68.42 68.12 68.36 68.49 68.53 69.02 69.46 69.77 69.77 71.06 71.14 72.67 72.66 72.98 72.80 72.80 70.81 71.02 71.91 72.47 72.19 72.93 72.95 73.11 72.33 70.72 71.14 71.27 72.23 73.46 72.87 73.12 72.94 71.66 70.68 70.96 71.71
56.33 52.93 54.91 54.89 57.34 59.79 60.69 58.58 61.80 66.03 66.76 65.88 67.29 67.96 68.57 68.82 69.30 68.35 69.73 69.56 69.77 70.79 71.35 71.72 72.43 72.75 72.53 72.09 71.52 72.40 73.14 73.64 72.21 73.04 72.87 73.27 72.05 71.82 72.63 72.23 70.66 72.41 72.21 74.12 72.43 71.09 70.59 71.73 70.68
50.67 48.80 46.16 52.47 60.14 60.72 57.85 52.57 63.60 66.09 65.48 64.23 66.08 67.72 67.87 68.04 68.83 69.35 69.86 70.25 70.07 70.86 70.66 71.69 73.14 72.69 72.31 71.40 72.32 72.78 72.48 71.64 71.70 73.00 73.10 73.52 73.44 72.73 72.54 72.09 72.02 71.62 71.97 71.27 70.16 69.96 69.06 67.20 64.43
46.04 43.79 45.86 48.80 58.59 60.11 56.96 53.06 60.17 66.12 65.04 64.12 64.94 65.75 66.50 66.58 67.58 69.18 69.96 70.42 70.37 71.08 71.22 71.58 72.05 72.09 73.08 71.71 73.54 72.00 71.53 72.36 70.93 72.00 73.21 73.37 73.99 73.96 72.14 72.14 71.88 72.50 72.06 71.08 70.70 68.54 68.20 64.56 62.85
42.99 43.50 45.12 46.74 52.29 57.95 55.32 55.18 59.25 64.92 64.67 64.27 64.76 65.33 65.64 66.00 66.59 67.25 70.01 70.59 70.00 71.05 71.98 72.12 72.02 72.53 73.41 72.76 73.19 71.91 71.04 71.87 72.26 72.17 72.74 73.99 74.24 74.35 72.37 72.03 72.42 71.87 70.67 70.64 68.92 68.07 68.25 64.07 64.51
47.86 46.32 45.80 48.97 52.79 55.77 55.64 55.66 57.22 63.30 63.55 63.19 63.79 64.64 65.11 65.75 67.92 67.40 70.16 70.60 69.97 71.03 71.74 71.69 71.88 71.94 72.17 72.43 72.03 71.18 70.10 71.44 71.72 72.14 71.76 72.11 73.68 74.13 72.54 71.89 72.23 71.81 69.86 70.04 68.30 65.87 62.79 62.34 64.31
47.43 46.37 46.48 48.90 51.82 55.31 55.24 56.20 57.43 60.32 61.63 63.03 63.30 63.78 64.58 65.71 66.42 67.15 67.87 70.03 69.90 71.14 71.55 71.58 71.68 71.61 71.34 72.69 72.64 71.85 71.35 71.71 71.97 72.02 73.09 72.55 73.89 74.07 72.80 71.45 71.49 71.52 70.86 69.59 66.52 63.83 62.10 63.22 64.76
46.49 45.26 46.12 46.49 50.41 57.52 55.27 52.44 54.95 58.26 57.90 61.16 63.68 64.35 64.88 65.10 65.09 66.20 67.01 68.60 69.64 70.71 70.95 71.20 71.94 72.10 71.94 72.24 72.44 71.71 72.02 71.77 71.32 71.60 72.97 74.44 74.14 74.23 73.24 71.89 71.75 71.24 70.29 67.74 64.91 64.45 62.26 61.72 63.88
41.83 49.29 49.29 48.78 46.64 45.34 54.84 44.28 52.87 56.41 54.93 58.13 61.01 62.55 63.68 64.63 65.67 66.27 67.16 67.24 69.09 70.35 71.51 71.60 72.44 72.71 72.72 73.12 72.95 71.66 70.88 69.67 70.07 70.76 71.92 73.06 74.32 73.87 73.22 72.64 71.72 69.31 69.39 66.15 65.11 66.02 65.05 61.69 60.50
46.56 50.06 49.35 49.47 46.39 43.39 48.00 46.01 49.64 56.05 55.04 55.83 58.74 62.03 63.44 64.61 65.41 65.55 67.12 67.69 69.12 70.65 70.94 71.21 71.97 73.67 73.53 73.17 72.84 72.13 70.01 70.26 70.14 70.89 71.60 71.91 73.04 73.40 73.29 72.46 71.38 68.68 67.88 66.37 65.88 63.94 64.83 64.61 62.95
51.38 47.00 46.80 46.49 45.90 40.10 45.76 48.89 47.08 51.82 55.51 56.92 59.95 61.28 63.17 64.17 65.25 66.05 67.61 68.38 68.24 70.32 71.25 71.42 71.07 72.81 73.52 72.96 72.73 72.07 70.91 69.62 69.33 69.59 70.01 71.97 72.59 72.66 72.83 72.65 71.42 67.98 67.15 67.31 65.68 64.06 64.19 65.07 64.58
47.22 40.48 37.47 37.14 38.40 38.95 45.39 46.42 50.25 55.11 58.71 59.37 60.44 61.68 62.45 64.38 64.83 65.37 66.12 66.98 67.77 68.73 70.37 71.25 71.03 71.25 72.66 73.09 72.23 72.06 71.59 70.57 70.04 69.37 70.76 70.76 70.95 69.30 71.79 71.52 69.59 67.08 65.89 66.86 65.59 65.62 65.58 64.48 63.81
43.68 43.09 38.69 32.50 33.97 38.03 44.34 42.47 49.82 56.64 60.52 61.89 62.91 63.03 62.97 63.02 64.59 65.43 66.07 67.23 67.56 68.50 70.08 71.39 71.11 70.87 72.46 72.41 72.73 72.51 72.13 72.22 71.74 70.93 70.91 71.99 71.88 70.36 71.34 71.55 69.56 67.72 67.05 67.24 66.51 64.80 65.33 64.23 63.77
44.57 40.30 44.41 37.54 37.11 36.83 41.00 44.85 50.04 55.14 57.13 60.53 61.89 62.38 62.55 63.02 63.75 64.81 66.54 67.34 67.84 68.64 70.14 71.39 71.42 71.36 72.58 72.65 72.22 72.79 73.24 72.57 71.94 71.07 71.12 71.19 70.92 69.92 70.95 70.85 68.95 67.47 66.75 67.91 67.26 65.09 64.76 65.45 64.01
46.42 46.39 39.98 35.60 34.94 34.74 37.59 40.99 44.99 48.64 53.46 56.61 59.84 61.84 62.98 63.75 63.92 64.70 65.01 66.89 68.45 69.00 70.73 71.85 72.31 71.85 72.62 73.47 73.22 72.85 72.70 73.68 73.15 72.55 71.76 70.46 69.38 70.12 70.22 70.58 68.92 67.65 66.25 67.09 67.08 65.40 64.80 65.36 65.34
46.33 43.90 39.09 40.66 39.93 37.13 33.28 40.83 46.75 49.27 51.77 54.86 60.53 62.76 63.35 64.14 64.62 64.93 65.00 66.92 68.11 69.27 70.84 71.87 72.28 71.99 72.80 73.34 73.63 73.67 73.28 72.87 73.73 73.94 72.57 71.81 69.95 69.72 69.77 70.72 69.36 68.00 66.67 66.14 67.01 65.52 65.67 64.19 64.07
49.58 46.05 42.33 40.44 35.69 38.99 41.57 41.94 50.20 50.59 52.01 56.35 58.86 61.78 63.61 64.37 63.79 65.82 65.65 65.97 67.35 68.60 70.25 71.21 72.98 72.62 73.07 74.01 74.13 73.95 73.89 73.72 73.15 73.49 73.45 72.48 70.94 70.07 70.14 70.30 69.80 68.72 67.61 66.65 67.05 66.16 66.02 65.45 64.36

GFSSGP_sfc_wetblb_027.txt.gz
Wetbulb
74.40 74.01 73.19 69.01 59.88 57.49 55.17 57.49 61.35 59.51 60.12 63.73 65.40 62.84 60.76 61.91 59.45 55.16 68.10 70.40 71.33 71.34 72.78 74.47 76.35 76.58 77.17 77.21 78.04 78.00 77.68 77.54 77.50 77.33 77.03 76.95 76.87 76.90 76.68 76.56 76.34 76.11 75.89 75.68 76.02 75.91 75.72 75.61 75.25
73.55 73.14 71.08 64.10 56.31 50.33 52.66 59.32 59.00 60.38 63.00 64.54 64.72 64.06 61.72 59.99 65.12 66.18 67.70 70.51 71.69 72.11 72.58 73.95 76.42 76.97 77.19 77.23 78.03 78.02 77.49 77.59 77.20 77.18 77.19 77.12 77.04 76.67 76.46 76.47 75.92 75.67 75.81 75.62 75.76 75.81 75.70 75.30 75.08
74.07 72.45 64.74 59.86 55.35 51.48 53.00 59.66 60.51 62.68 64.74 64.83 62.61 65.38 63.33 61.37 66.07 66.86 69.27 71.28 71.90 72.10 72.88 74.06 76.54 76.89 77.15 77.18 77.52 78.11 77.70 77.28 77.00 76.83 77.00 77.07 76.72 76.46 76.25 76.03 75.78 75.72 75.89 75.84 75.76 75.43 75.51 75.50 75.26
69.27 68.86 67.19 58.76 56.17 58.81 59.31 60.97 63.00 63.29 64.76 65.17 64.26 61.04 65.93 68.25 67.26 69.00 70.96 72.01 71.42 72.07 73.14 75.28 76.74 77.00 77.23 77.03 77.11 76.98 77.12 77.23 76.95 76.75 76.88 76.97 76.55 76.09 75.87 75.76 75.87 75.90 76.06 75.85 75.51 75.40 75.31 75.39 75.26
70.35 66.04 58.59 57.11 57.17 60.10 62.72 63.32 64.38 62.34 63.18 63.39 64.58 61.47 62.85 68.00 69.93 69.94 71.03 71.73 70.88 71.70 72.90 74.61 76.96 77.66 77.41 77.01 76.77 76.56 76.56 77.14 77.19 76.88 76.76 76.79 76.32 75.85 75.66 75.66 75.49 75.43 75.87 76.01 75.41 75.59 75.29 75.31 75.10
63.80 63.44 55.75 52.98 56.24 61.05 63.30 64.90 64.22 63.33 63.63 63.68 62.84 62.60 63.44 69.29 69.05 70.59 71.17 70.50 71.58 72.04 73.15 74.30 76.62 76.94 77.16 76.97 76.77 76.61 76.43 76.95 77.21 76.77 76.74 76.66 76.45 75.82 75.57 75.44 75.27 75.16 75.66 75.66 75.27 75.21 75.29 74.47 74.49
59.28 56.74 54.31 56.12 56.35 59.68 62.20 65.49 62.97 62.62 62.79 62.53 64.96 60.67 64.61 67.32 70.00 71.08 70.88 71.48 71.63 73.51 73.79 73.82 73.99 75.26 76.98 77.13 76.80 76.53 76.48 76.90 77.07 77.02 76.82 76.55 76.53 75.96 75.57 75.24 75.02 75.10 75.04 75.18 75.07 74.80 74.80 74.69 75.16
62.92 55.99 54.65 56.03 56.14 56.84 63.75 64.59 65.03 63.55 63.03 67.19 66.44 60.41 61.54 67.14 70.47 70.56 70.85 71.15 71.54 73.24 73.75 73.44 73.18 73.41 74.05 74.53 76.89 76.51 76.37 76.59 76.88 76.89 76.90 76.85 76.51 75.91 75.54 76.65 75.34 75.32 75.01 74.70 74.90 74.38 74.71 74.94 75.71
64.35 52.60 51.88 54.23 55.74 58.32 63.89 62.67 65.68 67.50 64.29 65.30 66.81 65.26 66.87 69.71 70.11 69.51 69.62 69.86 71.07 72.49 72.73 72.95 73.14 73.32 74.18 74.78 75.29 76.54 76.66 76.60 76.90 76.76 76.85 76.95 73.61 73.33 74.69 75.50 75.94 76.12 75.35 75.26 74.96 74.77 75.27 75.65 75.39
58.91 52.08 53.41 58.64 58.61 60.20 63.75 63.76 64.26 63.87 62.86 64.24 64.82 67.20 68.81 69.57 68.83 67.74 67.88 67.64 69.16 70.26 72.05 73.07 72.88 73.63 73.83 75.67 73.84 73.93 73.87 73.71 74.18 74.36 73.58 73.98 72.74 72.48 74.28 75.45 76.47 75.63 75.88 75.85 76.27 74.80 75.57 73.97 72.37
59.27 55.43 58.89 60.38 63.19 63.78 63.63 63.81 65.38 63.08 60.55 63.82 62.57 65.11 67.28 67.80 67.92 67.56 67.86 67.94 68.57 70.11 71.80 72.77 72.85 73.56 73.56 73.80 72.82 72.94 72.89 72.84 72.68 72.53 72.15 72.24 72.98 71.67 72.95 72.01 73.25 72.38 74.53 72.06 72.83 73.01 71.58 72.73 71.42
57.51 60.79 61.60 62.16 62.95 62.48 62.97 64.71 63.45 63.74 63.29 66.71 65.95 66.83 67.06 66.68 67.12 67.14 67.11 67.99 68.43 69.73 70.74 72.42 73.02 73.18 72.76 71.84 72.81 72.73 72.67 71.95 71.16 70.73 71.12 71.19 71.17 70.93 70.87 71.04 71.64 70.83 71.55 72.32 72.29 71.97 72.17 71.06 71.80
59.60 60.39 60.88 62.80 63.23 62.14 65.19 63.48 63.64 63.79 66.37 67.56 67.40 66.97 66.26 66.60 67.16 68.22 68.30 69.14 69.44 69.51 70.44 71.48 72.51 72.32 72.79 71.06 72.25 71.43 71.43 71.60 70.69 70.24 70.53 71.61 70.83 70.06 70.21 70.99 71.65 71.17 71.88 72.38 71.89 72.42 71.43 70.26 71.09
53.77 57.33 56.87 57.56 58.34 62.35 62.73 63.24 63.33 64.90 67.23 66.80 66.66 65.88 66.48 66.75 67.39 68.32 68.24 68.67 69.34 70.22 70.64 71.68 71.74 72.04 72.13 71.20 70.29 70.95 70.87 71.46 70.69 70.50 71.01 72.72 71.63 70.89 70.39 69.91 71.72 72.09 72.73 73.09 72.75 71.53 70.33 70.25 71.24
54.27 51.69 53.65 54.03 55.21 57.95 63.40 59.59 60.84 65.05 66.43 65.85 66.01 66.25 66.77 67.17 68.23 67.95 68.78 69.27 69.81 70.27 71.30 71.33 71.60 72.00 71.59 71.34 71.18 70.47 70.93 71.68 71.18 71.75 71.62 71.76 71.89 70.84 70.43 70.41 70.32 71.36 71.53 72.99 72.83 70.11 70.86 70.17 67.83
48.56 47.59 45.23 51.98 56.61 57.73 59.48 53.09 61.99 65.13 64.94 64.74 65.94 66.44 66.76 67.28 67.86 68.71 69.54 69.73 70.38 70.53 70.91 71.43 72.72 72.18 71.72 71.57 71.01 71.26 70.89 72.37 72.55 71.22 72.64 72.32 72.20 71.33 71.34 70.75 70.58 71.30 71.63 71.69 69.52 69.08 67.75 65.17 63.92
44.20 42.88 45.04 48.02 56.60 57.69 55.49 51.95 62.28 65.19 64.38 64.01 65.33 66.08 66.52 66.86 67.87 68.51 69.62 70.23 70.51 70.30 70.44 70.81 71.80 71.47 71.75 71.36 71.05 71.27 71.64 71.55 71.47 71.08 71.88 72.47 72.50 72.62 71.66 71.58 71.52 71.33 70.53 70.92 69.94 68.03 67.04 63.02 63.25
41.59 42.05 44.08 45.25 50.26 55.64 53.02 53.33 61.89 63.72 63.80 63.96 64.93 65.74 66.33 66.57 67.22 68.78 69.05 70.19 70.25 70.29 70.49 70.92 71.52 71.36 72.06 70.89 71.20 70.81 70.21 70.81 70.68 71.17 72.13 72.44 72.77 73.77 71.74 71.21 71.62 71.63 70.33 69.86 68.10 66.97 66.89 63.02 63.13
46.10 44.84 44.94 47.46 52.30 53.95 53.87 53.40 60.66 62.76 62.67 62.44 64.12 64.98 65.79 66.39 68.11 68.98 69.34 69.93 69.94 69.91 69.97 70.35 70.35 70.53 71.36 70.30 70.77 69.75 68.98 69.84 71.11 71.39 72.01 72.51 73.27 73.39 71.95 71.10 71.36 70.76 69.52 69.16 67.93 65.62 62.74 60.85 63.68
46.20 44.49 44.71 47.12 51.74 53.00 52.25 53.51 57.62 62.22 62.44 62.79 63.10 63.98 65.04 66.34 66.57 66.58 68.50 69.03 68.95 69.05 69.81 70.34 70.34 70.37 71.21 71.88 71.70 71.12 70.06 70.06 70.67 71.49 71.37 71.51 72.99 73.12 72.25 70.88 71.05 70.62 69.41 68.64 67.14 63.48 61.13 62.18 63.54
43.57 43.31 45.04 44.99 48.36 52.57 52.50 50.25 53.50 61.31 63.07 63.82 64.35 64.83 65.13 65.20 64.95 64.71 66.72 68.42 68.97 68.11 69.43 70.20 70.50 70.77 71.28 71.97 71.55 70.70 70.98 70.78 70.51 70.39 70.86 71.99 71.99 73.29 72.81 71.16 70.84 70.56 69.93 68.45 65.02 63.42 61.65 60.93 63.21
40.35 46.50 47.35 46.47 44.18 40.27 51.71 43.40 50.26 57.21 59.96 61.68 62.61 63.81 64.44 65.19 65.99 65.88 66.18 67.62 68.49 68.59 69.85 70.89 71.00 70.96 71.02 71.84 71.62 71.00 69.83 68.96 69.52 70.36 71.02 72.51 73.85 73.23 72.80 71.58 71.08 70.54 69.87 67.16 64.56 64.63 62.11 60.98 61.12
46.12 48.60 47.23 46.70 43.20 40.26 44.62 44.14 47.06 55.01 55.20 57.29 60.69 62.83 64.04 65.33 65.79 65.86 65.95 67.71 68.97 69.63 69.97 70.82 70.92 71.16 71.15 70.71 71.59 70.92 69.93 70.54 69.48 69.60 70.47 70.96 72.09 72.63 72.89 71.85 70.97 68.94 68.94 66.50 64.95 64.28 64.42 61.50 60.99
50.04 46.55 44.19 43.55 41.13 36.64 43.94 43.05 43.99 50.81 54.15 56.53 57.88 61.72 63.56 64.38 65.38 66.24 67.16 67.36 68.39 69.74 70.45 70.65 70.32 70.67 71.10 70.89 71.16 71.13 70.58 69.31 68.92 68.49 69.27 70.16 71.09 71.97 72.21 71.85 70.64 68.18 67.32 65.88 65.11 64.10 63.96 64.39 63.55
46.18 40.03 35.56 33.31 34.59 36.79 42.43 41.32 45.99 51.06 57.38 58.65 58.38 59.23 62.84 64.06 64.81 65.19 65.32 66.37 66.89 68.20 69.67 70.29 70.04 70.59 71.34 71.35 71.33 71.54 71.12 70.32 69.53 68.93 69.35 69.55 70.05 69.80 71.15 71.23 70.20 67.41 66.69 66.59 64.96 63.24 62.98 63.85 63.39
42.82 41.88 33.45 29.54 30.81 37.21 41.28 39.10 44.83 54.00 57.03 59.91 60.92 61.08 61.49 63.34 64.28 65.04 65.48 66.12 66.99 67.78 69.11 69.81 69.52 70.47 71.72 71.77 71.47 71.75 71.76 70.98 70.72 69.39 69.48 70.29 71.17 71.06 71.92 71.73 70.90 67.72 66.18 66.53 64.90 64.36 63.79 63.10 63.18
42.67 40.30 43.92 35.16 34.51 33.92 38.14 42.65 47.62 52.54 54.50 56.65 58.29 59.82 60.60 61.98 63.76 64.45 65.52 66.03 66.91 67.27 68.42 69.43 69.34 70.21 71.82 71.92 71.79 71.55 71.68 71.20 70.47 69.73 70.30 70.85 70.95 71.37 70.29 71.80 70.61 68.31 66.05 66.44 65.16 64.01 63.92 63.56 62.61
46.25 44.07 38.91 32.68 32.89 32.69 35.04 38.22 40.71 47.03 51.09 53.33 57.24 58.35 60.50 61.96 63.03 64.42 65.05 65.88 66.89 67.59 68.32 69.77 70.21 69.84 70.90 72.15 72.09 71.67 71.54 71.73 71.30 70.49 70.31 70.38 70.47 69.93 70.14 70.79 70.05 68.16 66.40 66.42 65.96 64.27 63.78 64.43 63.42
43.35 41.43 37.61 38.58 35.72 35.22 32.04 38.32 44.97 47.70 50.40 52.06 55.24 59.52 61.15 61.70 62.49 63.62 64.85 66.08 66.69 67.67 67.85 69.16 69.93 70.00 70.11 71.26 71.87 71.97 72.03 71.96 71.63 71.11 70.99 70.89 69.71 69.05 69.64 70.22 69.28 67.79 66.35 66.44 66.14 65.20 64.31 63.38 63.74
47.60 45.79 40.35 36.58 35.54 36.70 39.88 39.07 46.39 48.96 50.99 51.58 53.13 57.75 60.70 62.97 63.09 63.76 64.18 65.06 66.04 66.91 67.44 68.75 70.13 70.16 70.59 71.53 71.40 71.34 71.62 72.08 72.15 71.80 71.52 71.51 70.09 68.96 69.19 69.86 68.99 68.07 67.06 65.65 66.86 65.78 65.70 63.80 62.40

GFSSGP_sfc_wetblb_030.txt.gz
Wetbulb
74.40 74.13 72.74 69.25 59.89 57.85 54.34 56.61 60.65 58.74 59.39 63.14 64.09 61.59 60.13 61.99 59.03 53.97 67.77 70.50 71.34 71.06 72.91 73.44 76.46 76.97 77.25 78.02 78.07 77.72 77.39 77.21 77.47 77.34 77.01 76.69 76.74 76.53 76.31 76.29 76.16 75.92 75.90 76.13 76.06 75.89 75.84 75.34 74.91
74.10 72.45 70.60 63.02 54.54 50.00 52.28 58.58 57.84 59.65 62.48 64.32 64.21 63.12 61.24 59.98 64.89 65.48 67.09 70.56 71.46 71.81 72.72 73.23 76.62 77.33 77.38 77.75 77.77 77.89 77.07 77.03 77.05 77.00 77.03 76.93 76.78 76.43 76.33 76.01 75.81 75.83 75.94 75.71 75.84 75.78 75.70 75.27 74.46
73.26 73.04 63.63 59.15 54.35 52.55 51.32 58.21 59.63 62.30 64.25 63.98 62.34 64.64 62.76 62.09 65.73 66.58 69.18 70.94 71.94 71.88 72.75 73.98 76.72 77.45 77.18 77.19 77.41 78.07 77.26 77.06 76.97 76.95 77.05 76.89 76.63 76.28 75.90 75.70 75.72 75.78 76.13 75.78 75.76 75.73 75.83 75.23 74.55
69.82 68.58 66.57 58.47 55.39 58.17 57.81 60.23 62.08 62.15 63.82 64.46 63.29 60.66 64.92 67.69 66.82 68.57 70.60 71.39 71.25 72.12 72.53 75.90 76.89 76.95 77.29 77.15 77.50 77.44 76.97 76.79 76.82 76.87 76.99 76.62 76.36 75.87 75.71 75.71 75.57 76.14 76.23 75.77 75.79 75.51 75.37 75.24 74.61
70.31 65.43 58.32 57.00 57.24 59.70 61.98 63.19 63.76 61.64 62.48 62.92 63.94 60.41 62.02 67.37 69.33 69.96 70.47 71.24 71.05 71.78 72.94 74.88 77.61 77.51 77.44 76.99 77.23 77.07 77.05 76.85 76.69 76.74 76.78 76.50 76.02 75.66 75.41 75.24 75.35 75.68 76.32 76.13 75.71 75.41 74.97 74.75 74.58
62.67 63.12 55.10 51.25 54.61 59.98 62.54 63.59 63.52 62.62 63.07 63.09 61.93 61.72 63.44 67.72 68.30 69.78 71.04 70.82 72.31 72.16 73.19 74.09 76.96 77.25 76.95 76.81 76.62 76.64 76.90 77.09 76.79 76.59 76.68 76.39 75.82 75.63 75.27 74.94 74.94 75.47 76.13 75.99 75.38 75.30 74.86 74.22 74.16
59.01 56.66 52.74 53.83 54.53 58.64 61.68 64.41 62.32 61.82 62.13 62.00 64.47 60.53 64.90 65.84 69.17 70.21 70.43 70.89 71.99 72.74 73.08 73.45 74.04 75.66 76.90 76.84 76.54 76.46 76.55 77.09 76.90 76.70 76.57 76.38 75.82 75.16 75.05 74.88 75.02 75.19 75.49 75.71 75.13 74.69 74.80 74.55 74.44
61.46 54.90 53.47 55.47 54.80 55.78 62.68 63.55 64.27 62.62 62.22 66.19 66.01 60.00 61.59 66.19 69.99 70.06 70.39 70.19 71.35 72.76 73.16 72.81 72.87 73.69 73.98 74.63 76.73 76.36 76.56 76.85 76.89 76.81 76.47 75.92 75.88 75.19 75.10 76.38 75.22 75.63 75.10 74.90 75.13 74.69 74.91 74.72 74.94
63.22 52.05 50.28 53.17 55.65 57.29 63.02 61.81 65.21 66.37 63.35 64.62 65.52 64.45 66.10 69.06 69.79 69.06 68.99 69.37 71.13 72.46 72.38 72.61 72.50 72.44 73.62 73.89 74.85 76.13 76.30 76.38 76.71 76.42 76.38 75.25 74.43 74.44 75.08 75.85 76.38 75.94 75.11 74.93 74.99 74.88 75.19 75.44 75.38
58.58 51.65 53.33 57.65 58.49 59.16 63.25 63.06 63.32 62.68 62.04 63.38 64.05 66.28 68.02 68.99 68.13 67.38 66.99 66.89 69.04 70.49 72.12 72.68 72.43 72.52 73.74 75.16 74.24 73.97 73.68 74.01 74.23 75.03 74.87 75.12 74.38 73.32 74.88 75.91 76.93 75.62 75.60 74.63 75.38 75.52 74.64 74.16 74.24
59.18 55.52 57.91 59.69 62.08 62.44 62.56 62.95 64.47 62.01 59.48 62.91 62.16 64.24 67.01 67.30 67.24 67.40 67.40 67.37 68.37 70.08 71.93 72.91 72.66 73.11 73.70 74.35 73.56 73.45 73.38 73.52 73.68 74.08 74.03 73.56 74.27 73.31 73.23 73.77 74.14 73.57 74.30 74.04 73.12 73.62 73.12 73.88 72.67
57.03 60.06 61.08 61.52 61.08 62.95 62.35 63.98 62.72 62.15 61.71 65.69 65.66 66.18 67.07 66.19 66.48 67.09 67.56 67.90 68.30 69.82 71.17 72.60 72.85 73.24 73.06 72.91 73.09 72.91 72.84 72.56 72.49 72.69 72.66 71.94 71.82 71.74 72.12 72.74 72.84 72.70 72.54 73.46 74.06 73.24 73.59 72.61 73.44
59.14 60.02 61.83 62.79 60.91 60.54 63.98 63.00 63.06 63.01 65.33 66.38 66.32 66.88 66.34 66.39 66.91 67.95 68.57 68.56 68.72 68.97 70.76 72.18 72.90 73.07 73.27 71.74 72.49 72.49 72.27 72.66 72.19 71.62 71.36 71.93 71.98 71.80 71.75 71.81 72.43 72.51 72.87 72.89 72.97 73.50 72.89 72.08 72.71
55.65 59.34 59.74 59.21 56.26 59.08 60.62 62.70 63.08 64.31 66.17 64.86 65.46 65.43 66.20 66.30 66.92 67.40 67.91 67.68 67.94 69.06 69.91 71.68 72.19 72.62 72.86 71.99 71.14 71.84 71.68 71.98 71.57 71.24 70.97 71.74 72.21 71.99 71.61 71.81 72.17 73.50 73.40 73.92 73.30 72.71 72.67 72.42 72.48
51.97 49.69 51.83 53.12 53.09 55.35 61.53 59.10 60.42 64.65 65.75 63.94 64.25 65.16 65.82 66.24 67.38 67.05 67.90 67.84 68.67 69.30 69.84 70.90 71.56 72.05 72.09 71.72 70.43 70.64 71.36 71.89 71.25 71.09 71.41 72.01 72.47 72.29 72.28 72.00 71.73 72.66 73.31 73.54 73.29 72.37 72.38 69.35 67.72
47.11 46.36 43.51 49.83 52.83 53.90 60.66 54.00 61.84 64.55 64.22 63.45 64.16 64.76 65.27 65.82 66.76 67.80 68.57 68.78 69.45 69.94 69.96 70.95 72.02 71.74 71.37 71.10 70.80 70.58 70.47 70.82 71.48 71.61 72.72 72.68 72.71 72.55 72.27 72.31 71.72 72.78 73.19 73.55 71.90 71.44 70.37 67.84 66.94
42.62 40.95 43.37 47.30 52.70 55.78 57.38 51.67 60.62 64.16 63.97 63.10 63.97 64.41 64.91 65.33 66.65 67.99 69.27 69.35 69.86 70.10 70.50 70.57 71.21 70.93 71.17 71.08 70.95 71.19 71.02 70.93 71.80 71.83 72.28 72.48 72.70 72.84 72.34 72.50 72.74 72.90 72.63 72.40 71.93 70.17 69.43 66.36 66.32
40.20 40.59 41.87 44.72 49.63 54.20 52.58 52.23 58.76 62.83 63.48 63.33 63.83 64.51 64.84 65.31 65.96 67.90 68.98 69.84 70.20 70.37 70.87 70.94 71.29 71.32 71.44 71.17 71.01 70.90 71.48 71.48 71.71 71.36 72.09 72.91 73.21 73.39 72.85 72.66 73.16 73.05 72.19 71.94 70.69 69.81 68.24 66.36 65.89
44.94 43.84 43.79 46.22 50.00 53.01 52.67 52.15 58.77 61.81 62.65 63.00 63.43 64.24 64.73 65.35 67.31 68.44 68.89 69.69 69.95 69.96 70.15 70.43 70.73 71.25 71.25 70.17 69.52 69.92 69.85 70.65 71.35 71.65 72.55 73.04 73.47 74.11 73.32 72.45 72.91 72.85 72.05 71.73 70.18 68.66 66.95 65.25 65.87
45.06 43.25 43.13 45.87 49.03 50.52 49.69 51.78 58.47 61.40 62.02 63.18 63.55 63.94 64.81 65.66 66.42 67.67 68.14 68.55 69.22 69.09 69.44 69.87 70.45 70.80 71.12 71.28 70.96 70.96 70.95 70.64 71.74 72.54 72.72 73.18 73.60 73.94 73.47 72.47 72.55 72.21 71.47 70.83 69.61 67.53 65.16 64.68 65.69
41.87 43.30 43.68 43.78 46.63 49.12 50.07 48.04 52.09 60.36 61.57 63.17 64.65 65.07 65.65 65.69 65.90 66.76 67.67 68.01 68.86 68.46 69.14 69.62 70.21 70.67 71.02 71.70 71.32 70.99 71.19 71.43 70.94 71.43 71.83 72.12 73.12 73.89 74.01 72.60 72.56 72.14 71.62 70.18 69.28 66.82 65.40 64.44 65.57
38.42 45.54 46.59 45.57 42.36 39.33 48.58 40.10 48.30 54.69 59.03 60.97 61.60 63.53 64.96 65.73 67.07 66.91 67.18 67.82 68.07 68.60 69.51 70.08 70.35 70.33 70.85 71.51 70.98 70.84 70.13 69.48 70.52 70.87 71.69 72.25 72.68 72.99 74.07 72.85 72.44 72.28 71.88 70.68 69.17 66.93 65.37 65.43 65.25
44.71 47.48 45.66 45.16 41.79 39.12 42.33 41.41 45.05 51.85 55.48 58.98 61.36 62.68 63.79 65.20 66.23 66.57 66.09 67.22 68.85 69.14 69.06 69.88 70.16 70.33 70.60 70.99 71.34 70.77 70.20 70.63 70.22 70.82 71.44 72.06 73.09 73.57 73.48 73.18 72.31 71.94 71.74 70.81 68.40 66.86 66.70 64.95 64.76
48.49 45.09 42.05 40.63 39.09 35.42 40.84 42.07 39.58 48.98 54.03 58.73 61.85 63.18 64.20 65.01 65.58 66.25 66.98 67.00 67.70 69.26 68.97 69.54 69.72 70.01 70.58 70.72 71.27 70.83 70.42 69.71 69.38 69.64 70.31 71.05 71.97 72.83 73.35 73.09 72.45 71.91 71.13 70.03 68.22 67.48 67.29 66.14 65.77
45.02 40.21 33.69 32.60 33.60 35.58 40.23 39.87 44.87 49.42 56.35 58.87 60.37 62.22 63.81 65.25 65.58 65.76 65.80 65.36 67.22 67.93 68.33 68.63 69.43 69.29 70.31 70.28 70.60 71.12 70.97 70.53 70.04 69.78 70.55 70.21 70.82 71.89 72.37 72.71 71.84 70.64 70.23 69.74 68.08 67.01 66.63 66.92 66.04
41.24 39.60 33.17 29.27 30.05 35.52 39.26 37.61 42.26 50.01 55.73 59.15 60.80 61.95 62.51 63.85 65.33 65.80 66.23 66.40 66.17 67.81 68.40 69.04 69.28 69.32 70.18 70.13 70.23 71.04 71.24 71.03 71.04 70.56 70.72 70.79 71.06 71.73 73.02 72.80 72.48 71.31 69.94 69.10 67.84 66.68 65.72 66.67 66.44
40.36 40.17 41.75 34.32 32.96 32.17 36.08 40.33 46.49 49.92 50.75 56.02 58.08 59.61 60.12 61.05 63.95 65.00 66.20 66.69 66.90 66.90 68.11 69.10 69.40 69.55 70.04 70.50 70.63 70.75 71.19 71.29 71.00 70.90 71.01 71.09 71.59 72.08 72.56 72.83 72.50 71.65 69.91 68.92 67.54 66.38 65.80 65.95 66.00
43.75 43.55 37.80 32.33 30.60 28.76 33.85 35.86 40.74 46.01 49.60 51.79 54.90 57.48 59.57 60.85 61.62 64.17 65.44 66.17 66.93 67.40 68.22 69.43 69.97 69.56 70.21 70.81 71.23 71.22 71.36 71.96 71.88 71.18 70.49 70.85 71.42 72.53 71.91 72.43 72.32 71.59 69.68 68.78 67.43 66.66 66.58 66.39 65.33
40.99 39.42 36.45 39.02 34.47 32.33 29.82 36.68 42.92 46.83 49.52 51.25 53.44 57.64 59.18 59.88 61.09 62.59 64.61 66.05 66.65 67.33 67.59 68.48 69.44 69.63 69.93 71.33 71.55 71.48 71.50 71.85 71.98 71.00 71.20 71.06 71.49 71.63 71.43 72.00 72.02 71.25 69.71 68.38 67.78 67.08 66.42 66.27 66.13
48.04 43.91 38.31 36.87 34.12 32.61 33.62 38.35 45.94 46.87 50.09 51.43 52.63 54.75 58.69 60.13 61.39 62.24 63.96 65.24 65.89 66.20 66.95 67.63 69.05 69.30 69.94 71.23 71.68 71.60 71.73 71.81 71.64 71.20 71.53 71.73 70.96 71.14 71.25 71.53 71.59 71.01 69.98 68.85 67.79 67.13 67.07 65.95 65.72

GFSSGP_sfc_wetblb_033.txt.gz
Wetbulb
74.84 74.92 74.18 70.56 61.17 60.05 55.67 57.62 63.00 61.05 61.65 65.18 66.00 63.26 62.18 63.14 60.06 56.82 69.44 71.57 72.32 72.11 74.18 75.06 76.37 76.97 77.01 77.24 78.34 78.36 77.98 77.54 77.68 77.46 76.75 76.65 76.73 76.51 76.38 76.17 75.90 75.91 75.98 75.86 75.52 75.85 75.43 74.89 74.98
74.53 73.53 71.72 64.81 57.52 55.49 56.56 60.87 59.94 62.44 64.29 66.12 65.49 64.58 62.84 61.11 65.88 66.96 68.39 72.29 72.55 73.41 74.17 75.15 76.27 77.46 77.35 78.03 78.33 78.09 77.16 77.18 77.22 76.87 76.78 76.57 76.51 76.55 76.26 76.02 75.87 76.11 76.10 75.96 76.02 75.91 75.47 74.87 74.59
73.93 73.51 66.82 62.26 59.51 56.12 56.56 60.86 62.23 63.93 65.64 64.83 63.81 65.90 63.82 63.24 66.98 68.34 70.64 72.87 73.08 72.94 74.36 76.34 76.76 77.83 77.61 77.61 77.77 77.88 77.44 77.11 77.10 76.91 76.90 76.74 76.36 76.21 75.96 75.93 76.03 76.49 76.37 75.77 75.85 75.71 75.55 75.03 74.45
72.15 70.14 67.75 60.50 57.24 60.13 60.29 62.75 64.26 64.17 65.16 65.87 65.27 62.29 65.88 68.72 68.16 70.58 72.17 72.77 72.53 73.15 74.56 76.52 77.51 77.32 77.56 77.52 77.47 77.06 77.11 76.99 76.94 77.03 76.76 76.50 76.07 75.80 75.88 76.04 76.28 76.53 76.02 75.56 75.42 75.61 75.30 74.87 74.62
70.71 67.48 61.13 58.90 58.55 61.07 63.90 64.98 65.55 63.36 63.81 64.02 64.62 61.61 63.16 68.81 71.29 71.62 72.17 72.58 72.46 73.29 75.15 75.99 77.76 77.87 77.47 77.48 77.40 76.90 76.67 76.78 76.94 76.83 76.66 76.24 75.83 75.72 75.64 75.69 76.02 76.40 76.28 75.70 75.45 75.03 75.08 75.00 74.78
66.64 65.84 58.33 56.24 57.78 61.71 64.31 65.96 65.67 64.44 64.36 63.93 63.31 63.01 64.51 70.33 70.04 71.26 72.44 72.57 73.37 73.41 74.70 75.54 77.08 77.44 77.51 77.25 77.15 76.92 76.73 76.70 76.78 76.82 76.56 76.16 75.89 75.83 75.56 75.36 75.70 76.23 75.89 75.45 75.39 75.12 74.92 74.70 75.36
62.82 61.24 56.72 56.92 57.67 60.60 63.22 66.90 65.04 64.45 63.76 63.05 66.08 61.80 65.18 67.82 70.62 71.92 72.33 73.28 73.57 74.23 74.69 75.26 75.39 76.86 76.92 76.91 76.68 76.73 76.91 76.78 76.57 76.47 76.58 76.16 75.64 75.36 75.20 75.34 75.45 75.33 75.27 75.24 74.88 74.95 75.03 74.97 75.50
65.03 61.64 56.31 58.26 58.25 58.91 65.12 65.53 66.86 65.07 63.26 67.55 67.47 62.04 61.83 67.81 71.19 71.99 72.37 72.87 73.29 74.04 74.40 75.39 75.10 75.64 76.06 76.24 76.50 76.42 76.57 76.70 76.74 76.53 76.14 75.88 75.61 75.20 75.28 75.28 74.94 75.36 74.71 74.90 74.96 74.69 74.67 74.87 74.89
65.47 59.02 57.47 57.19 58.56 60.42 66.27 64.22 66.55 67.94 65.13 65.53 67.03 66.29 67.98 70.23 71.26 70.77 70.67 71.56 72.37 73.10 73.96 74.55 74.73 75.94 76.67 76.51 76.19 76.22 76.45 76.52 76.47 76.58 76.06 76.45 78.01 77.39 76.54 76.13 76.19 75.42 75.05 74.92 74.85 74.79 75.19 75.64 75.23
61.92 59.62 58.75 61.21 62.64 61.11 65.52 65.46 65.28 64.60 63.94 64.15 65.56 67.91 68.91 69.96 69.77 68.89 68.97 69.13 70.34 71.57 73.11 74.22 74.60 75.20 75.76 75.27 76.64 76.75 75.90 75.58 76.23 76.38 77.03 77.53 77.19 76.90 76.30 76.72 76.20 75.11 75.15 75.03 74.96 75.30 75.42 75.63 76.68
64.10 60.21 62.65 61.72 63.84 64.96 65.48 65.37 66.95 64.53 62.13 64.89 64.58 66.04 67.76 68.60 68.85 68.58 68.85 69.34 69.99 71.51 72.62 73.82 74.55 75.36 75.33 75.04 75.53 75.76 75.41 75.55 75.93 77.01 76.97 76.98 77.30 77.27 77.16 77.53 77.39 77.80 75.78 77.12 76.39 77.06 76.43 75.50 74.80
60.64 63.75 64.05 63.77 64.68 65.34 64.99 66.95 64.67 65.47 64.00 66.89 67.87 67.84 67.99 67.60 67.94 68.20 68.39 69.06 70.07 71.24 72.13 73.48 74.46 74.90 75.28 75.07 75.23 75.48 75.32 75.26 74.93 75.33 77.02 76.39 75.29 76.16 76.69 77.00 77.42 77.27 77.14 74.93 75.88 75.99 76.46 76.59 76.04
63.17 63.10 63.25 64.68 64.31 63.35 66.64 65.30 65.46 65.49 67.12 68.58 68.66 67.97 67.59 67.83 68.22 69.23 69.93 70.34 70.97 70.97 71.91 73.10 74.20 74.88 75.32 75.47 74.98 75.01 75.38 74.87 74.73 75.32 75.76 75.29 75.10 76.36 77.03 76.79 76.41 76.84 75.10 75.12 77.53 75.36 75.39 75.83 75.58
60.93 62.68 61.20 58.88 60.19 61.35 61.96 63.36 65.80 66.75 68.21 67.72 67.37 67.08 67.77 67.86 68.48 69.19 69.81 69.98 70.34 71.31 71.88 73.51 74.09 74.91 75.41 75.08 75.66 75.57 75.70 75.46 75.23 74.62 74.85 75.50 75.32 76.62 76.50 76.36 75.88 76.00 76.44 77.00 75.13 76.98 74.74 75.30 75.30
56.07 52.55 54.94 55.41 56.97 57.18 60.29 58.97 62.41 67.11 67.74 66.44 66.38 66.82 67.53 68.22 69.31 69.20 70.36 70.41 70.97 71.36 72.36 72.88 74.00 74.92 75.20 75.18 75.35 75.71 75.46 75.15 74.29 74.31 75.64 75.28 75.39 76.33 76.95 76.63 75.75 77.20 77.86 77.89 77.31 74.83 74.73 70.42 69.33
52.11 52.41 50.27 54.46 55.79 56.92 59.27 53.81 62.00 67.47 66.63 65.64 65.98 66.37 67.13 68.04 69.20 70.44 71.16 71.63 72.05 71.94 72.25 73.21 73.61 74.17 74.73 75.05 75.25 75.03 75.09 74.63 74.08 74.28 74.44 75.17 75.67 76.67 76.68 76.16 75.90 76.82 77.45 78.50 77.05 73.70 74.98 73.12 69.83
49.51 47.50 49.57 51.76 56.32 57.79 58.92 55.39 60.47 67.17 66.69 65.63 65.78 66.27 66.77 67.83 69.20 70.51 71.50 71.90 72.37 72.59 72.58 72.78 73.68 73.84 74.42 75.05 75.18 75.08 75.08 73.88 73.86 74.13 74.38 75.52 75.81 76.61 76.34 76.17 76.41 77.17 76.98 77.69 76.42 75.53 74.61 71.94 71.65
45.52 46.56 48.91 49.91 54.43 57.82 57.29 57.47 60.82 65.85 66.22 65.83 65.82 66.21 66.59 67.13 68.28 70.29 71.32 72.04 72.77 73.08 73.57 73.48 73.54 74.25 74.61 74.53 74.57 74.34 74.01 73.44 73.52 73.84 74.50 76.05 76.66 76.89 76.75 76.38 77.06 76.89 76.02 76.08 76.38 75.39 73.95 72.00 71.50
48.34 48.19 49.30 51.27 54.02 56.37 56.62 57.59 59.82 64.76 65.76 65.65 66.10 66.20 66.56 67.16 69.39 70.39 71.22 72.00 72.38 72.97 73.16 73.67 73.82 74.97 74.04 73.18 72.35 71.98 71.08 72.44 74.11 75.43 76.53 76.69 76.75 77.21 77.28 76.44 76.75 76.75 75.91 76.14 76.16 74.81 72.77 70.70 72.15
48.24 47.24 48.49 51.06 52.92 53.03 54.28 56.25 59.65 63.71 64.89 65.95 66.15 66.49 66.98 67.70 68.61 69.47 70.51 71.53 71.88 72.48 73.29 74.00 74.65 75.15 74.56 73.95 73.98 73.12 73.33 73.49 75.09 76.39 76.75 76.98 77.03 77.76 77.34 77.10 76.53 76.78 75.70 75.95 75.31 73.70 72.15 71.65 71.92
48.35 46.52 47.57 48.55 51.36 53.17 53.81 52.53 55.94 62.07 64.86 66.13 67.38 67.92 67.88 68.04 68.01 69.00 69.92 70.82 71.91 72.41 73.18 74.15 75.46 75.74 75.38 75.66 74.33 73.99 74.59 74.70 74.31 75.21 75.76 76.57 77.31 77.73 77.68 77.71 76.89 76.92 76.27 74.81 75.31 73.71 72.10 69.40 70.69
45.65 49.74 48.79 48.51 48.47 46.43 53.71 47.14 54.15 58.19 62.05 64.05 65.61 66.85 67.78 68.39 69.37 69.81 70.11 70.54 71.29 72.83 73.65 74.86 75.26 76.01 75.60 76.48 74.92 74.78 72.25 71.52 73.18 74.71 75.93 76.27 77.39 77.47 77.56 77.71 77.09 77.22 76.13 75.98 75.33 74.06 72.69 70.75 68.86
47.90 50.82 49.05 48.93 48.73 48.87 49.17 48.05 52.48 57.14 58.79 61.99 64.68 66.37 67.56 68.79 69.38 69.59 70.35 71.62 72.02 72.53 72.84 73.85 75.28 75.72 76.29 76.22 76.14 74.71 74.14 73.53 74.32 74.76 76.35 77.49 77.48 77.34 76.99 77.45 77.26 76.93 76.28 76.49 76.03 74.01 72.33 70.60 69.89
52.54 49.91 50.06 49.45 48.64 42.95 48.17 47.54 49.64 52.84 56.71 61.02 64.44 66.00 67.32 68.61 69.46 70.44 71.35 72.15 72.02 72.71 72.78 73.03 74.64 75.17 75.97 75.82 75.97 75.94 75.36 75.08 73.74 74.26 74.00 74.49 75.09 75.81 76.85 77.06 77.43 77.33 76.81 76.43 75.90 75.07 73.41 71.75 70.99
51.04 48.20 42.90 41.45 41.43 41.28 50.22 47.30 49.99 55.23 58.15 59.14 62.80 65.53 67.07 68.08 69.24 69.92 70.55 70.87 72.07 72.81 72.87 73.25 73.96 73.97 75.26 75.05 75.42 75.60 75.59 75.98 75.84 75.42 74.16 75.10 74.26 74.81 76.56 77.39 77.10 76.52 77.05 76.79 76.16 74.86 73.52 72.46 70.86
48.76 48.05 42.74 38.12 39.90 42.81 48.50 45.11 49.87 55.73 57.56 60.62 62.21 65.04 67.42 67.97 68.57 69.19 70.62 71.66 71.69 71.94 73.08 72.94 73.37 73.60 74.57 74.71 75.03 75.65 76.10 74.96 75.13 75.59 74.50 74.44 74.47 75.36 77.39 77.45 77.35 77.18 76.79 76.07 75.51 74.39 73.07 72.64 71.78
47.92 46.11 49.96 44.45 43.64 42.59 45.90 49.35 52.55 55.12 56.12 58.74 61.17 62.79 65.03 67.07 68.39 69.16 70.50 71.28 71.42 71.75 72.53 73.02 73.07 73.56 74.39 74.45 74.95 75.19 75.69 75.86 75.42 76.46 76.56 75.05 76.92 75.52 76.74 77.23 77.09 77.12 76.66 75.82 75.08 73.86 72.89 71.97 71.93
49.34 51.01 43.70 45.67 39.05 38.36 43.56 44.84 47.47 53.29 54.48 56.66 58.73 60.72 63.39 65.46 67.11 68.59 70.01 71.17 71.76 71.45 72.71 73.33 73.42 73.42 74.02 74.47 74.77 74.61 75.08 75.88 76.04 76.48 76.15 76.13 76.69 76.59 76.22 76.44 76.69 76.79 76.58 75.69 74.88 73.60 73.32 71.82 70.97
46.51 46.56 47.87 47.53 45.49 41.08 40.06 44.01 52.74 54.65 57.88 58.05 58.68 60.81 62.20 64.14 65.68 66.60 69.21 70.91 72.04 72.05 72.06 72.98 73.25 73.50 73.93 74.39 74.72 74.82 74.80 75.39 75.93 75.77 76.17 76.44 76.86 76.67 76.65 76.41 76.29 76.45 76.20 75.75 74.54 74.00 72.98 71.57 71.59
50.20 48.63 48.35 43.91 43.18 44.90 44.78 44.66 53.22 55.02 56.38 58.31 58.97 60.52 62.51 64.70 66.38 66.46 67.14 69.16 70.02 71.56 72.00 71.75 72.92 73.25 73.83 74.32 74.63 74.65 75.16 75.35 75.47 75.53 76.04 76.72 76.40 76.50 77.22 76.62 76.30 76.27 76.05 75.55 74.48 73.60 72.73 71.85 71.29

GFSSGP_sfc_wetblb_036.txt.gz
Wetbulb
74.95 75.45 74.36 71.42 62.98 63.22 59.10 59.42 64.62 63.38 63.70 67.42 67.59 65.30 62.77 64.70 61.50 57.84 70.59 71.86 73.60 72.26 73.63 75.39 76.68 77.16 77.45 77.79 78.18 78.35 77.68 77.32 77.74 77.48 76.97 77.04 76.87 76.77 76.56 76.10 76.10 76.37 76.24 75.85 75.87 75.87 75.27 75.38 75.19
76.00 74.70 71.72 69.14 61.51 58.51 58.79 63.31 61.91 64.89 66.76 68.46 67.78 66.90 65.20 63.44 68.36 67.92 70.11 72.79 72.53 72.57 75.68 76.24 76.84 77.51 77.62 77.78 78.27 78.23 77.34 77.36 77.21 77.05 77.00 76.90 76.79 76.53 76.35 76.24 76.57 76.60 76.16 76.38 76.15 75.85 75.33 74.91 74.66
75.46 74.16 67.77 65.40 62.36 58.32 58.79 63.40 65.10 66.48 67.78 67.24 65.98 68.54 66.79 64.16 68.70 69.53 71.58 73.24 73.48 73.67 75.72 76.79 76.80 77.57 77.48 77.72 77.88 77.96 77.22 77.20 77.03 77.06 76.90 76.91 76.73 76.35 76.26 76.37 76.33 76.52 76.10 75.96 75.96 75.58 75.63 74.85 74.57
72.88 71.62 69.07 61.88 59.53 62.42 62.88 65.24 66.57 66.15 67.14 67.61 67.71 64.51 67.89 70.27 69.57 72.11 73.32 72.48 73.66 74.10 75.47 76.22 76.97 77.41 77.76 77.44 77.41 77.14 77.17 77.12 77.14 77.10 76.75 76.59 76.35 76.24 76.27 76.78 76.43 76.44 75.91 75.94 75.83 75.66 75.24 74.71 74.67
73.46 69.77 63.98 61.82 60.79 63.52 65.94 67.04 67.03 65.34 66.13 66.41 66.93 63.06 63.64 69.41 72.66 74.21 73.30 73.73 73.73 74.45 75.84 76.94 77.80 78.01 77.97 77.54 77.29 77.23 77.15 77.26 77.04 76.80 76.56 76.32 76.13 76.13 76.10 76.30 76.77 76.44 75.85 75.80 75.49 75.46 75.46 75.38 75.04
67.19 68.40 61.25 57.42 60.21 64.30 66.47 67.80 67.23 66.17 66.69 66.11 66.07 65.58 65.61 71.53 71.43 72.57 73.46 73.26 74.18 74.19 74.89 76.24 77.80 77.69 77.84 77.51 77.15 76.85 76.87 77.09 77.06 76.86 76.57 76.32 76.19 75.99 75.83 75.88 76.13 76.24 75.73 75.32 75.49 75.15 75.01 75.29 75.52
67.20 64.26 60.25 60.06 60.57 62.73 65.24 68.75 66.71 66.15 65.77 65.41 68.51 65.30 67.73 69.05 72.04 72.64 73.22 73.67 73.86 74.55 74.44 75.25 76.32 77.37 77.59 77.37 76.99 77.04 76.82 76.85 76.99 76.86 76.51 76.35 76.02 75.74 75.71 75.47 75.54 75.47 75.55 75.13 75.22 75.48 75.49 75.43 75.47
69.21 64.79 60.20 62.00 60.58 61.97 66.92 67.52 68.63 66.53 65.42 69.92 70.04 64.35 64.54 69.26 72.83 73.51 73.25 72.84 73.55 74.26 74.13 74.61 75.67 76.06 76.76 77.10 76.86 76.94 76.93 76.88 76.73 76.70 76.43 76.24 75.94 75.63 75.85 75.30 75.55 75.28 74.84 75.17 75.04 75.19 75.54 75.68 75.55
69.89 62.30 60.77 59.97 60.88 62.53 68.23 66.52 68.64 69.40 67.27 67.65 68.74 69.13 70.61 72.14 73.07 72.70 71.43 71.31 72.26 73.21 73.87 74.30 74.65 75.80 76.56 76.30 76.50 76.55 76.80 76.86 76.75 76.72 76.22 76.29 78.05 77.68 77.36 76.17 75.91 75.06 74.74 74.83 74.90 75.03 75.18 75.78 76.30
66.31 62.08 60.65 63.64 63.45 62.86 66.86 67.20 67.53 66.29 66.19 66.30 67.76 70.36 71.41 71.66 71.83 70.95 70.70 70.10 72.24 72.44 73.03 73.87 74.32 74.95 75.80 75.12 76.62 76.68 76.01 75.95 76.41 76.97 77.40 78.10 78.29 78.40 77.24 76.58 75.77 75.42 74.98 75.08 75.14 75.39 75.77 75.59 75.44
66.09 61.86 64.07 63.01 64.86 66.77 66.72 67.16 68.85 66.25 63.99 66.90 66.84 68.55 70.22 70.65 71.13 71.22 71.66 72.22 72.29 72.90 72.97 73.78 74.58 75.78 75.57 75.43 75.78 75.78 75.56 75.76 76.67 77.71 77.62 78.45 78.77 78.72 78.66 77.83 76.71 77.42 76.25 76.23 76.08 76.67 76.07 75.81 76.69
63.50 65.38 65.49 64.61 65.27 65.24 66.09 68.54 67.07 67.20 65.95 69.11 70.10 70.10 70.61 70.23 70.84 71.16 71.38 71.85 72.39 72.81 73.32 74.25 75.00 75.49 75.60 75.26 75.22 75.35 74.54 75.01 74.91 75.64 77.58 78.45 76.98 77.43 78.95 78.30 77.75 77.56 77.03 76.94 76.49 75.70 76.78 77.08 75.89
64.21 64.65 64.24 65.56 65.43 64.76 65.18 65.69 65.34 67.12 68.38 69.85 70.64 70.14 70.10 70.48 71.01 71.76 72.31 72.56 73.04 72.66 73.70 74.51 75.44 75.88 76.12 75.87 75.03 74.87 74.95 74.52 74.76 75.64 76.69 77.34 77.57 78.61 78.19 78.05 78.02 77.83 77.18 76.41 75.87 77.05 75.74 75.98 74.57
64.22 64.77 63.87 62.85 62.34 62.45 61.66 63.70 65.53 67.08 69.81 69.26 69.50 69.41 70.21 70.39 70.89 71.52 71.55 71.71 72.44 73.11 73.51 74.40 75.14 75.99 76.12 75.92 76.51 75.49 75.53 75.12 74.98 74.91 75.75 77.39 77.37 79.05 78.45 77.85 77.41 77.75 78.29 76.90 76.15 76.40 75.27 75.75 75.70
63.81 57.60 58.65 59.68 59.81 59.13 61.20 59.24 60.98 66.47 69.70 68.91 69.13 69.62 69.91 70.44 71.21 71.12 71.76 71.74 72.63 73.40 74.14 74.15 75.08 75.86 76.08 76.30 76.47 76.15 75.51 75.29 74.62 74.65 76.52 77.27 77.52 78.20 78.50 76.95 76.85 77.12 77.85 77.51 77.09 77.13 76.18 75.22 74.31
57.42 56.44 53.76 58.85 59.06 59.08 59.38 56.33 61.69 66.71 68.60 68.49 69.05 69.29 69.30 70.05 70.80 71.93 72.49 72.73 73.42 73.70 74.09 74.88 74.88 75.25 76.00 76.24 76.34 75.86 75.70 75.46 74.77 74.69 75.65 76.93 77.20 78.32 78.67 77.47 78.05 78.12 77.54 77.25 77.15 77.59 74.37 74.67 72.51
54.30 52.77 54.88 56.41 59.13 59.17 58.61 57.96 62.20 66.28 68.10 68.03 69.01 69.05 68.93 69.66 70.69 71.75 72.46 72.83 73.23 73.69 74.13 74.63 75.33 75.12 75.81 76.73 76.54 76.37 76.65 75.72 74.67 74.81 75.65 77.02 77.42 78.12 78.33 77.25 78.40 79.92 78.70 77.55 77.37 75.88 75.26 72.81 73.36
51.96 51.89 54.62 55.56 58.17 58.32 58.54 58.79 60.80 65.52 67.22 67.75 68.77 69.17 69.12 69.22 69.85 71.79 72.64 73.11 73.72 74.11 74.60 75.08 75.30 75.87 76.67 76.32 76.69 75.96 75.33 75.14 74.53 74.86 75.52 77.04 77.49 77.84 78.49 77.50 77.67 77.42 78.47 76.56 76.69 76.45 74.83 72.99 71.42
54.84 53.79 53.46 56.47 58.36 56.66 57.22 58.36 59.72 64.83 66.67 66.96 68.40 68.99 69.33 69.75 71.34 72.28 72.79 73.23 73.71 74.29 74.57 75.13 75.17 76.41 76.14 75.29 74.48 73.89 73.02 73.51 73.58 74.89 76.52 77.81 78.13 78.94 79.45 77.90 78.43 78.31 76.51 77.23 77.87 76.49 74.82 72.37 72.44
52.70 51.33 52.59 56.10 57.24 55.93 57.34 57.53 60.25 63.55 66.06 67.52 68.01 68.58 69.42 70.32 70.77 71.43 72.52 73.03 73.29 73.83 74.84 75.65 75.81 76.60 76.79 75.87 75.96 74.51 73.82 73.01 73.78 75.54 77.21 78.86 79.18 79.27 79.40 79.45 78.12 78.28 77.93 78.11 77.92 76.85 74.05 73.48 72.90
51.33 51.22 52.26 53.03 55.39 56.05 55.56 55.05 57.64 60.97 65.18 66.96 68.46 69.49 69.83 70.20 70.46 70.84 71.47 72.23 73.01 73.43 74.33 75.69 76.90 77.30 77.22 77.96 75.97 75.30 74.56 73.94 73.51 75.18 76.59 78.55 78.99 79.27 79.83 79.35 79.08 78.81 78.37 76.62 77.45 76.36 74.71 71.48 71.12
49.37 52.99 52.58 52.00 51.99 49.54 56.43 50.37 57.12 59.15 61.14 63.74 65.91 68.48 69.35 70.33 71.53 71.43 71.27 71.93 72.68 73.74 75.00 76.50 77.25 77.67 77.65 78.34 76.71 77.16 73.03 71.97 73.10 75.27 76.60 77.16 79.21 79.15 79.34 79.72 79.43 79.74 77.77 78.34 77.50 76.76 76.05 74.47 69.49
49.96 53.09 52.10 51.97 50.81 51.59 52.58 51.20 54.96 58.96 57.82 61.21 64.21 67.02 69.33 70.92 71.48 71.48 71.55 71.83 72.99 74.13 74.58 75.80 77.31 78.59 79.35 78.48 78.21 75.84 75.79 73.70 74.34 74.91 78.89 79.71 79.22 79.24 78.74 79.55 79.44 79.14 78.45 78.41 78.24 77.31 76.66 74.51 71.41
53.02 51.75 51.38 51.66 50.35 46.26 51.64 51.78 52.79 55.88 58.70 60.63 63.80 66.30 68.72 70.19 71.22 72.20 73.08 72.90 72.78 73.91 74.83 75.67 77.55 78.71 78.98 78.34 77.66 78.95 78.17 76.97 74.66 76.05 75.40 76.07 76.55 77.31 78.66 78.83 79.52 79.61 79.07 78.73 78.38 78.44 77.14 75.86 73.91
52.05 50.32 45.24 43.93 44.16 44.39 52.44 50.98 53.40 57.50 59.98 61.02 61.89 64.73 68.40 70.65 70.94 71.69 72.52 72.93 72.74 73.31 74.39 75.27 77.06 77.68 77.97 77.60 77.75 77.95 78.59 78.53 78.55 77.91 76.04 77.63 75.40 75.53 78.36 78.74 78.73 78.59 79.50 79.11 79.16 78.53 77.11 76.47 74.48
50.67 50.23 45.72 41.61 43.04 45.51 51.56 48.46 52.92 58.77 60.49 61.19 62.53 63.08 67.10 69.64 71.09 71.35 72.52 73.41 73.72 73.84 75.33 75.69 76.82 77.53 77.92 77.63 78.91 79.50 80.01 76.92 76.79 78.15 76.86 76.34 75.72 76.47 77.95 77.97 78.58 79.05 79.23 79.28 79.24 77.78 76.65 76.48 75.40
51.08 48.16 52.11 47.56 49.22 46.53 49.14 51.73 55.29 57.84 58.96 60.23 60.75 62.32 63.72 68.66 70.45 71.46 72.35 73.28 74.08 74.74 75.99 76.61 77.52 77.78 77.45 77.10 78.95 79.28 79.29 78.84 77.59 79.01 79.29 77.50 79.34 77.16 77.66 77.96 78.69 78.95 78.95 79.38 78.95 77.24 76.46 75.94 75.84
52.95 53.71 47.18 48.27 43.20 42.47 46.53 48.87 50.33 54.99 56.45 59.03 59.95 61.72 63.51 66.78 69.69 70.79 72.06 73.06 74.15 75.05 75.82 76.77 77.61 77.79 78.10 77.76 77.78 77.84 78.39 79.48 79.53 79.88 79.41 79.29 79.15 79.47 78.32 78.00 78.30 78.74 78.65 78.88 78.87 77.57 77.14 76.02 74.98
50.33 50.06 50.70 50.33 48.53 45.06 44.36 47.48 55.57 56.11 58.22 58.54 60.37 62.35 63.65 65.80 68.31 70.14 71.04 72.44 73.46 74.63 75.23 75.50 76.39 77.45 77.36 77.81 78.45 78.45 77.75 78.22 78.56 78.95 79.77 80.01 79.28 80.20 78.92 78.90 77.99 77.72 77.99 78.62 78.36 78.16 77.13 75.80 75.33
52.86 51.13 51.29 46.70 46.88 48.29 48.44 49.24 55.10 56.41 57.76 59.74 60.18 61.92 63.82 65.49 66.89 68.69 69.94 71.22 72.56 73.45 74.10 74.55 75.30 75.62 76.11 77.82 78.68 78.35 78.40 78.55 77.98 78.67 79.37 80.40 79.91 80.02 79.73 79.52 78.52 78.07 77.73 78.25 78.11 77.22 76.58 75.62 74.88

GFSSGP_sfc_wetblb_039.txt.gz
Wetbulb
74.66 75.02 74.45 72.18 62.73 63.59 58.82 59.88 63.36 62.86 63.31 66.92 67.02 66.00 64.57 66.32 62.11 58.69 69.26 71.90 71.36 72.10 74.99 75.88 76.94 77.55 77.53 77.91 78.29 77.94 77.54 77.26 77.51 77.24 76.98 77.10 76.88 76.53 76.29 76.35 76.65 76.37 76.09 76.29 75.93 75.60 75.43 75.35 75.35
74.91 74.64 74.05 68.61 60.98 55.87 57.89 62.51 61.12 63.95 67.58 68.44 68.30 66.85 66.01 63.49 68.05 68.01 67.77 73.13 71.18 70.91 74.92 76.15 77.03 77.71 77.87 78.00 78.15 78.28 77.23 77.39 77.19 77.28 76.98 76.91 76.75 76.34 76.29 76.55 76.49 76.40 76.73 76.32 75.93 75.43 75.15 74.79 74.65
74.33 73.94 67.68 65.95 60.94 54.77 57.14 61.99 64.83 67.19 68.57 67.07 67.08 68.06 66.84 66.21 69.44 68.32 71.38 72.41 71.41 73.62 75.50 76.77 76.89 77.47 78.09 77.98 77.72 77.98 77.23 77.20 77.25 76.88 76.86 76.78 76.54 76.24 76.65 76.27 76.68 76.35 76.26 76.24 75.96 75.46 75.29 74.80 74.46
74.12 72.66 70.19 60.56 58.30 62.90 62.01 65.00 66.92 66.63 67.29 68.63 67.79 65.28 69.36 72.09 70.82 72.59 74.39 71.91 72.44 74.77 75.18 76.40 77.33 77.94 77.79 77.38 77.33 77.34 77.17 77.15 77.24 77.00 76.65 76.48 76.40 76.40 77.01 76.74 76.71 76.18 76.13 76.07 75.93 75.51 75.14 75.05 74.76
73.09 70.62 64.36 61.89 60.90 62.37 65.49 67.02 67.28 65.18 66.72 67.02 67.13 64.84 65.57 70.08 73.31 74.51 72.98 73.41 72.98 74.01 75.48 76.96 77.70 78.18 77.58 77.33 77.29 77.29 77.18 77.24 76.97 76.65 76.35 76.32 76.21 76.35 76.60 76.82 76.80 76.40 75.93 75.98 75.79 75.79 75.81 75.64 75.39
68.86 69.59 57.77 55.70 60.60 63.32 65.71 67.53 66.82 67.00 67.75 68.03 67.11 66.20 66.93 72.03 72.52 72.72 73.77 73.42 74.27 75.24 75.52 76.75 77.68 78.19 77.88 77.24 77.38 77.29 77.32 77.10 76.86 76.70 76.46 76.27 76.32 76.21 76.24 76.38 76.62 76.59 76.16 75.78 75.47 75.28 75.62 75.62 75.74
67.83 65.11 59.08 58.50 60.58 62.48 64.55 67.42 65.48 66.89 66.73 67.37 69.69 65.38 68.20 70.39 72.42 72.73 73.20 73.67 74.47 74.27 75.80 75.93 76.41 77.60 77.63 77.32 77.13 76.97 76.91 77.03 76.87 76.62 76.46 76.49 76.24 76.01 75.65 75.84 75.94 76.07 76.06 75.64 75.49 75.25 75.53 75.79 75.79
70.95 67.18 61.31 61.32 58.51 60.93 65.47 66.75 67.45 67.27 66.89 71.21 71.31 65.56 65.50 70.64 72.73 72.77 73.46 72.89 74.44 73.60 74.11 74.25 75.08 76.10 76.61 76.76 77.09 76.98 76.81 76.75 76.70 76.63 76.32 76.43 76.35 76.46 76.23 75.96 75.90 75.38 75.46 75.71 75.47 75.37 75.39 75.68 76.24
72.27 63.90 58.90 59.41 57.72 62.79 66.45 65.00 67.95 69.89 68.26 69.19 69.83 70.26 71.30 72.35 72.55 71.56 71.17 71.33 71.87 72.33 73.05 73.69 74.18 75.56 76.72 76.55 76.89 77.02 76.70 76.76 76.68 76.59 76.32 76.76 77.38 77.49 77.36 76.77 75.61 75.14 75.24 75.40 75.52 75.61 75.60 75.55 75.85
67.13 61.45 58.49 63.06 63.83 62.56 65.98 64.84 65.98 66.34 66.78 67.11 69.29 71.48 72.05 72.19 70.75 70.77 69.60 69.43 70.82 70.98 72.35 73.34 74.10 74.70 75.42 74.59 76.25 76.40 76.00 75.82 75.91 76.15 77.01 75.00 77.35 77.60 76.48 77.10 76.21 75.92 75.93 76.05 75.99 76.04 77.04 75.33 75.18
66.44 61.51 62.09 63.86 65.54 65.48 65.00 65.20 66.49 65.14 64.54 67.32 68.06 69.56 70.76 71.60 71.51 70.24 70.79 71.22 71.38 72.64 72.54 73.16 74.35 75.44 74.88 75.58 74.92 75.24 74.92 75.43 76.45 78.05 77.88 77.29 77.36 76.97 74.04 76.29 75.54 76.14 76.23 74.17 75.99 74.06 75.90 73.35 75.04
63.26 65.57 65.68 64.82 65.68 66.16 64.59 66.39 65.12 65.43 65.55 69.64 70.46 71.23 70.95 70.95 71.36 71.74 71.71 72.29 72.64 72.55 72.71 73.14 74.51 75.41 75.20 75.22 74.59 74.75 74.43 74.98 75.03 76.62 78.05 78.47 76.79 77.22 77.82 74.69 76.45 74.64 74.70 76.23 75.97 75.65 75.79 73.87 75.01
63.87 64.29 66.34 66.39 65.87 65.42 66.81 65.27 65.87 66.06 67.39 69.91 71.06 71.06 70.61 70.99 71.51 72.37 72.82 73.05 73.19 72.37 72.55 73.18 74.66 76.59 76.71 76.68 74.94 74.94 74.64 74.25 74.74 75.93 77.49 77.61 76.98 77.33 75.78 76.98 75.54 78.01 76.68 76.04 76.85 75.80 75.62 72.30 74.22
65.08 65.19 65.68 65.32 65.21 64.78 63.74 64.12 65.50 67.89 69.01 69.79 70.04 70.42 70.83 71.23 71.50 72.18 72.37 72.41 72.51 72.91 73.00 73.88 74.47 76.07 76.48 76.84 77.59 75.45 75.15 74.98 74.89 75.08 76.18 77.88 77.26 78.07 78.32 76.81 76.63 76.99 75.04 73.03 75.97 76.70 75.49 74.62 73.49
65.12 61.88 64.55 64.90 64.32 61.76 63.76 61.25 63.16 68.25 69.46 69.24 69.46 70.18 70.89 71.44 72.05 71.73 72.46 72.37 72.68 73.06 73.81 74.08 74.99 75.93 76.21 76.51 76.56 76.05 75.39 74.98 74.48 74.84 77.06 77.51 77.98 77.97 78.32 76.53 77.42 76.75 77.40 77.71 77.86 76.16 75.87 72.56 73.77
61.89 62.01 57.96 61.54 62.49 62.22 61.47 57.53 62.40 66.87 69.23 68.72 69.13 69.56 70.00 70.91 71.53 72.41 72.76 72.95 73.47 73.64 74.14 74.72 74.51 75.20 76.00 76.66 76.51 75.81 75.37 74.87 74.89 74.80 76.22 77.56 78.08 78.41 78.07 76.30 75.65 78.06 77.61 76.31 76.55 75.41 72.79 74.43 72.37
57.68 55.65 57.61 58.25 62.06 61.18 59.97 58.25 61.87 65.76 68.01 68.68 69.51 69.74 69.56 70.14 71.46 72.42 72.83 73.09 73.28 73.99 74.66 74.63 75.19 75.00 75.78 77.80 76.72 76.31 77.99 75.57 74.89 74.85 75.52 78.46 78.10 78.50 78.45 76.52 76.02 78.91 76.60 75.90 75.54 74.49 74.19 71.02 71.51
53.24 55.25 57.23 56.57 59.86 60.24 58.86 58.98 62.19 64.53 66.69 67.65 69.42 69.94 69.83 69.55 70.28 72.17 72.79 73.11 73.71 74.17 74.99 75.66 75.23 77.86 78.64 77.18 77.83 75.93 75.16 75.32 75.30 74.70 75.28 78.49 78.04 78.38 78.58 77.68 78.20 77.86 75.24 76.21 76.00 76.12 73.36 72.07 70.14
56.60 56.70 55.98 59.20 59.83 59.29 58.93 59.39 61.01 63.53 65.85 66.81 68.87 69.62 69.87 70.18 71.29 72.13 72.84 73.00 73.18 73.82 74.45 76.32 76.44 78.54 77.04 75.42 74.55 74.55 73.30 74.52 74.22 74.74 76.90 77.73 77.92 78.71 79.35 78.02 77.46 77.69 76.87 76.73 75.83 75.68 73.76 71.37 71.50
57.50 55.93 56.54 58.51 59.98 59.26 58.91 58.45 60.80 62.79 65.47 67.00 68.18 69.15 69.88 70.49 70.97 71.19 72.23 72.65 72.58 73.43 75.28 77.14 77.79 79.16 78.46 76.57 77.08 75.75 75.87 74.06 74.08 74.40 78.21 77.69 78.30 79.31 79.15 80.39 75.28 78.29 77.27 77.54 76.31 75.71 73.54 72.04 71.38
55.71 54.99 55.36 55.73 58.55 59.18 57.91 56.83 59.39 61.95 64.91 67.41 68.62 69.60 70.21 70.65 70.73 71.14 71.28 72.19 72.73 73.53 75.92 76.70 78.28 79.04 78.75 78.99 77.84 77.58 76.81 75.77 73.35 73.96 75.04 77.16 78.45 79.14 80.34 78.97 78.45 77.87 77.77 77.43 77.65 75.97 75.02 71.71 70.00
51.32 55.86 55.79 54.99 55.32 52.89 57.84 50.89 57.28 59.61 61.75 64.71 67.36 68.69 69.30 70.56 71.75 71.98 71.53 71.82 72.46 73.80 75.32 77.83 78.96 79.45 79.20 79.65 77.07 77.20 73.35 71.54 72.25 73.62 74.38 77.12 79.24 78.95 79.38 79.02 78.29 79.12 77.98 79.35 78.02 76.27 76.44 74.96 70.79
51.85 55.08 54.76 54.68 53.83 54.38 54.92 53.30 55.97 59.54 58.50 61.75 64.48 67.37 68.96 70.34 71.45 71.77 72.06 72.08 72.77 73.74 74.18 76.70 79.41 79.82 79.84 79.51 78.75 76.32 75.70 73.02 73.51 73.66 77.65 79.12 80.73 79.40 78.57 80.21 80.23 79.84 77.84 80.43 78.20 77.80 77.24 75.25 72.87
54.81 53.10 53.48 53.78 52.76 48.58 52.87 52.84 53.88 56.34 59.26 61.26 63.50 64.79 67.78 69.64 70.95 72.31 73.19 73.14 72.45 73.24 74.10 76.03 78.60 79.45 80.24 80.05 79.48 79.88 77.21 76.32 73.93 74.54 74.49 75.32 76.10 77.97 80.27 79.56 80.93 80.67 79.66 78.99 78.06 79.04 77.95 76.81 75.10
53.07 50.81 45.88 45.11 46.18 46.09 53.79 52.13 54.60 58.84 60.14 61.70 62.27 64.53 66.35 69.52 71.08 71.83 72.35 72.34 72.73 73.65 75.02 76.02 78.29 78.95 80.13 80.10 79.43 79.23 79.31 78.64 79.86 78.83 74.89 76.82 75.03 74.99 78.73 80.40 80.51 78.23 80.27 80.03 80.52 80.50 78.69 77.22 75.73
51.61 50.69 46.25 42.50 43.76 46.39 52.61 50.09 53.73 59.55 61.44 62.45 63.76 64.82 66.37 67.79 70.60 71.70 72.59 72.89 73.83 74.24 75.52 75.96 77.81 78.98 79.85 79.57 79.90 80.15 80.50 77.59 77.18 78.38 76.18 75.70 75.39 75.82 80.56 80.48 80.29 80.29 80.34 79.57 80.95 78.42 77.59 78.50 76.15
52.22 49.67 52.57 49.33 50.62 47.91 49.53 52.71 56.09 59.05 59.73 61.15 62.30 63.78 64.64 66.82 70.13 71.19 72.48 73.36 74.60 74.66 75.97 76.49 77.66 78.92 79.77 79.51 80.05 80.33 80.24 79.65 77.87 78.94 79.65 78.11 78.77 76.86 79.64 79.95 79.93 79.74 79.97 80.58 80.98 77.36 78.78 78.39 77.21
53.94 54.94 48.25 49.57 45.57 45.21 48.73 50.90 51.04 55.80 57.99 60.20 61.17 62.36 63.88 66.04 69.44 71.27 72.11 73.21 74.98 74.86 75.68 77.17 77.95 78.85 79.68 79.71 80.17 80.13 80.64 80.69 80.16 80.31 79.91 78.84 79.86 80.72 80.91 79.62 79.34 79.47 80.18 80.49 80.74 78.65 79.59 78.52 76.47
51.43 51.62 51.81 51.40 49.90 46.67 46.53 49.38 56.91 57.70 59.07 58.99 61.19 62.63 63.45 64.64 68.36 70.88 72.19 73.21 74.69 75.29 75.45 76.27 77.23 78.80 79.28 79.81 80.04 80.04 80.23 80.40 80.96 80.16 80.55 80.59 80.83 81.68 80.31 80.59 79.86 79.89 80.02 80.34 80.21 79.53 79.38 78.25 77.69
54.32 52.43 53.13 48.17 49.00 50.01 50.15 51.02 57.53 58.18 59.10 60.37 60.77 62.69 63.89 65.59 67.69 70.52 71.40 72.74 73.40 74.46 75.27 75.85 76.82 76.53 78.77 79.12 80.02 79.71 80.40 80.26 79.99 80.24 80.57 81.18 81.00 81.14 81.41 81.42 80.44 80.28 79.85 80.16 80.00 78.66 77.30 78.26 77.05

GFSSGP_sfc_wetblb_042.txt.gz
Wetbulb
74.11 73.97 74.05 70.59 63.10 61.64 57.93 58.96 62.50 61.68 62.92 66.27 67.81 65.84 64.47 65.33 62.23 58.21 70.56 71.33 72.02 72.86 74.26 75.71 77.86 78.16 78.10 78.23 78.04 78.19 78.05 77.97 77.97 77.68 77.84 77.53 76.83 77.08 77.16 77.11 76.81 76.62 76.54 76.32 76.11 75.97 75.77 75.72 75.58
74.29 73.51 72.78 68.43 59.48 54.88 55.79 63.26 61.16 63.52 66.61 67.54 68.00 67.07 65.87 63.28 67.16 66.43 68.54 71.72 72.32 72.99 74.45 75.59 77.72 77.98 77.98 77.99 78.33 78.03 78.04 77.35 77.88 77.80 77.47 77.51 76.59 77.09 77.26 76.83 76.54 76.97 76.60 76.38 75.94 75.58 75.52 75.35 75.13
75.23 73.90 67.35 63.60 59.50 55.18 56.11 62.54 63.47 66.25 67.89 66.98 66.29 68.62 67.64 64.70 67.44 67.62 71.03 71.31 72.08 72.99 74.36 76.18 77.47 77.67 77.61 78.45 78.21 78.27 77.92 77.67 77.47 77.26 77.33 76.82 76.76 77.13 76.74 76.83 76.47 76.49 76.47 76.33 76.02 75.75 75.41 75.04 74.84
73.15 71.34 68.54 61.51 57.83 60.26 61.83 64.41 66.00 66.22 67.40 68.22 67.33 64.54 68.56 70.62 67.85 70.16 71.05 69.91 70.62 73.61 75.30 76.91 77.78 77.49 78.10 78.36 78.12 77.89 77.83 77.37 77.42 77.19 76.79 76.79 76.85 77.24 77.05 76.91 76.55 76.55 76.41 76.25 75.94 75.85 75.46 75.25 75.37
72.73 68.58 58.73 56.45 59.80 62.71 65.35 66.33 67.48 65.64 66.06 66.81 67.55 64.22 64.62 69.47 71.02 71.70 70.07 69.28 72.70 73.41 75.56 76.44 78.00 77.89 78.38 78.19 78.12 77.85 77.57 77.16 77.27 76.95 76.69 76.66 76.55 76.80 77.14 77.03 76.58 76.41 76.47 76.22 76.11 76.02 75.85 75.68 75.68
67.15 64.25 56.30 54.40 57.19 62.92 65.45 67.51 66.48 65.74 66.79 67.72 65.92 65.20 65.55 71.35 71.22 71.33 69.33 70.41 74.40 73.98 74.56 75.95 77.77 78.17 78.19 77.76 77.84 77.97 77.44 76.95 77.04 76.85 76.55 76.44 76.39 76.50 76.83 77.03 76.75 76.35 76.18 76.07 75.93 75.80 75.88 75.75 76.00
65.99 60.06 57.37 57.63 56.41 62.20 64.24 67.63 65.28 65.82 66.72 66.86 68.65 64.12 66.71 69.52 71.86 71.27 72.22 73.73 74.24 74.24 74.75 75.61 76.38 77.02 77.79 78.01 77.43 77.24 77.08 76.89 76.93 76.66 76.55 76.44 76.47 76.27 76.41 76.58 76.71 76.59 76.28 76.12 76.04 75.76 75.80 75.30 75.50
69.21 66.02 60.29 59.30 57.93 59.58 65.65 65.65 67.00 66.86 66.82 70.89 70.03 63.94 64.11 69.19 71.68 73.06 72.80 73.36 73.12 73.88 74.47 75.11 75.68 75.05 75.59 75.90 76.89 77.06 77.04 76.76 76.71 76.66 76.39 76.44 76.27 76.49 76.21 77.21 77.14 76.30 76.35 76.10 75.89 75.56 75.54 75.77 75.69
69.98 61.69 59.49 59.20 58.73 59.15 65.46 65.15 67.71 69.33 69.07 69.45 70.40 69.03 70.20 71.41 71.86 71.38 71.30 71.77 72.80 72.29 73.37 73.65 73.61 75.66 76.63 76.27 76.27 76.93 76.71 76.55 76.55 76.36 76.30 76.78 77.27 76.11 75.86 77.78 77.61 75.89 75.29 75.73 75.51 75.43 76.20 76.66 76.66
65.74 58.07 57.94 63.24 62.38 61.93 63.99 64.32 65.96 65.87 66.05 67.57 68.24 70.45 70.86 71.06 70.58 69.09 70.05 69.31 70.58 69.98 71.51 72.70 73.57 74.78 75.27 74.24 76.36 76.83 75.70 75.26 76.12 76.16 67.68 68.21 76.28 76.80 76.89 76.75 78.00 76.03 75.33 75.43 76.35 74.17 76.40 75.25 74.07
65.35 59.69 61.00 62.87 64.08 66.09 63.97 63.92 66.47 64.90 63.73 67.42 66.78 68.44 70.03 69.99 69.78 69.19 69.93 70.42 70.05 71.84 71.04 72.46 74.12 75.43 74.59 74.44 74.85 75.27 75.24 75.28 73.80 72.95 71.44 72.16 75.36 77.57 76.30 75.43 74.16 71.36 74.75 74.69 75.09 73.49 74.80 75.36 74.28
62.34 62.10 63.89 64.13 66.08 65.02 62.61 65.14 63.61 64.54 65.27 70.14 70.00 70.06 70.08 69.29 68.98 69.46 69.69 70.64 70.82 71.62 71.74 72.72 74.57 75.20 75.12 74.77 73.62 75.02 74.59 74.08 75.05 76.08 76.21 78.26 75.14 74.04 73.96 74.32 73.74 71.98 73.86 74.56 74.34 75.10 74.48 74.79 75.75
62.70 62.44 64.66 65.10 65.95 65.00 64.09 64.23 62.16 64.04 67.84 70.68 70.66 70.14 69.56 69.72 69.75 70.50 71.11 71.47 71.81 71.53 71.79 72.99 74.71 76.09 77.69 77.57 74.73 74.51 76.35 75.40 76.42 77.25 78.34 77.23 74.35 75.43 74.56 75.60 74.01 75.06 75.10 74.86 76.19 75.32 74.91 70.52 74.04
64.08 64.27 64.91 66.15 64.60 66.22 64.77 64.44 64.56 65.27 67.68 68.98 69.42 69.26 69.76 69.93 70.30 71.43 71.57 71.59 71.90 71.93 72.18 74.15 74.74 76.31 78.71 78.43 81.02 75.11 78.38 75.54 76.63 76.48 77.29 79.03 76.02 76.51 78.06 76.19 75.69 76.24 73.63 74.48 76.32 77.14 75.91 74.97 73.49
63.71 60.84 63.50 63.60 63.80 62.93 63.72 62.65 63.35 64.46 67.48 67.19 68.27 69.07 69.42 69.94 72.03 71.34 72.27 72.37 72.71 72.39 72.93 73.79 74.88 75.52 77.47 78.01 79.27 78.95 78.35 74.39 75.98 76.51 78.69 79.09 79.71 80.14 79.91 76.79 76.03 74.00 77.40 77.47 76.30 76.88 73.39 71.78 74.04
60.53 60.69 57.39 62.30 63.82 63.32 61.49 57.08 64.95 66.33 67.26 66.82 67.65 68.48 69.28 69.62 69.82 71.81 72.89 72.31 72.98 72.35 73.27 74.34 73.59 74.93 75.55 76.81 77.96 77.76 76.06 76.97 76.60 76.87 77.83 78.83 80.12 80.33 77.41 72.67 75.03 75.15 78.53 76.85 76.85 72.74 74.88 73.42 73.14
59.32 55.16 57.59 59.37 63.59 62.37 60.14 57.40 61.91 67.49 66.73 66.82 67.33 67.83 68.42 69.79 70.49 71.76 71.58 72.71 72.54 73.18 74.22 74.79 75.25 74.77 75.16 77.36 77.10 76.57 77.16 77.37 77.49 78.02 77.58 78.54 79.20 79.90 78.83 74.56 73.34 74.35 77.93 75.11 75.80 74.11 74.47 72.83 71.03
55.03 54.81 57.51 57.47 60.18 60.67 59.03 58.29 62.03 63.71 66.11 67.01 68.02 68.11 68.44 68.56 69.85 71.44 71.75 72.53 73.13 74.23 75.17 74.89 75.17 76.82 76.22 76.15 77.10 76.10 75.54 76.49 76.95 77.90 77.97 78.51 78.86 79.32 78.48 74.60 73.87 76.74 73.66 77.34 76.89 75.39 73.40 73.64 70.66
58.13 56.20 54.88 58.73 61.47 58.75 58.27 58.48 61.06 63.00 63.32 66.83 66.34 68.50 68.32 68.95 70.79 72.03 72.11 72.55 73.17 74.09 74.94 74.74 75.46 77.05 76.02 75.16 74.58 74.49 73.34 75.04 76.35 77.17 78.75 79.21 79.50 79.55 79.05 77.81 75.96 78.44 75.87 74.71 77.53 74.06 75.05 73.11 71.62
57.37 55.38 54.29 57.70 60.24 59.58 58.45 57.65 59.92 62.47 63.60 66.95 67.30 68.72 68.73 68.86 69.66 71.20 71.83 72.03 72.13 73.11 74.49 75.15 75.51 76.94 76.66 75.79 75.66 75.47 76.05 75.04 75.45 76.61 78.77 79.19 79.02 80.11 80.03 77.93 78.68 77.37 76.84 77.70 76.36 76.65 74.36 72.53 73.29
56.28 55.12 54.61 55.17 58.59 59.47 58.48 56.25 58.76 61.49 62.56 65.16 68.02 68.98 69.51 69.66 69.53 70.24 71.04 71.51 72.05 73.26 74.20 75.07 75.66 77.21 77.13 76.78 76.94 77.38 77.41 77.61 75.50 74.83 75.35 77.45 79.07 79.30 79.48 79.21 78.23 77.63 78.76 77.22 78.32 76.05 75.97 69.76 71.18
52.74 58.16 56.96 56.04 55.40 52.49 58.00 50.55 58.02 58.96 60.56 63.96 65.94 66.74 68.99 70.12 70.94 70.90 71.21 71.42 72.02 73.04 74.40 75.61 76.11 76.40 77.25 77.56 75.88 75.99 73.23 72.17 73.17 74.36 75.14 76.28 77.63 78.24 79.07 78.78 78.11 79.00 78.08 76.22 76.69 77.67 77.02 75.07 70.40
52.59 56.09 56.69 56.29 54.23 54.07 54.29 52.10 55.64 58.93 58.32 62.14 64.87 66.26 68.35 70.40 70.81 70.85 70.94 71.76 72.52 73.50 74.30 75.36 76.02 76.63 77.58 76.34 77.57 75.19 74.51 73.66 74.06 74.87 75.39 77.07 77.82 79.13 79.31 79.07 78.87 79.73 77.84 78.00 77.46 77.58 76.76 77.20 74.33
55.07 54.48 54.45 54.29 53.07 48.76 52.38 52.81 53.93 56.18 58.68 60.40 63.98 67.02 68.17 69.69 71.15 71.97 72.26 72.56 72.44 73.86 74.77 75.18 76.09 76.28 77.44 77.31 76.35 77.76 74.78 74.93 72.86 73.35 74.19 75.76 77.42 77.60 79.46 79.24 78.94 79.39 79.09 78.75 78.48 79.58 78.08 77.18 76.72
52.76 50.25 45.91 45.05 46.11 45.56 52.81 51.35 54.69 58.57 60.85 61.34 63.71 64.89 68.31 69.67 70.75 71.85 72.06 71.94 72.08 72.82 73.96 74.82 76.10 75.86 76.98 77.41 76.58 75.95 77.79 75.23 75.85 77.32 73.26 74.56 74.89 76.37 77.25 78.78 78.84 78.10 78.58 78.99 79.20 79.23 79.05 77.75 76.75
50.95 49.82 45.94 41.59 43.48 45.65 52.05 48.97 53.07 59.32 61.07 62.15 64.17 64.82 66.46 68.20 70.24 71.45 72.62 72.58 72.25 72.64 73.65 74.39 75.80 76.15 77.23 77.18 77.32 76.82 77.44 77.00 74.75 76.69 75.23 74.19 75.15 75.88 78.17 77.41 78.64 78.19 78.60 78.44 79.66 78.84 77.80 77.95 76.51
50.84 48.39 52.01 47.79 49.09 46.42 48.84 51.74 55.40 59.12 59.56 60.83 61.26 64.05 65.05 67.15 68.99 70.76 72.91 73.17 72.71 72.52 73.24 73.98 74.96 76.22 77.13 76.97 77.67 77.78 76.39 77.67 76.00 75.44 77.53 77.20 76.56 77.70 79.36 78.01 78.22 78.02 78.67 77.99 79.06 77.44 77.69 78.28 76.68
52.92 53.87 47.30 48.62 43.47 43.53 47.03 50.51 50.81 55.23 58.33 60.13 61.27 62.07 64.80 66.56 68.69 71.22 72.57 73.24 73.38 73.34 73.77 74.62 75.49 75.99 77.11 77.72 77.58 77.85 77.70 77.43 77.21 76.69 77.19 76.47 78.69 77.73 81.20 78.36 78.03 78.33 78.34 78.72 78.49 77.96 78.17 77.41 76.97
50.85 50.67 50.59 50.12 48.63 44.98 44.90 48.75 57.76 57.88 58.91 60.13 61.20 62.77 64.07 66.51 68.41 70.24 72.41 73.71 74.18 74.05 73.86 74.21 74.76 76.31 77.21 77.89 78.08 78.00 78.31 77.84 77.57 77.05 77.39 78.56 77.64 80.28 77.95 79.36 78.39 78.10 77.92 78.10 78.57 77.12 77.04 77.39 76.29
53.62 51.35 52.28 48.15 47.89 49.58 49.85 49.40 57.70 59.32 60.20 61.00 61.27 63.09 64.35 66.64 68.99 70.33 72.15 73.17 74.00 73.95 73.99 74.15 74.94 75.65 77.22 78.26 78.37 77.86 78.31 78.76 78.08 77.29 77.53 78.14 78.80 78.31 79.75 79.04 78.30 77.96 77.63 78.22 77.47 77.11 75.69 76.73 76.03

GFSSGP_sfc_wetblb_045.txt.gz
Wetbulb
73.55 73.05 72.39 70.24 61.03 59.64 57.03 58.16 63.02 61.81 61.37 66.16 66.80 65.07 63.65 64.64 61.01 56.36 68.68 70.33 71.89 72.21 74.01 76.41 78.17 78.23 78.10 77.96 78.12 77.79 77.62 77.19 77.36 77.77 77.80 76.91 76.84 77.16 76.94 76.67 76.73 76.65 76.38 76.31 76.34 76.09 75.92 75.97 75.36
72.45 71.76 72.08 66.83 60.03 54.10 55.51 61.30 60.06 62.95 65.30 66.61 67.05 66.37 64.53 61.85 65.63 66.69 67.17 70.08 71.81 72.46 73.95 75.63 77.79 78.07 77.48 78.01 78.19 77.84 76.99 77.25 77.45 77.98 77.67 77.16 77.59 77.57 76.77 76.85 77.08 76.77 76.41 76.17 75.87 75.79 75.73 75.51 75.26
72.08 72.90 66.07 62.33 58.32 54.65 55.85 61.77 63.27 65.26 67.18 66.76 65.64 67.53 66.04 62.72 67.11 66.73 69.64 71.04 71.64 72.36 74.56 75.66 78.05 78.20 78.02 77.86 78.03 78.20 77.76 77.13 77.20 77.57 76.97 77.14 77.87 77.22 76.97 76.53 76.58 76.58 76.36 76.17 76.06 75.67 75.45 75.20 74.95
71.80 70.50 67.83 59.93 57.19 59.89 60.01 63.12 65.62 65.04 66.70 67.65 66.45 63.17 65.98 68.61 67.41 69.07 70.82 70.96 70.89 73.60 75.06 77.12 77.83 77.86 78.18 77.93 78.00 77.41 77.15 76.82 77.47 77.56 77.03 77.28 77.51 77.06 76.90 76.70 76.73 76.42 76.45 76.29 76.15 75.90 75.73 75.47 75.14
72.34 67.41 57.73 55.81 56.50 61.10 63.66 65.21 66.03 64.26 65.28 65.55 66.35 61.27 61.88 67.37 69.58 70.23 70.11 70.84 72.06 73.49 75.26 76.18 78.13 78.18 78.27 78.08 77.44 77.69 77.13 77.05 77.31 77.18 76.85 77.02 77.11 77.20 76.95 76.70 76.65 76.62 76.56 76.48 76.23 76.06 75.92 75.87 75.15
65.92 64.30 56.34 53.91 56.82 61.39 63.63 66.67 66.19 65.52 65.91 65.10 63.53 63.54 63.96 68.24 68.08 68.18 69.37 69.95 73.51 73.51 74.86 75.55 77.49 78.38 78.14 77.35 77.16 77.82 77.08 76.89 77.37 77.19 76.63 76.80 76.75 77.08 77.91 76.87 76.54 76.56 76.45 76.06 75.87 75.87 75.73 75.87 75.23
63.93 58.33 53.99 56.42 57.81 60.50 64.07 67.20 65.44 65.31 65.09 64.39 66.78 62.49 64.65 65.84 67.86 68.26 67.54 72.18 73.42 73.63 74.32 74.98 75.41 76.05 77.33 78.09 77.49 77.32 76.97 77.14 77.06 76.85 76.60 76.44 76.48 76.51 76.62 76.75 77.43 76.53 76.50 76.28 75.95 75.65 75.79 75.95 75.34
66.68 58.69 54.25 58.06 57.51 57.41 64.64 66.16 67.63 66.07 64.85 69.49 68.61 62.46 62.64 66.60 66.25 66.57 69.82 71.61 72.32 73.41 74.35 74.12 74.14 74.14 74.41 74.96 77.36 77.14 77.08 77.08 76.96 76.80 76.45 76.12 75.73 75.95 76.15 77.21 77.57 76.78 76.13 75.91 75.55 75.64 76.12 76.17 75.56
69.54 59.62 56.88 58.15 57.99 59.51 63.07 64.60 68.37 69.52 66.74 67.59 68.14 67.19 68.16 67.13 66.89 69.59 69.75 69.72 70.64 72.25 73.19 73.43 73.09 72.75 73.09 73.81 75.37 76.72 77.04 77.01 76.93 76.67 76.78 75.39 74.02 73.85 74.73 75.49 76.98 76.13 75.89 75.92 75.88 77.09 77.64 76.78 75.50
62.78 57.77 58.59 62.06 62.50 60.89 62.86 63.82 66.67 66.04 65.39 65.29 66.21 68.67 68.74 68.69 69.22 68.39 68.23 68.34 68.86 70.25 71.57 72.09 72.24 72.33 72.92 74.41 73.51 73.70 74.54 73.89 73.77 73.71 67.21 68.08 70.85 73.46 75.16 76.02 77.76 76.61 76.81 77.43 77.34 75.51 76.51 75.20 72.11
63.73 58.96 61.71 62.21 63.51 64.98 62.42 63.03 65.27 64.92 63.28 65.27 64.69 66.53 68.03 69.20 68.42 68.21 68.37 68.93 69.39 70.06 70.58 70.57 72.14 72.88 72.11 72.84 72.90 73.14 72.52 72.25 72.92 71.36 70.65 67.54 74.02 73.49 73.28 72.69 72.44 65.62 71.02 72.38 73.36 72.60 72.72 72.45 72.57
60.44 64.44 63.07 63.67 64.42 64.22 63.04 63.12 62.98 66.13 65.94 68.42 68.39 68.19 68.03 68.22 67.54 68.04 68.46 68.65 69.10 69.03 69.12 70.23 71.83 72.20 71.38 71.90 71.86 72.47 72.19 72.10 71.37 72.68 71.33 67.46 72.00 68.70 71.39 72.98 71.12 70.60 70.94 71.95 72.89 72.20 72.05 71.86 72.73
60.78 62.52 63.94 64.55 63.64 64.07 64.51 62.19 63.50 66.06 68.65 69.10 68.87 68.32 67.62 67.59 68.17 68.93 69.69 69.12 69.67 68.38 68.31 70.14 71.54 71.60 71.89 71.10 70.27 70.43 71.01 72.12 72.33 73.06 72.48 72.87 71.64 69.95 73.47 73.46 71.78 71.26 71.88 71.39 73.16 72.48 71.52 69.36 68.71
62.57 63.31 63.16 62.89 62.71 63.82 60.78 62.40 62.60 66.87 68.75 68.02 67.83 67.16 67.80 67.60 68.26 68.69 68.53 68.57 68.68 68.84 68.47 71.00 71.18 72.19 72.14 73.13 71.78 70.64 73.56 71.73 74.64 75.03 74.05 73.06 73.40 72.30 72.58 72.21 72.80 73.07 71.91 69.22 72.77 72.45 72.57 71.54 70.84
62.50 60.07 62.48 62.78 63.45 63.31 63.85 60.06 60.97 67.01 67.89 66.83 67.07 67.12 67.60 67.79 68.51 68.28 68.87 68.69 68.96 68.86 70.05 70.71 71.27 72.88 72.33 71.97 72.13 73.24 72.63 71.81 70.59 74.66 73.87 73.97 72.77 72.36 72.76 73.22 72.67 72.03 72.56 71.48 73.20 72.26 70.27 68.73 69.99
58.31 59.19 54.79 61.24 62.30 63.49 62.97 55.36 62.49 66.55 66.40 65.44 66.46 67.25 67.33 67.67 68.40 69.12 69.81 69.58 70.00 70.45 70.52 71.28 72.36 72.56 72.86 72.04 72.44 72.88 72.08 72.82 72.30 74.07 73.60 73.92 74.44 74.48 71.60 71.21 72.33 72.86 73.43 73.42 71.76 71.95 70.94 68.61 70.24
54.21 51.29 53.30 57.13 61.74 61.84 61.12 57.05 62.30 64.33 65.55 65.11 65.97 66.68 67.04 67.24 68.57 69.31 70.22 70.14 70.64 70.38 70.86 71.12 71.46 71.43 72.35 72.16 73.02 72.11 72.12 72.14 72.87 74.18 73.53 73.58 74.29 75.23 72.46 71.57 70.55 68.01 73.08 73.10 72.40 70.14 70.95 69.29 70.23
49.09 50.66 53.67 54.74 59.58 60.63 56.81 55.15 61.28 63.45 64.00 64.54 65.68 66.10 66.36 67.18 68.00 69.78 70.57 71.10 70.60 69.98 70.91 70.60 71.35 71.26 71.69 73.05 72.92 71.64 71.02 72.17 72.29 72.27 73.64 74.39 74.80 75.72 74.30 72.44 70.83 71.19 72.23 73.54 72.82 69.36 66.96 66.66 66.73
55.08 54.22 53.67 56.25 60.53 57.84 56.70 55.46 61.19 62.28 64.36 63.93 64.45 65.52 65.87 66.33 67.86 70.09 70.75 70.48 69.65 70.68 70.92 70.38 71.17 71.80 71.34 72.87 71.51 71.11 69.50 70.35 71.10 71.58 74.69 74.85 74.90 75.29 74.13 72.22 72.28 72.60 72.14 70.63 72.53 69.29 68.31 67.48 66.50
53.98 53.20 53.93 55.91 58.04 57.55 55.50 54.89 58.06 62.22 63.33 63.69 64.52 63.33 65.86 66.51 67.20 68.31 68.32 69.21 69.50 70.53 70.52 70.94 71.62 72.37 71.82 72.56 71.71 71.01 71.24 70.75 71.22 71.42 73.76 75.41 75.36 75.30 75.16 73.75 73.36 73.13 72.56 72.08 71.91 70.09 68.67 66.85 66.98
51.79 51.86 52.84 52.74 55.31 56.59 55.92 53.73 55.96 61.91 63.26 62.23 64.24 65.22 66.84 66.63 66.66 67.16 67.64 68.27 69.58 70.36 70.44 71.05 71.42 73.34 72.52 72.77 72.67 71.93 71.66 71.39 70.70 70.45 70.10 74.10 74.63 74.73 75.36 74.34 73.96 72.15 73.33 71.86 71.92 70.19 69.66 64.77 66.22
48.55 54.93 55.59 54.92 52.68 47.60 55.45 45.47 51.88 56.87 60.32 62.00 64.31 65.64 65.83 66.58 67.56 67.74 67.80 67.99 68.90 70.42 71.79 71.38 72.23 73.89 73.23 73.31 72.59 71.50 70.75 69.21 69.91 69.76 70.44 72.91 74.74 75.27 75.38 75.04 74.30 73.74 73.53 72.52 72.11 72.21 69.57 66.97 63.12
51.46 55.14 54.55 54.55 52.18 50.86 52.68 49.04 52.00 54.64 55.10 60.87 63.53 64.27 64.71 67.37 67.43 67.63 68.02 68.80 69.22 70.79 71.85 71.92 72.17 73.57 73.80 73.43 72.60 72.04 70.45 69.86 69.21 70.33 69.76 71.70 72.82 74.00 76.40 74.96 74.61 73.63 73.94 72.56 72.33 72.93 70.79 68.88 67.78
56.18 53.13 51.46 53.15 51.41 45.46 48.56 50.66 50.73 52.69 54.61 61.24 63.60 64.57 66.12 68.18 68.36 68.06 69.21 69.40 69.24 71.11 72.18 72.56 72.08 72.58 73.80 73.23 73.10 71.80 70.84 69.31 69.16 67.89 68.69 71.02 73.47 74.48 75.43 75.83 75.01 75.06 74.20 73.47 73.36 72.96 71.18 71.33 70.53
53.08 47.75 41.27 40.47 42.06 42.09 46.96 45.81 47.93 55.02 57.02 58.97 62.42 64.60 65.44 67.47 67.62 67.80 68.06 68.24 68.97 70.01 71.03 72.42 72.17 71.73 73.46 73.19 72.50 73.24 71.66 71.26 69.16 68.87 68.65 69.85 73.06 73.60 74.34 75.67 74.85 74.65 74.61 74.93 74.35 74.74 73.01 71.65 71.11
50.37 48.31 41.50 36.22 38.15 41.67 46.07 42.62 47.91 54.44 56.73 60.00 64.01 65.56 66.79 66.48 67.88 68.16 68.35 68.63 69.00 69.58 70.91 72.09 72.13 72.06 72.75 73.91 72.78 72.17 73.89 72.73 71.92 71.78 71.07 70.17 72.26 73.53 74.13 75.13 75.68 74.88 75.11 74.89 74.97 74.49 74.80 73.68 71.55
48.01 45.03 46.80 39.02 41.65 38.37 41.70 45.35 50.43 53.76 54.60 55.36 58.35 64.93 65.10 65.63 67.91 68.38 68.78 68.93 68.89 69.71 71.02 71.53 72.38 72.22 73.07 73.51 73.96 73.05 72.75 74.68 72.16 71.07 72.09 69.79 71.33 73.25 74.61 75.03 75.77 75.13 75.21 74.88 74.42 75.17 73.83 74.20 72.74
48.79 49.21 42.30 42.87 34.62 35.38 41.49 43.41 45.57 49.12 51.38 54.12 55.05 60.68 64.06 66.61 68.36 68.92 68.96 69.22 69.61 70.11 71.42 72.02 72.91 72.85 73.21 73.71 74.34 74.44 73.28 72.75 74.56 71.82 71.10 73.07 72.02 71.93 74.43 75.00 74.94 75.20 75.50 75.24 74.43 74.72 74.63 73.62 73.66
46.87 45.57 45.89 42.69 40.88 36.20 36.69 42.54 50.01 51.23 52.96 53.51 55.60 57.10 62.11 65.69 68.03 69.35 69.66 70.15 69.99 70.38 71.04 71.60 72.28 73.44 73.83 74.43 74.18 74.87 74.65 73.93 73.80 73.94 71.85 73.48 73.28 74.33 73.69 75.09 74.83 75.02 75.13 75.47 74.64 74.23 73.94 74.02 73.35
50.88 47.37 46.04 42.28 38.38 40.80 39.44 43.13 53.45 53.39 55.04 55.37 56.40 57.35 61.19 65.22 67.83 69.77 70.06 70.47 70.04 69.78 70.38 71.00 71.99 73.49 74.35 74.93 74.77 74.58 75.32 75.27 73.68 73.85 74.14 72.26 74.48 74.19 75.21 75.92 75.52 75.61 75.24 75.17 75.08 74.34 74.75 72.97 73.05

GFSSGP_sfc_wetblb_048.txt.gz
Wetbulb
73.41 73.32 72.12 70.01 59.71 59.70 55.92 57.76 62.64 60.91 61.34 66.00 65.99 63.63 62.57 62.93 60.97 55.86 68.22 69.98 71.31 72.09 74.55 75.63 77.60 77.62 77.38 77.95 77.43 77.60 76.66 76.95 77.34 76.84 76.97 76.92 77.00 76.82 76.71 76.82 76.56 76.45 76.32 76.46 76.02 76.04 75.90 75.55 74.92
72.47 71.89 71.44 66.49 59.28 53.96 55.34 61.09 59.78 62.31 65.13 66.74 66.49 65.85 63.92 61.23 66.07 65.53 66.60 70.84 72.42 73.03 74.72 75.98 77.67 77.52 77.13 77.69 77.48 77.54 77.11 77.18 77.09 76.85 76.74 77.10 77.01 76.72 77.27 76.89 76.70 76.45 76.18 76.08 76.02 75.89 75.31 75.69 75.33
71.78 72.27 66.07 61.76 57.20 54.49 55.53 60.40 62.12 64.91 66.60 66.30 64.96 66.62 64.80 63.08 66.26 66.07 69.49 71.67 72.41 73.71 74.75 75.61 78.23 78.17 77.38 77.22 77.47 77.25 77.24 77.30 76.62 76.75 77.11 76.99 77.41 76.71 76.60 76.68 76.32 76.43 76.24 76.13 75.72 75.42 75.28 75.17 74.97
70.00 70.04 67.36 58.96 55.71 59.59 60.30 63.43 64.52 64.29 66.42 66.90 65.67 61.71 65.40 68.42 66.39 68.19 71.05 71.52 72.35 73.97 75.00 77.26 77.85 77.34 77.32 77.60 76.86 77.13 76.67 77.31 76.70 76.89 77.36 77.27 77.07 76.72 76.77 76.46 76.41 76.38 76.30 76.11 75.83 75.69 75.42 75.39 75.00
71.85 66.46 57.19 56.17 56.69 59.69 62.57 64.45 65.63 63.77 64.69 64.99 64.84 60.32 62.70 67.44 69.29 69.84 70.29 71.77 72.81 73.88 75.16 75.95 78.40 78.06 77.68 77.18 77.11 76.67 76.86 76.86 76.78 76.92 77.08 77.19 77.29 77.02 76.85 76.80 76.61 76.55 76.41 76.19 76.11 75.94 75.72 75.28 75.06
64.64 64.03 55.90 53.69 56.57 60.88 63.42 65.03 65.73 64.86 64.03 63.22 62.04 62.05 62.89 67.81 67.95 69.21 70.30 72.49 73.81 74.11 75.13 75.73 77.84 78.37 77.63 77.04 76.86 76.86 76.75 76.51 76.67 76.77 76.72 76.89 77.17 77.13 76.91 76.58 76.56 76.50 76.14 75.78 75.78 75.80 75.69 75.47 75.19
61.23 58.58 54.85 55.11 56.97 59.38 62.42 62.93 64.59 63.88 64.08 63.30 65.71 60.56 63.48 65.33 68.38 69.47 69.79 72.96 73.73 74.78 74.53 75.03 75.12 75.96 77.04 77.32 77.24 76.70 76.73 76.65 76.68 76.74 76.66 76.64 76.60 76.60 76.77 76.75 76.56 76.22 76.11 76.05 75.86 75.86 75.63 75.08 74.77
62.91 59.31 56.35 57.74 56.00 57.20 63.74 64.56 66.87 65.17 63.79 68.01 66.53 60.16 60.75 64.85 67.80 67.82 69.28 72.26 73.11 73.66 74.40 73.82 73.35 73.72 74.45 74.98 77.20 76.79 77.03 76.82 76.77 76.61 76.62 76.29 76.00 75.75 76.08 76.64 77.64 76.10 75.85 75.63 75.49 75.92 75.80 75.30 75.38
64.64 58.44 55.08 57.52 57.45 58.74 63.82 63.77 66.79 68.50 65.69 66.84 67.37 64.99 65.61 66.94 67.42 65.28 68.35 70.50 71.71 73.08 73.35 73.19 72.92 73.11 73.39 73.75 75.37 76.60 77.15 77.01 77.00 76.36 76.52 75.16 72.93 73.25 74.51 75.44 76.17 75.31 75.31 75.36 74.89 75.53 76.19 75.53 75.58
64.37 57.24 57.01 62.26 62.36 60.82 63.18 64.46 65.39 65.00 64.78 64.11 64.92 66.83 66.06 66.32 64.68 64.92 68.03 68.59 69.98 71.03 72.26 72.67 72.52 72.32 72.59 74.78 73.43 73.17 74.23 74.25 73.64 72.74 68.68 68.91 71.10 72.72 74.55 75.26 76.61 75.49 75.61 75.56 75.80 75.55 75.44 74.75 71.40
63.85 57.67 62.32 62.60 64.01 64.53 61.76 65.27 66.99 64.19 62.03 63.94 63.21 63.14 63.80 63.60 64.34 67.18 67.93 68.86 69.48 71.04 72.05 71.65 71.70 71.88 71.94 72.42 72.61 72.48 72.72 72.50 72.13 68.96 67.66 69.09 72.91 72.35 72.38 72.31 70.16 65.45 70.46 71.48 72.84 72.09 70.07 71.67 71.33
58.83 63.11 63.32 63.21 64.05 63.82 62.22 63.14 65.25 65.58 64.50 67.13 66.35 64.39 62.82 62.77 66.81 67.38 67.43 68.33 69.36 70.34 71.12 71.08 71.30 71.75 70.42 72.29 72.18 72.21 71.95 71.32 71.04 71.23 68.88 69.87 69.45 70.45 69.91 71.29 69.48 69.78 69.70 69.91 71.49 71.84 71.99 71.44 71.42
60.21 62.04 64.54 65.12 63.54 63.82 63.28 62.67 64.66 65.63 67.21 67.90 66.87 65.21 64.35 66.12 67.46 68.42 68.93 69.25 69.41 69.10 69.85 70.33 71.41 71.05 70.72 70.35 70.34 70.76 70.75 71.42 71.07 71.71 70.57 71.22 68.87 67.32 69.85 71.01 71.19 70.61 71.07 70.99 71.21 71.66 71.39 70.05 68.28
61.60 62.23 62.79 64.63 62.29 62.79 61.80 62.17 63.44 65.75 67.66 66.19 66.06 66.24 67.00 66.87 67.49 67.91 68.38 68.31 68.61 68.86 68.96 70.01 70.96 70.78 71.10 69.93 68.41 69.49 70.33 70.87 71.40 72.21 72.01 71.99 71.61 71.14 71.82 71.56 71.86 71.11 71.26 71.29 69.68 70.96 71.30 69.76 68.91
58.16 57.08 61.08 62.21 62.63 62.35 64.01 59.10 63.09 66.39 67.12 65.45 65.30 66.09 66.96 67.15 67.65 67.56 68.74 68.01 69.23 67.99 68.60 69.49 70.43 70.94 70.56 69.61 69.26 69.21 70.83 71.48 71.91 72.81 73.04 72.27 69.59 71.26 71.96 71.28 71.62 71.64 71.36 70.98 70.74 70.89 69.13 67.23 69.26
54.54 54.96 53.75 61.15 61.89 63.85 61.89 54.26 64.27 66.27 65.37 64.54 64.89 65.57 66.20 66.72 67.27 68.35 68.95 68.61 69.17 68.10 67.79 69.57 71.55 71.45 70.02 71.53 70.81 71.48 70.40 69.60 70.94 73.34 73.68 72.72 71.92 72.65 71.73 71.70 71.45 71.93 72.25 72.02 70.96 70.58 68.64 67.01 69.20
49.17 46.73 51.55 57.19 62.38 62.70 59.78 55.19 64.25 66.09 64.78 63.73 64.24 65.04 65.94 65.99 67.28 68.22 69.08 69.20 69.11 67.71 68.36 69.22 70.18 71.65 70.20 71.08 70.63 70.91 71.14 70.89 71.07 72.17 72.37 73.24 73.68 72.61 69.93 70.96 71.33 70.03 70.56 72.34 71.08 69.44 69.18 67.86 69.35
43.81 47.20 50.10 52.22 59.21 61.50 58.84 56.73 63.11 65.02 64.53 63.92 64.36 64.93 65.63 65.49 66.27 68.22 68.83 69.67 69.27 69.02 69.49 69.63 69.85 71.47 70.68 71.09 70.00 70.01 69.71 70.15 70.93 72.16 71.90 72.47 73.53 73.18 71.55 71.54 69.16 68.99 71.72 71.23 70.91 68.95 68.18 67.69 66.65
49.61 49.78 50.26 54.10 58.76 59.29 57.94 58.05 59.87 64.15 63.95 63.82 64.09 64.55 64.87 65.41 67.52 68.55 69.24 69.62 69.52 69.35 69.45 69.37 69.29 70.48 71.01 70.50 69.29 68.10 67.53 68.23 69.45 70.40 72.63 73.14 73.44 74.32 72.64 71.85 71.00 70.94 71.05 70.69 69.70 66.69 66.44 64.28 65.58
48.25 47.41 49.82 54.41 57.26 56.98 57.67 56.91 59.97 63.27 63.32 64.01 64.34 64.63 65.31 66.03 66.56 68.18 68.69 69.07 69.07 68.85 69.37 69.42 69.56 69.62 71.20 71.09 70.82 69.24 68.27 68.57 69.39 70.06 73.12 73.65 73.73 74.31 73.14 71.68 71.35 71.12 71.56 70.01 70.41 68.30 67.74 64.43 65.22
47.06 46.30 47.59 50.83 54.59 55.98 55.86 54.00 57.62 61.29 63.80 64.68 65.35 66.04 66.45 65.88 66.17 67.16 68.25 68.68 69.53 68.26 69.11 69.42 69.82 69.73 70.59 71.49 70.27 70.08 70.20 69.13 68.94 68.93 70.39 73.23 73.98 74.50 74.20 73.09 72.68 71.92 72.04 70.89 70.36 69.24 67.02 63.00 65.61
43.73 50.52 50.51 51.55 50.32 45.77 54.74 46.82 52.98 58.28 60.08 62.62 63.65 64.63 65.33 66.24 66.82 67.67 68.19 68.55 68.74 68.37 69.61 70.15 70.65 70.39 70.31 71.59 70.36 70.05 69.72 69.20 68.58 68.43 68.67 72.43 73.81 73.95 74.59 73.55 73.17 71.75 72.29 71.51 71.23 69.80 68.55 62.85 62.28
47.59 51.34 50.45 51.33 48.63 45.62 50.27 47.49 51.80 57.69 57.87 59.31 61.31 61.81 63.05 66.31 66.82 66.38 68.08 68.65 68.78 69.35 69.63 69.95 71.28 70.74 70.81 71.60 70.95 69.96 69.09 69.30 68.50 68.88 68.49 69.99 72.99 73.29 73.81 73.91 73.13 72.07 72.39 72.04 70.98 71.51 69.34 66.51 62.61
53.42 50.90 50.23 48.60 46.07 42.82 47.71 48.32 48.41 54.82 58.07 59.41 61.08 61.96 63.29 65.87 66.92 67.44 68.02 67.98 68.43 69.73 69.65 70.17 70.90 70.90 71.33 71.62 71.13 70.38 69.38 68.45 68.43 67.59 67.54 68.23 70.69 72.06 73.94 74.13 73.16 72.57 72.32 71.92 70.96 71.92 70.27 69.22 66.49
51.41 45.27 40.49 37.14 38.72 38.90 46.89 43.95 49.08 57.56 60.98 60.72 61.10 62.57 64.41 66.27 66.76 66.98 66.85 67.12 67.70 69.04 69.46 69.59 70.10 70.84 71.62 71.57 71.52 71.13 70.70 69.66 68.95 67.85 67.51 67.38 70.59 70.86 72.12 74.08 73.38 73.22 72.72 72.69 72.07 71.84 70.52 69.48 70.04
48.57 46.33 38.46 33.87 34.89 39.35 44.21 42.01 48.25 53.51 57.39 63.56 63.73 64.73 66.14 64.26 66.03 66.94 67.30 67.48 67.52 68.91 69.91 69.81 69.59 70.25 71.69 71.77 71.27 71.55 70.84 71.16 70.33 69.31 67.92 68.17 70.23 71.95 72.59 74.36 74.16 73.55 73.91 73.55 73.13 72.55 71.81 70.36 69.84
47.69 45.11 46.74 38.00 36.20 37.13 40.69 43.75 49.25 51.53 51.65 61.81 63.32 65.18 64.76 64.90 65.65 67.04 67.62 67.95 68.16 68.61 69.84 70.23 69.78 69.96 71.54 71.83 71.88 72.00 72.00 71.43 71.34 69.63 69.29 67.56 69.63 72.77 72.86 74.13 74.78 73.91 73.85 73.60 73.16 72.82 72.99 72.57 70.74
49.53 49.21 40.61 36.94 34.79 30.76 37.29 39.53 44.37 47.39 48.98 51.09 62.05 63.74 65.13 65.44 66.82 66.60 67.42 68.06 68.56 68.92 69.95 71.00 70.80 70.12 70.76 72.19 72.10 71.55 71.74 73.38 72.27 70.63 69.45 71.91 68.90 71.51 72.78 72.94 74.68 74.28 73.88 73.60 72.89 72.74 72.99 72.90 72.14
44.91 45.98 43.79 43.34 37.26 36.67 32.62 40.39 46.08 47.81 49.57 50.01 56.26 63.93 64.69 65.57 66.91 66.33 67.80 68.51 68.80 69.28 69.98 70.59 70.96 70.63 70.93 71.49 72.63 72.35 71.57 71.24 73.59 71.68 70.03 70.39 71.36 69.93 71.01 73.11 73.54 74.23 74.01 73.60 72.92 72.47 73.43 72.60 72.64
52.44 43.73 43.47 40.73 35.63 36.16 36.43 41.18 50.00 50.31 51.24 51.58 52.85 63.02 65.11 66.16 66.56 66.72 68.17 68.34 68.38 68.63 69.54 69.92 71.15 70.93 71.39 72.17 72.29 72.74 72.82 72.31 70.98 73.21 72.20 71.14 70.83 71.83 71.10 72.96 73.09 73.83 74.03 73.98 73.23 72.76 73.44 73.26 72.55

GFSSGP_sfc_wetblb_051.txt.gz
Wetbulb
73.47 73.13 71.32 68.71 59.95 59.65 54.75 57.41 62.31 60.71 61.48 65.67 64.52 63.39 61.17 62.97 60.34 54.98 67.77 69.36 71.41 72.13 74.47 76.07 77.46 77.33 76.83 77.45 76.92 77.07 76.87 77.24 77.24 77.44 76.91 76.73 76.79 76.67 76.57 76.55 76.65 76.61 76.29 75.74 76.18 75.91 75.03 74.78 74.84
72.49 71.86 70.77 66.00 58.81 52.72 54.45 60.27 59.53 61.62 64.34 65.80 65.71 64.94 62.84 60.81 65.26 66.05 66.66 70.48 72.47 73.34 74.25 75.16 77.33 77.50 76.80 77.39 76.63 77.45 77.25 76.26 76.84 76.96 76.96 76.81 76.78 76.77 76.79 76.84 76.70 76.26 76.24 76.24 75.73 75.66 75.39 74.87 74.65
71.77 71.94 64.97 60.59 57.08 53.70 54.47 60.92 61.18 64.29 66.32 65.59 63.99 65.56 63.78 62.78 65.53 66.21 68.93 71.87 73.28 73.65 74.62 74.81 77.41 77.50 76.90 77.33 76.84 77.17 77.27 76.40 76.83 77.04 77.23 76.97 76.61 76.92 76.62 76.56 76.59 76.32 76.10 75.75 75.24 75.41 75.67 75.03 74.65
69.42 68.95 67.02 58.59 55.52 59.09 59.65 61.66 63.79 63.54 65.69 65.99 64.30 60.79 65.34 68.38 66.15 68.14 71.05 72.61 73.41 74.36 74.74 76.10 77.02 76.62 77.32 76.63 77.17 76.86 76.97 76.60 76.96 77.00 77.26 76.62 76.60 76.61 76.55 76.47 76.35 76.35 76.16 75.47 75.67 75.53 75.64 75.24 74.28
70.60 66.11 57.53 55.76 57.01 59.94 62.25 63.57 65.16 63.24 64.15 63.98 63.82 60.60 62.09 66.69 69.15 70.18 71.01 73.11 72.81 73.25 74.59 75.32 77.65 77.17 77.24 76.64 76.64 77.04 76.81 76.64 76.88 77.09 77.39 76.93 76.99 76.97 76.88 76.83 76.60 76.47 76.24 76.11 75.83 75.82 75.55 75.37 74.92
65.09 63.71 54.27 52.31 55.96 60.35 63.01 64.48 64.89 64.74 63.34 62.41 61.89 61.61 62.91 67.55 68.48 69.45 71.86 72.58 73.83 73.70 74.47 75.31 76.91 77.17 76.72 76.98 76.38 76.72 76.54 76.72 76.75 76.89 77.04 77.11 76.96 76.96 76.88 76.69 76.47 76.09 75.84 75.95 75.75 75.66 75.53 75.33 75.01
60.18 57.22 54.32 55.26 56.61 58.84 61.92 64.03 63.40 63.68 62.68 61.98 64.25 60.25 63.66 65.62 68.43 69.73 72.16 72.98 73.84 74.28 74.40 74.68 74.06 75.33 76.80 76.65 76.68 76.56 76.38 76.67 76.65 76.55 76.74 76.77 76.84 76.83 76.72 76.67 76.59 76.45 76.39 76.23 75.68 75.70 75.06 74.90 74.98
63.40 60.34 56.22 57.05 55.74 56.97 62.94 62.62 65.54 64.85 63.15 66.54 65.46 59.81 60.89 65.14 68.50 70.75 71.98 72.56 73.35 73.77 74.22 73.45 73.26 73.23 73.53 74.22 76.69 76.71 76.62 76.73 76.65 76.61 76.28 76.32 76.27 76.45 76.39 76.37 76.92 76.25 76.06 76.00 75.67 75.72 75.39 75.66 75.33
64.28 57.19 54.20 55.94 57.18 58.77 63.50 63.25 66.97 67.66 64.72 65.92 65.59 64.24 65.41 67.44 67.64 70.29 70.59 71.34 72.22 73.26 72.83 72.10 72.34 72.88 73.14 73.80 74.71 76.50 76.93 76.82 76.72 76.22 76.55 75.34 72.45 72.53 74.00 75.05 76.17 76.11 75.95 75.89 75.70 75.86 75.69 75.57 75.63
62.76 55.92 56.59 61.13 62.17 60.03 63.37 63.78 65.00 64.05 63.86 62.49 63.24 65.29 66.52 67.22 65.74 67.50 68.64 68.07 69.75 71.12 72.20 71.68 72.04 72.33 72.66 74.81 73.20 73.32 74.51 73.95 73.49 73.31 71.10 70.22 70.91 72.02 73.87 74.29 75.53 75.63 75.89 76.18 75.98 74.92 75.78 73.96 70.56
62.91 57.37 61.93 62.03 63.50 63.91 62.63 63.02 66.40 63.74 61.01 62.88 61.15 62.59 64.93 65.29 64.60 66.22 68.56 68.65 69.50 71.08 72.37 71.62 71.65 71.79 71.94 72.74 72.33 72.45 72.88 72.91 72.21 70.01 66.96 69.53 72.27 72.73 72.89 72.21 69.82 66.12 71.13 70.47 72.05 71.44 70.11 70.83 70.73
58.88 62.96 63.37 62.54 64.43 63.41 61.33 63.30 64.24 64.57 64.42 65.69 64.50 64.51 64.62 64.22 63.22 66.91 68.31 68.91 69.59 70.58 71.44 71.50 71.34 71.13 70.86 71.15 71.80 71.89 71.77 71.51 71.02 69.16 66.90 70.37 70.15 70.47 70.07 70.02 68.34 69.34 69.17 69.01 70.09 70.97 71.41 70.82 71.19
59.30 61.32 63.61 65.27 63.82 63.01 63.47 61.89 64.46 64.35 66.48 65.64 64.64 64.73 64.05 63.36 63.48 67.58 68.99 69.74 69.89 69.77 70.62 70.74 70.83 70.84 70.82 70.14 70.42 70.89 70.88 70.92 71.04 70.49 68.94 68.11 67.94 68.92 68.97 69.67 70.29 69.81 70.33 70.05 70.07 70.96 70.79 68.54 67.07
59.80 60.70 61.43 62.81 63.41 62.61 61.03 62.68 64.72 65.19 66.25 63.93 63.16 63.11 63.00 62.39 66.39 67.02 68.03 68.71 69.37 70.04 69.96 70.26 70.29 70.88 69.88 69.68 68.96 69.80 70.20 70.56 70.59 70.71 70.69 69.79 68.74 68.18 69.23 70.49 70.88 70.63 70.49 70.41 69.37 69.93 68.36 69.14 68.60
56.52 54.37 56.76 58.44 61.71 61.30 63.96 57.96 60.91 65.47 65.37 62.84 61.54 61.80 61.69 64.62 67.35 66.89 68.01 68.44 69.32 69.54 69.77 69.43 69.89 70.58 69.19 69.11 68.13 68.84 69.95 70.50 70.46 70.90 71.41 71.34 70.80 70.92 71.50 70.64 70.65 70.85 71.03 70.64 69.36 70.42 68.83 67.11 67.14
51.61 50.79 47.40 55.50 61.15 62.39 60.23 53.26 63.38 65.31 63.62 62.37 62.22 61.73 61.90 64.25 66.94 67.90 68.69 68.62 69.29 69.19 68.22 69.03 71.21 70.33 69.10 68.63 68.05 68.63 69.23 69.52 70.70 71.15 71.92 72.05 70.36 71.05 71.31 70.78 70.92 71.10 70.96 70.85 70.59 69.65 66.93 66.54 64.94
44.08 43.18 48.37 52.24 61.20 61.49 59.36 54.85 63.50 65.02 63.36 62.30 63.21 63.91 64.33 64.65 66.64 67.80 68.85 68.95 68.95 68.34 67.59 67.84 69.79 69.71 69.25 68.97 69.10 70.01 69.65 68.90 70.26 71.64 72.09 71.77 71.36 72.47 71.40 70.96 70.70 71.14 69.38 71.26 70.81 68.88 68.41 66.81 67.55
39.78 44.30 46.73 48.75 57.78 59.79 57.03 55.68 62.82 64.19 63.37 62.58 63.28 64.15 64.72 64.83 65.70 67.51 68.26 68.87 69.53 67.68 67.37 68.23 69.29 69.37 69.36 69.56 69.07 69.45 69.59 69.75 70.07 71.09 71.43 72.25 72.85 71.72 70.11 70.62 70.23 66.82 70.11 70.26 69.98 68.82 67.78 67.14 68.17
46.94 48.35 48.86 52.15 56.28 58.45 57.25 57.05 61.84 63.15 63.12 62.93 62.80 63.27 63.89 64.90 66.70 67.52 68.30 68.81 68.47 67.62 66.52 67.83 68.16 68.76 69.65 68.97 68.20 67.20 67.18 67.81 69.08 70.32 71.91 72.08 73.04 71.82 70.74 70.78 69.44 69.85 70.45 70.09 69.50 65.05 64.90 62.81 64.84
44.90 42.99 45.10 50.79 54.65 57.62 57.47 56.83 61.52 62.74 62.49 63.16 62.98 63.10 64.14 64.93 65.54 66.46 67.68 68.28 67.87 67.23 66.87 67.64 68.02 68.72 69.94 69.84 70.19 67.66 67.17 67.50 68.37 69.57 71.32 72.14 72.53 73.26 71.87 71.02 70.23 70.60 70.86 69.65 69.78 67.02 66.57 63.48 64.58
43.80 42.64 44.06 46.61 52.57 55.98 54.28 54.93 57.48 62.38 63.55 64.23 64.30 64.68 64.86 65.04 64.69 65.67 66.72 67.61 68.03 67.38 67.40 67.53 68.02 68.69 70.30 70.18 68.95 68.92 68.39 67.75 67.55 67.98 69.68 71.73 72.66 73.63 72.85 71.41 71.05 71.00 71.06 69.63 69.21 68.12 65.93 62.29 64.81
39.45 47.04 47.71 47.86 46.99 45.95 52.74 43.30 54.73 59.10 60.47 62.18 63.17 63.88 64.60 65.39 66.01 66.19 66.53 67.04 67.62 67.72 68.75 68.56 68.45 68.48 70.08 70.05 69.45 68.29 67.17 66.42 66.20 67.19 68.17 71.55 72.84 73.39 73.55 72.65 72.24 71.52 71.34 70.26 70.23 69.17 67.10 63.09 62.49
45.09 48.09 47.30 47.41 44.50 44.92 48.73 43.57 49.54 58.02 57.90 60.16 62.20 63.78 64.90 65.96 66.24 66.19 66.70 67.68 68.39 68.64 68.66 69.04 68.82 68.55 69.31 70.03 69.70 68.94 66.72 66.85 67.87 67.51 67.69 69.70 71.95 72.86 73.90 73.08 72.24 71.14 71.29 71.31 70.67 69.11 67.28 62.87 61.81
50.60 47.36 45.93 44.99 43.27 41.04 45.54 44.67 43.88 53.78 56.26 60.12 62.69 64.05 65.04 65.89 66.72 67.23 67.93 68.58 68.39 69.01 68.87 69.07 68.52 68.57 68.98 69.85 69.68 68.80 68.25 67.19 66.97 67.31 66.84 67.34 70.63 72.19 72.53 73.49 72.33 71.50 71.52 71.36 70.51 70.93 68.91 66.51 63.56
48.71 42.67 35.85 35.02 35.64 38.35 44.42 43.22 47.90 55.37 58.66 60.17 61.67 63.67 64.98 65.54 66.42 66.39 66.88 67.44 68.19 68.17 68.08 68.36 68.62 68.44 69.13 69.25 69.68 69.23 68.65 68.02 68.34 67.06 67.39 66.39 68.36 69.54 71.50 72.45 71.91 71.55 71.31 71.62 70.78 70.32 70.03 69.14 66.58
45.62 43.79 35.67 30.95 32.36 39.85 43.27 39.17 45.85 56.60 60.17 61.67 63.25 64.26 64.72 64.06 63.91 66.62 66.48 67.88 68.27 68.37 67.77 68.53 68.85 68.70 69.24 69.52 69.74 69.90 69.27 69.13 69.08 68.70 67.71 67.49 68.58 70.01 71.68 72.90 72.85 72.43 72.31 72.09 71.30 70.86 70.81 69.21 69.73
45.65 43.47 46.18 37.71 33.94 36.22 40.93 41.62 48.53 54.37 57.81 60.26 61.82 63.12 63.23 63.93 64.50 66.13 67.35 67.28 67.51 67.85 67.82 68.26 68.41 69.31 69.61 69.85 70.21 70.03 69.96 69.68 69.33 68.89 68.56 67.82 67.95 70.62 70.91 71.90 72.93 72.74 72.87 72.49 72.09 71.57 71.22 70.46 68.81
48.87 48.38 40.25 37.38 32.50 30.07 35.25 39.06 45.55 46.79 49.85 58.20 60.53 61.71 62.80 63.86 64.93 66.46 67.18 67.01 67.08 68.10 68.57 68.57 69.02 69.30 70.02 70.40 70.48 70.61 70.49 70.52 70.27 68.88 67.81 67.55 67.47 69.73 71.16 71.67 72.50 72.81 72.75 72.93 72.20 71.78 71.64 71.49 70.71
43.68 45.54 43.82 43.39 38.64 38.07 30.97 38.23 44.55 48.58 50.15 54.62 58.49 61.47 62.80 63.96 65.16 65.63 66.39 67.80 67.76 68.04 68.93 68.77 68.73 68.88 69.64 70.46 70.70 70.72 70.71 70.74 70.78 69.96 69.53 69.81 68.68 68.63 70.37 71.07 72.18 73.04 72.76 72.91 72.31 71.90 72.11 71.73 71.65
42.18 44.37 41.46 42.45 37.31 34.70 40.14 42.45 47.00 48.57 49.24 54.94 59.55 61.74 63.60 64.93 66.04 66.54 65.92 67.47 67.61 67.49 68.43 69.05 69.08 68.84 69.41 70.68 70.71 70.73 70.85 71.37 71.59 70.87 69.79 69.80 69.96 69.44 69.34 71.20 71.68 72.71 73.31 73.05 72.36 71.69 72.29 72.19 71.47

GFSSGP_sfc_wetblb_054.txt.gz
Wetbulb
73.32 72.65 71.46 68.58 60.30 59.44 54.42 56.91 62.33 60.24 60.94 64.57 64.00 62.83 61.37 63.18 60.13 54.41 67.03 69.16 71.30 71.94 74.28 75.46 77.37 76.83 76.85 76.83 76.91 77.16 77.00 77.10 76.83 76.90 76.98 76.73 76.43 76.40 76.33 76.54 76.09 75.64 75.98 75.95 75.43 74.88 74.93 74.66 74.55
72.35 71.16 69.90 66.22 57.68 51.48 52.99 59.84 59.43 61.56 64.21 64.59 64.93 64.32 62.58 60.95 64.69 65.69 66.10 70.66 72.45 73.43 74.31 74.81 77.03 77.41 77.02 76.85 76.77 77.23 76.70 76.78 77.14 77.14 76.96 76.71 76.58 76.45 76.30 76.33 76.55 76.45 75.78 75.61 75.73 75.27 75.18 75.02 74.96
71.75 71.49 65.27 61.27 56.98 53.84 55.17 60.57 61.10 63.82 65.20 64.03 63.20 65.21 63.73 62.17 65.61 65.76 68.33 71.91 73.04 73.45 73.82 74.83 77.27 77.13 76.91 77.18 77.18 76.89 76.42 77.10 77.10 76.72 76.76 75.87 76.51 76.37 76.72 76.64 76.14 75.39 75.88 75.48 75.27 75.32 75.21 74.87 74.76
69.20 68.53 66.47 57.44 54.89 58.82 59.63 61.31 63.26 63.11 64.83 65.17 63.90 60.99 64.95 67.83 66.08 67.95 71.47 72.94 72.87 73.48 74.01 76.69 76.87 77.06 76.49 76.95 77.18 76.30 76.52 76.95 77.27 77.00 76.46 76.66 76.59 76.51 76.53 76.43 76.42 75.54 75.35 75.72 75.59 75.46 75.02 74.46 74.21
69.07 65.70 55.70 55.40 56.75 59.69 62.20 63.71 64.23 62.95 63.31 63.26 63.52 60.56 62.21 66.41 69.04 70.48 71.85 72.99 72.84 73.02 73.26 74.61 77.37 77.33 76.65 76.83 77.26 76.36 76.68 77.07 77.04 77.05 76.82 76.58 76.41 76.55 76.29 76.27 76.10 76.34 76.05 75.94 75.95 75.65 74.91 74.66 74.82
65.44 62.23 52.97 50.62 55.27 59.85 62.93 64.08 65.17 63.45 62.93 62.47 61.20 60.83 62.98 67.79 68.21 70.45 72.45 72.67 73.40 73.11 73.68 74.36 76.44 77.15 76.63 76.37 76.89 76.42 76.76 76.79 76.71 76.43 76.74 77.10 76.97 76.86 76.73 76.37 76.07 76.04 75.96 75.98 75.81 75.29 75.07 75.02 74.93
61.48 56.26 53.22 54.26 55.73 58.28 61.25 64.73 63.80 63.02 62.24 61.61 64.02 60.27 64.07 65.74 68.73 71.28 72.08 72.98 73.45 73.90 74.02 73.46 73.96 75.49 76.56 76.24 76.61 76.28 76.66 76.71 76.68 76.90 77.03 77.20 76.85 76.78 76.68 76.59 76.63 76.26 76.16 75.49 75.21 75.18 75.07 75.21 75.32
63.60 58.22 55.60 57.20 56.26 56.49 62.69 63.43 65.73 64.38 62.14 65.78 65.54 59.54 61.18 65.38 69.30 71.57 72.05 72.49 72.94 73.22 73.78 72.63 72.97 73.05 73.47 74.41 76.51 76.16 76.42 76.56 76.51 76.48 76.51 76.63 76.78 76.65 76.45 75.83 75.93 76.35 76.02 75.57 75.36 75.07 75.21 75.59 75.54
64.44 55.07 52.70 55.87 56.91 59.31 63.49 62.34 66.68 67.07 63.21 64.76 65.00 63.89 65.55 67.95 70.35 70.07 70.49 71.13 71.61 72.65 72.65 72.32 72.29 72.55 72.96 73.95 74.75 76.26 76.76 76.53 76.43 76.05 76.18 75.16 73.57 73.61 74.72 75.54 76.32 76.04 75.93 75.76 75.82 75.74 76.10 75.57 75.35
62.35 54.38 54.79 60.36 61.51 60.61 64.11 64.66 64.21 63.47 62.69 61.65 62.71 65.26 66.82 67.61 69.19 67.21 67.32 68.05 69.79 70.80 72.24 71.63 71.99 72.30 72.85 74.85 73.75 74.14 74.83 74.50 74.13 74.02 72.70 72.23 72.76 73.54 73.97 74.73 76.04 76.18 75.48 75.85 75.55 75.82 75.52 73.56 72.82
63.07 56.82 61.16 61.56 63.72 63.24 62.71 63.19 65.54 63.07 60.64 61.70 61.08 63.16 65.16 66.55 67.90 66.26 66.97 67.72 68.71 70.35 72.38 71.63 71.81 72.03 72.54 73.34 72.85 73.09 73.35 73.46 72.93 71.82 70.34 71.38 73.03 73.87 73.75 73.04 70.12 68.92 72.18 71.84 72.67 72.00 71.67 72.03 72.47
58.81 62.32 62.99 62.12 63.90 62.19 61.79 64.50 63.56 64.15 63.61 64.94 64.14 64.84 65.09 64.99 66.77 66.13 66.51 67.54 68.52 69.69 71.23 71.52 71.67 71.52 71.65 72.13 72.36 72.44 72.55 72.46 71.86 71.14 68.92 71.69 72.00 72.02 72.17 71.77 70.28 70.76 71.11 71.04 71.99 72.58 73.06 72.44 72.75
59.86 60.79 62.66 64.80 64.16 61.71 62.95 62.89 64.28 63.73 64.76 65.18 64.71 64.95 64.56 64.46 66.16 67.55 68.33 68.89 69.61 69.63 71.07 71.33 71.35 71.05 71.16 70.83 71.92 71.64 71.64 72.05 72.00 70.90 68.15 71.37 70.91 70.77 70.40 71.40 71.69 71.67 71.98 71.87 71.42 72.76 72.07 70.74 69.29
58.36 60.86 60.65 61.58 60.85 61.99 59.75 61.25 63.84 63.51 64.02 63.42 63.28 63.62 64.42 64.50 65.07 67.90 68.69 68.43 69.33 70.17 70.49 71.16 70.80 70.90 70.54 69.82 70.48 70.75 70.99 71.44 71.70 71.26 71.16 68.84 69.58 70.32 70.65 71.73 72.21 72.42 72.34 72.19 71.27 72.46 71.29 70.28 69.24
55.64 52.21 55.50 56.56 58.70 60.39 61.75 57.52 60.99 63.26 63.16 61.73 62.37 63.27 64.22 64.47 65.85 67.25 68.62 68.60 69.22 69.74 70.32 70.23 70.23 70.41 69.77 69.68 69.61 70.01 70.65 71.22 71.17 71.30 71.69 70.22 71.32 70.87 71.02 71.79 72.27 72.43 72.78 72.09 71.55 72.32 70.66 69.72 67.73
49.32 49.46 47.21 54.36 58.06 60.93 60.24 52.72 62.38 63.36 61.23 60.46 61.63 62.74 63.51 63.21 65.51 67.42 68.74 69.23 69.81 69.65 69.38 69.81 71.01 69.93 69.11 69.07 69.01 69.04 70.17 70.76 71.03 71.54 72.07 72.15 72.02 71.77 71.95 72.12 72.65 72.92 72.90 72.78 72.38 71.65 68.26 69.32 67.54
42.46 43.36 47.43 51.82 57.88 59.78 58.12 54.12 62.49 63.54 60.60 59.82 60.85 61.67 62.15 61.98 65.81 67.24 68.55 69.48 69.68 69.54 68.95 68.67 69.42 69.08 69.02 69.06 68.96 68.49 69.67 69.84 70.40 71.71 72.12 72.56 72.73 72.04 72.73 72.14 72.66 72.99 72.29 73.11 72.78 71.14 70.43 69.00 69.03
39.62 41.10 45.85 48.74 54.39 58.25 56.09 55.58 61.61 62.58 60.95 59.46 59.91 60.53 60.55 61.31 64.66 67.25 68.11 69.09 69.61 69.44 68.59 68.63 68.99 69.00 68.85 68.86 69.36 69.74 69.99 70.21 70.05 71.50 72.34 72.79 72.71 73.34 72.55 71.53 72.48 70.59 71.89 72.23 72.73 71.05 69.62 69.74 69.16
45.06 45.74 46.86 50.45 54.45 56.42 55.66 56.25 61.11 62.01 61.52 60.80 60.19 59.76 60.01 60.57 64.27 67.42 68.26 68.97 69.02 68.49 67.45 67.78 67.92 68.19 68.69 68.54 67.97 68.46 68.38 69.62 70.63 71.42 72.77 73.06 73.47 73.65 71.68 72.08 71.47 70.32 72.10 72.13 71.60 68.46 67.32 67.15 67.29
43.89 41.43 43.49 48.97 53.27 56.00 54.87 55.43 61.16 61.78 61.28 61.70 61.69 62.09 62.42 63.32 63.98 66.12 67.27 68.08 68.40 67.46 66.57 67.30 67.88 67.98 69.36 69.40 69.32 69.31 68.60 69.06 70.41 70.91 72.46 73.18 73.78 73.49 71.87 72.37 71.49 71.96 72.00 71.34 70.94 69.86 68.19 66.94 67.29
41.88 40.09 41.35 45.19 49.56 53.61 53.65 52.29 57.30 61.80 62.69 63.05 63.28 63.90 64.30 64.38 64.24 65.09 66.31 67.27 67.95 67.73 66.39 66.89 67.72 67.99 69.45 69.53 69.28 68.75 68.78 68.78 69.01 69.88 71.26 72.31 73.39 74.28 73.65 72.72 72.22 72.27 73.12 71.52 71.93 70.50 68.44 66.30 67.55
36.74 45.77 46.68 44.96 44.33 41.18 52.12 41.64 50.93 59.15 60.00 61.51 62.37 63.21 63.50 64.32 65.46 65.69 66.00 66.80 67.20 67.49 67.80 67.18 67.79 67.94 69.34 69.70 69.29 68.89 67.96 67.15 67.42 68.71 69.94 72.23 73.16 73.66 74.18 73.39 72.73 72.94 73.21 72.14 72.11 71.42 69.54 67.82 66.89
41.36 45.88 44.84 44.97 42.89 40.81 44.64 42.96 45.70 56.66 57.65 59.67 61.87 63.01 63.73 64.73 65.55 65.63 65.91 66.88 68.05 68.19 67.80 67.69 67.60 67.64 68.91 69.62 69.71 69.18 68.42 67.48 67.78 68.50 69.12 71.07 72.73 73.35 74.25 73.99 73.53 73.06 73.02 72.77 72.83 71.14 70.13 66.95 66.66
47.95 44.66 43.41 42.41 40.42 37.24 42.51 44.62 43.19 51.62 56.57 59.75 62.32 63.50 64.26 64.84 65.66 66.61 66.92 67.52 67.70 68.79 68.43 68.18 67.33 67.40 68.39 69.62 69.59 69.10 68.49 67.24 67.56 67.47 67.66 68.66 71.50 72.53 73.66 74.45 73.83 73.57 73.22 72.85 72.13 72.38 71.01 68.34 67.00
46.11 40.46 32.54 31.51 33.27 36.29 43.14 41.73 45.38 50.74 57.97 60.57 61.63 63.32 64.75 65.53 65.57 66.10 66.15 66.40 67.20 67.60 67.56 68.29 67.72 67.00 67.91 69.10 69.43 69.23 69.04 68.10 67.91 68.06 67.44 67.53 69.00 71.33 72.27 73.55 73.49 73.21 73.20 73.23 73.09 72.60 72.24 70.12 68.92
43.65 40.93 32.84 27.77 30.57 37.80 41.44 38.37 44.76 53.11 56.99 62.11 62.93 64.23 65.09 65.65 65.88 66.28 66.65 66.74 67.28 67.71 67.73 68.18 67.74 67.60 67.91 68.25 69.13 69.55 69.56 68.88 68.96 68.68 68.65 68.45 68.78 70.44 73.03 73.07 73.70 73.74 73.67 73.43 73.28 72.20 72.42 72.02 70.96
42.16 40.08 43.64 35.76 34.04 33.84 41.74 41.90 49.10 51.74 54.06 57.51 59.89 61.81 63.54 65.06 65.83 66.61 67.39 67.49 67.60 67.97 67.82 67.72 68.00 68.05 68.32 68.32 68.88 69.24 69.49 69.19 69.11 69.11 69.29 69.20 69.53 70.67 71.90 73.11 73.56 73.84 73.68 73.60 73.42 72.43 72.38 72.74 71.94
43.36 46.72 38.61 36.12 31.32 27.93 35.44 38.05 44.08 48.10 51.09 54.94 57.28 59.34 62.34 64.92 65.60 66.40 67.27 67.83 68.19 68.77 68.78 68.27 68.50 68.26 68.66 68.92 69.26 69.41 69.59 69.78 69.83 69.66 69.20 68.85 69.02 70.86 71.68 71.95 73.16 73.81 73.90 74.05 73.54 73.32 73.26 72.83 72.39
41.16 41.46 40.98 41.86 37.94 33.88 31.61 38.50 45.66 49.57 52.60 53.59 56.85 59.99 62.01 63.86 64.88 65.07 65.86 67.81 68.28 68.96 69.06 68.04 68.27 68.33 68.71 69.18 69.46 69.68 69.86 70.13 70.25 69.64 69.60 69.59 69.14 69.54 71.21 71.93 72.35 72.79 73.20 73.62 73.47 73.65 73.69 72.97 73.31
41.06 38.58 40.04 39.85 36.21 37.42 35.96 40.04 48.14 50.21 51.48 53.80 54.53 59.75 62.37 63.84 64.59 65.44 66.02 66.80 67.06 67.91 68.55 67.91 68.37 68.45 69.28 69.58 69.78 69.85 70.37 70.50 70.13 70.19 69.98 70.22 69.53 69.44 70.54 71.78 72.04 72.83 73.66 73.67 73.40 73.32 73.70 73.16 72.98

GFSSGP_sfc_wetblb_060.txt.gz
Wetbulb
74.38 73.91 74.58 70.09 60.95 61.48 58.97 60.38 65.27 63.39 63.42 66.81 67.44 64.21 64.15 66.15 63.63 61.26 73.11 74.17 75.02 74.46 75.44 76.73 77.74 77.47 77.32 77.31 77.26 77.37 77.24 77.23 76.98 77.02 76.89 76.66 76.93 76.98 76.86 76.43 75.75 76.38 75.70 75.48 75.20 75.12 75.78 75.64 75.20
74.43 73.36 71.12 67.35 59.34 56.94 57.48 63.02 61.84 64.48 66.78 68.24 67.56 66.44 65.67 63.94 68.39 69.32 71.14 74.48 75.25 75.15 75.54 76.85 77.35 77.66 77.37 77.72 77.48 77.41 77.37 77.24 76.99 77.03 76.73 76.39 76.57 76.42 76.73 76.14 75.92 76.19 75.91 75.75 75.67 75.53 75.42 75.75 75.75
73.96 73.34 66.67 63.98 60.84 57.13 56.13 63.56 64.23 64.00 67.13 67.28 65.78 68.30 67.30 65.49 69.00 70.65 73.92 74.62 74.60 74.37 74.97 77.36 77.42 77.89 77.49 77.37 77.27 77.04 77.07 77.10 77.17 76.93 76.54 76.52 76.41 76.52 76.35 76.17 75.73 75.78 75.78 76.00 75.78 75.64 75.28 75.34 75.50
71.49 71.34 70.07 62.22 58.73 61.83 60.02 65.15 66.85 66.13 67.02 67.85 67.48 64.52 68.44 70.27 70.26 72.77 74.29 74.82 74.21 74.43 74.84 77.23 77.29 76.82 77.65 77.15 77.32 77.29 77.21 77.29 76.84 76.85 76.81 76.84 76.25 76.20 76.12 75.95 75.89 75.84 75.75 75.81 75.81 75.75 75.30 75.02 74.87
72.73 69.50 61.42 59.52 58.53 61.26 65.78 66.86 67.85 65.92 66.25 66.67 67.56 64.55 63.53 69.11 71.53 73.54 73.91 74.48 73.88 73.83 74.98 77.35 77.73 77.15 77.28 76.59 76.92 77.02 77.40 77.41 76.80 76.79 76.74 76.81 76.78 76.78 76.03 75.89 75.56 75.81 75.75 75.87 75.31 75.17 75.20 75.28 75.28
67.42 67.94 60.65 55.55 57.77 63.79 66.66 67.68 67.80 66.72 67.53 66.78 66.45 65.86 65.11 69.76 70.46 72.57 74.02 73.79 73.61 73.37 74.30 76.99 77.09 77.44 77.41 76.64 77.27 77.26 77.36 77.03 77.04 77.05 77.02 77.22 77.16 76.87 77.05 76.72 76.28 75.92 75.67 75.84 75.16 75.09 75.39 75.42 75.92
64.47 64.43 61.12 60.53 60.88 62.97 66.04 69.28 67.24 67.44 66.63 65.23 68.42 65.40 66.79 68.64 71.05 72.81 73.61 73.24 73.44 73.73 74.20 76.56 75.92 77.75 77.07 76.86 77.10 77.08 77.38 77.20 76.96 76.78 76.92 77.49 77.36 77.00 76.64 76.25 75.78 75.60 75.41 75.10 75.36 75.28 75.43 75.75 75.85
68.33 65.46 60.51 61.96 60.83 61.34 66.68 68.06 69.66 68.15 66.83 70.62 70.13 64.50 64.33 69.54 71.59 72.11 73.01 72.75 73.43 73.48 74.06 76.00 75.62 76.07 77.71 76.43 76.90 77.12 77.21 77.36 77.04 76.64 77.25 77.33 77.09 76.31 76.17 76.54 75.78 75.61 75.41 75.28 75.38 75.50 75.50 75.75 75.85
69.31 62.58 60.56 60.32 60.96 63.85 67.45 65.77 69.37 70.46 68.09 68.45 69.44 69.00 70.70 71.29 71.51 70.76 71.56 71.66 72.27 72.49 73.79 75.68 74.54 75.44 76.35 76.76 77.25 77.00 77.08 77.11 77.17 77.31 77.18 77.43 76.14 76.15 76.52 76.34 75.63 75.55 75.75 75.37 75.35 75.56 75.56 76.31 76.17
65.69 62.83 62.08 64.56 65.60 64.02 66.68 67.80 68.14 67.46 67.10 66.69 67.65 70.14 70.94 70.67 70.04 69.81 69.99 69.81 70.45 71.22 72.49 74.34 74.62 75.18 75.81 75.15 76.83 77.13 76.68 76.71 77.01 77.00 77.41 76.82 76.86 76.96 76.29 76.63 76.36 76.05 76.08 75.94 75.77 75.72 75.45 76.07 74.89
66.07 62.69 64.83 65.31 67.10 68.36 65.92 67.60 69.50 67.49 65.69 67.68 67.24 68.34 69.45 69.55 70.77 70.41 70.02 70.40 70.23 71.40 72.41 73.93 74.66 75.64 75.58 75.64 76.07 76.03 76.23 76.30 76.84 77.62 77.08 76.80 76.57 75.98 76.07 75.47 75.89 75.88 76.18 75.44 76.11 76.37 75.40 75.47 74.81
62.45 65.67 66.63 66.51 67.22 67.36 66.70 69.04 67.46 68.10 68.28 70.47 70.25 70.03 69.51 69.72 69.88 70.06 69.84 70.31 70.24 71.18 72.17 73.67 74.66 75.38 75.94 75.85 75.76 75.73 75.54 75.67 75.46 76.37 77.77 77.26 76.73 76.49 76.31 75.43 75.66 76.27 77.01 76.74 77.45 75.77 76.81 77.05 77.01
62.35 64.69 66.56 67.61 67.22 66.97 67.29 66.43 67.13 67.78 70.19 71.03 70.46 69.80 69.34 69.78 69.85 70.71 71.31 70.84 70.91 70.89 71.81 73.26 74.63 75.55 76.38 76.42 75.74 75.53 75.63 75.75 76.06 76.83 76.56 77.87 76.86 76.39 76.06 76.03 76.40 77.12 76.71 75.88 76.10 75.35 75.61 75.80 76.63
61.34 62.04 64.33 66.56 67.23 67.09 65.71 65.78 67.50 68.25 70.41 69.80 69.28 68.92 69.52 69.62 69.43 70.16 70.60 69.85 70.76 71.57 71.76 73.27 74.39 75.59 76.16 76.29 76.99 76.09 76.29 76.60 76.45 76.48 75.98 77.69 79.52 77.28 75.72 76.23 76.03 76.29 77.57 76.37 75.64 75.36 74.47 74.61 75.19
59.82 59.09 61.19 63.41 66.34 65.57 66.83 63.74 64.20 69.23 69.81 68.61 68.58 68.95 69.20 69.63 69.80 69.52 70.47 70.34 71.27 71.82 72.74 73.07 74.27 75.12 75.92 76.32 76.80 76.25 76.21 75.71 75.84 76.37 77.11 76.42 77.81 77.88 78.20 76.45 76.36 76.33 77.36 77.37 76.73 76.54 76.00 72.83 73.78
53.97 55.92 54.59 62.10 65.06 65.57 65.00 60.16 65.85 69.38 68.86 67.78 68.21 68.31 68.46 69.22 69.41 70.22 71.02 71.01 71.98 72.18 72.82 73.66 73.43 74.13 75.18 75.56 76.03 75.38 75.51 75.94 75.96 76.48 76.69 76.47 77.17 77.88 78.62 76.73 76.30 77.27 76.88 76.02 75.19 73.55 73.45 72.96 72.95
51.64 49.84 52.49 60.78 65.06 64.63 63.92 61.43 66.83 69.11 68.68 67.82 67.95 68.14 68.07 68.78 69.66 70.05 70.95 71.41 72.01 73.00 73.54 73.57 73.86 73.68 74.21 75.43 75.41 75.47 76.36 76.16 76.44 76.89 76.93 77.87 77.59 77.93 78.60 76.73 77.51 79.10 77.68 75.10 74.78 74.12 74.67 72.35 72.42
48.50 49.38 52.99 57.89 62.61 63.93 62.80 62.74 66.39 67.95 68.17 67.87 67.97 68.01 68.16 68.52 69.14 70.30 70.91 71.58 72.45 73.42 74.02 74.21 73.72 74.21 74.77 74.47 74.87 74.49 75.10 75.91 76.71 76.82 77.16 78.36 77.74 77.72 78.09 77.73 79.03 77.14 75.46 75.47 75.29 75.67 75.16 73.95 73.51
51.33 51.78 51.53 57.85 62.87 62.52 62.24 62.38 65.49 66.92 67.59 67.15 67.84 68.01 67.93 68.45 70.28 71.10 71.36 71.90 71.79 72.92 73.48 73.96 73.55 74.51 74.08 73.08 72.31 73.00 73.25 74.88 75.61 76.37 77.71 78.42 78.29 78.76 78.84 77.55 78.03 78.53 75.46 75.70 76.54 75.90 75.15 71.16 71.65
49.97 50.78 52.05 55.02 60.72 61.82 62.18 61.49 64.02 66.95 66.63 67.67 67.74 68.12 68.15 68.79 69.45 70.13 71.41 71.67 71.51 72.20 73.17 73.84 74.16 74.67 74.56 73.11 74.16 73.80 74.74 75.13 75.88 76.90 78.05 78.70 78.42 78.89 78.26 78.44 77.71 78.12 75.19 76.15 76.35 75.58 72.70 73.35 72.99
48.90 48.64 50.93 52.63 56.33 58.97 61.03 60.06 61.87 65.50 67.48 67.91 68.65 69.35 69.31 68.97 69.12 69.28 70.61 71.19 71.53 71.94 73.07 73.75 74.66 74.91 75.05 75.72 73.86 75.25 75.88 76.14 75.72 76.29 76.51 77.97 78.70 78.87 78.89 78.74 78.47 79.05 76.38 75.09 76.52 75.53 74.52 71.20 73.19
46.57 50.15 49.33 51.55 52.27 51.25 59.57 53.49 59.88 62.84 65.14 66.67 67.67 68.38 68.94 69.22 69.91 70.13 70.32 70.86 71.50 72.18 73.74 74.55 74.96 75.32 75.35 75.75 75.30 76.09 74.05 72.82 73.65 75.37 75.81 76.82 78.73 78.73 78.93 78.90 78.44 77.87 76.52 78.15 75.93 75.55 74.96 74.85 71.48
47.84 50.82 49.55 48.98 50.84 52.03 54.18 54.03 57.56 62.21 62.17 65.32 67.29 68.05 68.76 69.64 69.82 69.68 70.33 71.71 72.28 72.68 73.17 74.58 75.66 76.59 77.01 76.67 76.66 74.71 75.31 73.50 74.30 74.84 77.46 78.43 78.99 78.96 78.55 79.26 79.00 78.94 76.51 77.39 77.07 77.20 77.10 73.66 73.02
51.67 49.55 49.29 48.96 47.38 44.86 51.36 53.07 54.95 58.37 61.46 64.20 67.40 68.48 69.11 69.47 69.84 70.23 71.15 72.16 72.54 73.09 73.17 74.19 75.94 76.94 77.09 76.31 75.11 76.78 76.79 76.25 74.09 75.47 74.99 75.25 75.95 77.40 78.77 79.00 79.27 79.37 77.99 77.18 76.89 77.76 78.00 76.79 75.50
50.48 47.87 43.42 41.79 41.29 40.28 50.35 50.50 54.38 59.76 63.21 64.13 65.81 68.09 69.62 70.69 70.32 69.98 69.98 70.44 72.04 72.47 73.08 73.56 75.47 76.09 76.73 75.77 75.35 75.40 75.95 77.07 76.58 76.02 74.92 76.61 74.14 75.09 77.04 78.97 79.10 78.45 79.83 78.63 78.33 79.76 77.99 77.47 76.11
49.02 48.73 44.06 39.40 41.09 42.70 47.55 46.32 52.12 59.56 62.25 64.84 66.39 68.66 70.25 70.68 71.22 71.26 71.00 71.11 71.30 72.40 73.00 73.65 74.72 75.97 76.36 75.87 76.92 77.48 77.84 74.85 75.25 76.16 75.29 74.84 74.32 74.88 77.20 78.29 78.68 78.81 78.99 79.11 78.88 77.47 77.01 77.78 76.71
50.20 46.82 50.94 46.86 48.22 45.43 46.63 48.25 53.98 58.52 59.78 61.59 63.52 66.20 67.71 69.52 70.83 71.51 72.32 72.73 72.32 72.22 73.71 74.46 75.35 75.40 75.94 75.23 77.25 77.59 77.48 77.01 75.88 78.21 76.61 75.37 77.64 75.44 76.47 77.14 77.94 78.20 78.52 78.82 78.85 77.43 77.95 77.89 77.50
51.03 53.50 46.03 47.08 41.16 40.90 45.95 47.25 46.56 54.49 57.53 60.30 61.59 62.75 66.32 68.77 70.62 71.51 72.19 72.90 73.43 73.18 73.38 73.92 74.42 75.22 75.61 75.62 76.11 76.02 76.21 77.09 77.42 77.11 77.23 77.20 76.47 77.01 76.47 76.40 76.88 76.98 77.56 78.57 78.96 77.94 78.56 78.48 77.45
48.47 47.98 49.36 49.36 47.39 42.77 42.54 46.37 53.69 54.01 56.38 59.16 61.23 63.44 64.82 68.32 70.44 71.35 72.32 73.07 73.81 73.80 73.51 73.66 73.96 74.33 74.74 75.56 76.44 76.41 75.91 76.10 76.51 76.06 76.58 76.90 77.01 77.27 77.12 76.63 76.32 76.31 77.30 78.19 78.42 78.32 77.72 77.99 78.36
49.72 48.65 49.57 45.24 44.77 47.01 47.21 47.38 55.10 55.94 56.79 59.35 61.30 63.06 64.90 66.65 69.41 71.38 72.04 72.96 73.29 73.66 73.43 73.24 73.99 74.02 74.51 76.20 77.19 76.34 76.67 76.76 75.55 76.11 76.66 77.32 77.11 77.42 77.45 77.44 76.68 76.13 76.62 77.75 77.84 77.33 76.85 77.05 77.20

GFSSGP_sfc_wetblb_063.txt.gz
Wetbulb
74.33 73.87 74.70 70.03 62.61 62.51 58.58 59.08 64.94 63.87 64.24 67.29 68.31 66.10 64.92 66.76 63.33 61.46 73.42 74.25 74.87 74.75 75.82 76.34 77.21 77.26 77.20 77.08 76.95 76.88 76.63 76.85 76.90 76.91 76.83 77.13 76.69 76.93 76.57 75.89 76.65 75.75 75.94 75.58 75.36 75.97 75.72 75.47 76.36
74.33 73.70 73.15 69.68 61.25 58.62 56.83 63.75 62.21 64.35 67.29 68.85 67.31 67.34 66.06 65.25 69.88 69.33 71.02 73.76 74.82 75.18 75.74 75.75 77.43 77.89 77.24 77.16 77.37 77.36 77.23 77.17 77.32 76.96 76.66 76.63 76.72 76.54 76.35 76.00 76.41 75.77 75.91 75.92 75.69 75.72 75.56 75.86 76.01
74.06 73.67 68.88 65.19 63.41 55.90 58.22 63.67 66.07 67.02 68.54 68.11 67.36 68.61 68.29 65.96 70.40 71.36 74.58 74.62 74.58 74.67 74.94 76.46 77.77 77.81 77.76 77.47 77.33 77.28 77.20 77.08 76.95 76.97 76.67 76.51 76.38 76.38 76.24 75.97 75.97 75.97 76.33 75.91 75.94 75.69 75.80 76.16 75.67
71.51 71.21 70.21 63.22 58.93 63.71 61.41 64.34 66.89 63.81 67.71 68.77 68.00 65.94 69.68 72.05 71.20 72.63 75.17 75.24 73.96 74.61 74.89 76.83 77.38 77.37 77.48 77.41 77.41 77.24 77.16 77.05 77.10 76.94 76.71 76.38 76.50 76.39 76.14 76.17 75.89 75.78 76.06 76.08 76.05 75.80 75.47 75.36 75.50
71.96 69.82 63.39 61.80 61.25 63.12 65.39 66.46 66.71 65.35 66.64 67.52 68.74 65.57 66.69 70.14 72.91 73.47 73.76 73.98 73.14 74.21 74.87 77.00 77.88 77.20 77.37 77.33 77.21 77.31 77.22 76.63 77.02 76.74 76.87 76.60 76.64 76.28 76.14 75.97 76.11 75.78 75.86 75.52 75.55 75.58 75.75 75.55 75.64
66.29 68.69 60.74 58.97 59.49 64.77 66.09 68.88 67.31 66.79 67.27 68.11 67.64 66.60 66.81 72.39 71.41 72.69 73.38 74.44 73.39 73.36 74.53 75.44 77.30 77.18 77.22 76.70 77.09 77.26 77.14 77.12 76.99 76.99 76.91 76.69 76.69 77.07 76.97 76.56 76.11 76.00 76.08 75.52 75.44 75.42 75.50 75.69 75.42
65.36 65.28 59.78 58.50 59.77 62.96 65.89 69.95 67.11 65.74 67.14 67.09 69.76 66.33 67.73 70.36 71.61 72.80 73.49 73.61 72.82 73.51 74.38 75.59 77.00 77.43 76.95 77.15 76.98 77.41 77.25 77.06 77.20 77.47 77.22 77.41 76.89 76.86 76.61 76.42 76.13 75.65 75.17 75.82 75.53 75.21 75.81 75.94 75.95
69.33 66.94 61.35 61.55 61.82 61.02 68.39 68.55 69.01 67.18 67.25 71.38 71.60 66.11 64.63 70.20 72.16 72.42 72.95 72.97 72.47 73.62 74.18 74.50 75.93 76.83 75.94 77.29 77.13 77.34 77.10 77.16 76.86 76.70 77.16 77.36 76.58 75.85 75.42 76.93 76.44 75.61 75.30 75.71 75.24 75.52 75.83 76.08 76.02
70.01 61.84 59.64 61.33 62.04 63.69 68.61 67.59 70.47 71.39 69.17 69.81 70.65 69.76 71.10 71.78 72.45 71.33 71.12 71.50 71.76 72.13 73.74 74.02 74.71 76.47 76.01 77.28 77.41 77.33 77.28 77.26 77.16 77.06 77.06 77.14 75.52 76.29 76.20 76.42 76.15 75.79 75.38 75.42 75.17 75.38 76.14 76.33 75.99
65.57 62.23 60.72 62.25 66.47 66.67 67.85 68.22 68.79 68.17 68.15 67.82 68.91 71.16 71.55 72.01 71.46 69.35 69.70 70.11 70.37 70.88 72.50 73.52 74.35 74.71 75.36 75.19 77.03 77.41 77.05 76.46 76.83 76.19 77.58 75.50 75.96 76.82 75.48 76.07 76.04 75.90 75.90 75.67 75.60 75.47 74.62 76.45 74.96
66.79 62.52 66.50 66.48 68.01 68.49 68.13 67.27 70.04 66.46 65.80 68.44 67.76 68.13 68.99 70.66 70.95 69.79 69.95 70.71 70.14 71.08 72.49 72.70 74.28 75.07 74.56 75.81 76.13 75.48 76.31 75.76 76.51 76.87 76.55 76.04 75.56 76.36 74.76 75.58 75.62 75.82 76.55 75.34 75.64 74.65 75.37 75.49 74.23
63.38 65.88 66.48 66.34 68.35 67.38 66.99 68.44 66.98 68.19 67.10 70.73 71.50 70.98 69.87 70.26 70.19 70.05 70.09 70.48 70.37 70.81 71.96 72.50 74.23 75.17 75.42 74.66 74.46 75.42 75.13 74.72 74.94 76.23 77.17 76.83 75.96 75.03 75.83 75.15 76.16 76.25 73.76 75.06 75.88 74.06 75.55 75.05 73.08
63.36 63.77 67.00 67.89 67.86 68.31 68.81 66.93 66.47 67.40 70.67 71.91 71.92 71.16 69.09 70.25 69.77 71.01 71.24 71.08 70.86 70.36 71.50 72.73 74.26 75.77 76.58 77.31 78.56 75.24 74.66 74.43 75.67 76.27 77.10 75.33 75.80 75.35 76.38 75.75 73.10 77.67 75.61 74.45 75.18 74.48 75.21 76.29 75.08
62.25 63.62 64.98 67.22 67.63 67.59 65.82 65.59 67.59 68.43 71.42 70.84 70.67 70.29 69.88 70.51 70.23 70.82 71.05 70.46 70.51 71.01 71.65 73.24 74.17 75.82 76.28 77.05 79.30 75.61 74.70 77.53 76.20 75.51 76.31 78.04 76.16 77.08 75.85 77.31 76.01 74.65 72.52 73.76 75.52 76.63 75.08 76.26 73.20
60.86 59.27 62.42 64.48 66.35 65.38 67.60 62.72 64.85 69.34 70.88 69.85 69.68 70.35 69.06 69.52 71.04 70.78 71.37 70.47 71.18 71.22 71.92 73.17 74.18 75.26 75.95 77.99 76.34 75.78 76.06 75.56 75.75 75.89 77.81 77.45 78.30 78.06 78.75 76.45 72.46 75.63 76.99 77.86 76.29 75.99 73.69 73.42 73.47
56.91 58.22 56.46 62.55 65.22 66.73 66.68 59.81 65.35 70.30 69.83 69.08 69.27 69.68 69.45 69.73 71.10 71.65 71.93 70.90 72.04 71.79 71.69 73.12 73.38 74.66 75.49 76.39 76.44 75.82 75.57 75.95 75.22 76.48 77.27 77.29 77.79 77.94 78.39 76.10 75.57 76.27 73.68 73.71 72.43 73.76 73.85 71.86 73.12
53.55 52.15 54.62 57.70 63.14 63.97 65.46 60.21 61.28 69.63 69.65 68.96 69.03 69.36 69.37 69.12 70.33 71.73 71.97 71.32 71.91 72.17 72.41 72.77 73.88 74.22 75.33 76.62 76.55 76.79 77.23 76.05 75.99 77.58 76.80 78.10 78.29 77.99 77.92 76.39 76.89 76.99 76.30 75.07 73.68 70.26 73.63 72.49 71.38
49.73 50.85 53.83 55.49 62.59 64.03 63.62 62.08 62.92 68.92 68.83 68.91 69.01 69.19 69.42 69.37 69.95 71.44 71.64 71.81 72.09 72.28 72.90 73.59 73.55 76.28 76.69 76.22 76.42 75.44 75.63 76.47 76.79 75.74 76.58 78.53 78.18 78.28 78.25 75.53 77.02 76.83 75.94 71.91 75.42 75.20 74.91 74.85 71.29
52.73 52.30 52.84 56.91 63.20 62.32 61.59 62.29 62.11 67.90 68.19 68.55 68.95 68.58 69.15 69.61 71.36 71.55 71.70 71.86 71.78 72.35 72.89 73.67 74.65 77.76 75.41 74.18 73.51 73.73 73.74 75.22 76.78 76.93 78.23 78.28 78.22 78.41 78.61 75.89 77.38 77.00 76.42 73.39 75.68 74.39 73.81 71.88 73.64
51.85 51.24 52.14 56.03 60.82 61.88 61.28 60.79 63.67 67.13 67.61 68.74 69.01 68.83 68.95 69.84 70.29 70.61 71.26 71.47 71.28 71.94 73.17 75.07 75.80 77.68 75.96 74.71 75.68 75.33 75.93 74.91 75.36 75.95 78.01 78.39 77.89 78.64 78.28 78.91 77.30 76.92 76.43 76.30 76.81 75.17 71.75 70.12 73.57
51.09 50.49 51.60 53.68 56.63 62.13 60.72 59.66 61.83 65.40 67.83 68.91 69.83 70.52 69.57 69.88 70.09 70.49 70.78 70.94 71.24 71.86 72.82 75.29 76.66 77.56 76.88 77.19 76.02 76.21 76.58 76.57 74.55 76.26 76.12 77.86 78.31 78.70 78.93 78.69 76.16 77.45 77.15 74.44 76.20 75.96 76.79 71.62 72.55
49.30 52.41 51.59 52.07 53.90 51.95 60.26 53.69 56.90 60.31 65.19 67.24 68.62 69.66 69.97 69.57 70.91 71.33 71.32 71.16 71.18 71.80 73.21 76.06 76.65 77.60 77.00 77.93 75.04 76.75 73.85 72.72 73.69 75.65 75.59 76.94 78.55 78.40 78.67 79.04 78.72 77.99 77.21 77.90 77.42 75.85 76.87 75.19 72.05
50.43 53.34 51.52 50.63 50.20 53.33 54.76 53.49 58.26 62.98 62.29 65.16 67.57 69.12 70.19 70.63 70.50 70.85 71.43 72.19 72.28 72.36 72.78 74.00 77.28 77.94 77.63 77.41 77.59 75.09 75.78 73.88 74.29 74.44 79.13 81.16 80.49 78.69 78.05 79.07 79.02 78.39 76.75 78.24 77.24 77.13 77.75 74.67 73.82
53.70 51.68 51.43 51.31 49.30 44.85 51.86 53.64 56.15 58.05 60.14 65.01 67.48 68.78 69.89 70.68 71.04 71.41 72.19 72.89 72.73 72.88 72.95 74.41 76.76 77.84 78.57 77.86 76.92 77.91 76.57 76.86 73.29 74.93 75.55 74.85 76.49 77.21 78.78 78.50 80.35 78.71 78.18 77.85 77.61 78.30 77.63 78.76 76.59
52.38 50.04 44.58 43.37 43.60 42.76 49.74 51.10 55.43 61.14 63.37 63.91 66.62 68.34 69.81 70.85 71.23 71.17 71.28 71.49 72.62 73.37 73.85 74.96 76.83 77.27 78.09 77.80 76.40 76.91 78.08 78.02 78.86 77.99 74.70 75.97 73.81 74.35 79.08 80.05 79.34 78.77 79.67 78.53 78.68 79.06 77.58 77.59 76.05
50.93 50.30 46.02 41.14 42.73 44.76 49.76 46.02 52.43 60.37 63.80 64.54 65.36 67.35 69.87 70.28 70.98 71.45 71.82 71.78 73.07 74.02 74.80 75.26 76.46 77.45 78.09 77.59 77.53 77.03 78.22 74.66 74.60 77.30 75.16 74.21 73.92 74.93 80.69 78.85 78.35 78.79 79.00 78.24 79.45 77.23 76.75 79.28 76.43
51.20 48.44 52.09 48.27 50.06 47.36 48.95 50.12 53.12 58.19 60.30 64.05 62.50 66.59 67.22 70.02 70.80 71.24 72.11 72.54 73.36 74.11 75.30 75.37 76.55 77.75 78.01 76.73 78.16 78.40 77.66 76.47 74.71 77.89 78.72 76.41 78.10 75.72 76.54 77.71 78.24 78.22 78.06 79.40 80.38 76.84 78.72 77.45 78.05
51.78 54.14 47.47 48.01 42.54 42.46 47.53 49.53 48.55 52.48 56.38 60.10 63.10 64.78 66.84 69.61 70.95 71.75 72.25 72.27 72.91 73.61 74.37 75.76 76.84 77.64 77.56 77.56 78.13 77.96 77.62 77.83 77.98 78.84 79.47 77.99 78.74 79.45 77.87 78.09 77.47 77.95 79.04 79.01 80.80 78.95 79.68 78.90 77.47
48.80 48.77 50.71 51.04 48.47 44.14 44.14 48.13 56.20 54.81 55.89 58.61 61.37 64.18 66.37 69.37 70.18 71.23 72.38 73.43 73.25 73.59 73.93 74.34 75.48 76.72 76.78 77.48 77.97 77.36 77.37 76.97 77.87 78.46 79.10 79.21 79.24 80.17 79.36 79.11 78.18 77.57 77.70 78.79 80.06 79.98 78.85 78.79 78.92
49.11 48.57 48.52 46.34 46.32 48.53 47.91 48.80 57.12 57.56 56.89 59.18 61.51 63.37 64.98 67.10 69.47 70.88 71.81 73.21 73.84 74.06 73.97 74.12 74.43 74.55 76.06 77.17 77.98 77.56 78.30 77.45 76.97 77.66 78.36 79.94 79.62 79.57 80.00 79.26 79.02 77.76 77.34 78.98 79.49 77.68 77.90 77.22 77.50

GFSSGP_sfc_wetblb_066.txt.gz
Wetbulb
74.02 73.04 73.13 71.26 61.50 61.90 58.98 60.01 64.29 63.30 63.88 66.86 68.10 66.07 64.92 65.63 63.97 60.13 71.25 72.89 73.92 73.93 75.28 75.60 76.94 77.13 77.24 77.06 77.00 76.92 77.35 77.18 77.09 76.93 76.88 77.27 76.74 76.41 76.10 76.37 76.16 76.37 75.80 75.80 76.24 75.88 76.07 76.57 76.73
72.93 71.65 71.51 68.32 59.74 57.23 58.01 62.05 62.35 64.61 66.68 68.16 67.82 67.25 65.85 64.06 68.41 68.61 70.73 73.62 74.23 74.52 75.03 75.24 76.95 77.08 77.43 77.02 77.53 77.50 76.89 76.91 76.90 76.79 77.09 76.78 76.46 76.46 76.43 76.29 75.93 76.45 76.30 75.83 76.07 75.74 76.02 76.39 76.42
74.18 73.13 67.66 64.27 61.68 55.34 57.87 61.34 62.85 65.95 67.55 67.46 66.20 68.50 67.48 65.54 69.15 70.41 73.32 73.57 74.10 73.73 74.60 75.31 78.26 77.94 77.67 77.65 77.33 77.38 77.42 77.23 77.06 76.96 76.63 76.37 76.39 76.51 76.21 76.38 76.38 76.30 76.10 76.24 75.99 76.18 76.27 75.66 76.22
72.43 70.64 68.92 62.03 59.73 60.34 62.21 62.65 66.31 65.96 67.65 69.01 67.74 65.31 68.64 71.60 70.52 72.35 73.80 73.84 72.50 72.67 74.24 76.62 78.24 77.21 77.98 77.45 77.29 77.39 77.13 77.31 76.85 77.00 76.78 76.70 76.87 76.55 76.46 76.33 76.11 76.57 76.07 75.76 76.05 75.60 75.52 75.77 75.13
71.68 69.04 61.76 61.14 61.06 63.15 66.00 66.77 66.32 65.55 66.28 67.43 68.27 64.41 65.34 70.35 73.03 73.23 72.61 73.24 71.74 73.08 74.49 75.57 78.09 77.49 77.37 77.42 77.30 77.36 77.06 77.20 77.09 76.85 76.95 77.16 76.99 76.44 76.41 76.47 76.16 76.16 76.07 75.83 75.99 75.99 75.66 75.55 75.08
65.68 67.90 60.33 58.78 60.63 63.53 66.36 67.77 66.38 65.85 66.85 67.06 66.61 65.60 66.11 71.61 71.64 72.37 73.29 72.65 73.28 72.76 73.90 75.53 77.18 77.55 77.55 77.40 77.67 77.32 77.15 77.21 76.80 77.46 77.16 77.06 77.33 76.68 76.44 76.19 76.30 76.55 76.10 75.80 75.83 75.77 75.61 75.22 74.91
64.59 63.93 59.15 58.97 59.78 61.76 65.53 69.24 66.41 66.04 66.33 66.52 68.59 64.64 67.55 69.27 71.84 72.80 72.83 72.35 72.46 72.77 73.18 75.05 75.44 76.94 77.30 77.46 77.52 77.10 77.52 77.33 78.04 77.60 77.87 78.14 77.92 77.24 77.19 77.13 76.27 75.87 75.90 75.37 75.57 76.02 75.85 75.79 75.16
67.73 65.15 61.19 60.60 58.99 58.61 63.08 67.68 69.16 67.16 65.83 71.10 70.90 64.37 64.41 69.76 72.55 72.97 72.97 70.60 72.25 72.63 73.36 75.24 75.19 75.04 76.15 76.43 77.20 77.24 77.35 77.36 77.78 78.14 78.24 78.01 77.24 76.18 76.49 77.30 77.08 75.65 75.96 75.48 75.65 76.05 76.13 75.81 75.38
69.94 62.43 60.05 60.51 60.08 61.82 64.95 66.80 69.73 70.44 68.66 69.53 69.99 69.24 70.14 71.64 72.42 71.72 70.30 69.38 71.80 71.48 72.66 73.47 74.06 74.62 77.01 76.75 77.00 77.30 77.40 76.93 77.18 76.94 77.08 76.34 75.38 75.76 75.22 77.19 77.08 76.03 76.01 75.76 75.93 76.05 75.61 75.55 75.16
64.97 62.16 61.85 65.45 65.25 61.97 65.63 67.33 68.01 67.47 66.96 67.48 69.14 70.79 71.16 71.05 71.19 70.32 68.68 67.73 70.30 70.52 70.87 72.85 74.60 74.05 75.98 75.06 76.96 77.18 76.52 76.02 76.25 76.47 76.39 77.61 74.54 76.58 74.94 76.40 77.36 76.06 76.60 76.41 75.37 72.32 73.87 75.44 74.75
64.84 61.25 64.55 64.40 66.58 65.90 65.46 67.21 69.15 66.88 64.89 67.09 66.80 68.19 69.58 69.79 70.06 69.44 69.29 68.83 68.98 70.91 71.00 72.70 74.50 75.03 74.54 74.91 76.61 76.47 76.04 76.34 76.42 78.95 75.99 76.73 75.80 76.88 74.71 75.02 75.08 75.49 76.22 74.38 74.57 74.31 73.28 74.17 73.83
61.15 64.24 65.41 64.82 68.50 67.74 64.57 66.82 66.16 65.79 63.77 69.97 70.11 69.62 69.76 68.89 69.38 68.87 68.98 69.38 69.34 70.60 70.16 73.06 73.73 76.36 74.06 75.49 75.63 74.63 76.12 75.18 75.24 76.11 76.96 76.03 73.00 72.66 75.44 73.25 76.86 73.12 73.57 74.89 72.00 73.95 73.06 73.09 73.24
62.32 63.82 65.09 66.75 68.48 66.30 65.54 64.38 64.55 63.18 65.40 70.43 70.87 69.66 69.08 69.15 69.30 69.74 70.23 70.13 70.02 69.73 71.37 72.79 73.78 78.34 73.67 74.67 73.71 74.65 72.95 74.55 76.07 76.25 74.72 75.51 76.85 74.05 76.47 72.33 73.51 73.45 75.44 74.33 72.05 74.47 73.48 71.43 73.95
63.15 63.02 64.28 66.78 67.19 67.96 64.90 64.51 65.35 66.56 68.65 69.99 69.36 68.38 68.80 69.31 69.03 70.14 70.19 69.65 69.82 70.50 71.82 73.22 73.51 77.44 77.73 76.68 78.59 73.79 76.82 73.66 75.74 76.76 75.72 73.95 77.37 77.74 77.44 74.16 73.81 73.47 75.12 74.39 74.87 75.37 74.44 73.72 71.53
59.61 58.60 61.27 63.23 66.96 66.06 66.88 62.33 63.56 68.30 69.69 68.88 68.67 68.62 68.54 69.32 69.88 70.09 70.83 70.16 70.36 71.27 72.91 73.04 73.37 75.47 77.47 75.41 76.52 78.29 76.40 75.97 72.65 77.26 79.24 76.42 75.97 77.99 75.92 73.34 73.75 74.76 76.80 76.65 75.71 76.86 74.08 72.17 73.43
55.53 56.61 54.71 60.17 63.69 66.60 66.03 60.05 64.07 68.35 68.36 67.84 68.46 67.91 68.49 68.89 69.88 70.96 71.45 70.60 70.94 71.20 73.18 73.11 72.31 74.08 75.69 77.33 78.85 78.26 76.59 76.83 76.15 75.30 77.99 78.62 75.30 79.36 73.94 74.46 73.83 75.23 74.14 75.98 71.63 75.24 73.39 71.39 71.82
53.70 50.07 53.51 56.49 63.04 63.93 64.36 60.16 63.79 65.91 67.33 67.48 68.22 67.91 68.14 68.67 69.81 71.37 71.39 71.10 71.25 72.21 73.42 72.95 74.18 74.49 75.02 76.58 77.59 76.45 76.19 77.60 75.55 77.74 76.76 79.36 79.07 79.37 76.68 73.50 75.39 74.65 76.89 76.95 74.92 70.33 75.41 72.35 72.49
48.93 50.41 52.75 54.43 59.15 62.20 61.84 60.23 63.22 63.86 64.80 67.02 67.63 68.30 68.00 68.12 68.87 71.39 71.33 71.03 71.84 72.59 73.23 73.37 74.73 75.79 76.24 76.98 78.59 75.33 77.17 76.24 76.10 78.17 78.15 79.53 77.70 79.07 75.10 75.69 77.54 77.28 71.91 73.32 75.49 70.26 72.64 71.64 71.07
52.80 51.10 51.58 54.46 57.94 60.16 59.46 59.69 59.79 63.04 63.15 62.70 67.03 68.29 67.74 68.10 70.89 71.83 71.78 70.98 71.91 72.15 72.55 73.42 75.06 76.12 75.41 75.13 74.63 74.11 73.64 76.05 73.32 73.85 76.08 79.34 78.13 77.93 75.73 76.55 77.53 77.53 72.90 72.94 76.51 76.09 74.94 71.19 73.56
52.97 51.40 50.46 53.42 56.59 61.04 61.17 56.69 58.78 60.17 61.35 61.81 66.91 67.55 68.61 68.31 69.38 70.73 71.44 70.69 71.03 71.72 72.15 74.22 74.59 75.90 75.08 75.80 75.98 75.98 74.21 75.24 74.00 75.08 77.25 78.76 79.00 79.26 77.34 75.63 77.30 73.30 76.99 76.72 74.94 71.36 71.09 69.92 71.06
51.42 50.17 50.42 50.96 55.03 60.67 59.84 55.70 57.50 59.72 61.96 64.18 67.79 68.22 68.88 69.35 69.20 70.07 70.48 70.59 71.06 71.41 72.36 73.81 74.64 75.62 75.52 76.69 75.83 77.52 78.75 76.62 75.28 76.93 77.09 78.64 79.06 79.59 78.11 77.97 77.19 78.34 74.49 74.72 76.22 76.28 69.63 69.82 72.63
48.75 52.76 51.61 51.01 50.68 49.40 56.92 52.19 54.49 59.86 60.51 59.77 60.94 67.32 67.82 69.45 70.36 70.36 70.44 70.62 70.53 71.68 73.66 74.00 75.11 76.20 75.30 77.21 74.86 76.46 74.17 73.05 74.69 74.84 76.94 77.39 79.44 79.23 79.24 78.66 79.15 78.86 76.49 75.21 77.84 77.11 73.05 69.93 70.90
50.39 53.75 52.37 51.13 49.47 49.69 51.94 51.17 57.62 60.30 56.56 58.71 60.20 66.43 67.46 69.37 70.23 70.25 70.23 71.05 71.34 72.77 73.13 74.14 74.91 76.08 75.03 75.23 76.83 75.41 74.56 74.47 76.35 75.54 76.96 77.44 79.86 80.22 78.72 80.11 79.41 78.09 77.34 77.93 77.46 77.04 77.66 76.36 73.63
53.58 51.58 51.81 51.53 49.28 44.29 48.07 49.61 52.30 58.36 57.45 56.95 59.94 65.00 68.08 68.51 70.14 71.24 71.56 72.06 71.70 72.79 72.92 74.19 74.27 74.91 75.57 74.93 75.17 76.01 74.11 76.50 75.48 75.60 74.47 76.36 77.16 78.06 80.11 78.93 78.52 78.89 78.69 77.65 77.77 79.11 78.24 78.05 77.17
52.37 48.94 43.33 42.63 42.67 42.88 49.01 46.89 52.05 59.18 61.78 59.68 60.88 64.93 69.07 69.81 69.96 70.94 71.20 71.48 71.70 71.53 72.17 73.18 74.05 73.91 74.97 74.90 74.00 76.17 75.00 75.23 77.12 78.18 74.77 74.59 75.47 75.30 77.50 79.61 78.08 78.26 78.59 78.65 78.73 79.19 78.47 78.65 77.36
50.46 49.30 44.37 39.54 41.23 43.70 50.01 45.46 49.30 56.09 65.03 65.03 64.65 64.66 65.86 70.11 70.67 70.86 71.54 71.91 72.03 72.08 72.09 72.64 73.81 73.92 74.68 75.59 73.83 74.58 76.64 74.79 75.25 77.55 75.57 77.66 75.05 75.96 77.44 78.39 78.48 78.85 78.91 78.64 78.72 77.54 77.83 77.80 77.77
50.18 48.12 51.22 46.75 48.17 45.44 47.80 50.53 53.48 55.26 56.90 65.32 63.19 63.87 63.20 66.84 70.12 71.09 71.98 72.15 73.00 72.81 72.40 72.96 73.77 74.41 75.24 75.02 75.55 73.73 76.01 75.75 74.02 76.79 78.53 76.50 78.05 77.69 77.89 78.31 78.87 79.20 78.20 78.27 78.46 76.62 76.95 76.71 77.66
50.07 52.33 46.73 47.30 41.12 40.96 45.86 48.67 49.38 53.45 54.81 58.83 63.96 63.58 64.57 65.40 64.93 68.41 72.05 72.39 73.35 73.67 73.88 73.84 74.81 74.66 75.63 75.27 75.85 75.08 73.66 75.47 75.88 74.28 77.81 76.72 78.20 77.81 77.83 78.36 78.11 78.11 79.29 79.05 78.27 77.10 77.21 77.13 76.21
48.29 47.42 49.09 49.28 48.23 42.99 42.27 46.66 55.94 57.87 56.56 57.33 64.28 64.43 62.07 63.78 64.81 66.69 65.79 72.94 73.18 73.93 74.46 74.11 74.21 75.33 75.97 76.24 75.83 75.63 75.02 74.61 74.36 75.24 74.72 76.33 76.86 80.45 79.04 79.96 78.68 78.14 77.69 79.31 78.84 77.71 77.09 76.67 76.48
48.22 48.15 48.73 45.34 45.02 47.97 47.44 47.06 56.62 57.87 58.07 57.95 58.74 64.73 64.55 65.76 64.26 64.55 64.89 70.59 72.97 73.35 73.74 74.31 74.40 75.20 76.12 76.65 76.27 75.77 76.52 75.46 74.63 73.28 76.29 77.61 78.50 78.22 80.79 78.73 79.54 78.00 77.75 78.12 77.88 77.18 75.93 76.82 76.27

GFSSGP_sfc_wetblb_069.txt.gz
Wetbulb
73.38 72.74 70.89 68.86 59.87 59.00 57.43 59.02 63.04 61.94 62.70 66.55 67.68 65.57 63.97 65.32 62.93 56.97 69.74 71.32 72.28 72.46 73.95 75.39 77.33 76.82 77.06 77.30 77.59 77.19 76.98 76.95 76.75 76.55 76.73 76.79 76.57 76.59 76.57 76.36 76.43 75.40 76.41 76.17 76.06 76.55 76.81 76.69 76.68
71.67 70.84 69.75 66.66 58.58 54.76 56.55 61.53 61.28 62.89 65.56 67.55 67.58 66.49 64.85 62.42 66.60 66.69 68.01 71.73 72.87 73.52 73.73 74.45 76.71 77.32 77.23 77.01 77.68 77.59 77.15 77.36 77.08 77.27 76.67 76.72 76.65 76.65 76.38 76.39 76.51 76.06 76.15 75.97 76.12 76.12 76.30 76.74 76.51
71.91 72.08 65.65 62.20 58.91 53.97 56.77 60.94 63.13 65.09 67.33 66.71 65.86 67.52 65.70 63.18 67.70 68.11 71.25 72.59 73.23 73.10 73.65 74.36 77.20 77.61 77.06 77.22 77.46 77.80 77.07 77.11 76.95 76.77 76.76 76.66 76.72 76.38 76.03 76.75 76.24 76.39 76.06 76.25 76.13 76.12 75.89 76.26 76.19
70.55 69.63 66.72 58.51 57.58 58.00 60.81 61.90 64.23 65.37 67.07 67.50 66.38 63.15 67.21 70.11 69.19 70.69 72.47 73.22 72.20 72.85 74.05 76.96 77.47 77.49 77.20 77.43 77.52 77.55 77.36 77.15 77.25 77.32 76.87 76.96 76.57 76.61 76.53 76.48 76.41 76.31 75.92 76.23 75.87 75.68 75.90 75.32 75.48
71.27 67.44 60.20 58.18 59.38 61.73 63.21 63.63 64.37 64.68 65.59 65.45 66.10 63.08 64.86 68.90 71.16 71.69 71.94 71.83 71.22 72.08 74.94 76.25 78.07 78.09 77.35 77.31 77.51 77.41 77.51 77.17 77.07 77.40 76.91 77.30 76.73 76.70 76.48 76.26 76.62 75.98 76.26 76.23 75.90 75.54 75.48 75.26 74.85
64.90 65.25 57.71 55.97 58.42 62.77 64.52 65.51 65.87 65.50 66.17 65.96 64.64 64.31 65.31 70.10 69.83 70.79 71.93 71.22 72.44 72.49 74.38 75.26 77.27 77.69 77.77 77.43 77.23 77.23 77.04 77.07 77.04 77.14 76.72 76.86 76.31 76.34 76.37 76.29 76.76 76.15 76.07 76.09 75.76 75.43 75.18 75.04 74.51
62.95 62.62 58.84 58.47 59.09 60.74 62.93 67.24 64.71 65.14 65.11 64.39 67.23 62.79 66.19 67.88 70.20 71.03 71.08 71.50 71.96 73.13 74.12 74.60 75.07 76.21 77.60 77.44 77.27 77.32 77.35 77.08 77.21 77.11 77.30 77.22 77.27 76.75 76.56 76.23 76.48 76.23 75.92 75.76 75.71 75.57 75.34 75.06 74.65
66.38 63.79 59.71 60.21 57.62 57.15 63.02 65.08 67.80 66.52 65.55 69.20 68.75 62.45 62.89 67.75 70.60 70.99 71.39 70.91 71.07 72.59 73.83 72.68 73.94 74.37 74.44 75.04 77.37 77.29 77.44 77.36 77.31 77.20 77.10 76.75 76.87 76.62 76.43 77.04 77.03 76.09 75.69 75.81 75.65 75.56 75.64 74.62 74.35
68.13 59.47 57.54 59.60 56.87 58.36 63.38 63.57 68.72 69.69 66.64 67.91 68.68 67.09 68.47 69.87 70.49 69.39 68.65 69.26 69.83 71.53 72.50 71.74 72.43 73.60 73.98 74.57 76.00 77.60 77.54 77.51 77.75 77.35 76.74 76.52 72.73 73.28 74.55 76.25 76.98 76.23 75.84 75.84 75.79 75.57 75.29 74.79 75.07
62.34 58.31 60.23 62.73 62.88 61.57 63.90 64.36 66.64 66.13 66.85 66.47 66.59 68.71 69.78 69.69 69.03 68.00 67.38 66.74 68.01 69.89 71.13 71.17 71.76 73.46 73.82 75.50 74.44 74.37 74.99 74.32 73.72 74.42 73.74 73.25 72.70 71.37 74.26 75.84 77.37 76.17 76.20 76.15 73.71 74.94 75.16 74.71 72.85
63.26 58.24 63.70 64.72 64.65 65.73 65.25 65.48 66.54 66.10 63.99 65.59 64.33 66.44 68.31 68.63 68.42 67.20 67.31 67.16 67.80 69.97 70.51 71.23 72.28 72.92 72.32 73.10 74.37 74.01 73.39 73.06 73.59 74.01 72.98 73.91 72.16 71.47 72.16 72.49 73.20 72.36 74.97 73.22 72.78 71.50 72.06 72.33 72.14
58.71 63.00 64.26 65.52 66.59 66.48 64.97 66.36 64.01 64.83 65.41 68.91 67.93 68.35 68.26 67.73 67.71 66.34 67.09 67.26 67.27 68.15 70.61 71.47 71.80 72.67 71.76 73.34 74.10 73.79 73.28 73.40 72.06 71.81 73.14 71.36 68.67 69.43 72.60 71.62 72.64 70.61 71.87 72.18 72.40 70.92 71.52 71.29 71.34
60.16 61.87 63.90 65.78 66.43 66.64 66.78 64.34 61.39 63.10 67.83 69.75 68.63 68.11 67.36 67.65 67.89 67.29 66.73 67.23 67.63 68.49 70.37 70.89 71.02 71.33 71.79 72.08 72.52 71.64 72.17 72.68 72.43 72.30 71.61 71.90 71.91 71.16 72.14 71.91 71.12 71.17 71.83 71.70 71.24 71.69 71.13 71.59 70.85
60.65 61.39 62.09 65.68 65.82 65.58 63.64 63.95 64.45 65.59 68.34 68.33 67.69 66.72 67.16 67.38 67.80 67.51 66.66 66.30 65.87 69.61 69.34 69.56 72.05 71.08 71.02 70.71 71.60 71.92 71.63 73.33 73.31 71.66 68.83 70.63 71.88 73.48 71.67 70.86 71.55 70.77 71.48 72.18 71.34 71.64 71.44 70.90 70.99
58.47 53.60 56.00 60.45 64.91 64.80 66.12 62.14 62.70 66.82 67.78 66.23 66.69 66.90 67.19 67.51 67.73 67.49 66.88 65.86 65.22 69.79 69.25 69.72 71.13 72.03 72.28 72.49 72.23 71.85 71.05 72.84 72.67 73.43 71.18 72.95 72.48 72.89 72.83 71.31 72.11 70.50 71.78 70.66 70.86 72.13 72.25 70.56 69.76
53.80 50.29 47.10 55.18 60.65 65.27 64.57 58.34 64.35 66.84 66.90 65.17 66.24 66.92 67.10 67.28 67.26 68.28 67.43 66.62 66.97 69.43 68.79 69.58 72.13 72.47 71.87 71.31 73.63 71.96 71.27 71.29 74.06 74.27 74.19 74.14 73.47 72.90 72.00 71.37 71.27 72.75 72.15 72.30 67.90 70.74 69.70 70.24 69.33
49.97 44.07 47.38 51.04 57.19 60.79 61.72 58.40 64.41 65.22 65.33 64.76 65.33 65.96 66.77 67.21 67.75 68.19 67.89 67.41 67.90 69.52 69.07 68.18 68.74 70.82 71.52 71.39 71.82 71.77 70.50 73.11 72.82 74.04 73.82 74.02 74.56 74.49 72.16 70.92 70.73 71.71 71.45 71.79 71.90 68.83 71.23 68.71 68.78
44.59 44.37 46.37 47.89 54.50 57.22 61.00 59.85 61.13 62.27 64.39 64.46 65.55 65.58 65.91 66.79 67.86 68.89 68.42 68.04 68.75 69.77 69.54 69.48 70.28 70.95 71.50 71.96 71.07 71.99 73.24 72.44 74.17 73.87 73.50 75.32 74.54 74.28 73.06 72.57 72.25 73.17 71.00 69.45 70.96 68.05 68.92 66.90 69.22
49.89 48.86 47.87 50.06 54.05 53.54 59.55 58.88 59.10 60.52 63.09 64.96 64.54 64.74 65.24 66.35 68.14 68.49 68.61 68.14 69.37 69.71 68.98 69.74 70.08 71.00 72.55 71.96 70.80 70.40 69.80 70.61 71.76 73.69 74.82 75.00 75.14 71.44 69.30 71.87 72.79 71.81 70.23 68.37 71.32 70.22 67.48 68.28 69.75
49.49 47.80 47.64 50.65 52.20 56.18 59.08 57.96 59.71 59.49 62.46 64.01 62.54 64.87 65.24 66.45 67.50 68.46 68.13 67.84 68.19 69.09 68.49 69.16 71.11 71.49 72.25 71.62 71.48 70.72 70.72 72.43 71.61 72.19 72.85 75.02 75.17 73.34 73.49 72.54 72.80 71.88 70.73 71.46 69.85 68.66 67.35 65.88 66.76
47.78 45.85 46.92 47.42 50.38 56.24 57.14 54.90 56.88 61.09 62.65 63.70 65.15 64.73 66.17 66.37 67.12 68.13 67.21 67.88 67.76 68.22 68.94 68.87 72.08 71.62 72.29 71.45 70.99 71.88 72.40 72.33 70.24 71.56 72.17 74.42 75.36 75.14 74.52 72.68 73.23 72.50 71.98 70.95 71.10 70.58 68.70 66.57 67.30
41.58 49.38 50.21 48.84 45.42 40.27 53.17 47.59 54.09 56.50 59.13 62.44 63.88 62.65 62.71 66.10 67.39 68.35 67.17 66.95 67.74 68.23 70.16 69.73 72.32 71.80 71.39 72.43 69.87 70.05 70.32 69.21 70.66 72.16 73.12 74.50 74.49 75.29 74.98 74.42 73.37 73.23 71.28 71.10 71.70 72.88 68.82 66.81 65.90
46.48 50.76 48.85 48.63 44.61 41.16 45.07 40.50 52.18 57.19 56.01 59.40 61.56 62.32 63.10 64.63 67.08 67.31 67.72 67.17 68.50 69.21 69.88 70.81 72.48 71.85 71.48 72.05 70.62 70.09 69.06 70.67 71.04 72.46 73.26 73.37 74.49 75.23 75.69 74.87 74.54 73.29 71.51 71.87 71.95 72.19 71.96 70.34 68.75
51.66 48.36 46.97 45.33 42.32 37.36 41.85 41.00 49.26 53.83 56.81 57.27 61.05 62.08 63.75 64.80 66.54 68.17 68.56 68.53 68.26 69.80 69.70 71.14 71.93 71.04 71.10 71.22 72.05 70.04 69.43 69.82 71.35 71.21 71.49 73.24 74.09 74.82 75.12 76.52 74.29 73.65 73.57 72.96 72.99 72.83 71.71 72.00 71.84
48.06 42.21 35.05 33.79 35.33 36.01 42.36 40.28 41.93 58.29 60.45 58.86 59.81 62.23 64.23 65.16 67.38 68.02 67.52 67.87 67.73 68.53 69.52 70.40 70.81 71.66 70.95 70.68 70.81 72.47 69.90 69.69 71.33 71.45 72.96 73.04 72.95 72.77 73.70 74.86 73.93 74.40 73.95 73.80 73.82 73.31 73.21 72.99 71.57
44.86 41.85 36.28 31.07 33.17 36.98 43.59 38.18 43.62 57.42 62.65 62.01 62.38 63.04 65.08 65.18 65.37 66.80 67.97 68.13 68.32 68.75 69.94 70.23 70.33 70.72 71.40 70.41 70.10 71.09 72.10 70.60 71.21 72.23 71.76 73.33 73.63 73.05 73.40 74.87 73.50 73.99 74.27 74.54 73.73 72.86 73.28 73.22 73.01
45.45 41.63 44.45 39.08 42.06 37.83 41.04 44.52 48.79 51.13 59.84 60.73 60.24 61.85 64.48 65.44 65.32 65.22 67.94 68.57 68.68 69.13 69.29 70.52 70.35 70.41 71.59 71.36 69.77 70.75 72.79 70.27 70.63 71.34 72.83 72.40 71.74 73.48 73.65 75.54 74.27 74.92 74.51 74.46 74.00 72.64 72.39 73.03 73.32
46.00 46.56 38.51 39.05 32.35 31.62 38.92 41.17 42.78 48.56 52.62 59.46 59.78 62.88 61.19 63.35 65.01 66.35 67.32 68.09 68.97 69.44 70.00 70.53 71.41 70.77 71.72 72.04 71.24 70.13 71.55 72.75 71.07 71.00 71.94 72.44 71.05 72.80 74.07 75.26 75.12 75.62 74.24 73.74 74.07 71.93 73.11 72.34 72.37
42.55 40.79 40.43 39.87 38.37 34.21 34.38 39.24 48.27 49.85 51.62 54.69 61.22 61.67 60.43 62.49 64.37 66.61 66.85 66.78 66.84 67.54 69.97 70.26 71.49 71.32 71.66 71.61 72.53 70.86 69.98 72.50 71.96 70.82 70.31 72.38 72.27 73.45 75.20 75.22 74.84 74.61 75.16 74.67 74.13 72.31 73.42 72.31 72.47
43.92 40.37 38.94 35.67 36.33 39.46 39.07 41.08 52.39 51.31 52.63 57.20 61.50 63.69 62.59 64.60 65.72 65.43 67.12 67.34 64.36 65.34 70.20 70.14 70.96 71.65 72.32 72.48 72.57 72.63 70.83 71.21 72.21 70.94 70.09 71.93 71.41 72.31 74.64 75.50 75.33 74.56 73.77 74.19 74.23 72.57 73.00 73.47 72.54

GFSSGP_sfc_wetblb_072.txt.gz
Wetbulb
73.59 72.84 71.24 67.53 58.66 59.43 56.14 57.90 62.63 61.44 62.50 65.00 65.94 65.14 63.40 64.13 61.75 54.34 69.05 71.06 71.57 70.94 73.48 75.39 77.34 76.97 76.80 76.98 77.03 76.74 76.90 76.89 76.41 77.05 76.70 76.48 76.65 76.54 76.07 75.74 76.08 76.01 76.12 76.10 76.19 76.43 76.40 76.60 76.91
72.27 71.40 69.08 66.24 58.95 54.00 56.04 61.79 60.76 62.75 65.38 66.92 66.63 66.34 64.17 61.62 66.20 66.68 67.84 71.29 72.15 72.61 73.90 74.83 77.45 77.66 76.74 77.09 77.30 77.21 77.22 76.80 77.02 76.86 76.72 76.39 76.71 76.40 76.39 76.08 75.44 76.12 76.10 75.83 76.30 76.37 76.43 76.39 76.58
71.06 70.69 65.13 62.04 58.91 53.30 55.25 60.74 62.22 65.11 67.06 66.34 64.78 66.70 64.67 62.32 66.87 67.52 70.41 71.97 72.62 72.76 73.49 74.74 76.99 77.20 76.98 76.87 76.90 77.42 77.22 77.08 76.69 76.89 76.92 76.39 76.65 76.13 76.27 76.29 76.21 75.91 75.83 76.17 76.14 76.10 76.21 76.29 76.03
69.52 68.94 66.53 57.54 56.79 59.03 60.18 62.29 64.88 64.05 65.70 66.19 65.09 61.70 66.25 68.79 67.66 69.73 71.97 72.77 72.21 72.68 73.39 76.23 77.09 76.99 77.16 77.30 77.11 76.93 76.86 77.03 76.75 76.84 76.82 76.56 76.23 76.24 76.42 76.32 76.38 75.97 75.83 75.97 75.64 75.93 75.93 75.89 76.01
70.53 67.03 59.93 57.94 58.39 58.91 62.40 64.22 65.30 63.80 64.18 64.83 65.31 62.33 64.12 68.23 70.90 71.32 71.91 72.65 71.83 72.57 74.43 75.31 78.13 78.00 77.42 76.94 77.05 77.15 77.16 76.99 76.97 77.07 76.97 76.61 76.54 76.52 76.30 76.31 76.24 76.16 76.10 75.67 75.67 75.39 75.33 76.05 75.95
65.04 65.27 57.84 56.16 56.87 60.93 63.89 65.51 65.15 64.22 65.02 64.93 64.09 63.60 63.53 69.50 69.75 70.88 71.75 71.70 73.29 73.95 74.98 75.66 77.70 77.84 77.76 77.48 77.56 77.40 77.19 77.16 76.94 76.88 76.81 76.54 76.36 76.38 76.22 76.41 76.14 76.11 76.08 75.94 75.64 75.22 75.39 75.39 75.33
63.13 62.14 58.06 58.56 58.67 59.12 62.47 66.23 64.84 64.17 64.04 63.93 66.62 62.04 64.12 67.36 69.93 70.74 71.23 71.80 73.45 74.56 74.00 74.60 75.23 76.35 77.64 77.18 77.41 77.11 77.22 77.15 77.06 76.97 76.78 76.51 76.24 76.30 76.47 76.66 76.33 75.97 75.69 75.64 75.44 75.11 74.88 75.08 75.00
66.19 63.35 59.53 58.38 58.25 57.12 62.33 65.49 67.17 65.15 64.43 68.61 68.31 61.40 61.08 66.69 69.94 70.58 71.09 71.10 72.39 73.26 73.90 73.27 73.45 74.19 74.55 75.06 77.53 77.31 77.30 77.27 77.15 77.26 76.93 76.77 76.47 76.56 75.94 76.74 76.74 75.77 75.74 75.64 75.36 75.41 75.40 74.97 75.22
68.33 58.49 57.63 59.09 57.10 59.24 63.99 63.30 67.29 68.68 66.06 66.88 68.03 66.38 67.11 69.21 69.48 68.95 68.89 70.01 71.78 72.64 72.45 72.78 73.18 73.17 73.61 74.09 75.91 77.25 77.51 77.24 77.14 76.78 76.70 75.88 72.52 73.01 73.72 75.42 76.56 75.80 75.75 75.75 75.55 75.66 75.51 75.58 75.80
62.48 56.53 59.71 63.39 62.66 61.95 63.71 63.81 65.33 65.14 64.66 65.18 65.89 67.85 68.56 69.03 68.18 67.21 66.94 68.00 69.44 70.04 70.30 72.55 72.73 72.82 73.60 75.52 74.35 73.75 74.75 74.14 73.84 74.18 73.44 72.15 71.92 71.91 73.56 75.17 76.42 75.86 75.75 75.02 75.11 75.72 75.63 74.12 71.76
61.97 58.03 62.54 63.91 65.13 66.31 64.78 65.20 66.86 64.80 62.82 64.77 64.04 65.74 67.54 67.76 67.46 67.36 66.91 67.99 68.86 70.13 70.16 71.41 72.36 73.02 73.09 73.70 73.31 73.33 73.11 72.94 72.60 72.19 71.96 71.91 71.98 72.13 72.84 72.19 72.15 72.00 74.16 72.10 71.40 71.35 71.14 71.38 71.42
56.29 61.68 63.02 63.91 66.56 66.31 64.79 65.60 63.69 65.57 65.76 67.61 67.36 67.63 67.22 66.94 65.97 66.33 66.30 67.62 69.33 69.58 69.43 70.88 72.66 72.12 70.50 72.63 73.46 73.22 72.85 72.32 72.34 72.38 72.13 69.80 69.25 70.85 70.56 71.32 71.26 70.62 71.14 71.26 70.45 69.87 70.58 70.40 71.00
57.57 59.82 62.34 63.94 66.91 66.63 66.24 62.11 63.54 64.29 67.48 68.76 68.39 67.68 66.66 66.85 66.93 67.00 67.35 68.10 69.43 68.60 69.33 69.98 71.93 71.55 70.48 72.34 72.08 72.13 71.49 72.31 71.28 71.77 72.09 69.70 69.01 69.90 71.70 70.80 70.41 70.89 72.17 70.72 69.84 70.13 69.90 70.10 70.74
59.86 59.59 59.14 60.56 66.05 66.41 64.02 63.06 63.18 65.23 68.20 67.18 67.21 66.47 66.71 66.92 67.03 66.44 66.50 66.64 68.33 68.93 69.61 70.59 70.69 70.98 71.03 71.34 70.95 71.08 70.72 71.48 71.88 70.19 71.20 71.24 71.58 70.41 70.33 69.55 68.02 68.94 70.56 70.48 70.21 69.73 70.25 69.59 70.21
58.80 53.26 53.94 63.59 64.99 63.43 64.61 61.10 62.20 65.85 68.20 65.99 66.19 66.21 66.56 66.85 67.13 65.94 66.46 66.03 67.84 69.50 70.06 69.55 70.07 70.58 70.57 70.37 70.56 70.69 70.99 72.61 71.43 69.35 68.88 71.26 72.37 72.11 69.53 70.15 70.08 70.17 70.13 70.73 70.19 70.65 70.87 69.87 69.04
51.14 48.67 44.42 55.71 63.94 64.47 63.03 57.68 63.74 66.84 66.69 64.87 65.26 66.04 66.34 65.97 66.73 67.40 65.90 67.40 69.29 69.57 68.68 70.52 72.13 71.31 70.63 71.03 71.70 70.50 70.18 71.97 72.30 70.95 71.15 72.12 73.29 72.24 70.72 69.55 69.42 70.92 70.50 69.86 68.48 70.03 70.71 68.59 68.59
46.66 42.84 46.06 48.73 62.78 63.05 61.36 59.23 62.65 66.13 65.85 64.61 65.05 65.19 65.72 65.47 65.96 67.54 66.15 68.57 68.53 67.98 69.27 69.00 70.83 69.93 69.60 71.51 70.49 70.24 70.47 71.62 72.39 72.77 72.34 72.39 73.05 72.89 71.34 70.64 70.24 69.96 70.40 70.74 67.52 69.44 68.20 67.39 67.68
42.16 42.88 43.58 45.05 50.60 61.17 59.08 59.70 62.67 65.63 65.30 64.59 64.97 65.26 64.96 65.57 65.69 66.89 66.70 68.74 68.35 68.27 68.70 69.07 70.30 69.29 69.59 70.69 70.27 70.27 70.47 71.07 72.44 72.28 72.63 73.26 72.90 72.72 71.58 70.77 70.66 71.42 69.24 69.74 69.61 67.64 67.56 67.10 66.87
47.26 44.86 45.08 49.14 52.02 49.96 59.06 59.60 61.49 63.19 63.29 64.38 64.26 64.52 64.65 65.55 67.24 67.34 66.91 68.59 68.13 68.09 67.30 68.08 68.96 68.60 69.39 69.76 69.02 68.72 69.28 70.30 72.33 72.36 73.14 73.60 73.17 72.25 70.91 71.64 72.19 71.52 68.03 68.37 68.99 69.17 65.33 65.92 66.94
47.90 45.15 44.60 48.16 51.43 56.91 58.36 58.35 60.28 62.03 63.10 64.30 64.68 64.73 65.07 65.52 66.47 67.21 66.08 67.66 67.79 67.45 67.52 67.71 69.52 68.77 70.22 70.11 69.41 69.77 69.43 69.77 72.39 72.20 73.59 73.70 73.18 69.84 71.17 71.35 71.76 69.92 68.54 69.76 69.01 67.60 65.08 64.93 65.31
45.99 43.33 45.48 45.30 54.27 58.02 56.97 54.76 56.08 59.21 63.40 64.80 65.86 65.93 66.14 65.51 65.81 66.44 66.15 67.50 67.61 67.21 67.69 68.41 69.53 69.27 70.63 70.25 70.28 69.85 70.30 70.10 69.95 69.95 71.22 73.46 74.08 72.34 73.18 72.09 71.98 70.90 70.55 69.70 68.60 67.85 65.97 63.82 65.67
40.11 47.67 48.12 47.34 43.06 38.78 52.62 47.50 54.36 56.82 59.51 62.86 64.10 63.51 64.57 65.79 67.00 67.58 65.57 65.87 67.31 67.29 68.55 69.17 70.06 69.76 70.91 69.93 69.23 69.37 69.48 68.17 68.70 69.66 70.81 72.35 74.25 73.40 73.26 72.29 72.74 71.33 70.82 70.18 70.46 70.98 66.70 64.84 64.65
46.84 50.06 46.86 46.47 41.63 38.93 41.74 39.14 45.18 56.20 55.69 59.85 62.88 63.15 64.78 65.46 66.94 67.41 65.84 66.11 67.71 68.09 67.81 70.34 70.50 70.13 71.11 70.41 68.68 69.48 67.82 68.46 69.73 70.20 71.09 71.95 72.41 73.65 73.68 73.17 72.82 72.41 70.64 70.19 70.98 71.16 69.48 66.70 66.72
50.85 46.56 43.74 41.30 39.25 34.21 38.33 39.10 42.21 51.38 55.58 58.09 62.93 64.19 64.79 64.68 66.27 67.71 68.11 66.93 66.73 68.51 68.02 70.69 70.00 69.83 70.47 70.33 68.20 68.19 68.51 68.06 69.57 69.96 71.15 71.69 72.21 72.84 73.40 73.72 73.04 72.22 71.35 70.92 70.61 71.21 70.69 70.83 69.86
45.59 39.12 33.07 33.22 32.93 32.43 38.26 38.22 40.78 54.62 58.25 58.90 61.05 63.64 64.85 64.38 65.91 67.10 66.47 66.08 66.25 67.10 67.91 69.51 70.10 69.25 69.73 70.07 70.41 68.15 69.00 67.87 69.08 69.62 71.47 71.14 71.82 72.54 73.03 73.78 72.59 71.89 72.21 72.52 72.08 71.83 71.42 71.03 70.18
42.49 39.46 34.26 29.41 30.30 33.45 40.49 35.44 42.37 52.38 60.02 60.91 61.29 63.56 64.89 64.19 64.28 65.79 66.70 65.94 66.85 67.00 68.05 68.55 69.73 69.34 69.71 70.06 70.11 70.40 68.94 69.08 69.44 70.72 71.34 71.89 72.55 73.29 73.51 74.61 73.07 73.05 72.68 72.78 72.56 71.56 71.82 72.22 71.57
42.61 39.26 41.61 35.85 33.25 33.96 36.89 41.62 47.18 48.71 55.50 60.00 59.43 61.54 63.24 64.73 65.37 66.27 66.87 66.64 66.96 67.55 67.50 68.71 69.27 69.37 69.57 69.61 69.50 69.93 71.07 69.34 69.01 70.46 71.33 72.11 72.40 72.45 72.58 74.13 72.87 73.01 72.95 72.58 72.21 71.20 71.01 72.10 71.67
40.28 42.93 37.17 34.87 29.82 29.08 35.32 36.95 39.81 45.47 51.26 56.53 58.86 59.76 62.05 64.95 65.18 66.06 67.14 67.84 67.81 67.76 68.38 68.71 69.47 69.55 70.08 69.89 69.48 69.24 69.77 71.32 68.90 70.03 70.00 71.60 71.33 71.65 72.01 74.15 72.96 72.58 73.36 72.88 72.35 71.36 71.38 71.33 70.83
38.11 36.52 36.02 35.35 35.18 31.37 30.49 35.76 45.03 48.28 52.74 54.79 58.18 60.88 61.45 64.45 65.32 66.47 67.16 67.87 68.02 67.45 68.32 68.92 69.06 69.25 70.12 70.69 70.01 68.97 69.12 70.02 70.20 69.43 69.81 70.56 70.29 71.42 72.02 73.73 73.31 73.06 73.18 72.44 72.28 71.24 71.08 71.33 70.68
40.19 36.55 33.51 30.18 30.72 33.79 35.06 36.95 49.07 51.48 53.41 57.54 59.39 60.12 62.13 64.54 66.03 66.14 67.22 67.88 67.37 66.65 66.72 68.72 69.79 69.50 69.71 71.11 70.72 69.59 68.76 69.62 70.70 70.22 69.21 70.15 70.63 71.54 73.25 73.81 73.76 73.68 73.88 72.52 72.15 71.12 71.84 71.77 70.91

GFSSGP_sfc_wetblb_075.txt.gz
Wetbulb
73.36 72.42 70.90 66.45 56.95 58.74 53.70 55.00 61.90 60.98 60.44 63.28 63.35 63.30 61.92 63.53 60.79 53.71 66.64 69.30 69.85 69.96 73.09 74.79 77.03 76.63 76.40 76.71 76.95 76.77 76.58 76.06 76.17 76.83 76.22 76.54 76.07 75.77 75.34 76.10 75.54 75.38 75.98 75.85 76.10 76.40 76.79 76.84 77.06
72.05 71.12 68.35 65.71 58.62 53.62 54.87 60.31 60.02 61.87 63.89 63.74 66.03 65.26 63.49 61.10 65.89 65.72 66.88 69.89 69.64 71.94 73.26 74.56 77.28 77.10 76.75 76.92 76.76 76.84 76.60 76.36 76.55 76.63 76.27 76.08 76.10 75.96 75.36 75.52 76.19 75.79 75.69 76.03 76.04 76.10 76.05 76.42 76.42
71.63 70.64 64.85 61.73 58.51 53.39 54.48 59.92 62.16 63.74 65.84 65.59 63.91 65.41 63.70 62.61 66.09 65.69 69.58 69.93 70.62 72.73 73.47 74.83 76.94 77.00 77.00 77.25 77.09 77.09 76.83 76.60 76.58 76.58 76.25 76.56 76.13 76.09 75.90 75.88 75.67 75.98 76.08 75.73 76.01 75.89 76.10 76.00 76.04
68.09 67.19 66.05 58.24 55.99 58.81 59.11 62.18 64.35 63.89 65.10 65.60 64.27 61.72 65.53 68.32 66.63 68.95 70.71 70.98 71.61 72.75 73.60 76.18 76.85 76.76 76.77 76.50 76.83 76.88 76.73 76.47 76.67 76.22 76.09 76.23 76.18 76.09 76.04 75.77 75.77 75.76 75.21 75.66 75.91 75.58 75.64 75.83 75.97
69.47 66.87 59.54 57.27 58.36 58.71 62.32 64.05 64.44 62.65 64.10 64.23 65.16 62.20 63.03 67.52 69.94 70.68 70.74 71.40 71.61 71.50 73.53 75.15 77.37 76.88 76.93 77.17 77.09 76.86 76.68 76.73 76.67 76.59 76.30 76.00 76.18 76.22 75.99 75.89 76.02 75.67 75.34 75.61 75.47 75.36 75.58 75.59 75.81
64.26 65.05 57.31 55.58 57.01 60.33 63.03 65.30 64.53 63.79 64.29 64.12 63.18 62.87 63.62 68.77 69.40 70.31 71.53 71.29 72.18 72.71 73.92 74.71 77.17 77.36 76.88 76.77 77.10 76.80 76.81 76.51 76.76 76.53 76.28 76.02 76.29 76.35 76.12 75.88 75.80 75.94 75.42 75.14 74.98 75.22 75.32 75.25 75.89
63.07 61.61 57.83 57.31 58.47 59.78 61.86 66.11 63.54 63.76 63.43 63.17 65.64 61.20 64.68 66.96 70.01 71.05 71.32 72.23 73.09 74.25 73.97 74.18 74.71 75.85 77.45 76.89 77.12 76.99 76.71 76.80 76.70 76.69 76.17 76.02 76.24 75.86 76.44 76.10 76.00 75.81 75.47 75.28 74.89 75.16 75.33 75.25 75.42
65.71 62.66 58.15 57.15 58.16 57.63 62.44 64.81 66.53 64.90 63.64 67.82 66.33 60.52 61.73 66.76 69.85 70.79 71.46 72.50 73.11 73.27 73.60 73.19 73.66 74.06 73.92 74.69 77.01 77.04 77.04 76.95 76.66 76.44 76.14 76.02 76.00 75.91 76.13 76.56 76.52 75.75 75.58 75.39 75.25 75.18 75.24 74.95 75.69
67.51 59.49 56.97 57.91 58.45 59.30 63.82 63.68 66.69 68.18 65.56 66.20 67.74 64.97 67.06 68.95 69.76 69.15 69.56 70.69 71.94 72.47 72.28 72.28 72.87 73.22 73.27 73.95 75.40 76.87 77.09 76.94 76.78 75.84 76.38 75.44 72.31 72.45 72.82 75.35 76.03 75.86 75.64 75.31 75.39 75.00 74.95 75.39 75.94
61.98 57.31 59.24 62.89 61.90 61.45 63.64 64.57 63.69 65.36 64.28 64.46 64.41 66.66 68.33 68.30 68.12 67.46 67.79 68.07 69.49 71.02 71.41 71.90 72.42 72.48 72.98 75.10 74.05 73.65 74.34 73.64 73.79 73.39 72.23 71.76 71.47 71.44 73.16 74.89 75.86 75.89 76.11 75.75 75.46 75.09 75.46 73.47 71.13
61.83 58.17 62.22 63.67 65.15 63.53 63.12 64.12 65.45 64.25 62.31 64.36 62.03 64.69 66.41 66.83 66.79 67.13 67.55 68.47 68.92 70.46 72.04 71.76 72.01 72.46 72.91 73.40 72.97 72.70 72.92 72.92 72.53 72.40 71.44 71.05 71.18 72.35 72.37 72.07 71.78 71.96 73.47 70.93 71.54 71.29 71.02 70.78 70.57
56.65 61.23 63.10 62.55 66.20 65.55 63.37 63.51 63.31 64.33 65.62 67.94 65.71 66.61 65.94 65.67 66.00 66.39 66.59 67.92 68.76 68.87 70.85 71.54 72.00 72.05 71.57 72.83 72.54 72.17 72.14 71.97 71.14 70.95 71.36 70.16 69.87 70.00 70.70 70.86 70.77 70.71 70.44 69.84 69.53 69.57 69.63 69.90 70.50
57.15 58.78 60.40 62.00 63.26 66.03 64.38 61.84 61.85 62.43 66.43 68.21 67.43 66.96 65.63 65.69 66.10 67.05 67.63 68.08 69.06 67.83 68.82 70.86 71.75 70.83 70.32 71.88 71.57 71.97 71.64 71.86 71.74 71.40 71.05 69.41 69.53 69.55 70.03 70.33 69.34 69.53 70.64 69.98 69.26 69.30 69.40 69.54 69.80
59.41 58.63 58.68 58.52 64.36 64.48 62.16 62.57 62.72 65.15 68.02 67.49 67.05 65.88 66.17 65.53 66.19 66.37 66.90 67.46 68.66 68.21 67.94 70.00 70.87 70.40 70.30 71.38 71.12 71.40 70.96 71.83 70.87 70.81 70.66 69.39 69.43 69.92 70.54 69.52 68.51 69.01 69.70 69.97 69.73 69.21 69.60 69.13 68.51
57.95 54.56 53.79 63.19 64.54 63.33 62.77 58.62 61.61 66.05 67.68 66.64 65.83 65.50 66.17 66.60 66.06 65.87 66.67 67.62 68.66 68.28 68.59 69.37 70.06 69.92 70.05 70.94 71.20 70.96 70.73 71.90 70.62 69.60 70.40 70.94 71.38 70.16 69.97 69.08 67.53 68.27 69.70 69.61 69.74 69.67 69.93 69.22 68.56
49.08 47.58 44.32 60.65 62.85 62.52 61.78 56.39 62.92 65.80 65.73 65.01 65.20 65.48 65.56 66.36 65.69 66.60 66.81 67.56 68.81 68.51 68.37 69.30 71.56 70.09 69.52 70.18 70.13 69.92 70.55 71.33 70.73 69.29 69.19 71.28 72.19 72.00 69.26 69.65 69.17 69.32 69.03 69.19 68.34 69.15 68.90 67.66 67.89
45.29 41.77 44.48 47.66 62.08 61.99 60.39 57.47 62.35 66.41 64.83 64.23 64.41 64.75 65.34 65.50 66.16 66.11 66.81 67.02 68.14 68.79 68.54 68.52 69.49 69.47 69.13 70.12 69.97 69.19 70.04 70.88 71.00 70.24 70.21 71.08 72.74 71.78 70.03 69.12 69.66 70.12 69.77 68.25 67.43 68.88 67.56 66.65 67.06
41.16 41.69 41.96 43.92 58.43 60.58 59.10 58.13 62.41 64.43 64.69 63.86 64.20 64.60 64.79 64.94 65.31 65.69 66.61 66.97 68.65 68.93 69.04 69.32 69.91 68.88 69.87 69.85 69.09 68.78 69.38 70.61 71.43 71.22 71.33 71.59 72.28 72.15 70.52 69.41 69.83 70.52 69.09 69.25 67.07 67.31 66.87 66.33 66.50
46.71 43.98 43.38 46.73 51.00 47.38 57.18 57.98 60.53 63.23 63.12 63.35 63.41 63.67 64.15 64.87 66.40 65.59 66.75 67.82 68.36 68.34 68.44 68.98 68.89 67.82 69.05 68.27 68.43 68.15 68.37 69.78 71.03 71.58 72.07 72.78 72.29 71.84 70.53 70.46 71.10 69.90 67.05 68.29 67.43 66.76 65.27 65.41 65.70
46.86 44.46 42.75 46.94 53.24 52.33 57.10 57.12 60.28 63.03 62.39 63.96 63.92 63.45 64.20 64.72 65.36 64.39 66.55 67.54 67.37 68.01 68.15 69.02 69.02 68.10 69.02 68.88 68.76 68.81 69.10 69.51 70.00 70.99 72.35 72.66 72.28 70.85 71.03 70.87 71.09 69.80 67.17 69.03 68.79 66.01 64.38 64.34 64.92
43.78 42.63 43.14 44.60 50.20 57.55 56.54 56.37 58.62 61.21 62.74 64.04 65.03 65.41 65.18 64.60 65.12 63.86 65.66 66.36 66.61 67.23 67.56 68.94 68.70 68.25 68.95 68.78 68.94 69.13 69.80 69.47 69.68 69.79 71.47 72.57 72.53 70.24 70.96 71.10 71.22 69.41 68.16 69.03 67.44 66.48 64.09 62.96 64.78
39.56 47.21 47.81 45.83 41.43 37.61 52.78 47.21 55.31 56.98 58.61 61.49 63.75 64.68 65.08 65.08 66.11 65.17 65.03 65.72 66.31 66.45 67.75 69.34 68.92 68.65 68.82 68.78 68.75 68.28 67.87 67.28 68.63 69.07 69.71 71.91 73.50 71.53 71.75 71.82 71.50 70.50 70.00 68.91 68.48 68.93 65.59 63.67 63.31
45.69 49.03 46.33 44.99 40.21 37.57 41.26 39.69 46.47 55.89 55.44 59.11 62.63 64.55 65.40 66.16 66.29 65.89 64.32 66.01 66.81 66.94 67.10 67.89 68.65 68.62 68.98 68.91 69.08 68.21 67.89 68.32 68.54 68.98 69.16 70.57 72.18 72.52 72.84 72.04 72.03 70.45 69.85 69.60 70.22 69.74 67.18 65.58 65.05
49.94 45.71 42.07 38.93 37.07 33.05 37.35 37.51 38.82 50.68 55.18 57.62 62.13 64.27 65.43 64.73 65.77 66.71 65.75 66.68 66.66 67.38 67.59 68.00 68.23 68.38 69.20 68.91 68.09 68.34 67.75 67.58 68.02 68.30 68.90 69.81 70.72 71.93 72.45 72.67 71.68 71.73 70.63 69.95 70.05 70.05 69.76 68.77 68.08
42.76 38.08 32.25 31.41 31.39 32.09 35.26 36.89 40.15 52.26 56.86 58.10 59.89 63.08 65.36 65.14 65.39 66.13 64.92 64.58 66.11 66.25 66.80 68.06 68.52 67.82 69.18 68.98 67.77 67.89 68.32 67.72 67.98 68.42 68.94 69.77 70.25 70.95 71.96 71.99 71.68 70.96 70.70 70.64 70.01 70.42 69.91 69.75 69.07
40.31 38.41 33.13 28.65 28.78 32.95 36.23 34.57 40.99 46.46 50.75 58.50 60.72 62.74 65.08 65.26 65.79 65.85 66.11 64.94 65.73 66.59 66.52 68.48 68.25 67.96 68.94 69.38 68.73 67.61 67.56 68.37 68.19 69.22 69.47 70.41 71.04 71.80 72.23 72.86 72.60 71.88 71.42 71.78 71.11 70.81 70.84 71.11 69.73
39.20 36.23 38.45 33.04 31.28 33.21 34.80 39.56 44.70 51.51 54.53 56.38 57.71 60.93 63.74 65.17 65.21 66.03 66.62 65.25 65.55 66.42 66.51 67.92 68.59 68.34 68.87 69.18 69.27 68.86 67.86 67.56 67.93 69.49 69.83 70.54 70.85 72.51 72.31 73.48 72.71 72.21 72.03 71.72 71.22 70.76 70.46 70.89 70.64
38.89 39.98 34.82 33.28 28.79 28.12 33.29 35.45 39.43 46.79 50.51 55.27 57.05 58.25 61.87 64.52 64.34 64.97 66.57 65.31 65.88 66.44 67.21 67.39 69.00 68.63 68.95 69.35 69.58 69.53 69.59 69.29 68.03 68.41 70.02 70.46 70.64 70.78 71.59 73.05 72.15 71.57 72.03 71.80 71.27 70.49 70.32 70.24 70.36
36.04 34.13 32.20 32.59 32.05 29.41 29.52 33.59 45.74 47.49 50.61 55.38 57.47 59.10 59.67 63.30 64.05 64.90 66.22 66.05 66.35 66.90 67.00 67.38 67.69 68.44 68.56 69.04 69.36 69.15 68.90 69.26 69.05 68.30 68.84 69.71 70.79 70.72 70.75 72.38 72.41 70.84 71.83 71.91 71.10 70.62 70.50 70.28 70.13
39.44 33.85 30.95 28.04 27.78 29.59 31.90 34.39 43.70 45.09 51.04 56.14 57.98 59.72 60.52 63.45 64.26 65.29 66.48 66.71 65.83 66.67 66.92 66.90 67.85 68.14 68.79 69.24 69.08 68.49 68.53 68.62 69.26 69.03 68.55 68.90 69.32 69.87 71.21 71.42 72.34 71.94 71.89 71.96 71.37 70.98 71.54 70.19 69.86

GFSSGP_sfc_wetblb_078.txt.gz
Wetbulb
72.90 71.82 70.05 66.35 57.61 58.85 54.27 54.85 61.27 60.67 59.84 62.54 62.50 61.27 59.64 62.13 59.52 53.00 65.22 66.32 69.07 70.00 72.91 74.94 76.86 76.19 76.24 76.68 76.74 76.11 75.75 75.78 76.47 76.16 76.26 75.84 75.42 75.14 75.65 75.13 75.37 76.10 75.87 76.53 76.35 76.77 76.84 76.63 77.06
71.82 70.95 67.98 65.53 58.02 53.17 54.60 59.93 58.99 61.71 62.30 62.73 65.11 64.48 62.65 60.91 65.49 64.00 65.34 68.55 69.52 71.96 72.96 74.47 77.15 76.73 76.53 76.75 76.57 76.26 75.83 76.27 76.17 75.98 76.18 76.01 76.15 75.38 76.24 75.90 76.03 75.73 76.10 76.37 76.35 76.33 76.40 76.74 76.82
71.43 70.42 64.60 61.64 58.25 52.53 54.24 59.79 61.57 62.83 63.67 65.05 63.45 65.38 63.55 61.96 65.03 63.91 68.21 68.71 71.66 72.23 73.41 74.51 76.86 76.65 76.67 76.48 76.51 76.55 75.94 76.22 76.49 76.16 75.95 75.74 75.86 75.80 75.36 75.91 75.63 75.68 75.96 76.11 76.02 76.13 76.27 75.72 76.08
67.30 65.90 64.93 58.22 54.56 58.52 58.58 62.06 63.45 62.83 64.91 65.02 64.78 61.62 64.79 67.57 64.40 68.08 68.68 70.67 71.67 72.80 73.95 76.29 76.64 76.74 76.92 76.64 76.69 76.27 76.12 76.18 75.90 76.19 75.86 75.90 76.03 75.96 76.18 75.79 75.73 75.66 75.67 75.85 75.88 75.97 76.19 75.75 75.68
68.49 65.99 59.40 57.47 58.11 59.67 61.93 64.00 64.71 63.06 63.47 63.58 64.75 61.08 62.64 67.08 69.42 69.15 68.88 71.50 71.67 72.02 73.66 74.84 77.27 76.74 76.42 76.36 76.61 76.42 76.40 76.25 75.70 76.25 75.87 75.84 75.96 75.85 75.66 75.75 75.72 75.39 75.53 75.71 75.44 75.60 75.69 75.66 75.85
64.61 64.72 57.53 55.12 57.22 60.18 63.05 65.13 64.76 63.92 64.03 63.72 62.46 61.92 63.35 68.39 68.13 68.69 70.30 71.17 72.37 72.41 73.76 74.63 76.57 76.52 76.82 76.68 76.58 76.62 76.46 76.01 75.95 75.98 75.66 75.81 75.66 75.65 75.94 75.60 75.48 75.03 75.28 75.14 75.17 75.74 75.47 75.49 76.54
63.11 61.33 57.04 55.98 57.87 59.93 61.75 66.00 64.02 63.41 63.07 62.64 65.26 60.77 64.87 66.99 68.71 69.95 70.72 71.35 72.47 73.50 73.47 74.14 74.53 75.65 76.90 76.55 76.74 76.53 76.33 76.53 76.11 76.20 75.90 75.66 75.91 75.52 75.27 75.27 75.64 75.18 74.52 75.11 75.58 75.35 75.74 75.88 76.07
65.54 61.82 57.69 57.16 57.27 57.94 63.08 65.06 66.22 64.80 62.96 66.67 66.15 59.96 61.16 67.06 69.83 70.74 71.22 71.96 72.72 73.24 73.60 73.17 74.01 74.54 74.35 74.72 76.81 76.67 76.64 76.43 76.20 75.93 76.05 75.88 75.64 75.23 75.15 76.09 76.27 75.24 75.11 75.36 75.33 75.38 75.25 75.98 76.43
67.34 57.74 56.78 57.99 58.31 59.59 63.74 63.87 66.75 67.62 65.07 65.87 66.70 64.57 66.62 69.16 70.22 69.91 70.16 70.80 71.78 72.54 72.16 72.67 73.04 73.26 73.59 74.21 75.68 76.57 76.79 76.34 76.09 75.59 75.91 74.98 72.71 73.59 74.52 75.40 76.17 75.33 75.06 75.50 75.15 74.92 74.84 76.16 76.33
62.54 57.54 58.10 61.77 62.22 61.50 63.76 62.70 64.22 62.68 63.77 62.62 64.49 66.77 68.13 68.88 68.67 67.68 67.31 67.15 68.12 70.68 71.67 72.07 72.65 72.64 73.36 75.12 74.18 74.03 74.88 74.37 74.25 73.68 72.56 72.54 72.65 72.82 73.97 75.28 76.14 75.64 75.36 75.11 74.78 75.06 75.54 73.61 73.45
62.69 58.45 62.44 63.16 64.14 64.99 63.54 62.04 65.25 63.60 62.15 63.09 62.88 64.74 66.84 67.45 67.57 66.98 67.21 67.23 67.90 70.45 72.26 71.67 72.25 72.60 73.10 73.59 73.25 73.19 73.31 73.50 73.05 72.56 72.05 72.21 72.04 73.10 72.79 73.01 72.84 73.16 74.18 72.76 72.66 71.99 72.34 72.04 71.89
58.05 61.09 62.68 62.86 65.31 64.07 62.83 64.68 63.28 64.65 64.88 67.04 66.21 66.52 66.77 66.41 66.57 66.99 66.97 67.44 68.79 69.76 71.42 71.66 72.24 72.25 72.55 73.13 72.65 72.75 72.72 72.25 72.02 72.10 72.20 71.38 71.11 72.01 71.94 71.84 72.33 71.99 71.66 70.63 71.22 71.06 71.67 71.94 72.02
57.04 59.46 59.78 62.03 62.65 64.35 63.82 62.51 62.53 64.20 67.27 66.68 67.06 66.58 65.93 66.08 66.77 67.34 67.89 68.47 69.13 69.31 70.28 70.98 71.75 71.73 71.81 72.50 72.23 72.45 72.31 72.21 72.04 71.78 72.14 71.33 70.99 71.04 71.15 71.53 70.97 71.44 72.01 71.07 71.12 71.25 71.03 71.50 71.40
57.85 58.38 57.83 57.82 60.48 63.49 61.14 61.18 63.09 62.89 67.90 65.31 65.50 64.97 65.71 65.78 66.22 66.22 66.76 67.44 67.86 68.34 68.37 70.62 71.23 70.95 71.06 71.78 71.84 71.87 71.95 72.61 72.51 71.90 71.69 70.89 71.03 71.17 71.69 71.07 70.23 71.03 72.16 71.64 71.59 71.19 71.60 71.09 70.35
56.05 52.98 55.44 62.87 63.14 62.39 62.94 59.03 60.84 64.97 67.59 64.62 64.27 64.52 65.24 66.02 66.43 65.95 66.63 67.33 68.27 67.41 67.92 69.45 70.50 70.61 70.52 71.52 71.75 71.62 71.86 72.60 71.62 71.62 71.61 70.81 70.87 71.14 71.93 71.48 69.96 70.34 71.69 71.30 71.69 71.59 71.64 70.50 70.39
47.94 46.89 43.68 61.06 62.11 62.87 60.63 54.60 63.73 66.30 66.80 64.63 64.30 64.64 64.46 65.13 66.17 66.53 67.26 67.91 68.46 67.52 67.45 69.06 72.01 70.17 70.10 70.65 71.24 71.16 71.63 71.95 71.77 71.03 71.09 71.85 72.59 72.12 71.07 70.78 70.34 70.88 71.63 71.15 70.56 71.04 71.10 70.10 69.76
44.74 41.80 43.55 48.36 61.91 61.14 59.37 55.77 62.54 65.78 65.92 64.26 63.82 64.22 64.43 64.20 65.29 66.36 67.31 68.04 68.56 67.89 67.63 68.77 70.15 69.47 69.73 70.21 70.86 70.38 71.59 71.27 72.03 70.74 70.01 71.88 72.67 72.87 70.75 71.48 71.37 71.98 72.02 70.67 70.11 70.86 70.09 69.29 69.44
41.26 41.59 41.22 43.46 58.91 59.63 57.45 56.85 61.52 65.21 63.86 63.95 64.09 64.08 64.19 64.48 63.99 66.22 66.73 68.14 68.68 68.22 68.41 69.24 69.83 69.53 69.46 70.08 70.21 69.81 70.46 71.42 72.00 71.28 70.66 72.50 73.09 72.42 71.81 71.67 71.83 72.04 71.86 70.98 69.62 70.55 68.96 69.01 69.17
46.04 43.85 42.93 45.92 48.78 46.73 53.20 55.98 60.66 63.65 63.23 63.51 63.64 63.52 63.55 64.52 65.79 65.94 66.42 67.34 67.97 68.19 67.83 68.10 68.76 69.00 69.23 68.82 68.33 68.55 68.88 70.51 71.93 72.15 72.43 72.74 73.08 72.54 71.34 71.35 70.93 72.02 71.06 70.93 70.05 69.18 68.73 68.44 68.38
46.04 43.90 42.75 47.70 52.17 50.78 54.82 55.03 59.75 61.58 61.83 63.65 63.75 63.58 63.89 64.32 64.62 64.49 65.78 65.96 67.15 67.55 67.96 68.05 69.11 68.42 69.71 69.68 69.22 69.75 69.66 70.87 72.16 72.65 72.70 73.70 73.54 72.51 72.13 72.01 72.55 71.58 69.49 71.29 71.00 69.64 67.51 67.45 68.13
42.95 42.02 42.62 45.60 47.64 56.85 54.78 54.35 58.43 61.54 62.51 63.35 64.70 65.08 64.44 64.41 64.03 63.55 64.23 65.01 66.89 67.13 67.72 68.19 69.07 68.61 69.87 69.64 69.36 69.75 70.52 70.53 70.96 71.37 71.97 73.38 73.57 72.46 72.09 72.26 72.34 71.23 70.46 70.53 70.80 69.19 68.66 67.22 67.89
37.10 46.80 47.45 45.65 40.55 36.76 51.33 41.58 52.41 57.51 59.47 61.47 62.58 64.32 63.90 64.23 65.32 63.76 64.47 65.08 66.15 67.15 68.56 69.00 69.12 68.77 69.69 69.26 69.27 69.14 68.71 68.45 70.13 70.87 71.65 73.29 74.18 72.39 71.88 72.87 72.84 72.19 70.87 71.22 70.74 69.88 69.04 68.40 67.25
44.89 47.61 46.20 44.75 39.44 36.75 40.78 40.91 46.05 54.49 54.15 57.47 61.19 63.46 65.30 65.45 65.25 63.44 64.52 65.85 66.49 67.45 68.08 69.00 69.17 68.81 69.28 69.12 69.62 68.97 68.56 69.39 69.98 70.56 70.69 71.95 73.36 73.25 72.77 73.36 73.10 72.37 71.75 71.87 72.31 71.12 69.91 68.77 68.62
48.64 43.22 39.88 37.61 35.95 32.52 35.81 38.22 38.15 50.15 54.24 56.10 59.79 62.37 65.35 65.94 65.96 65.31 65.14 66.59 66.30 67.34 67.99 68.93 68.56 68.43 69.14 69.31 68.43 68.74 68.72 68.68 68.90 69.40 69.83 70.40 71.87 73.07 73.24 73.11 72.76 73.00 71.88 71.90 72.35 72.88 71.25 70.89 70.59
42.36 37.31 30.66 30.33 30.69 31.73 34.71 36.59 38.89 44.51 49.94 54.78 56.80 61.68 64.97 66.67 66.32 65.28 63.68 65.13 65.81 65.79 66.71 67.76 68.19 67.84 68.56 68.83 68.48 68.56 68.97 69.07 69.11 69.54 69.62 70.09 71.09 71.88 72.96 73.60 73.09 72.71 71.97 72.45 72.48 72.59 72.55 72.23 71.67
38.46 37.45 32.26 27.60 27.86 32.15 36.32 34.34 41.04 50.42 54.53 57.73 58.82 60.35 64.45 66.20 66.14 66.28 65.11 64.89 65.67 66.04 66.10 66.86 67.42 67.84 68.59 68.97 68.34 68.54 68.87 69.09 69.31 70.00 70.24 70.65 71.23 72.25 73.53 73.65 73.52 73.09 73.30 73.02 72.50 72.31 72.20 72.40 72.10
38.59 34.70 36.82 31.92 29.54 32.17 34.05 40.08 45.09 48.43 51.68 56.77 58.14 59.09 61.60 65.35 66.44 65.56 66.57 64.87 65.90 66.10 66.37 66.86 67.11 67.59 68.27 69.04 68.91 67.99 68.17 68.58 68.89 69.84 70.90 71.20 72.12 72.96 73.35 74.02 73.82 72.95 72.31 73.13 73.17 72.41 71.94 73.06 73.41
38.37 38.45 34.54 33.30 28.91 27.80 32.56 35.40 36.17 40.27 42.82 49.60 56.26 57.90 59.36 61.46 65.25 65.82 66.34 65.03 65.71 66.64 66.84 67.47 67.89 67.70 68.15 69.03 69.27 68.95 68.20 68.52 68.96 69.74 70.38 71.05 72.14 72.44 73.56 73.90 74.32 73.48 72.96 72.56 72.77 72.66 72.77 72.62 72.51
34.78 32.69 32.03 32.15 30.68 29.41 28.70 32.75 41.18 40.38 44.97 45.91 55.33 58.20 60.29 60.79 64.38 65.35 66.17 65.79 65.58 66.65 66.94 66.80 68.04 68.10 68.15 68.84 69.46 69.30 69.04 68.79 68.25 68.90 70.22 71.34 72.22 72.16 72.40 73.39 74.12 73.75 72.63 72.72 72.49 72.52 72.93 72.33 72.44
35.57 32.08 29.90 30.17 29.24 28.15 30.58 31.75 41.58 46.82 50.65 53.69 56.38 59.18 60.93 62.37 63.41 64.76 65.59 65.68 65.63 65.33 66.49 66.52 67.25 68.35 68.69 68.90 69.27 69.34 69.49 69.78 69.10 68.56 69.25 70.20 71.27 72.06 72.50 72.75 73.44 73.75 73.22 73.16 73.19 72.13 73.28 72.18 71.91

GFSSGP_sfc_wetblb_081.txt.gz
Wetbulb
73.59 72.90 71.48 68.70 60.09 59.51 56.00 55.83 62.24 60.73 61.20 64.52 64.28 62.22 61.06 62.35 60.59 58.54 68.58 69.14 71.96 73.26 75.28 75.64 77.05 76.57 77.02 76.67 76.31 75.92 75.95 76.74 76.37 76.58 76.01 75.55 75.31 75.50 75.21 75.80 76.46 76.23 76.53 76.38 77.09 77.22 76.98 77.20 77.08
72.87 70.96 69.42 65.76 57.29 53.59 55.52 60.59 59.81 62.62 64.06 65.22 65.75 64.21 63.61 61.24 66.18 65.24 66.03 70.17 72.81 73.62 75.00 75.40 77.16 77.06 76.99 77.14 76.71 76.14 76.38 76.69 76.36 76.62 76.38 76.53 75.73 76.29 75.79 76.01 75.89 76.10 76.55 76.46 76.71 76.73 76.87 77.18 76.89
71.66 71.15 66.71 62.44 58.59 53.62 55.82 60.74 62.85 63.42 64.58 65.16 64.35 66.40 65.01 62.96 65.17 65.84 69.17 71.49 73.18 74.07 74.99 76.21 76.79 77.03 76.83 76.64 76.58 76.31 76.49 76.46 76.34 76.33 76.12 75.89 75.83 75.58 75.98 75.89 75.96 76.41 76.53 76.33 76.60 76.60 76.29 76.00 75.73
69.66 68.97 67.64 59.30 55.92 59.39 59.63 63.05 63.35 63.40 65.87 66.51 65.43 62.69 66.13 68.12 65.95 68.76 70.31 72.34 72.93 74.13 75.04 76.58 76.66 76.93 76.75 76.75 76.82 76.39 76.45 76.13 76.24 76.18 75.86 75.78 76.07 75.87 75.88 75.90 76.05 76.09 76.03 76.30 76.30 76.40 75.59 75.58 75.26
70.90 68.23 61.22 59.13 58.75 60.93 63.11 64.68 64.30 63.44 64.36 64.14 65.46 61.33 61.83 68.14 70.64 69.68 70.97 72.18 72.46 73.81 75.48 76.04 77.41 77.08 76.74 77.12 76.45 76.87 76.45 75.70 75.67 76.06 75.74 76.06 76.09 75.91 75.94 76.01 75.54 75.74 75.70 76.08 75.94 75.94 75.65 75.01 75.14
66.62 66.50 58.07 56.63 57.66 62.24 63.40 65.66 65.62 64.99 64.90 64.25 62.82 62.95 63.87 69.78 68.27 69.17 71.50 72.34 73.41 74.03 75.16 76.04 76.96 76.53 76.29 76.55 76.86 76.48 76.42 75.96 76.01 75.79 75.89 76.02 75.71 75.64 75.19 75.72 75.33 75.89 75.69 75.94 75.90 75.97 75.32 76.16 76.10
64.55 62.21 57.45 56.57 58.85 60.05 62.25 66.70 64.78 64.47 64.33 63.39 65.58 61.86 64.97 66.88 68.68 70.37 71.98 73.21 73.68 74.75 75.42 76.28 75.79 76.89 76.74 76.73 76.70 76.41 76.41 76.61 76.38 76.17 75.84 76.12 75.66 75.85 75.54 75.20 75.46 75.16 75.44 75.94 75.91 75.99 75.97 76.48 76.44
67.23 63.92 58.67 59.07 58.00 58.43 63.78 65.43 66.46 65.49 63.57 67.89 67.68 61.66 61.37 66.62 69.49 71.03 72.20 72.92 73.67 74.91 75.00 75.02 76.55 76.70 76.72 76.86 76.67 76.58 76.55 76.12 76.08 76.09 76.08 76.19 75.59 75.41 75.58 75.70 76.11 75.24 75.58 75.69 75.39 75.72 76.23 75.93 75.75
68.33 61.25 58.40 58.76 58.71 60.10 64.20 63.78 66.12 66.99 65.08 65.90 66.72 66.21 67.39 69.09 70.12 70.19 71.07 71.78 73.04 73.61 74.75 75.42 75.64 76.55 77.11 76.97 77.02 77.09 76.49 76.71 76.04 76.24 76.13 75.96 75.81 75.84 75.63 75.80 76.05 75.50 75.80 75.86 75.47 75.19 76.32 76.04 76.49
64.08 58.57 59.79 63.24 63.00 62.43 63.19 63.92 64.95 63.23 64.00 63.84 64.69 67.68 68.29 68.97 68.74 68.44 68.90 68.73 71.07 71.86 73.69 75.34 76.10 75.66 75.99 75.78 77.20 77.00 76.88 76.62 76.52 76.43 76.90 76.12 76.11 76.15 75.76 76.15 75.69 75.58 75.61 75.39 75.36 75.74 75.57 75.59 76.22
64.06 60.62 63.36 63.73 65.07 65.81 63.14 62.53 65.82 63.62 62.55 63.98 63.47 64.76 66.87 67.81 68.09 68.09 68.63 69.75 70.24 72.13 73.44 74.64 75.72 75.89 75.46 76.02 75.83 75.93 76.31 75.81 76.21 76.28 75.80 75.80 75.45 76.27 76.38 76.20 75.52 75.39 75.17 75.08 75.10 75.03 75.19 74.59 75.01
60.52 63.12 63.96 64.70 66.43 65.29 63.61 64.53 63.99 63.91 65.25 66.89 66.92 67.03 67.31 66.96 67.47 67.71 68.52 69.80 69.66 71.32 72.76 74.41 75.25 75.53 76.30 76.08 75.00 75.80 75.37 75.50 75.07 75.63 76.03 75.38 74.47 75.58 75.61 75.14 74.40 74.55 74.50 73.90 75.07 74.88 75.48 75.62 75.71
60.59 62.32 62.31 63.70 66.08 66.14 66.04 63.97 63.40 64.27 66.34 67.63 67.46 67.74 66.60 67.31 68.14 69.41 70.04 70.20 70.45 71.18 72.71 74.17 75.07 75.42 76.42 76.42 75.66 75.57 75.32 75.22 75.41 75.57 75.77 75.15 74.35 74.58 74.84 75.00 74.48 74.85 74.87 74.72 75.23 74.97 75.16 75.09 75.25
60.33 61.12 60.77 61.12 60.88 65.34 63.09 63.06 63.90 65.55 66.31 66.11 66.53 66.92 67.61 67.85 68.50 69.21 69.30 69.23 70.25 71.26 72.55 73.84 74.46 75.21 76.03 75.61 75.86 75.35 75.19 75.20 75.76 75.79 75.86 75.43 74.89 74.94 74.09 74.09 73.87 75.07 76.43 76.13 76.01 75.24 74.94 74.43 74.81
58.78 56.04 61.96 63.93 63.80 63.18 64.18 59.99 60.81 66.48 65.44 65.27 65.77 66.79 67.61 68.42 69.25 68.49 69.37 69.07 70.32 71.72 72.68 73.20 74.11 74.75 75.33 75.78 75.43 75.10 74.97 75.46 75.93 76.09 76.11 75.14 75.27 75.52 75.94 75.04 74.28 75.16 76.21 76.08 76.40 76.21 75.94 74.37 74.37
53.64 53.51 51.70 63.19 64.49 63.88 63.26 57.53 63.75 66.70 64.38 64.43 65.01 66.17 66.74 67.69 68.53 69.56 70.03 69.69 70.69 71.40 71.90 73.44 73.52 73.94 74.76 75.24 75.30 74.87 75.16 75.66 76.18 76.33 76.02 75.25 75.66 75.59 76.48 75.30 74.14 74.81 76.04 75.70 75.88 75.69 74.50 74.05 74.08
52.19 51.91 50.26 58.22 64.17 63.28 61.94 58.76 65.13 67.10 64.86 63.97 64.50 65.48 66.14 67.28 68.74 69.95 70.58 70.15 70.52 71.44 71.62 72.80 73.73 73.51 74.02 74.92 75.05 74.93 75.28 75.86 76.69 75.97 75.61 75.69 75.94 76.38 75.80 75.68 75.35 75.97 75.16 74.92 75.34 74.79 74.84 73.58 73.89
50.38 49.48 49.62 54.09 61.94 62.31 60.64 60.03 64.01 66.21 65.85 64.30 64.91 65.11 65.71 66.39 68.11 69.99 70.65 70.87 71.16 71.45 71.40 72.87 73.45 73.99 74.56 74.30 74.41 74.23 74.75 75.24 75.86 75.68 75.23 75.75 76.86 76.26 75.33 75.79 75.82 76.49 75.05 74.44 74.09 74.99 73.69 74.33 74.18
51.61 50.48 49.81 50.80 55.45 55.85 55.99 57.73 61.78 65.47 63.66 64.15 64.11 65.05 65.67 66.43 69.03 70.32 70.60 70.97 70.60 70.91 70.84 72.02 72.98 74.10 73.75 73.17 72.22 72.99 73.47 74.27 75.22 75.72 76.02 75.94 76.49 76.57 76.17 75.28 75.79 76.09 75.81 75.38 74.49 74.21 73.73 72.95 74.25
52.01 50.57 49.83 51.31 58.00 54.10 58.69 58.46 62.01 64.01 64.29 64.18 64.90 64.68 66.43 67.18 67.98 68.86 69.76 70.34 70.19 70.50 71.06 71.98 73.11 74.05 73.87 73.53 73.90 74.35 74.39 74.85 75.77 76.10 76.22 75.94 76.50 76.73 76.07 76.10 75.97 76.03 74.91 75.40 74.75 74.17 72.38 73.49 74.20
51.24 51.19 49.85 49.49 50.86 60.38 58.76 57.09 59.28 62.92 65.10 66.01 66.97 66.73 66.76 67.25 67.55 68.24 68.62 69.39 70.62 70.50 71.03 71.94 73.33 73.88 74.36 74.86 74.27 74.36 74.67 75.08 74.58 75.00 75.60 76.18 76.69 76.69 76.54 76.32 76.43 76.04 75.44 74.18 75.14 73.75 73.25 71.78 72.76
50.14 52.29 51.77 50.13 49.26 46.25 57.73 48.12 57.01 59.54 61.52 63.70 65.64 66.50 67.06 67.57 68.60 69.11 68.89 68.84 69.78 70.78 71.89 72.77 73.24 73.80 74.23 74.87 74.11 74.22 72.91 72.32 73.69 74.81 75.85 76.20 77.20 76.58 75.47 76.43 76.55 76.23 74.96 75.39 74.96 74.00 73.54 73.71 71.26
50.44 52.18 51.60 50.51 49.09 46.93 50.19 50.95 48.91 59.26 57.86 61.46 63.59 65.62 66.07 67.58 68.28 68.77 69.14 69.26 69.80 70.95 71.43 72.19 73.31 73.63 74.68 74.49 75.36 73.97 74.52 73.94 74.98 74.85 75.68 76.68 77.53 77.06 75.66 76.14 76.84 76.12 75.80 76.10 75.91 75.10 74.66 73.61 72.52
52.39 49.02 47.73 47.36 47.31 43.48 47.23 49.48 48.94 52.05 54.12 57.61 61.40 64.66 66.61 67.24 67.90 69.14 70.15 70.35 70.02 70.87 71.21 71.93 72.61 73.50 74.32 74.24 74.58 74.68 75.12 74.41 73.99 74.58 74.28 74.87 75.78 76.77 77.04 76.66 76.88 77.14 76.47 76.01 76.02 76.80 75.45 74.72 74.73
50.86 48.42 42.28 41.66 41.56 42.44 44.84 47.67 49.43 53.97 56.71 59.37 60.48 62.05 64.55 68.20 69.16 68.71 68.71 69.18 70.10 70.22 70.61 71.32 72.14 72.57 73.29 73.63 73.81 74.25 74.96 75.56 75.16 75.14 74.38 74.99 74.59 74.99 76.81 77.48 76.83 76.69 76.93 76.53 76.57 76.81 76.77 76.10 75.26
49.27 48.91 43.64 38.27 39.24 42.47 44.79 44.66 47.28 50.51 54.36 57.47 62.02 63.31 64.86 66.61 68.81 69.66 69.03 69.35 69.98 70.07 70.64 71.07 71.64 72.95 73.02 73.34 74.32 74.77 74.85 74.18 74.38 75.38 74.55 74.57 74.93 75.59 77.12 77.78 77.56 77.52 77.21 76.88 76.77 75.89 75.85 76.47 76.01
45.50 44.97 46.61 42.97 42.00 43.44 44.16 47.29 50.83 52.76 55.28 58.00 60.73 62.58 63.37 64.35 68.32 69.46 69.86 69.32 70.07 70.29 70.34 71.19 71.99 72.62 72.64 73.01 74.02 74.11 74.26 74.35 74.49 75.44 75.97 75.15 76.45 75.76 76.87 77.32 77.39 77.72 77.24 77.29 77.01 75.41 75.78 76.57 76.38
46.08 45.76 43.83 45.08 38.96 38.82 41.66 42.54 43.78 49.57 53.35 57.03 57.56 59.24 62.66 65.47 65.17 69.11 70.51 69.45 69.95 70.68 70.84 71.17 71.71 72.16 73.29 73.07 73.43 73.48 73.28 74.11 74.69 74.83 75.22 75.86 76.31 76.72 76.44 76.94 77.17 77.33 77.38 77.14 77.03 76.03 76.53 76.48 75.99
44.04 43.84 43.05 45.11 42.38 41.43 39.58 41.13 48.96 52.08 54.46 53.58 56.02 59.60 61.64 65.78 65.39 67.71 70.17 70.97 69.83 70.70 70.66 70.63 70.99 71.29 71.93 72.61 73.78 73.70 73.45 73.12 73.73 73.45 74.42 75.55 76.21 76.81 76.83 77.19 77.11 77.36 77.03 77.43 77.18 76.89 76.36 76.21 76.09
42.29 40.67 41.22 43.82 40.32 41.43 44.34 40.28 52.54 54.33 54.92 54.47 55.83 59.37 60.99 63.86 66.52 68.26 69.07 70.24 69.63 69.88 70.47 70.27 70.78 71.00 71.41 72.41 72.74 73.05 73.61 73.45 72.84 73.15 73.73 75.11 75.63 76.44 76.78 77.22 76.99 77.19 77.17 77.35 76.71 76.38 76.11 75.84 75.64

GFSSGP_sfc_wetblb_084.txt.gz
Wetbulb
74.20 73.42 74.00 69.35 60.91 60.74 59.49 59.02 63.79 62.02 63.55 66.88 66.76 64.08 63.18 64.52 63.20 60.78 71.32 72.87 74.41 75.01 75.79 76.48 77.34 77.13 76.25 76.38 75.95 76.32 77.18 76.63 77.18 76.15 75.70 75.18 75.34 75.26 76.05 76.43 76.56 76.82 76.93 77.25 77.36 76.97 77.37 76.92 77.24
73.11 71.71 72.21 65.96 58.14 56.97 59.44 63.22 61.58 64.00 66.59 67.67 66.37 65.54 64.55 64.59 68.48 68.12 69.31 73.29 74.83 75.50 75.50 76.05 77.10 77.86 76.63 76.48 76.23 76.24 76.99 76.67 77.06 76.80 76.71 76.09 76.61 76.04 75.71 76.39 76.24 76.28 76.95 76.86 77.20 77.17 76.89 76.66 77.23
73.13 73.10 68.46 64.53 58.72 58.78 58.81 63.62 64.67 65.23 67.27 67.09 66.01 68.66 67.18 65.35 67.85 68.51 71.81 74.04 75.01 75.21 75.92 77.08 77.00 77.24 77.33 77.01 76.42 76.77 76.91 76.62 76.77 76.73 76.29 76.07 76.32 76.22 76.30 76.29 76.01 76.19 76.57 76.82 77.09 76.63 76.24 76.05 76.43
71.94 71.43 69.65 62.37 58.27 61.59 62.54 65.00 65.43 65.13 67.75 67.92 67.74 65.04 67.37 69.52 68.18 70.24 73.01 73.92 74.48 75.10 76.12 76.66 77.12 77.22 76.99 76.82 76.82 76.89 76.69 76.57 76.62 76.32 76.47 76.25 76.22 76.48 76.18 75.82 76.42 76.53 76.46 76.51 76.51 76.24 75.33 75.49 76.29
72.84 70.43 63.22 60.96 60.76 63.00 66.00 66.32 67.14 65.76 66.30 66.40 67.42 63.30 64.39 68.35 71.16 71.53 72.83 73.77 74.01 74.69 76.09 76.86 77.77 77.22 77.22 77.05 77.14 76.74 76.29 76.15 76.37 76.21 76.28 76.03 76.41 76.07 75.90 75.98 76.02 76.12 76.44 76.32 76.41 76.18 75.57 75.80 76.02
68.12 67.72 61.91 57.77 60.45 63.62 66.25 66.79 66.67 66.66 66.90 64.85 65.69 65.41 65.13 70.60 69.89 71.68 73.20 73.77 74.20 74.55 75.42 76.54 77.15 77.09 77.34 77.19 76.81 76.87 76.07 76.26 76.43 75.85 76.22 76.09 76.09 75.85 75.74 76.10 76.13 76.22 76.27 76.24 76.02 75.59 75.88 76.35 76.65
65.33 65.13 61.17 60.86 60.13 62.23 63.94 67.08 65.85 66.37 66.63 64.92 66.68 64.35 67.00 68.05 70.51 72.16 73.24 74.09 74.60 75.01 75.44 76.64 76.92 77.03 76.76 76.91 76.69 76.49 76.46 76.49 76.20 76.19 76.16 76.17 76.07 75.93 75.68 75.54 75.90 75.96 76.41 76.27 76.25 76.47 76.90 76.51 76.70
68.25 66.84 60.80 61.38 60.68 60.99 65.12 65.62 66.66 66.74 65.76 68.74 69.80 63.80 63.62 68.09 71.01 72.54 73.37 73.75 74.54 74.74 75.78 75.73 76.21 77.22 77.02 76.91 76.55 76.76 76.18 75.94 76.23 76.35 76.45 76.10 76.18 76.10 75.77 76.40 76.38 76.24 76.16 76.07 76.02 76.07 76.41 76.56 76.15
69.68 64.17 59.08 60.30 60.81 62.35 66.15 63.74 65.85 67.53 66.83 66.85 68.58 68.28 68.45 69.74 71.44 71.84 72.07 72.67 73.53 74.22 74.86 75.24 76.49 77.07 77.60 77.16 77.08 76.91 76.67 76.40 76.32 76.63 76.17 76.50 75.61 76.02 76.24 76.52 76.19 76.24 76.30 75.62 75.49 77.16 76.91 77.25 76.44
65.89 65.17 61.15 64.77 65.67 64.42 65.34 64.07 63.77 64.59 65.11 65.14 67.37 69.11 69.18 69.55 70.34 70.16 70.31 70.53 71.99 72.64 73.63 75.40 76.16 76.43 76.71 75.76 77.50 77.61 77.00 76.27 76.14 76.09 76.61 76.27 76.34 76.72 75.72 76.15 76.27 76.24 75.99 75.83 76.41 75.85 75.76 76.34 75.86
66.09 61.47 64.71 65.58 66.57 67.23 65.39 64.22 65.03 63.24 64.00 66.42 65.63 66.93 67.97 68.75 69.76 69.86 70.30 71.05 71.54 72.89 73.74 75.42 75.97 76.62 76.06 75.70 75.90 76.55 75.64 75.84 76.39 76.67 76.47 76.21 75.84 76.34 75.00 75.38 75.87 76.06 76.61 75.81 76.68 76.52 76.16 76.17 75.25
63.48 65.68 65.48 66.34 66.92 65.95 64.73 65.89 64.00 65.27 66.65 68.81 68.12 68.42 68.31 68.27 69.00 69.64 70.03 71.15 71.61 72.29 73.68 75.15 75.67 76.21 75.75 75.43 75.44 75.34 74.79 74.60 74.59 75.94 76.77 76.13 75.09 74.89 74.46 74.54 75.77 76.02 75.62 75.77 76.66 75.78 76.62 76.81 76.54
64.51 64.56 64.37 64.33 66.57 66.37 67.40 65.18 65.18 65.20 67.92 68.78 68.22 68.28 68.06 68.63 69.19 70.21 71.01 71.64 71.66 72.01 73.39 74.20 75.86 76.58 75.97 76.26 75.47 75.53 75.02 74.39 75.04 75.24 76.07 75.58 74.76 74.85 74.68 74.66 74.87 75.35 75.87 75.68 75.94 76.32 76.55 76.42 76.14
64.03 64.03 62.51 63.20 62.38 66.44 65.48 65.39 65.50 65.64 67.93 66.78 67.43 67.70 68.31 68.54 69.10 70.19 70.54 70.60 71.28 72.50 73.41 74.75 75.24 76.42 76.04 76.42 77.00 77.43 75.95 75.58 75.07 74.97 75.91 76.61 75.53 75.66 75.26 75.51 75.42 75.99 76.97 76.46 76.58 76.56 76.06 75.74 75.76
62.81 60.14 63.25 63.48 64.38 64.79 66.75 62.65 63.82 66.54 66.80 65.01 66.77 67.71 68.21 69.01 69.88 70.02 70.73 70.29 71.64 72.76 73.60 74.36 74.93 75.57 75.94 76.66 77.24 77.93 75.80 75.78 75.65 75.68 76.89 76.99 77.08 77.25 76.67 75.63 75.87 75.99 77.22 77.94 77.59 77.68 76.40 74.84 75.03
59.90 59.97 57.34 64.07 66.15 65.67 65.77 59.52 66.09 66.54 65.43 64.90 66.09 67.44 68.12 69.03 69.84 70.49 70.69 70.37 71.89 72.68 73.54 74.62 74.20 74.63 75.22 75.78 76.58 76.34 76.06 75.97 76.37 76.22 76.63 76.93 77.30 77.47 77.65 75.92 75.69 76.52 77.29 76.99 76.83 77.10 74.32 74.27 74.29
58.76 55.52 55.31 61.41 66.21 65.07 64.66 61.89 64.58 66.40 65.39 65.44 66.58 67.43 68.03 68.91 69.42 70.23 70.87 70.82 71.36 72.72 73.82 74.21 74.76 74.20 75.50 76.79 76.56 76.61 77.34 77.09 78.09 77.09 76.61 77.27 77.12 77.76 77.45 76.14 76.11 77.31 76.44 76.65 76.30 75.62 75.83 73.97 73.88
55.23 56.51 56.25 58.97 63.47 64.51 62.20 63.00 65.34 66.17 66.62 65.89 66.43 67.42 67.95 67.49 67.83 71.02 71.54 71.47 71.17 72.46 73.51 74.54 74.71 75.03 76.04 76.36 76.63 76.01 76.28 76.98 77.59 77.15 76.99 77.69 77.60 77.24 77.27 76.76 77.04 76.71 75.65 75.61 75.79 75.91 75.76 74.96 74.58
58.08 57.00 55.88 60.64 63.65 60.26 59.21 61.68 65.24 66.60 66.15 65.44 65.63 66.79 67.44 66.70 69.52 71.74 72.34 72.13 71.25 71.84 72.24 73.90 74.39 75.44 75.33 74.74 74.14 75.14 74.64 75.94 76.26 77.02 77.18 77.34 77.53 77.76 77.88 76.66 76.12 76.70 75.82 76.55 76.48 75.86 74.87 73.41 75.43
56.89 55.43 53.75 56.67 57.94 56.84 57.81 57.88 64.99 65.53 65.11 66.93 66.80 66.07 66.96 67.13 69.37 71.24 72.06 72.49 71.68 71.31 71.85 73.36 74.59 75.61 75.27 74.73 75.41 75.78 76.18 76.36 76.53 76.67 77.85 77.61 77.50 77.39 77.53 77.55 75.70 76.43 75.46 76.81 76.71 76.07 73.67 73.79 75.25
56.38 55.64 54.00 54.32 55.68 59.19 59.65 58.12 60.79 64.46 64.42 65.89 65.89 68.43 67.85 67.02 68.29 70.64 71.40 71.84 72.17 70.70 72.28 73.08 74.82 75.54 75.95 76.64 76.23 76.76 77.09 77.53 76.52 76.60 76.63 77.14 78.07 77.90 77.77 77.29 78.12 77.39 76.91 74.72 76.81 75.98 75.12 72.07 74.98
53.08 57.43 55.13 53.36 52.66 52.97 59.76 53.51 59.59 61.30 61.97 64.31 65.81 66.21 68.59 68.79 68.30 69.89 71.33 71.72 72.09 71.78 72.52 73.93 74.94 75.58 76.04 76.91 76.37 76.39 74.20 73.20 74.43 75.66 76.21 77.32 78.30 77.88 78.04 78.21 77.99 78.33 77.02 76.92 76.70 75.96 75.87 75.56 71.15
53.57 57.22 56.10 54.43 53.12 51.48 53.70 53.61 57.83 60.52 59.45 62.91 64.88 66.33 67.55 69.06 69.91 69.80 71.16 72.14 72.59 73.29 72.90 73.39 74.97 76.02 76.35 76.85 77.08 75.63 75.54 74.54 75.24 75.18 77.20 78.03 78.32 78.25 77.08 77.83 78.08 78.07 76.93 77.41 76.99 76.95 76.41 74.50 73.70
56.34 54.64 54.53 54.61 53.33 47.93 52.29 53.35 53.29 57.04 58.53 61.18 63.45 65.86 67.91 69.98 70.67 71.27 71.89 72.59 72.64 73.29 73.70 73.98 74.86 75.96 76.55 76.72 77.02 76.88 76.23 75.87 74.83 75.57 75.17 75.51 76.31 77.05 78.29 78.00 78.42 78.32 77.59 77.36 77.21 77.90 77.36 76.41 75.84
54.77 51.98 46.78 46.58 46.32 46.48 52.95 52.04 54.19 56.80 57.42 60.70 62.72 64.70 66.42 70.15 69.24 71.04 71.70 71.86 72.34 72.48 73.03 73.80 74.71 75.27 76.25 76.13 76.39 76.81 76.87 77.04 76.79 75.73 74.68 75.92 75.06 75.61 78.48 78.67 79.04 77.37 77.84 77.60 77.72 77.14 76.82 76.84 75.80
52.69 51.99 47.40 42.84 44.24 46.87 51.35 49.60 50.39 57.21 60.90 63.87 65.25 66.49 67.18 68.60 71.08 70.37 70.50 72.32 72.40 72.77 73.27 74.01 74.30 75.02 75.92 75.97 76.31 77.06 77.37 76.06 75.92 76.14 74.66 75.00 75.44 76.02 77.59 78.80 77.91 77.47 77.75 78.13 78.04 76.15 75.67 76.95 75.76
52.01 50.12 52.88 48.55 50.87 47.87 49.45 51.34 54.66 58.16 59.94 61.77 62.71 64.09 66.61 67.67 69.46 70.52 71.62 72.34 72.48 73.04 73.76 74.30 74.76 75.24 75.77 75.79 76.23 76.70 77.11 76.76 75.86 76.44 76.71 75.69 76.87 76.44 77.79 78.38 76.93 77.47 77.96 78.52 78.61 76.06 77.10 77.14 76.90
51.92 54.35 47.90 48.53 44.16 43.50 46.61 49.23 49.71 54.52 56.71 59.31 59.41 60.81 63.98 68.69 68.35 69.96 72.27 72.90 73.00 73.53 74.06 74.76 75.25 75.22 75.78 75.91 75.94 76.14 76.51 77.09 76.93 76.64 76.32 76.77 76.12 77.49 77.55 78.27 78.26 77.31 78.21 78.47 78.42 77.04 77.70 77.12 75.72
48.86 49.22 50.21 50.72 48.84 45.45 44.52 47.13 54.52 55.89 56.14 56.63 58.57 59.94 61.72 63.72 68.37 70.03 72.21 71.99 73.37 73.68 73.98 74.04 74.65 75.17 75.55 75.75 75.77 75.94 75.93 76.20 76.58 76.09 76.22 76.31 77.02 77.66 78.30 78.49 78.45 77.41 77.76 78.47 78.45 77.65 77.30 76.45 76.49
48.06 48.98 50.29 47.22 46.67 48.91 48.72 45.52 56.43 58.30 57.69 58.90 59.25 58.81 59.81 61.78 65.30 63.74 65.38 69.31 71.86 72.38 73.21 73.57 74.02 74.11 75.06 75.99 75.84 75.78 76.22 76.38 75.67 75.74 75.98 76.35 76.60 77.05 77.97 78.57 78.51 78.10 77.44 78.33 78.27 76.95 76.27 76.61 76.36

GFSSGP_sfc_wetblb_087.txt.gz
Wetbulb
74.02 73.66 73.83 69.25 63.19 61.48 57.91 59.93 63.88 63.16 63.18 66.92 66.51 64.99 64.67 67.43 64.15 60.46 72.88 74.62 74.82 74.35 75.49 76.75 77.36 76.58 76.27 76.02 76.76 77.15 76.55 77.20 76.17 75.71 75.08 75.36 75.41 76.34 76.21 76.88 76.99 76.99 77.28 77.37 77.14 77.26 77.18 77.23 76.72
74.30 72.28 72.43 66.68 61.20 56.60 58.04 64.02 61.81 64.67 66.84 67.82 66.61 66.02 66.48 64.70 69.04 69.06 70.97 74.61 74.80 74.71 75.48 76.57 77.54 76.96 76.48 76.10 76.25 77.06 76.77 76.65 76.83 76.44 76.25 76.36 75.96 75.83 75.80 76.77 76.28 76.92 77.00 77.15 77.24 76.83 77.25 77.37 77.03
75.05 72.91 67.45 62.93 60.99 57.16 58.77 64.09 63.83 66.72 67.66 66.82 66.33 69.14 68.28 64.96 68.96 70.31 73.51 74.79 74.15 74.11 75.09 76.56 77.19 77.24 76.52 76.30 76.57 76.88 76.69 76.87 76.68 76.50 75.97 76.62 76.37 76.30 76.44 76.10 76.12 76.99 77.01 77.02 76.64 76.47 76.19 76.66 76.65
71.89 70.31 68.54 60.57 59.40 62.23 63.38 63.88 66.67 65.80 67.47 68.80 68.56 65.74 68.74 70.86 69.75 72.45 74.20 74.94 74.14 74.23 75.07 76.79 77.38 76.93 77.01 76.86 76.85 77.18 76.63 76.85 76.22 76.11 76.44 76.29 76.38 76.27 76.11 76.54 76.49 76.77 76.50 76.16 76.58 76.14 76.55 76.46 76.51
71.57 69.25 63.73 61.25 61.40 64.03 65.51 67.02 67.55 65.11 66.46 66.61 67.95 65.49 65.51 69.38 72.23 73.50 74.04 73.92 73.72 73.77 75.68 76.98 78.03 77.31 77.04 76.75 76.82 76.74 76.64 76.61 76.59 76.59 76.27 76.54 76.33 76.05 76.36 76.36 76.26 76.86 76.58 76.61 76.16 75.44 76.44 76.81 76.66
67.08 69.38 61.85 59.53 61.23 64.52 66.95 67.58 66.62 66.36 67.52 67.28 66.98 65.61 65.98 71.10 71.51 72.73 73.71 73.53 73.90 73.99 76.05 76.48 77.14 77.14 77.04 76.81 77.11 76.34 76.35 76.75 76.39 76.23 76.31 76.05 76.16 76.05 76.66 76.36 76.47 76.64 76.33 75.83 76.13 76.14 76.60 77.09 76.61
65.81 65.30 60.82 61.23 61.43 62.98 65.15 68.24 66.07 66.01 65.68 65.72 69.20 64.95 67.67 69.13 72.12 73.10 73.64 74.19 73.41 74.05 75.26 76.44 76.69 77.15 77.13 76.76 77.06 76.61 76.63 76.25 76.28 76.18 76.27 76.10 76.24 75.97 76.50 76.25 76.55 76.36 76.30 76.54 76.58 76.66 76.52 76.76 76.39
68.37 67.53 61.79 62.99 61.52 61.52 66.91 66.24 67.41 66.80 65.30 69.26 70.54 63.89 64.33 69.26 72.37 73.21 73.40 73.48 73.19 73.69 74.96 74.30 75.37 76.39 76.79 76.92 76.73 76.80 76.54 76.56 76.31 76.21 76.36 76.44 76.30 76.22 75.96 76.86 76.91 76.47 76.01 75.83 76.53 76.83 76.54 76.27 76.04
70.90 63.41 59.37 60.72 61.87 63.51 67.69 64.22 66.61 68.60 67.13 68.20 70.07 67.91 68.89 70.90 72.13 71.95 72.02 72.51 72.68 73.04 74.16 75.71 75.58 75.02 77.06 76.38 77.10 76.41 75.96 76.59 76.67 76.14 75.94 76.39 75.98 75.63 75.51 76.94 76.55 76.05 75.85 76.01 75.93 76.75 76.77 76.50 76.04
67.55 63.89 60.86 65.15 66.41 65.78 67.15 64.43 65.06 65.48 66.61 66.79 67.99 68.52 69.76 70.76 70.95 70.23 70.50 70.92 71.83 72.03 72.93 73.53 74.86 75.02 75.60 75.10 76.91 77.19 75.05 76.24 75.90 75.64 75.52 76.79 76.36 75.36 74.81 76.49 76.53 76.36 76.53 76.22 76.13 76.60 75.53 75.73 75.45
66.70 62.05 64.46 66.36 68.07 68.26 67.03 64.93 65.81 64.90 64.14 67.24 65.74 66.84 68.47 69.79 70.06 69.94 70.55 70.93 71.64 72.38 73.37 74.62 75.00 76.44 75.60 75.63 75.14 76.69 74.43 74.39 74.33 76.04 76.31 75.70 74.52 74.70 73.81 75.48 75.82 76.00 76.71 75.33 76.10 75.66 74.72 74.11 73.84
63.88 66.14 65.81 66.02 67.60 66.63 65.40 66.70 64.02 65.00 66.57 69.95 69.02 68.41 68.57 68.91 68.96 69.28 69.86 70.92 71.71 72.74 72.99 73.19 75.13 75.49 74.95 75.03 74.38 74.52 73.93 73.65 73.96 75.38 76.76 76.18 74.29 74.19 76.52 74.62 75.13 73.51 74.16 75.68 72.99 75.19 76.78 75.65 75.03
64.11 65.47 65.42 66.27 67.77 66.89 67.95 65.69 64.78 65.95 68.80 70.60 69.73 68.46 68.03 68.80 69.18 69.99 70.75 71.84 72.18 72.19 73.29 73.99 75.24 76.05 75.70 78.27 75.19 74.73 73.99 74.34 74.79 75.46 76.54 75.80 73.85 74.29 74.46 75.07 75.65 75.93 75.97 75.70 76.95 75.33 75.62 75.35 74.91
66.62 66.26 64.72 64.46 65.74 67.99 65.11 65.79 66.63 66.11 69.43 68.25 68.78 67.57 68.31 68.44 68.91 69.69 70.46 71.05 71.49 72.54 72.96 74.51 75.02 75.55 75.70 77.06 77.87 76.40 74.65 74.49 74.62 74.99 75.70 76.91 76.60 76.98 74.95 75.42 74.62 74.02 74.91 73.83 74.49 74.86 75.40 72.63 74.49
65.30 62.71 63.43 63.94 65.47 66.79 67.65 62.90 64.14 66.74 68.44 66.32 66.84 67.78 68.17 68.51 69.22 69.23 70.73 70.74 71.83 72.55 73.76 74.00 74.76 74.94 76.13 76.33 77.10 77.16 74.47 74.42 74.53 75.74 76.96 76.95 77.05 77.44 77.06 76.26 74.99 75.80 76.65 77.12 76.75 74.86 75.61 73.66 74.73
62.93 62.95 58.38 63.72 66.83 67.02 65.59 60.16 65.18 66.38 66.13 65.10 66.18 67.40 67.42 68.24 68.77 70.06 70.78 70.60 72.42 72.81 73.78 74.24 73.89 74.31 75.55 76.83 76.88 76.97 76.29 75.65 75.66 75.40 76.52 77.05 77.33 77.70 78.26 75.62 75.37 75.84 76.46 75.77 77.54 75.44 74.20 74.17 73.64
61.20 57.68 58.01 61.64 66.15 66.15 64.50 61.92 65.51 68.00 65.76 64.63 65.37 66.48 67.23 68.04 69.15 70.14 70.53 70.66 72.06 73.20 74.26 74.07 74.60 74.05 75.17 76.46 76.94 77.49 78.10 77.11 77.92 76.33 75.92 77.43 77.29 77.29 76.50 74.28 76.28 77.31 74.83 75.58 73.81 74.27 73.54 74.82 74.01
55.78 56.61 59.87 59.16 64.20 64.67 61.28 63.78 65.57 67.07 65.53 64.61 65.46 65.78 66.38 66.86 68.21 69.68 70.07 70.51 71.66 73.26 74.55 74.84 74.51 75.13 76.21 75.80 77.46 76.91 76.31 77.58 77.99 75.89 75.58 77.41 77.08 76.80 78.41 76.69 76.57 77.07 74.43 75.67 74.45 77.29 76.75 72.57 74.28
58.66 57.75 56.97 59.45 64.41 62.05 60.77 63.06 65.19 64.57 65.97 65.71 66.05 66.45 66.31 66.87 69.67 69.91 70.94 70.99 70.71 72.37 73.73 74.57 74.63 75.70 75.58 74.66 74.07 75.54 74.51 76.46 77.94 77.46 77.67 77.60 77.24 77.55 78.26 76.08 76.67 75.86 74.38 76.00 76.05 75.15 75.11 73.28 74.04
58.47 57.29 56.59 60.03 63.51 61.54 61.71 61.17 65.49 66.37 66.37 66.75 66.56 65.97 66.25 67.58 67.88 69.04 70.41 70.60 70.19 71.12 72.63 74.43 75.06 75.97 76.02 75.46 76.83 75.63 74.23 75.21 76.27 76.89 77.65 78.43 77.19 77.55 77.70 77.60 76.18 75.72 75.20 76.72 76.49 75.75 75.26 74.11 73.61
57.99 57.45 57.38 57.08 58.92 59.51 59.16 59.28 63.44 64.76 67.30 67.63 67.47 67.93 67.40 66.89 66.24 68.74 69.93 70.35 71.04 71.16 71.67 73.89 75.23 76.15 76.15 77.66 76.09 76.40 77.61 76.10 75.33 75.45 75.91 76.81 77.27 77.27 77.53 77.26 73.52 77.45 77.02 74.95 77.06 76.19 75.03 69.91 72.00
54.71 58.92 57.59 57.23 56.70 53.98 60.52 53.05 60.56 63.52 63.93 66.07 66.01 66.84 67.68 67.95 67.62 69.63 69.15 70.62 71.14 70.51 72.07 73.94 75.32 75.87 75.98 77.72 76.60 78.37 73.93 73.73 73.59 77.19 75.51 76.96 77.33 77.63 77.50 77.36 77.50 78.33 77.39 76.58 76.68 75.78 77.16 76.05 71.86
54.68 59.46 57.53 56.35 55.64 55.77 57.11 54.28 55.08 64.24 62.47 64.44 66.70 67.46 67.95 67.99 68.52 68.98 70.02 70.42 71.62 71.64 72.32 73.89 75.67 76.72 77.85 77.72 78.17 76.08 76.80 73.31 74.13 74.59 76.80 78.44 78.44 77.68 77.18 77.86 77.95 77.05 76.33 77.88 76.91 77.36 77.13 74.88 73.51
58.20 57.65 57.81 56.89 55.23 50.32 54.05 55.40 53.01 59.08 61.84 63.55 65.88 66.46 69.17 69.41 68.67 69.94 71.05 71.23 72.30 72.17 72.47 73.63 75.50 76.93 77.07 76.92 77.20 77.62 76.75 75.27 73.13 75.02 74.59 75.15 75.89 76.62 77.79 77.73 78.49 78.81 78.08 77.77 76.96 77.89 77.63 77.44 77.21
56.93 54.74 49.63 48.17 48.54 48.08 54.10 54.46 53.68 60.03 62.25 63.81 64.04 66.60 68.44 70.06 69.00 70.44 68.86 70.91 72.34 71.92 72.33 73.25 75.25 75.73 76.46 76.55 76.72 77.05 77.06 77.10 76.78 76.20 75.20 72.97 74.09 75.03 78.31 78.35 78.46 77.50 78.28 77.95 78.31 78.53 77.74 77.09 75.88
54.76 54.22 49.61 44.28 45.99 48.30 53.95 51.98 54.17 60.92 64.30 65.47 65.98 67.66 67.97 69.18 71.03 69.86 71.22 71.25 71.81 72.43 72.50 73.51 75.15 76.23 76.58 76.52 77.71 78.44 78.00 76.19 75.38 76.20 76.86 74.23 77.33 75.93 80.02 78.56 77.95 77.89 77.67 77.51 78.03 76.79 75.68 78.15 75.83
54.45 51.49 54.68 50.63 52.25 49.17 52.02 54.05 58.77 61.75 62.28 62.99 62.04 65.34 68.87 68.52 70.62 71.48 72.55 69.63 71.19 72.63 73.45 74.08 75.67 75.99 76.77 76.72 77.36 78.31 78.23 78.05 77.02 79.18 77.44 75.70 77.46 74.94 77.14 77.74 77.48 77.76 77.94 78.18 78.40 76.36 76.94 77.47 77.06
53.36 56.39 50.48 50.87 45.99 45.23 49.98 51.33 52.77 57.45 59.31 59.44 60.03 62.53 66.45 69.64 69.72 71.43 71.06 70.65 69.68 71.97 72.89 74.16 75.00 75.70 76.84 77.30 77.09 76.90 77.28 77.81 77.85 77.24 77.42 77.62 78.03 77.15 73.67 77.60 77.84 77.73 77.79 77.67 78.28 78.26 78.88 77.40 76.40
52.10 51.67 53.33 52.89 51.13 47.54 46.40 49.93 59.10 58.62 59.67 58.51 58.87 59.99 61.90 66.27 68.68 71.06 70.49 69.28 72.21 73.29 72.74 73.78 74.78 75.48 76.31 77.03 77.37 77.34 77.03 77.43 77.66 77.03 76.94 77.19 77.11 77.55 77.63 78.85 77.70 78.05 77.83 78.11 78.81 79.20 77.76 77.14 77.31
52.59 52.55 53.27 48.86 48.60 50.42 49.05 49.59 60.52 60.22 61.58 60.26 58.58 58.78 61.84 63.75 65.38 65.87 67.44 68.10 68.81 70.17 70.27 70.16 72.95 74.39 75.82 76.86 77.35 76.98 77.02 77.35 76.74 77.25 77.22 78.02 78.04 77.44 77.54 77.64 78.04 77.53 77.88 79.11 78.45 76.83 76.43 76.29 76.06

GFSSGP_sfc_wetblb_090.txt.gz
Wetbulb
73.23 72.79 72.56 69.21 61.00 60.84 57.92 59.81 64.20 61.90 62.51 65.08 66.86 66.13 64.95 65.75 63.36 59.33 72.03 72.94 73.47 73.70 74.74 75.49 77.16 76.84 76.62 77.12 76.78 77.10 77.21 76.27 76.30 75.98 75.93 75.75 76.81 76.44 77.26 77.74 77.36 77.36 77.45 77.46 77.10 77.15 76.74 77.01 76.87
73.20 72.20 71.61 68.08 58.88 55.32 56.98 62.55 61.56 64.35 65.24 66.43 67.74 66.91 64.99 63.04 68.36 69.46 70.38 73.03 73.86 73.45 73.54 74.68 77.39 77.17 76.46 77.08 77.38 77.47 76.96 76.89 76.75 76.90 76.56 76.24 76.26 75.97 76.93 77.07 77.03 77.09 77.56 77.28 77.25 77.52 77.39 76.89 76.63
74.54 73.40 65.65 62.85 60.06 57.22 58.12 63.55 63.96 64.48 65.60 66.42 66.87 67.67 65.89 64.74 69.01 70.02 72.77 73.38 73.10 73.85 74.73 75.52 77.79 77.57 76.79 76.77 76.52 77.01 76.99 76.79 76.48 76.68 76.74 76.54 77.01 76.27 76.22 76.33 77.05 77.01 77.48 77.44 76.70 76.95 76.56 76.75 76.25
71.37 70.03 67.36 60.05 57.95 62.44 62.18 64.31 64.95 64.85 66.36 67.76 67.14 63.60 67.29 70.25 69.79 72.18 73.43 73.14 73.30 74.76 75.64 77.14 77.63 77.15 76.89 76.86 76.75 76.46 76.62 76.58 76.59 76.66 76.78 76.76 76.50 76.67 76.64 76.72 76.91 76.56 76.75 76.75 76.81 76.78 76.64 75.64 75.19
71.01 68.32 60.76 58.54 59.96 62.61 65.09 65.99 66.37 64.64 66.02 66.49 65.54 63.07 64.42 70.12 72.13 73.11 72.96 73.82 73.55 73.95 75.06 75.95 77.92 77.46 76.64 76.68 77.03 76.87 76.86 76.72 76.47 76.91 76.87 76.55 76.58 76.56 76.67 76.61 76.87 76.92 76.70 76.11 76.72 76.41 76.69 76.09 75.34
65.74 67.86 58.56 57.03 59.61 63.75 66.07 67.09 66.23 65.72 66.96 65.87 63.79 63.47 65.11 70.86 70.85 72.40 72.81 73.40 74.13 73.82 74.43 75.22 77.16 77.47 77.30 76.94 76.69 76.64 76.78 76.61 76.83 76.92 76.27 76.55 77.10 76.45 76.42 76.59 76.62 76.70 76.75 76.61 76.45 76.76 76.86 76.05 75.42
64.64 64.22 59.69 61.02 61.05 62.70 64.87 67.74 65.31 66.04 65.93 64.76 66.57 62.11 66.35 68.87 71.07 72.36 73.27 73.70 72.89 74.40 74.60 75.36 75.88 77.05 77.14 77.24 76.76 76.61 76.59 76.42 76.51 76.74 76.43 76.91 77.05 76.33 76.25 77.39 76.53 76.61 76.25 76.53 76.97 76.69 76.67 76.09 75.38
67.07 66.34 61.29 61.60 61.13 60.84 66.49 67.11 66.98 66.00 64.39 70.44 68.73 62.20 63.33 68.71 71.27 72.21 72.30 72.34 72.92 73.47 74.31 74.81 75.04 75.24 75.37 75.64 76.97 76.90 76.45 76.48 76.32 76.63 76.22 75.93 76.23 76.22 76.42 77.16 76.74 76.00 76.41 76.92 76.78 76.39 76.18 75.60 75.17
70.01 63.21 59.78 61.25 61.58 62.75 66.41 64.08 66.84 68.20 66.38 67.91 69.63 66.61 68.38 70.11 71.31 71.16 70.41 71.28 72.40 73.00 73.69 74.06 74.52 75.24 76.59 76.31 76.20 76.54 76.71 76.57 76.55 76.29 75.78 75.62 75.27 74.89 75.36 77.27 76.81 76.36 76.47 76.84 76.44 73.27 74.50 75.20 75.28
66.17 62.87 61.63 65.34 65.97 65.39 65.51 64.78 65.77 65.56 65.64 66.09 65.59 67.93 69.19 69.74 70.13 69.62 68.35 70.03 70.49 71.73 72.89 74.57 75.37 75.32 75.39 74.52 76.45 74.81 75.12 75.29 74.95 74.93 73.96 76.35 75.82 74.86 74.69 76.25 76.78 76.39 77.37 76.59 73.96 71.65 70.10 73.66 74.12
65.29 62.15 64.83 65.44 67.47 68.47 65.97 65.06 66.90 65.31 63.94 64.68 63.86 65.99 67.75 68.33 68.95 69.59 68.55 69.85 69.55 71.58 73.21 72.80 75.96 75.71 75.15 75.15 76.29 74.96 75.49 74.30 75.20 75.55 77.34 76.49 73.52 73.82 74.48 75.78 75.86 75.00 76.26 74.15 74.42 71.83 70.94 70.86 72.61
63.29 66.78 66.47 66.38 68.14 66.86 65.37 66.60 65.07 65.25 65.57 68.79 67.25 67.48 67.62 67.39 67.94 68.90 69.45 69.49 71.43 71.52 72.12 73.07 75.22 73.52 75.73 73.32 73.81 74.62 74.57 74.66 72.93 75.15 72.50 77.17 76.80 74.89 71.60 73.89 72.06 70.44 72.28 69.95 73.24 73.99 73.97 74.98 73.81
63.99 65.49 66.65 67.85 67.27 67.44 67.34 65.08 64.50 65.76 68.15 69.68 67.93 67.71 67.18 67.35 67.93 69.35 70.24 70.27 71.59 71.62 72.08 72.32 75.60 76.92 77.34 77.59 76.66 74.92 73.11 74.57 74.74 75.67 77.15 74.45 76.87 74.32 71.93 73.26 70.96 73.00 72.74 72.26 73.95 73.20 73.92 75.16 73.51
63.88 65.13 65.41 66.70 66.79 67.71 65.41 64.42 66.15 66.49 69.25 68.13 67.18 66.82 67.21 67.29 67.73 69.15 69.49 69.89 71.47 71.94 71.35 74.47 74.42 76.97 74.70 78.98 77.65 73.48 73.54 74.93 75.22 74.72 75.66 77.65 77.43 77.65 76.31 76.02 71.48 72.47 72.49 74.18 70.39 74.32 71.71 75.61 74.56
65.39 63.39 64.35 64.09 67.05 65.91 66.45 62.22 63.30 67.43 68.21 67.36 66.34 66.70 66.69 67.25 68.12 68.00 69.63 70.40 71.52 72.32 73.35 74.13 73.72 74.76 75.86 78.65 79.12 78.95 74.71 75.43 74.75 75.48 76.76 76.52 77.34 73.81 71.24 75.42 74.59 72.71 74.30 74.88 72.67 74.22 74.36 75.65 75.03
63.41 62.78 58.27 62.74 66.68 66.45 65.36 58.63 64.62 67.27 66.52 65.77 65.56 66.23 66.33 66.95 67.37 69.19 70.31 70.63 72.18 73.05 73.55 74.62 72.80 73.55 76.10 77.87 79.14 77.40 75.84 75.50 76.82 76.16 77.52 77.97 79.21 78.72 77.88 75.17 73.83 78.00 76.06 75.74 74.08 75.44 73.92 71.12 74.52
60.84 56.24 58.34 60.47 66.36 65.79 64.68 59.81 64.26 66.55 65.68 64.99 65.17 65.52 65.72 66.68 67.78 69.23 69.76 70.94 71.64 73.98 73.82 74.80 74.10 73.96 76.01 78.12 79.08 75.08 76.48 75.56 76.56 74.76 76.20 77.87 78.55 77.98 74.74 73.95 74.98 78.77 76.45 71.69 75.10 70.73 74.53 74.30 72.70
54.98 56.97 58.48 58.87 61.30 62.47 62.08 61.96 64.03 65.87 65.19 64.54 64.99 65.03 65.52 66.10 67.00 68.84 69.14 70.31 71.89 73.76 74.71 76.08 73.96 75.83 77.97 77.08 77.57 76.23 77.23 74.85 77.59 76.38 73.63 79.87 78.29 76.56 74.11 75.53 77.14 74.09 75.63 74.19 74.01 75.95 71.77 74.29 71.29
58.41 57.84 58.17 58.95 64.25 63.24 61.91 61.35 62.60 64.97 64.43 64.09 64.34 64.92 65.59 66.19 68.65 69.07 69.13 69.70 71.42 73.17 74.00 75.54 75.22 76.56 76.05 75.63 74.19 75.93 73.74 77.54 77.86 72.80 74.34 78.16 78.89 76.51 74.16 76.00 77.79 74.42 72.97 75.78 77.62 76.52 75.92 74.55 73.91
57.30 56.14 57.08 58.28 60.22 58.93 61.71 60.64 63.79 64.68 64.00 64.17 64.49 65.02 65.75 65.96 67.20 68.36 68.92 68.98 70.04 72.51 73.91 75.46 75.95 76.69 77.37 76.13 77.31 76.78 75.26 77.62 76.69 76.30 78.37 79.10 78.24 78.82 75.47 73.20 74.93 76.06 73.98 78.04 77.57 76.42 72.76 74.95 70.91
54.98 55.41 57.89 57.18 58.85 58.42 58.21 58.04 60.97 63.75 66.12 66.11 66.37 66.66 66.95 66.55 66.27 67.96 69.47 69.58 70.07 71.81 73.25 74.73 76.31 76.18 77.06 78.55 76.72 71.75 72.41 71.63 72.67 76.90 76.91 77.41 78.11 78.73 78.57 76.55 72.90 76.12 76.99 75.68 77.77 76.59 74.16 71.41 74.60
51.94 58.39 58.45 57.13 53.68 53.14 61.08 52.77 59.43 62.30 62.69 64.81 65.88 65.90 66.28 67.40 67.45 69.14 69.43 69.08 69.57 71.24 73.03 75.11 76.64 75.92 75.95 78.63 78.67 75.93 71.97 71.03 74.73 76.56 74.19 77.01 78.52 78.73 78.52 78.22 74.88 76.72 74.29 73.25 77.23 76.73 71.90 72.51 73.35
54.15 59.46 58.14 57.99 55.47 54.39 55.17 55.21 54.90 53.69 61.01 62.88 65.41 66.48 66.25 66.82 68.18 68.88 69.75 70.56 70.50 71.73 71.99 74.67 76.03 76.68 76.05 77.28 78.38 76.51 75.59 72.87 71.90 73.71 74.56 77.35 78.23 78.94 78.13 78.69 77.66 75.88 76.06 73.70 75.45 77.33 77.91 76.56 73.50
58.23 56.47 57.91 57.33 55.23 49.64 53.68 53.32 54.79 53.26 55.63 63.19 65.73 66.67 67.39 68.44 67.75 69.37 70.47 70.01 70.20 70.34 71.58 74.13 75.53 76.46 77.79 76.99 77.14 76.30 75.23 71.55 73.85 75.41 76.26 75.55 76.61 77.30 78.82 78.31 78.98 78.81 74.01 75.68 75.60 78.28 78.40 77.85 77.28
55.60 53.63 49.61 47.81 47.60 46.85 55.08 52.95 55.51 56.61 58.22 58.67 65.52 66.82 68.26 69.14 69.22 68.50 68.90 70.01 70.76 68.93 71.80 73.90 75.22 75.69 76.42 76.74 76.75 77.01 76.06 76.61 72.46 73.84 71.55 73.63 72.05 75.09 77.12 79.43 79.96 77.66 77.68 77.65 78.61 79.50 77.65 78.26 76.84
53.58 54.25 49.60 44.02 45.13 47.63 53.75 51.46 53.61 57.45 63.14 65.06 66.94 67.16 65.62 65.18 69.91 69.37 69.54 71.32 71.83 71.14 71.32 73.30 74.95 75.54 76.20 76.70 77.16 78.41 78.42 77.20 75.64 76.30 75.78 73.09 75.01 74.63 77.85 77.59 78.86 79.66 78.75 78.71 78.79 78.08 77.37 77.66 77.37
53.08 51.30 55.76 51.10 51.65 48.54 51.97 55.11 58.58 62.15 61.85 63.29 64.26 66.36 67.18 66.49 69.34 71.01 70.93 71.49 72.15 71.30 70.61 72.97 74.90 75.82 76.33 76.39 77.47 77.96 78.18 77.73 76.46 78.27 79.05 78.46 76.88 73.44 74.86 76.23 78.14 79.21 78.09 78.23 78.80 77.55 77.61 77.62 77.82
54.39 55.99 50.06 51.67 45.29 44.35 49.76 51.59 53.35 58.34 58.67 60.43 61.36 61.83 64.53 66.75 68.49 69.30 69.18 70.83 72.06 72.84 71.12 74.44 75.04 75.78 76.84 76.71 76.98 77.45 77.82 78.42 78.68 79.21 76.13 79.88 76.24 72.71 73.28 73.19 73.37 77.95 78.59 77.92 77.75 77.24 76.92 77.07 77.53
52.10 51.18 52.71 52.60 50.70 46.26 46.10 49.42 59.55 59.52 59.72 59.43 60.73 62.31 63.26 63.72 65.06 66.63 67.86 68.60 70.66 69.83 68.13 68.73 71.42 75.31 76.59 77.15 77.41 77.11 77.17 77.73 78.49 78.24 79.37 79.20 80.20 74.58 72.72 67.57 68.23 75.61 77.99 78.52 78.57 76.73 75.11 76.22 76.36
53.98 52.87 52.93 48.40 48.90 50.93 49.22 48.71 59.01 60.73 60.73 60.70 60.08 61.34 62.95 62.29 62.32 64.42 65.75 67.16 67.44 66.38 68.75 69.83 70.46 71.25 74.84 76.75 77.50 77.38 77.44 77.66 77.47 77.73 78.21 79.22 78.95 79.47 77.17 73.85 75.15 76.85 78.54 77.21 76.74 77.36 76.56 75.84 76.14

GFSSGP_sfc_wetblb_096.txt.gz
Wetbulb
72.22 71.83 70.99 67.29 59.63 58.98 56.04 58.30 62.82 60.90 61.31 64.99 65.03 63.95 62.43 63.41 60.87 54.36 69.13 71.61 72.93 73.67 75.16 76.15 77.63 76.56 76.03 76.93 76.10 75.45 75.30 75.44 75.76 76.80 76.71 77.11 77.24 77.29 77.41 77.28 77.47 77.34 76.94 77.24 76.54 76.54 76.95 76.24 75.93
71.15 70.68 69.39 65.44 56.95 53.78 55.19 61.63 58.49 61.39 63.87 66.03 65.87 64.80 62.86 60.88 66.30 67.10 68.55 72.07 73.82 74.23 74.29 75.25 76.91 76.89 76.57 77.39 76.61 76.60 77.15 77.01 76.02 76.25 76.28 76.91 77.13 77.16 77.31 77.31 77.13 77.20 77.30 77.22 76.87 76.87 76.48 76.10 75.80
71.56 71.00 64.22 61.01 57.71 54.21 55.13 61.40 60.80 63.05 65.22 64.60 63.95 65.97 64.33 63.06 67.53 67.94 71.18 72.74 73.63 72.95 73.31 74.04 77.18 77.60 77.07 76.90 77.15 76.61 76.51 76.90 76.52 76.20 76.51 76.47 76.79 77.04 77.14 77.27 77.11 77.42 77.34 77.00 76.49 76.51 76.64 75.82 75.41
69.65 68.73 65.46 58.00 55.97 59.71 60.88 61.89 62.55 62.10 64.30 65.48 64.89 61.68 66.07 69.06 68.06 70.42 72.19 72.65 71.58 72.53 73.28 75.86 76.77 76.95 76.96 76.93 76.86 77.07 76.75 76.83 76.69 76.71 76.49 76.25 76.64 76.86 76.88 77.11 76.95 76.62 76.74 76.38 76.27 76.24 76.13 75.80 75.90
69.96 66.91 59.70 55.07 56.30 60.73 63.97 63.80 62.93 61.21 63.14 63.80 64.67 61.84 63.24 68.08 70.66 71.09 70.87 71.25 71.45 72.63 74.21 74.77 77.74 77.27 76.69 76.52 76.74 76.62 76.66 76.88 76.87 76.81 76.58 76.70 76.69 76.84 76.90 76.87 76.70 76.85 76.70 76.51 75.66 75.43 76.21 75.96 76.77
64.40 64.69 55.61 53.10 57.42 62.26 63.93 65.41 62.84 62.10 63.91 64.07 63.27 62.39 62.60 69.03 68.96 69.99 71.06 71.56 72.73 72.81 74.19 75.09 76.97 76.78 76.82 77.13 76.82 76.82 76.74 76.82 76.59 76.52 76.48 76.49 76.50 77.09 76.84 76.67 76.46 76.29 76.49 76.68 76.37 75.77 75.82 75.68 76.30
62.98 60.08 55.95 57.93 59.07 60.65 62.77 66.49 62.09 62.70 63.03 62.96 65.33 60.93 64.04 66.66 70.31 71.69 72.32 72.61 73.45 74.28 73.67 73.76 74.41 75.99 77.03 76.86 76.99 77.02 76.83 76.56 76.27 76.49 76.47 76.33 76.25 76.56 76.48 76.73 76.41 76.41 76.49 76.60 76.04 75.40 75.09 75.36 75.74
65.81 63.54 58.12 58.92 58.34 58.65 64.70 65.28 66.18 64.01 62.64 67.40 66.73 60.89 61.23 67.14 70.82 71.36 71.62 71.97 71.98 72.77 73.64 73.25 73.59 74.00 73.40 74.29 76.72 76.56 76.53 76.54 76.66 76.20 76.46 76.31 76.45 76.65 76.48 77.21 77.03 76.55 76.27 75.93 75.96 75.48 75.19 74.48 74.85
68.43 60.11 57.47 58.39 58.88 60.67 64.88 62.52 65.93 67.72 64.21 65.27 66.45 65.73 67.53 69.89 70.64 69.82 69.43 70.27 71.04 72.25 72.28 73.27 72.70 72.70 73.04 73.56 75.07 76.17 76.52 76.36 76.50 76.01 76.45 75.26 72.48 73.09 74.03 76.20 77.29 76.66 76.27 76.37 75.03 75.09 74.61 74.18 74.39
63.65 59.59 60.28 63.43 63.57 62.65 64.36 63.72 64.19 65.00 64.00 63.93 64.58 67.70 68.95 69.18 69.19 68.26 68.01 68.13 68.81 70.10 71.64 72.21 71.78 72.07 72.85 75.02 73.24 72.37 73.81 72.57 72.58 72.21 71.93 71.67 71.35 72.30 73.76 75.32 76.63 76.46 76.69 74.57 73.04 73.77 74.22 72.47 71.50
62.68 59.79 62.50 64.70 65.65 65.97 63.83 64.07 66.38 64.29 61.26 63.25 62.46 65.17 67.26 67.28 68.05 67.69 68.38 68.52 68.91 69.96 70.59 71.34 71.63 72.02 71.87 72.45 72.35 72.34 72.30 71.99 71.53 70.90 71.00 70.89 71.65 72.20 72.14 70.76 70.97 72.04 73.17 68.81 70.54 71.23 70.06 68.89 68.84
58.30 60.90 63.32 65.82 66.49 65.14 62.94 65.24 64.53 64.81 64.72 65.57 66.02 66.88 67.55 66.23 66.41 67.57 67.80 68.61 69.20 69.88 70.55 71.13 71.45 71.38 70.95 72.53 71.88 71.40 71.42 70.52 70.48 70.75 71.38 69.34 68.54 69.75 69.24 69.04 69.51 68.90 67.56 68.40 68.91 69.60 70.97 71.85 70.85
59.89 60.96 64.01 66.00 65.84 65.14 66.29 63.99 63.86 63.61 66.69 66.94 65.88 67.11 66.62 66.09 66.73 67.66 68.81 69.43 69.89 69.63 70.64 70.88 71.35 71.49 71.56 71.96 71.10 70.74 71.12 70.19 70.52 70.30 70.46 70.40 66.97 68.70 69.76 69.72 67.99 70.19 69.27 68.37 68.90 69.46 69.47 70.04 71.24
63.76 64.35 63.71 65.59 65.15 65.36 63.29 63.47 63.26 64.42 67.53 65.07 65.17 65.41 65.90 66.30 66.15 67.65 68.49 68.93 69.26 70.09 70.47 70.41 71.62 72.56 71.46 70.63 70.89 70.51 70.78 70.57 70.09 69.82 70.43 71.48 68.40 68.27 67.37 69.07 66.98 69.59 68.68 66.10 68.52 68.40 67.83 69.79 68.32
64.47 60.47 63.67 64.71 63.95 62.92 65.09 60.86 60.62 64.28 66.15 63.62 64.17 64.02 65.98 65.92 68.18 67.84 68.98 68.13 68.86 69.87 69.66 70.43 70.62 72.22 71.86 70.14 69.94 69.87 70.04 70.37 70.72 71.51 71.68 71.03 69.71 69.20 69.39 69.04 69.18 69.72 70.24 70.45 69.29 69.63 70.73 70.21 68.50
59.56 60.49 55.73 62.41 63.58 63.90 63.00 57.09 62.32 64.57 65.48 62.99 63.69 63.33 63.81 66.87 67.79 68.67 68.96 68.67 69.43 69.46 69.74 70.70 72.12 72.09 72.08 71.30 70.36 70.38 70.45 70.43 71.36 72.14 72.39 70.55 70.88 70.79 70.10 69.01 69.02 69.65 70.36 70.22 69.02 69.54 69.32 67.95 67.50
55.01 52.30 54.71 59.85 63.15 62.70 61.53 58.05 62.52 65.44 65.16 61.98 63.01 62.01 64.10 65.56 67.48 69.02 69.62 69.11 69.95 68.96 68.33 69.49 70.75 71.10 71.43 72.18 70.92 70.28 70.72 71.04 71.15 71.44 71.74 72.21 72.69 72.59 71.07 69.86 69.89 70.45 70.22 70.02 69.20 68.03 68.12 68.34 68.15
43.59 51.17 54.30 56.65 60.60 60.61 58.67 59.47 62.34 64.03 65.08 62.04 62.75 60.76 63.89 64.49 65.63 68.16 69.28 69.63 69.70 68.46 67.95 70.07 69.99 71.14 71.54 71.03 71.22 70.93 70.93 70.66 72.84 73.26 72.64 73.21 72.40 71.56 71.03 70.63 71.36 70.97 69.19 69.45 69.92 68.50 68.61 67.50 66.40
47.61 47.37 54.22 56.78 60.77 58.31 58.52 59.21 61.38 62.91 63.74 63.27 62.07 59.63 62.57 64.60 66.02 67.21 68.90 69.51 69.22 69.00 67.63 67.75 69.88 70.33 70.90 70.09 69.36 69.49 69.06 70.32 70.63 71.38 72.98 72.95 71.93 69.83 70.66 70.77 71.60 71.04 69.56 68.73 69.28 70.25 68.28 68.62 67.79
47.92 49.60 55.03 57.72 59.64 59.25 57.30 58.85 61.21 62.36 61.60 63.67 61.88 59.74 61.29 63.36 64.52 66.57 68.18 68.48 68.22 68.17 67.49 68.38 70.21 69.64 70.18 70.55 70.52 71.01 70.11 70.55 71.07 71.02 70.90 72.89 71.50 70.13 71.33 70.63 70.55 70.35 70.43 70.63 70.50 69.78 68.15 67.66 66.55
45.04 44.10 54.26 55.04 55.63 56.68 56.47 55.26 58.07 62.38 63.24 63.04 63.81 62.50 62.04 62.36 62.29 65.25 67.03 67.49 67.75 68.23 69.22 68.35 69.84 68.38 69.29 71.14 70.64 70.26 68.86 68.56 69.60 70.28 71.10 72.30 72.92 72.95 70.44 71.22 70.91 69.61 69.49 69.15 69.94 68.22 66.19 65.45 67.67
39.79 48.93 56.77 56.46 53.63 50.08 55.67 46.82 53.09 56.98 59.87 62.02 63.05 63.66 62.55 62.94 63.23 65.67 66.74 67.15 67.50 68.61 70.61 69.59 70.01 69.58 70.75 70.42 69.11 68.55 67.37 66.22 68.26 69.27 71.04 71.79 73.26 72.73 72.04 71.97 70.00 71.35 69.66 69.18 70.43 70.36 69.29 67.55 67.67
45.37 51.47 56.98 56.50 51.25 52.73 51.81 47.37 51.86 55.31 57.06 59.84 62.63 63.60 63.81 64.08 63.76 63.66 66.24 67.54 68.44 69.41 70.65 70.29 70.04 69.14 71.02 70.83 69.34 67.99 65.31 67.00 69.40 70.22 70.47 71.21 71.04 73.14 73.10 70.08 69.92 70.44 69.57 69.21 69.35 71.23 70.30 70.35 69.72
50.85 54.98 54.72 54.10 48.96 43.24 49.62 50.69 51.37 53.50 56.94 60.11 62.45 63.38 65.04 64.92 65.09 64.72 66.09 68.23 68.40 69.65 71.12 70.46 69.57 68.27 69.34 71.22 70.07 68.29 67.94 68.49 68.61 68.97 70.12 70.79 71.23 71.76 72.74 72.96 71.63 70.69 69.94 69.52 70.32 69.31 71.04 70.34 70.60
48.42 43.43 38.05 41.61 41.11 40.56 51.03 50.29 50.57 57.25 60.30 61.26 62.04 63.21 63.77 65.94 65.71 65.86 65.14 66.94 67.76 68.72 70.17 71.21 69.43 68.11 68.91 70.23 70.65 70.14 69.40 68.72 69.57 69.08 70.19 69.93 70.65 71.29 70.91 72.61 71.55 70.97 69.29 68.49 70.54 71.59 70.21 71.35 70.11
44.62 44.23 38.32 36.51 37.06 40.39 51.67 47.55 49.47 59.58 62.83 63.45 64.47 64.92 64.98 64.94 65.61 66.15 66.31 66.56 67.55 68.76 69.79 71.46 70.19 68.88 70.08 70.38 70.75 70.48 70.78 70.49 70.05 69.76 69.35 70.23 70.85 71.40 71.84 72.80 72.82 72.73 72.43 72.18 72.05 70.90 71.47 70.97 70.47
43.88 42.46 45.66 41.84 41.04 41.58 47.24 49.72 55.47 58.17 59.42 62.55 62.54 62.21 63.17 65.28 65.89 65.92 66.33 66.90 67.31 68.06 69.81 70.37 70.90 70.65 70.17 71.05 70.83 70.83 71.24 70.59 69.47 69.99 70.69 69.53 71.06 72.41 73.47 73.23 73.34 72.99 73.16 72.29 72.49 71.72 71.82 71.35 70.09
47.32 49.01 42.09 39.79 36.95 37.95 44.21 45.90 47.26 52.22 56.89 60.54 60.29 60.92 63.05 65.31 67.58 67.77 67.97 68.24 68.70 69.13 69.37 70.19 71.13 70.08 70.05 71.46 71.26 72.26 71.70 71.00 71.11 71.16 71.20 72.15 71.55 72.64 72.82 73.08 73.42 73.36 73.22 72.82 72.37 71.58 71.23 70.84 70.92
46.05 43.60 44.11 42.33 40.81 41.38 40.72 46.13 57.49 56.65 59.20 59.19 59.90 61.24 62.01 63.06 65.28 65.90 67.13 68.19 68.48 68.97 68.52 68.91 68.80 69.36 69.43 70.07 69.90 70.09 72.24 72.12 71.29 71.99 72.09 71.22 71.28 71.21 71.43 71.60 71.99 72.06 72.67 72.78 71.47 71.13 71.54 70.66 70.81
47.63 44.77 42.54 39.45 40.92 43.21 42.43 47.96 59.07 58.49 59.25 59.11 59.83 60.49 61.33 62.28 63.60 65.09 66.10 67.11 67.52 68.03 69.00 68.82 68.76 68.84 69.32 69.59 70.04 70.62 71.61 71.41 72.00 72.40 72.54 72.06 70.69 70.79 70.15 69.79 69.43 69.68 70.52 71.75 72.39 71.46 72.12 70.80 69.76

GFSSGP_sfc_wetblb_099.txt.gz
Wetbulb
72.56 71.58 70.77 66.96 58.73 58.57 55.49 57.71 62.69 59.09 58.03 62.77 62.76 62.23 61.07 62.54 59.96 51.89 68.35 70.43 72.63 73.26 74.48 74.51 76.70 76.62 76.02 75.76 75.23 75.34 75.51 76.21 76.52 76.88 76.58 76.96 76.82 76.86 77.05 76.98 76.81 76.88 77.20 76.24 76.66 76.05 76.35 76.27 76.35
70.90 70.59 68.92 64.90 56.81 52.93 54.63 60.38 58.66 60.55 62.71 63.75 64.68 63.88 62.44 60.93 66.17 66.62 67.71 72.16 73.35 73.89 74.27 74.84 76.82 76.19 76.86 75.88 75.66 75.69 75.42 75.22 76.25 76.30 76.69 77.00 76.90 76.97 76.75 77.04 77.13 76.94 77.32 76.62 76.46 76.19 76.11 76.11 75.94
70.35 70.56 63.91 60.92 57.39 53.43 54.73 60.45 61.12 63.49 64.80 64.19 63.00 65.55 64.03 63.27 66.80 67.57 70.32 72.97 73.77 72.89 73.56 73.72 76.12 76.77 76.84 76.73 76.59 76.60 76.51 75.97 76.00 76.07 76.48 76.95 76.89 76.84 76.88 77.08 77.22 77.07 76.90 76.73 76.29 75.88 75.72 75.47 75.36
69.10 67.74 64.89 57.31 55.51 59.23 60.09 60.69 62.28 61.96 63.88 65.40 64.17 61.16 65.57 68.50 67.70 69.86 72.50 73.27 71.73 72.27 72.37 76.51 77.20 76.79 76.89 76.72 76.35 76.37 76.55 76.48 76.32 76.40 76.41 76.54 76.60 76.80 77.12 77.10 76.85 76.52 76.33 76.55 76.46 75.88 75.49 75.16 75.41
69.31 66.48 59.09 56.75 56.46 59.61 62.56 63.09 62.80 61.09 62.92 63.39 64.01 60.78 62.27 68.11 70.93 71.39 71.91 71.91 71.43 71.36 72.96 74.49 77.23 76.88 76.60 76.96 76.41 76.61 76.65 76.31 76.49 76.19 76.06 76.41 76.58 76.90 77.02 76.77 76.93 76.52 76.27 76.05 75.94 75.77 75.41 75.57 76.22
64.35 63.59 55.23 53.45 55.89 61.51 62.78 63.48 63.12 62.87 63.17 63.26 62.48 61.68 62.18 69.33 69.33 70.35 71.16 70.85 72.67 72.70 73.28 74.32 76.84 76.65 76.52 76.67 76.49 76.64 76.29 76.09 76.25 76.07 75.92 75.92 76.74 76.87 76.81 76.87 76.80 76.58 76.41 75.71 75.93 75.87 75.61 76.58 76.73
62.79 58.77 55.95 56.76 57.77 59.04 61.62 64.79 62.32 62.37 61.89 61.80 64.62 60.06 63.69 66.76 68.99 69.59 70.60 71.59 72.77 73.46 73.40 73.41 73.94 75.31 76.09 76.60 76.22 76.38 76.32 76.22 76.38 76.13 76.16 76.38 76.56 76.68 76.32 76.27 76.47 77.08 76.83 76.14 75.69 75.47 75.64 75.33 76.10
65.84 62.66 57.48 56.79 57.23 57.91 64.15 64.63 65.92 63.72 61.99 66.12 65.82 59.93 60.75 65.70 69.37 71.09 71.00 71.25 72.15 72.73 73.01 72.58 72.51 73.31 73.54 74.11 76.32 76.32 76.21 76.03 75.97 76.08 76.23 76.39 76.62 76.48 76.44 76.71 77.28 76.44 75.97 75.94 75.72 75.19 75.24 75.35 75.83
68.09 59.60 56.21 57.65 58.96 59.42 64.26 62.37 66.28 67.39 63.29 64.38 66.13 64.65 66.34 69.40 70.89 70.17 69.88 70.01 70.67 71.92 71.32 71.59 72.08 72.05 72.75 73.33 74.56 75.68 76.25 75.89 76.06 75.64 76.02 75.11 71.76 72.57 73.89 75.85 76.58 76.25 76.49 75.48 75.26 75.02 75.38 75.05 75.10
61.71 58.41 59.14 62.43 62.64 61.77 63.70 63.28 64.45 63.31 62.39 62.55 63.81 67.08 69.01 69.33 68.97 68.00 67.98 68.08 69.18 69.90 71.25 71.61 71.61 71.70 72.51 74.61 72.76 71.92 73.08 72.00 72.44 72.29 71.17 71.00 71.76 71.74 73.79 75.17 76.55 76.38 75.09 74.37 73.68 75.13 73.73 71.83 70.72
62.77 59.38 61.71 62.60 63.88 65.21 63.62 63.24 66.34 62.05 60.71 62.55 62.63 65.36 67.37 67.70 67.74 67.73 67.81 68.57 68.93 70.02 71.40 70.94 71.21 71.76 72.17 72.43 71.93 71.91 71.20 71.02 70.63 70.62 70.66 70.55 71.56 71.84 71.01 70.76 72.05 72.11 72.08 68.40 70.80 70.52 70.36 69.26 68.34
59.44 61.09 63.56 64.53 65.55 64.86 62.89 65.18 64.74 63.46 64.05 65.95 66.30 66.97 67.09 66.78 66.98 67.21 67.09 67.85 68.80 69.56 69.93 70.76 71.41 71.08 70.39 72.06 71.64 71.22 70.96 70.30 69.81 69.60 70.01 69.79 69.61 69.11 69.00 69.14 69.74 67.94 66.73 67.74 68.22 69.37 70.40 70.27 71.32
59.31 61.59 64.41 65.93 65.94 64.99 65.52 63.67 63.64 62.68 66.34 67.07 66.85 66.56 66.31 66.70 67.01 68.13 68.52 68.78 68.94 68.95 69.73 70.29 70.87 70.65 70.44 71.19 70.77 70.33 70.56 69.75 69.83 70.67 69.75 68.56 68.52 68.49 68.59 68.46 67.38 69.16 68.41 67.02 68.05 68.57 68.73 69.05 69.04
62.74 63.20 62.57 65.34 64.78 64.99 62.53 63.20 63.76 64.74 67.20 65.43 65.80 65.12 65.95 66.23 66.99 67.25 67.99 68.04 68.63 69.36 69.64 70.30 70.77 70.81 70.79 70.56 70.24 69.85 70.29 69.89 69.54 69.36 69.87 68.29 67.51 68.32 67.67 67.52 64.98 68.48 67.76 65.36 67.47 67.67 67.86 69.60 67.36
64.73 60.00 62.15 64.12 63.87 62.79 63.95 59.93 60.82 64.57 65.31 64.14 64.49 65.23 65.46 65.81 66.86 67.03 68.04 68.19 69.14 69.16 69.92 69.59 70.79 71.02 70.63 70.17 70.02 69.68 69.96 69.79 68.62 69.68 69.92 69.87 67.75 67.86 66.75 68.08 68.08 68.75 69.31 69.44 68.93 69.05 69.66 68.46 67.63
60.02 60.05 55.73 62.62 63.22 63.78 62.70 55.94 61.10 64.63 64.08 62.40 63.83 64.41 65.33 64.70 66.40 67.98 68.86 68.68 69.08 68.67 68.97 69.96 72.44 71.55 70.31 70.05 69.87 69.37 69.31 69.39 70.21 70.75 70.49 70.09 68.85 70.05 68.88 68.21 68.10 69.17 69.13 69.36 69.00 68.00 68.64 67.17 66.49
51.88 49.61 55.07 58.40 63.05 62.25 60.54 56.64 61.58 64.44 64.61 61.66 62.74 63.41 63.97 65.63 67.17 67.84 68.44 68.48 68.85 68.97 69.04 68.96 70.72 70.62 70.41 69.96 69.55 69.17 69.46 70.25 70.56 70.90 70.40 70.87 70.78 71.71 69.71 68.82 68.92 69.36 69.22 68.75 69.47 68.09 67.52 67.13 67.09
43.03 49.72 55.84 56.29 60.75 61.42 58.61 58.54 60.44 62.63 63.25 61.55 61.81 62.08 63.36 65.36 65.87 67.71 68.35 69.38 69.41 68.76 68.48 69.35 69.79 70.52 71.08 70.17 69.41 69.78 69.04 70.09 70.46 71.79 71.22 71.99 71.80 71.75 70.15 69.56 70.23 70.56 69.02 68.27 69.03 67.32 67.57 67.32 65.70
47.30 48.04 54.56 57.36 61.35 58.48 58.23 58.88 59.38 61.99 62.91 60.90 60.44 61.27 63.52 64.10 67.61 68.28 68.30 69.70 68.00 67.52 67.99 68.66 69.18 69.71 69.90 69.33 68.71 68.53 68.10 70.04 71.29 71.50 72.24 71.83 71.22 70.69 69.99 69.93 70.28 70.08 68.58 68.42 69.18 69.74 67.14 67.28 66.95
47.52 52.23 54.29 57.30 59.03 58.97 58.76 57.98 60.72 61.76 61.95 61.91 61.22 60.67 62.06 64.14 65.55 67.20 67.21 68.20 67.51 66.65 67.22 67.81 69.26 69.67 69.20 69.47 69.21 69.37 69.49 69.85 69.67 70.25 70.74 72.01 71.07 68.84 70.33 69.57 69.69 69.88 69.47 69.54 69.44 69.03 66.86 66.05 65.84
44.27 44.11 54.47 54.70 57.08 57.71 57.05 55.22 58.82 61.85 63.29 63.89 63.09 61.22 63.38 63.32 63.85 66.02 66.05 67.03 67.47 66.31 66.64 68.10 68.81 69.25 69.41 70.11 69.86 68.80 68.62 68.89 69.38 69.73 69.86 71.51 71.12 71.00 71.26 70.25 70.09 69.54 69.07 68.51 69.31 67.41 65.41 65.03 66.96
38.56 48.18 54.92 55.46 50.99 47.54 54.50 47.01 53.35 57.86 59.08 61.51 62.39 60.54 62.31 63.27 64.75 66.19 65.86 65.95 67.02 66.94 67.99 68.67 68.86 67.56 69.67 70.01 69.15 68.30 67.44 66.29 68.08 68.88 69.90 71.05 72.13 72.06 70.79 71.29 70.42 69.76 68.96 68.40 69.58 69.46 68.86 67.37 66.68
44.27 50.78 56.01 54.92 51.39 48.67 49.62 47.37 51.18 54.49 54.61 58.53 60.98 62.56 60.77 62.82 65.10 65.30 65.95 66.24 67.58 68.17 68.11 69.36 68.17 68.07 69.07 69.50 68.80 67.72 66.64 67.05 67.72 69.29 69.66 70.17 70.84 71.78 72.17 71.40 68.98 70.47 69.18 68.30 69.00 70.39 69.47 69.78 68.88
50.89 53.67 52.52 50.56 48.47 42.80 47.66 48.14 49.97 51.81 55.13 58.84 62.31 63.27 62.70 62.62 64.66 66.47 67.06 66.93 67.20 69.12 68.68 69.20 68.23 68.43 69.14 69.03 68.70 67.41 65.99 66.64 67.67 67.92 69.13 69.38 70.20 70.73 72.12 70.48 69.35 69.91 68.91 68.66 69.58 69.09 70.09 69.26 69.79
45.34 46.81 42.07 39.74 41.28 40.55 47.84 47.93 48.57 56.12 58.45 60.98 61.56 62.67 63.23 63.33 63.91 64.44 65.74 66.40 66.62 68.19 68.71 68.65 68.07 67.32 69.31 69.92 69.15 68.23 67.57 68.22 67.91 68.07 69.27 69.18 69.38 70.53 70.87 71.64 70.80 70.04 69.77 69.06 69.27 70.59 69.84 70.06 69.31
42.03 44.39 39.50 35.91 36.86 40.06 49.25 44.36 49.54 58.30 60.96 62.71 63.40 64.08 65.15 64.23 65.51 64.62 65.31 66.86 67.34 67.83 69.48 69.07 68.52 67.01 68.02 69.30 69.36 69.50 69.06 68.23 68.98 68.97 69.69 69.83 69.92 70.69 71.15 71.54 71.64 71.17 70.16 69.63 70.80 70.57 70.63 69.95 69.33
42.55 40.59 44.16 40.73 38.42 41.00 45.09 47.70 55.11 59.70 60.64 61.50 61.69 63.25 63.59 64.54 65.70 66.08 66.13 66.89 67.13 67.69 69.63 69.90 69.05 67.55 68.17 68.49 69.53 69.35 69.69 69.86 69.13 69.33 69.32 69.85 70.24 71.28 71.66 71.79 71.90 72.12 71.98 71.32 71.14 70.44 70.36 70.77 69.62
45.07 47.18 40.65 38.17 33.63 34.46 42.12 43.12 46.10 55.09 58.45 59.28 59.22 60.64 62.75 65.14 66.29 66.98 66.62 66.17 67.22 67.50 68.52 70.63 70.80 69.59 68.66 69.40 69.46 69.64 69.75 70.74 70.11 69.37 69.37 70.17 70.04 70.58 71.89 71.98 72.16 72.36 72.35 72.03 71.05 70.78 70.34 69.74 69.49
45.32 41.80 40.37 40.10 39.58 36.44 38.10 44.25 54.66 53.68 58.17 58.16 59.85 61.28 62.31 63.41 65.63 66.64 67.70 67.76 67.61 68.98 68.87 68.76 69.32 68.93 69.64 70.35 69.72 69.89 70.75 70.22 69.94 70.46 70.92 71.51 71.08 71.27 71.38 71.84 72.02 72.27 72.14 72.16 71.27 70.76 70.56 70.05 69.36
44.55 43.67 41.73 37.75 37.73 40.84 42.56 45.71 59.00 58.93 58.93 59.08 58.95 60.83 61.71 63.17 64.38 65.17 66.86 67.74 67.52 67.85 68.08 68.06 68.21 68.71 68.89 68.82 69.63 70.38 70.77 70.77 70.61 70.34 70.76 71.92 71.15 70.78 71.14 70.87 70.54 70.97 71.42 71.74 71.59 70.59 71.28 70.73 69.98

GFSSGP_sfc_wetblb_102.txt.gz
Wetbulb
71.92 71.21 70.65 66.73 58.45 57.21 54.43 56.84 60.34 54.12 54.08 59.29 60.04 60.49 59.46 62.02 59.23 50.78 66.62 70.10 71.61 72.37 73.53 74.64 75.94 76.41 75.73 75.50 75.39 75.72 76.35 76.35 76.64 76.76 76.54 76.41 76.34 76.56 76.58 76.61 76.87 77.01 77.10 76.39 76.04 76.39 76.36 76.38 76.24
70.66 70.25 68.86 64.89 55.43 52.07 54.13 59.31 56.49 56.93 59.28 60.15 61.65 63.30 61.96 60.68 65.60 66.03 66.86 71.68 73.08 73.41 73.56 73.95 76.58 76.18 75.59 74.86 74.76 74.85 75.50 76.16 76.54 76.32 76.23 76.66 76.80 76.44 76.44 76.67 77.10 76.55 76.65 77.14 76.37 76.64 76.17 76.14 75.56
70.53 70.08 63.80 60.86 57.15 53.13 54.27 59.97 60.15 61.67 62.56 60.04 62.62 65.35 63.71 62.70 65.71 66.67 70.17 72.87 73.73 73.17 73.72 73.88 75.73 76.45 75.56 75.60 76.10 75.75 74.88 75.62 75.99 75.64 76.53 76.64 76.42 76.64 76.55 76.60 76.80 76.84 76.45 76.70 76.15 75.95 75.52 75.95 75.86
67.09 66.86 64.49 57.07 55.45 58.86 59.15 60.73 62.16 61.36 63.22 64.61 63.75 60.93 65.09 67.67 67.12 69.56 72.73 73.13 72.29 72.56 72.72 75.04 76.47 76.50 76.22 76.02 76.12 76.05 75.88 75.51 76.18 75.72 76.44 76.49 76.65 76.38 76.70 76.54 76.94 76.77 76.22 75.90 75.87 75.67 75.29 75.54 75.45
68.70 66.41 58.73 56.29 56.67 59.67 62.39 62.99 63.25 60.98 62.39 63.28 63.70 60.13 61.57 68.45 70.39 71.98 71.85 72.48 71.61 70.99 73.35 74.86 76.96 76.63 76.52 76.12 76.13 75.84 75.73 75.92 75.98 76.09 76.25 76.67 76.85 77.08 76.67 76.65 76.42 76.56 76.30 76.12 75.95 75.61 75.72 75.79 75.95
64.59 63.49 55.26 53.56 56.09 61.20 62.15 64.06 63.76 62.40 62.67 62.50 61.27 60.58 63.36 69.16 69.51 70.66 71.57 71.18 71.71 71.88 72.99 74.48 76.13 76.36 76.47 76.25 76.29 76.11 76.14 75.45 75.52 75.87 75.81 76.52 76.32 76.99 77.10 76.70 76.34 76.06 76.04 76.01 75.76 75.59 75.89 76.33 76.29
62.53 59.23 55.97 56.59 56.99 58.95 61.70 65.20 62.73 62.03 61.20 61.13 63.44 60.12 65.04 66.48 69.33 70.24 70.44 71.69 72.39 72.94 73.15 73.69 74.23 75.11 76.19 76.05 75.87 75.93 75.54 75.80 75.82 75.95 76.15 76.32 76.24 76.54 76.58 76.67 76.95 76.48 76.31 75.78 75.67 75.48 75.73 75.87 75.48
65.28 61.27 57.05 56.82 57.15 56.93 63.44 64.33 64.43 63.24 61.15 65.16 65.25 59.30 60.60 66.12 68.94 70.05 70.79 71.07 71.70 72.50 72.95 72.51 73.28 73.70 73.73 73.60 75.94 75.64 75.92 75.56 75.64 75.98 75.95 76.07 75.80 76.48 76.36 76.71 76.37 76.26 76.09 75.81 75.56 75.31 75.39 75.84 75.78
67.62 59.25 55.95 54.80 57.92 58.89 63.90 62.18 66.17 66.14 62.57 64.03 65.27 64.11 65.95 68.41 69.82 69.23 69.52 70.36 70.99 71.96 71.50 71.90 72.41 72.37 73.33 73.53 74.69 75.27 75.54 75.81 75.71 75.52 75.93 73.86 72.89 73.70 74.40 76.86 76.59 76.45 75.81 75.45 75.09 75.42 75.55 75.66 75.31
61.59 58.24 57.94 61.13 62.25 60.67 63.22 63.25 63.71 61.74 61.42 61.80 63.56 66.36 68.46 69.06 68.09 67.02 67.33 67.37 69.54 70.09 71.33 71.61 71.83 72.04 72.77 74.53 72.36 72.58 73.29 72.54 72.84 72.27 71.88 72.23 72.47 73.86 75.28 75.87 76.75 75.62 73.93 74.62 75.35 74.73 73.83 72.09 71.84
61.97 58.86 62.34 62.66 62.94 63.69 62.51 63.03 65.62 61.76 59.15 61.39 62.72 65.11 67.21 67.58 67.21 66.67 67.22 68.14 68.64 69.83 71.48 71.25 71.63 72.05 72.39 72.17 71.96 72.16 71.01 71.17 71.09 71.36 71.61 71.94 72.58 72.40 71.85 72.45 72.75 71.79 71.33 71.10 70.97 71.08 71.57 70.77 70.85
59.52 62.67 62.27 64.13 63.70 63.99 62.21 64.88 62.67 63.49 62.85 65.40 66.13 66.86 67.08 66.70 66.56 66.63 67.11 67.80 68.48 69.70 70.84 70.92 71.75 71.56 71.25 71.85 71.75 71.18 70.88 70.64 70.27 71.06 71.00 71.16 70.89 70.44 69.99 70.66 70.00 68.64 68.83 69.57 70.52 70.78 71.48 71.68 72.27
59.23 61.42 64.28 65.23 64.45 64.66 65.18 62.54 61.98 62.00 65.52 66.81 66.98 66.97 66.29 66.49 66.81 67.42 67.66 68.13 68.49 68.97 69.90 70.61 71.36 71.17 70.97 71.69 71.08 71.17 71.07 70.36 70.44 71.09 70.92 70.67 70.14 69.62 69.37 69.20 68.67 70.39 69.54 68.86 70.06 70.21 70.14 71.27 70.18
61.71 62.82 62.71 64.76 64.27 64.23 61.88 62.28 62.19 63.19 65.96 65.52 65.81 65.47 66.17 66.48 66.87 66.95 67.24 67.60 68.21 69.05 69.49 70.58 70.88 70.94 70.62 70.54 70.55 70.60 71.01 70.60 71.03 71.46 70.60 70.11 69.84 69.16 69.81 69.06 66.69 70.34 68.97 68.27 69.95 70.75 70.93 70.58 68.87
63.94 60.25 62.36 63.22 63.46 62.62 64.08 60.11 60.89 63.83 65.77 64.23 64.28 65.00 66.05 66.43 67.06 66.90 67.62 67.69 68.38 68.97 69.76 69.80 70.46 70.91 70.19 70.41 70.70 70.49 71.04 70.45 69.83 70.89 70.81 69.64 69.34 69.20 69.26 69.61 69.99 70.51 71.37 71.15 71.21 71.39 71.26 69.58 69.96
60.04 59.25 55.01 62.47 62.76 62.69 62.28 55.71 62.12 64.44 64.16 63.07 63.59 64.20 65.35 65.28 66.71 67.25 68.42 68.40 68.80 69.12 69.30 69.76 71.84 71.26 70.43 70.56 70.31 70.34 70.38 70.38 69.97 70.75 71.22 71.20 69.86 70.49 69.22 69.51 69.95 71.01 71.03 71.10 71.40 70.12 70.19 69.93 69.54
52.09 50.75 53.97 57.76 63.01 61.69 60.70 56.51 62.05 64.35 63.15 62.17 63.28 63.60 64.17 63.73 65.84 67.37 68.76 68.77 68.91 68.98 68.98 69.53 71.00 70.97 70.59 70.56 70.13 70.04 70.31 70.79 71.49 71.52 71.39 71.11 70.41 71.66 70.85 70.15 70.89 71.36 71.26 70.89 70.88 70.42 70.24 69.86 69.76
43.82 49.31 54.17 55.14 59.29 61.37 58.69 57.86 60.71 62.78 62.24 62.16 62.87 63.16 62.68 63.54 65.71 67.39 68.41 69.12 69.07 69.04 69.36 69.53 70.50 70.58 70.49 70.19 69.49 69.89 69.97 71.03 71.09 71.50 71.60 71.85 72.63 72.80 71.44 71.48 72.29 72.16 70.84 70.79 71.22 70.83 70.08 69.93 68.66
45.74 51.13 54.42 56.44 61.06 58.08 57.26 57.93 58.48 61.71 61.59 61.33 61.35 61.84 62.12 64.15 66.79 67.56 68.60 68.64 68.66 68.43 68.97 69.24 69.66 70.24 69.93 69.51 68.99 68.93 68.79 71.30 72.07 71.83 72.51 72.28 72.64 72.67 71.45 72.14 72.46 71.96 70.92 71.08 71.63 71.81 70.30 70.08 69.31
47.71 53.03 54.48 57.33 59.29 58.64 57.48 57.61 59.30 61.12 60.31 61.30 60.81 61.55 62.47 64.58 64.95 66.98 67.18 68.04 67.49 67.22 68.69 68.75 69.79 69.81 69.73 69.72 69.65 69.87 70.12 70.90 71.48 71.80 72.34 72.76 72.19 71.19 71.64 71.96 72.20 72.53 71.97 72.29 71.95 71.15 69.53 68.66 69.52
44.16 48.60 53.82 54.26 57.91 58.85 56.96 55.46 57.33 61.07 62.00 61.63 62.01 62.30 63.19 63.52 64.42 64.90 66.29 66.84 67.10 66.82 67.86 68.37 69.18 69.79 69.78 70.64 70.09 69.49 69.91 70.50 70.56 71.12 71.41 72.53 72.07 70.78 72.55 71.71 71.75 72.05 71.62 71.49 72.07 70.31 69.64 69.19 69.89
40.54 48.66 57.12 54.94 52.33 48.05 55.51 46.59 55.15 58.27 59.51 61.51 61.22 60.24 62.08 63.84 65.66 65.37 66.07 66.41 66.45 67.27 68.15 68.56 69.09 69.42 69.71 70.51 70.36 69.41 68.39 68.03 69.82 70.44 71.38 72.52 73.21 72.87 72.14 72.48 71.92 71.50 71.21 71.39 72.90 71.28 70.91 70.77 69.93
45.26 50.03 55.81 55.17 50.96 48.61 50.63 46.50 50.32 57.59 56.94 58.77 60.47 61.87 61.73 63.17 65.30 64.96 65.96 66.86 67.41 67.65 67.25 68.47 68.94 68.43 69.87 70.05 70.01 69.28 68.68 68.98 69.42 70.97 71.45 72.48 73.30 73.59 73.04 72.87 71.75 72.61 71.25 71.69 72.47 72.83 72.22 72.59 71.55
50.76 53.97 51.13 50.88 48.24 43.00 47.11 46.89 46.61 51.97 55.96 58.91 60.16 61.15 61.18 63.16 64.82 65.96 66.68 67.35 67.52 67.70 67.46 68.65 68.24 67.85 69.32 69.29 69.21 69.07 68.76 68.34 68.88 69.25 70.29 71.13 72.18 72.79 73.19 72.75 70.91 72.00 71.32 71.07 72.15 72.75 73.01 72.45 72.07
45.19 44.05 39.98 40.13 40.47 40.89 45.24 47.25 46.54 55.54 57.93 60.47 60.79 61.97 60.81 63.16 64.48 65.55 65.82 66.16 66.53 67.34 67.33 68.59 68.18 67.70 68.71 69.09 69.02 68.71 68.61 68.31 68.53 69.10 70.02 70.47 71.31 72.15 72.66 73.07 72.08 72.02 72.03 71.38 72.06 73.08 73.10 73.14 72.72
42.54 42.59 39.76 34.58 36.59 39.47 48.38 44.07 48.67 57.60 60.60 61.98 63.39 63.30 61.91 62.72 64.69 65.54 66.21 66.23 66.41 67.81 68.08 68.24 68.14 67.90 68.98 69.38 69.04 69.12 68.45 69.47 69.09 70.50 70.41 70.90 71.17 72.17 73.34 72.95 73.27 72.71 72.36 71.40 71.43 72.62 72.90 72.96 72.30
41.30 40.32 45.23 39.98 37.53 41.36 44.81 47.94 53.98 59.17 59.17 61.05 62.03 63.13 62.56 62.39 63.71 64.18 65.88 66.68 66.65 67.24 68.97 68.29 68.49 68.05 68.85 69.62 69.69 69.74 69.70 69.66 69.50 70.42 70.93 71.44 71.95 72.46 72.95 72.93 73.22 73.05 73.12 72.39 73.47 72.60 72.60 72.99 72.53
44.02 45.37 39.24 36.81 33.46 34.42 41.48 44.15 45.68 55.49 58.01 59.58 60.52 61.39 62.96 65.01 65.09 65.56 65.10 66.60 67.47 67.72 68.57 70.32 69.27 68.00 68.86 69.06 69.97 70.08 70.12 70.77 71.01 70.90 70.67 70.47 71.30 71.85 72.48 71.68 72.74 72.56 73.48 73.50 73.19 73.25 73.09 72.72 72.29
42.91 40.34 38.82 39.10 38.13 36.37 37.35 42.25 53.76 54.88 58.91 59.07 60.18 61.50 62.51 63.93 65.46 66.28 66.84 66.82 67.26 69.02 69.08 70.14 69.66 69.43 69.73 69.92 69.79 70.37 70.43 70.99 71.39 71.10 71.08 71.62 72.78 72.26 72.17 72.45 72.82 73.28 73.16 73.54 73.17 72.56 73.04 72.48 72.30
43.20 41.47 40.45 37.49 36.61 39.48 39.80 42.94 57.56 58.64 59.64 60.09 60.37 61.51 62.99 64.32 65.62 67.06 67.51 66.91 66.98 68.23 69.02 68.73 68.93 69.75 69.81 70.07 70.67 70.86 71.43 71.85 70.97 71.30 71.49 72.52 72.70 72.57 72.05 72.51 73.06 73.30 72.97 73.84 73.24 72.77 72.39 72.32 72.04

GFSSGP_sfc_wetblb_105.txt.gz
Wetbulb
72.87 72.47 72.45 68.06 61.24 61.29 56.89 58.29 60.76 55.57 55.57 60.52 60.87 60.13 60.39 63.41 60.39 55.36 69.73 72.04 72.79 73.32 75.33 75.53 76.56 76.20 75.76 75.70 76.03 76.34 76.37 76.42 76.67 76.55 76.77 76.83 76.83 76.82 76.78 76.84 76.78 76.54 76.39 76.48 76.56 76.55 76.46 76.29 76.25
72.33 70.86 70.80 65.73 59.00 55.03 56.02 60.86 56.45 57.30 59.56 61.60 64.81 64.23 63.34 62.05 66.11 66.44 68.70 72.64 73.48 74.24 75.41 75.52 76.49 76.09 75.30 75.17 75.28 75.73 75.99 75.57 76.63 76.61 76.72 76.69 76.79 76.83 76.72 76.42 76.80 76.81 76.86 76.23 76.76 76.35 76.12 75.35 74.93
71.50 71.07 65.17 63.24 59.00 54.62 55.96 60.99 58.31 60.02 62.08 61.98 64.10 66.60 65.04 62.53 66.13 67.85 71.61 73.26 74.01 74.72 75.34 76.21 76.33 75.88 75.33 75.47 75.67 75.00 75.73 76.23 76.08 76.40 76.63 76.75 76.36 76.23 76.55 76.73 76.65 76.53 76.84 76.62 76.28 75.86 76.25 76.14 75.59
69.96 69.69 66.79 59.01 55.63 59.13 59.88 62.51 61.09 61.11 61.67 65.86 65.64 62.40 65.96 68.48 67.89 70.10 73.21 73.69 73.98 74.64 75.27 75.15 76.48 76.54 76.57 75.96 75.61 75.85 75.19 75.96 75.48 76.37 76.39 76.43 76.15 76.29 76.70 76.96 76.72 76.36 76.23 76.06 75.98 75.65 75.98 75.70 75.70
71.85 68.42 60.65 56.53 56.65 60.66 62.72 63.74 63.09 60.61 61.97 64.53 65.09 60.67 62.28 69.03 72.15 72.57 73.14 73.48 73.62 73.67 73.33 75.99 76.99 76.62 76.56 76.11 76.03 75.80 75.82 75.55 76.13 76.55 76.49 76.01 76.51 76.56 76.47 76.95 76.69 76.37 76.45 76.35 76.04 75.98 75.87 76.31 76.32
66.14 65.33 56.50 53.61 56.65 60.65 62.74 65.13 64.09 63.78 64.47 62.94 62.63 62.11 63.93 70.11 70.97 72.18 73.13 73.53 73.54 73.36 75.46 76.05 76.64 76.49 76.11 76.18 75.96 75.83 75.69 75.84 76.29 76.19 76.38 76.36 77.36 76.67 77.50 76.54 76.68 76.54 76.04 75.96 76.18 76.21 76.34 76.41 76.18
63.06 59.42 56.56 56.83 57.21 58.77 62.00 65.96 63.77 63.48 63.40 62.51 64.50 60.78 65.12 67.84 71.13 72.67 73.21 73.78 72.85 75.36 75.36 76.18 75.84 76.37 76.30 75.99 76.08 75.82 75.68 75.98 76.12 75.71 76.59 76.47 76.41 76.36 76.98 77.15 76.60 76.26 75.92 76.00 76.01 76.15 75.82 76.01 75.63
66.29 62.84 57.81 57.61 56.89 57.60 63.78 64.45 64.90 63.79 62.43 66.50 66.32 60.78 61.40 68.23 71.49 72.65 72.87 71.76 73.21 74.09 75.16 75.87 76.34 76.16 75.97 76.04 75.81 76.09 75.87 76.14 75.97 76.17 76.35 76.26 76.40 76.42 76.19 76.23 76.97 76.40 76.00 76.03 75.73 75.62 75.57 75.84 75.39
68.21 59.66 55.71 55.83 57.66 58.88 64.04 62.28 65.71 66.31 63.92 64.72 66.12 65.26 67.31 70.19 71.30 71.08 70.02 70.51 71.77 73.66 74.56 75.60 75.56 75.82 76.19 76.23 75.87 76.19 76.01 76.07 76.16 76.19 75.84 75.97 76.61 76.31 75.48 76.19 76.89 76.32 76.12 75.51 75.57 75.70 75.67 75.67 75.48
63.01 60.35 57.97 60.71 61.90 60.89 63.68 63.07 63.08 63.32 63.27 63.52 64.60 67.31 68.89 69.89 69.69 68.10 67.00 68.40 69.84 72.32 73.22 74.82 75.28 75.00 75.50 75.19 76.36 76.38 76.15 76.11 76.17 75.79 76.17 75.99 76.09 76.88 76.23 76.23 75.86 74.52 75.26 75.73 75.40 74.67 73.75 73.65 75.91
61.93 59.37 62.56 62.29 63.26 63.59 63.02 63.50 64.41 62.82 61.31 63.71 63.02 65.35 67.67 68.45 68.35 66.40 67.43 68.04 69.75 72.45 73.24 74.35 74.73 75.50 75.23 75.59 75.43 75.06 75.15 75.39 75.40 75.66 75.43 76.26 76.22 76.17 76.65 75.84 73.69 73.62 74.33 73.97 73.70 74.86 75.57 73.77 75.08
60.22 63.33 63.26 63.30 64.08 62.99 62.12 64.12 62.78 63.96 63.03 66.25 66.58 67.38 67.84 67.01 65.70 66.11 66.69 68.81 70.65 71.68 73.21 74.02 74.54 75.03 75.69 75.74 74.84 74.12 73.87 74.13 74.15 75.11 75.76 75.59 74.52 74.82 75.07 74.00 73.47 72.92 73.60 74.34 75.35 75.57 75.53 75.79 75.82
60.97 61.92 63.99 64.93 64.30 65.14 64.00 62.34 62.26 63.08 66.06 67.84 67.83 67.40 66.71 66.94 67.68 68.61 68.92 70.49 71.33 70.97 72.53 73.47 74.62 75.28 75.26 74.82 74.37 74.11 74.07 74.12 74.42 75.09 75.31 74.90 74.00 73.74 73.72 73.38 73.43 73.51 73.40 74.58 75.08 74.98 75.10 75.09 74.70
61.85 63.26 63.18 65.12 63.99 65.03 61.49 61.42 61.96 63.36 66.93 66.41 66.41 66.28 67.45 68.39 69.22 69.14 69.24 69.81 70.69 71.41 72.17 73.65 74.02 75.00 75.11 74.76 75.38 74.90 74.84 74.57 75.18 75.49 74.93 75.01 74.27 74.07 73.34 72.11 73.04 72.53 73.95 74.54 75.53 75.83 75.35 73.69 74.42
63.98 60.24 63.05 63.89 63.99 62.93 62.98 58.65 60.09 64.83 66.39 65.78 66.18 67.11 67.82 68.64 69.23 68.78 69.72 70.09 71.12 71.99 72.89 73.14 73.66 74.46 74.37 74.62 75.03 75.17 75.03 74.70 74.73 75.20 74.93 74.46 74.82 73.91 74.20 73.61 73.76 74.46 75.79 76.04 76.37 76.34 74.83 74.11 74.42
60.81 60.74 56.72 62.51 63.26 62.82 62.42 55.90 61.80 64.34 65.29 64.85 65.61 66.87 67.60 68.48 69.12 70.11 70.61 70.89 71.87 72.39 72.97 73.74 73.41 73.89 73.43 74.55 75.04 75.14 75.72 75.08 74.26 74.39 74.94 73.90 74.16 74.15 73.93 74.02 73.94 75.00 76.05 76.50 75.76 74.89 73.64 74.04 74.28
58.15 53.81 55.66 58.90 63.14 61.76 60.80 57.97 60.85 63.94 64.40 64.17 65.53 66.02 67.24 68.07 69.40 70.48 71.27 71.67 71.91 72.93 73.49 73.55 74.37 74.21 74.26 75.01 74.79 74.68 74.88 75.15 75.38 75.04 74.97 75.26 74.71 75.61 75.14 74.49 74.94 75.84 75.33 75.88 75.36 75.02 75.39 74.80 74.08
53.12 53.35 56.46 54.80 60.17 61.89 60.25 59.57 61.46 61.99 62.07 64.51 65.09 65.99 66.97 67.26 68.57 70.48 71.36 72.14 72.57 72.95 73.70 74.13 74.38 75.30 75.36 74.64 74.73 74.44 74.58 75.86 76.06 75.65 75.38 75.31 74.84 76.08 75.68 75.49 76.07 76.57 75.06 75.32 75.75 75.35 75.26 75.11 74.11
55.86 54.16 55.49 59.13 60.78 59.33 58.69 60.08 60.17 60.83 62.40 63.31 63.78 64.67 66.32 66.94 69.71 70.86 71.48 72.07 72.35 72.85 73.19 73.66 74.19 75.29 74.47 73.59 73.03 73.05 72.71 74.43 75.11 76.21 75.70 75.69 76.29 75.93 75.66 76.32 76.40 76.00 75.25 75.65 76.23 75.87 74.82 73.63 74.54
58.13 57.12 55.88 57.62 58.98 59.10 57.58 57.88 61.60 62.18 62.29 63.85 63.95 65.21 65.85 66.23 68.09 69.63 70.75 71.61 71.73 72.35 73.30 73.97 74.59 75.18 74.83 74.35 74.18 73.96 74.10 74.06 76.37 76.45 76.42 76.32 76.07 75.75 75.68 76.72 76.27 76.62 75.59 76.59 76.34 75.29 73.85 74.29 74.70
50.82 52.97 55.62 56.05 58.14 59.27 56.46 55.46 57.55 61.14 61.94 63.14 63.34 65.90 66.63 66.78 67.32 68.75 68.80 70.70 71.64 71.91 72.78 73.59 74.66 74.95 74.89 75.27 74.59 74.34 74.54 74.82 74.79 75.20 75.40 76.12 75.87 74.92 75.72 75.93 76.49 76.93 76.74 75.03 75.90 75.58 74.90 73.01 74.35
48.94 52.39 58.61 55.53 54.18 50.98 56.35 47.05 55.36 58.80 59.27 61.27 62.54 63.01 65.66 67.00 68.26 69.32 69.74 70.25 71.01 71.92 73.21 73.85 74.65 75.07 74.86 75.33 74.72 74.82 73.30 74.48 76.64 77.24 75.36 75.50 76.04 75.35 75.37 75.90 76.09 76.57 76.14 76.15 76.62 76.55 75.97 76.04 73.56
49.19 53.56 58.10 57.64 55.00 54.10 53.51 49.81 54.06 58.75 57.72 59.37 60.83 64.03 64.99 66.76 67.94 68.64 69.53 70.19 71.47 72.26 72.43 73.20 74.26 75.03 74.90 75.15 75.63 74.36 73.82 74.32 75.78 74.76 75.87 75.63 77.32 76.45 75.70 75.87 76.11 75.98 75.55 76.42 77.20 76.57 76.89 76.02 74.70
57.94 57.19 56.90 56.37 54.33 47.86 53.26 52.25 50.97 55.94 59.02 61.13 62.06 63.02 65.08 66.13 67.71 68.24 70.08 70.38 70.80 72.23 72.09 72.72 73.34 74.04 74.99 74.56 74.99 75.09 74.74 74.02 73.16 73.85 74.34 76.59 75.65 77.20 76.50 76.46 76.01 76.49 76.09 75.68 76.34 77.41 76.42 76.31 75.89
54.42 52.84 47.23 45.86 46.31 44.44 51.35 52.05 54.64 58.48 60.52 62.52 62.49 63.76 64.68 66.07 67.37 68.37 68.96 69.64 70.22 70.37 71.30 71.89 72.81 73.08 74.12 74.18 74.41 74.71 74.76 75.04 74.60 74.24 73.76 74.34 74.32 75.13 76.83 77.25 75.89 75.01 76.40 75.90 76.37 76.72 77.14 76.93 76.15
51.06 52.07 47.37 41.19 42.98 45.83 52.05 49.37 54.66 59.39 62.17 63.53 65.13 65.60 65.59 65.74 66.78 68.15 69.12 69.62 69.52 70.34 70.94 71.48 72.15 72.81 73.72 73.88 74.26 74.58 74.71 74.04 73.68 74.20 73.96 74.44 75.29 76.64 76.87 77.42 77.32 76.20 76.01 75.71 75.83 75.96 76.34 76.65 76.71
47.56 45.67 52.12 48.41 49.64 48.33 51.00 52.94 57.01 60.46 61.73 62.54 63.40 64.76 63.79 63.95 66.43 67.71 69.13 69.67 69.59 68.67 70.96 71.43 71.48 72.38 73.26 73.08 73.99 74.26 74.25 74.17 74.32 74.88 75.17 74.95 75.93 75.41 76.54 76.90 76.85 76.85 76.67 76.00 75.90 75.65 76.11 76.76 76.79
50.39 51.93 45.82 48.54 43.35 42.74 48.60 50.00 51.95 57.26 58.71 61.63 62.88 63.58 64.24 65.53 66.33 66.79 67.14 69.35 70.15 69.73 70.94 71.25 72.20 71.70 72.15 73.41 74.04 74.23 74.64 74.65 74.92 75.03 74.92 75.08 75.59 76.32 75.97 76.27 76.64 76.69 76.89 76.97 76.72 77.02 77.07 76.66 76.18
48.26 47.94 48.43 50.34 48.31 45.65 45.31 49.64 57.44 58.83 60.61 61.63 63.21 64.54 64.80 64.80 66.12 67.06 68.29 69.73 69.59 70.20 71.25 72.03 72.69 72.63 70.43 72.86 74.16 74.55 74.56 74.86 75.28 75.05 75.23 75.38 75.65 75.72 75.53 75.79 75.64 76.05 76.42 76.88 76.91 76.69 76.81 76.31 76.34
50.96 49.97 50.74 45.76 45.92 49.59 49.54 50.48 60.36 60.60 62.12 61.61 62.48 64.42 66.29 66.84 67.18 68.49 68.65 68.73 69.33 68.65 69.77 71.17 71.76 71.82 72.80 72.67 73.63 73.58 74.37 74.66 74.44 74.62 75.29 75.57 75.32 76.17 76.08 76.19 76.34 76.62 76.43 76.75 76.84 76.02 75.98 75.91 75.54

GFSSGP_sfc_wetblb_108.txt.gz
Wetbulb
73.55 73.76 75.44 71.88 63.83 63.18 58.50 59.60 61.80 58.97 59.30 62.12 62.98 61.35 63.49 65.77 62.35 58.83 70.68 72.33 73.43 74.50 75.67 76.30 76.41 76.32 76.25 76.77 76.74 76.52 76.77 76.92 76.92 77.11 77.18 77.04 77.17 77.10 76.99 76.70 76.86 76.69 76.23 76.64 76.71 76.48 76.45 76.41 76.23
72.63 73.01 73.49 69.32 61.89 57.23 58.00 62.11 58.66 60.34 62.09 63.37 64.85 64.93 64.92 63.55 66.88 67.72 69.68 72.41 74.03 75.04 75.62 76.12 76.85 75.85 75.64 75.80 76.28 76.27 75.99 76.81 76.93 76.60 76.71 76.68 76.63 76.82 76.89 76.88 76.90 76.76 76.67 76.50 76.54 75.73 75.40 75.32 75.26
73.18 73.47 69.34 65.66 63.98 57.07 58.15 60.98 60.48 61.83 63.03 66.56 65.49 68.20 66.95 64.11 67.51 68.58 71.92 73.46 74.78 75.42 76.47 76.74 76.27 75.51 75.16 75.27 75.14 75.87 76.35 76.40 76.34 76.96 77.06 76.14 76.50 77.03 77.01 76.80 76.98 76.97 77.06 76.92 76.18 75.91 76.57 75.81 75.87
72.75 72.61 69.92 62.47 58.59 60.52 62.16 61.59 62.69 62.05 66.06 67.97 67.59 64.56 67.74 69.19 68.77 71.21 73.45 74.18 75.25 75.77 76.54 76.78 76.33 76.25 76.31 75.85 75.78 75.67 75.94 75.59 76.75 76.61 76.85 76.31 76.33 75.87 77.10 77.09 76.68 76.42 76.28 76.12 76.15 76.40 76.15 76.67 76.12
74.56 71.02 64.27 59.08 60.31 61.80 65.37 63.65 64.17 62.09 65.37 66.87 67.29 64.24 64.53 69.66 72.31 73.11 73.88 74.55 74.63 74.10 74.31 76.76 76.63 76.36 76.61 76.25 76.34 75.78 75.53 75.89 76.64 76.78 76.38 76.72 76.64 75.98 77.00 76.84 76.40 76.56 76.65 76.54 76.48 76.54 76.75 76.49 75.97
69.23 68.10 61.08 54.40 57.73 62.55 65.46 65.12 64.58 63.57 66.37 66.38 65.66 64.25 65.41 71.57 71.76 73.37 74.38 74.66 72.93 71.98 74.47 75.98 76.07 76.32 76.23 76.19 76.25 76.12 76.46 76.18 76.41 76.72 76.36 76.83 77.28 76.95 77.20 76.70 76.73 76.68 76.54 76.68 76.71 76.64 76.55 76.30 75.39
63.37 62.97 58.03 57.44 57.67 61.46 63.69 66.99 64.85 65.78 65.75 64.67 67.13 62.54 66.87 70.24 72.79 73.82 74.50 73.32 73.78 74.98 75.08 75.26 76.28 76.81 76.55 76.25 76.13 76.13 76.43 76.06 76.29 76.43 76.55 76.34 76.59 76.90 76.96 77.01 76.65 76.45 76.42 76.46 76.40 76.01 75.89 75.67 75.15
68.04 62.92 59.66 59.71 57.11 59.22 65.61 66.33 67.85 66.79 65.55 68.77 68.30 62.41 64.47 70.57 73.04 73.82 73.01 72.50 73.83 74.43 75.57 75.45 75.76 76.50 76.64 76.35 76.35 76.32 76.21 76.16 76.14 76.92 76.73 76.20 75.87 76.45 76.62 77.00 77.32 76.59 76.45 75.95 76.06 75.93 75.87 75.86 75.01
69.67 61.18 59.22 59.18 58.19 60.78 66.31 64.96 67.49 68.50 66.05 66.67 67.27 67.01 69.68 71.72 72.78 71.42 70.45 71.59 72.59 73.56 74.70 75.07 75.43 76.42 76.80 76.81 76.73 76.46 76.40 76.32 76.36 76.37 76.39 76.76 75.03 76.07 76.80 77.32 76.85 76.62 76.03 75.92 76.04 75.98 75.87 75.76 75.55
64.76 63.01 59.66 62.69 62.32 62.33 65.43 65.17 65.64 65.58 65.51 65.36 65.90 68.95 70.63 71.21 70.77 68.89 68.60 69.49 71.10 72.16 73.58 75.18 75.35 75.89 75.59 75.02 76.63 76.50 76.09 76.15 76.08 76.24 76.85 76.24 76.69 76.56 76.63 76.48 75.24 75.62 75.76 75.95 75.51 74.64 73.95 75.72 75.16
64.76 60.81 64.12 62.87 63.61 64.62 65.14 64.89 66.42 65.55 63.88 65.79 65.37 67.44 69.27 69.64 69.56 67.93 68.95 70.03 71.34 72.90 73.79 74.90 75.26 75.63 75.05 75.36 75.05 74.79 75.10 75.52 76.21 76.84 76.69 76.36 75.61 75.57 75.17 74.31 74.08 75.43 75.88 75.32 76.23 76.05 76.12 75.20 74.91
62.47 64.31 64.89 64.24 64.13 64.19 63.98 66.04 65.31 65.27 65.80 68.23 68.41 68.84 68.92 68.70 68.09 67.67 68.71 69.60 71.47 72.45 73.29 73.92 74.97 75.40 75.62 75.04 73.92 74.07 74.36 74.73 74.97 75.98 76.62 75.81 75.08 75.20 74.54 73.85 74.08 74.84 75.77 76.42 77.05 75.95 77.01 77.29 76.28
62.52 63.06 65.25 64.21 63.97 64.53 64.25 63.92 63.86 64.98 67.72 68.67 68.60 68.50 68.29 68.35 68.02 68.97 69.73 71.34 72.15 71.87 73.09 73.79 74.83 75.39 75.88 75.73 74.31 74.25 74.30 74.80 74.93 75.23 75.97 75.19 74.90 74.83 74.60 75.08 75.05 75.53 76.74 76.36 77.21 76.57 76.31 75.75 75.47
63.34 64.29 64.84 63.46 63.35 64.40 62.73 62.16 62.48 65.10 67.72 67.29 67.44 67.59 67.79 67.72 68.81 69.35 70.15 70.79 71.20 72.46 72.92 73.70 74.68 75.95 75.83 75.57 75.66 74.83 74.94 75.26 75.36 74.86 75.96 76.38 75.45 75.15 74.44 74.18 74.25 74.78 76.97 76.81 77.02 76.56 75.11 74.86 74.63
63.57 61.94 64.36 64.30 64.42 63.34 62.71 58.98 59.19 65.18 67.34 66.22 66.57 67.54 68.25 69.46 70.59 69.97 70.93 71.09 71.80 72.96 73.33 73.66 74.93 75.83 75.82 75.89 75.83 75.15 74.96 75.15 74.91 75.12 76.54 76.77 75.87 76.41 75.89 74.92 74.67 75.64 77.35 77.90 77.81 76.24 76.29 74.15 74.00
61.96 62.58 58.40 62.01 63.19 63.76 62.98 56.00 61.51 65.42 65.94 65.30 66.14 66.72 68.31 69.60 70.11 70.63 71.10 71.41 73.02 73.38 72.97 74.10 74.11 74.93 75.51 75.98 76.39 76.51 75.49 74.99 74.74 75.02 75.75 76.26 76.24 76.16 76.36 74.75 75.12 76.63 77.58 77.52 76.49 75.52 73.90 74.49 74.75
60.64 54.03 57.26 58.56 62.96 61.96 60.68 57.10 61.29 65.60 65.78 65.57 66.19 66.58 68.38 69.24 70.39 71.17 71.35 72.19 73.18 73.98 73.72 74.01 74.63 74.56 75.27 76.57 76.32 76.33 76.90 75.64 75.58 76.00 76.20 77.22 76.87 77.16 76.21 75.50 76.21 77.70 76.80 76.69 75.96 75.25 76.16 74.39 74.93
56.50 56.29 57.17 57.09 61.27 61.32 59.33 58.95 60.99 62.92 65.50 65.64 66.62 66.92 68.27 68.84 69.79 71.74 71.62 72.58 73.88 74.43 74.88 75.20 75.12 75.67 76.10 76.11 76.52 75.82 75.49 76.05 76.54 75.97 76.20 77.32 77.08 77.62 76.79 76.34 77.13 77.22 76.08 75.40 75.61 76.68 76.06 75.75 74.76
59.66 58.76 56.19 59.40 62.59 59.57 59.08 58.94 60.16 61.96 64.87 65.19 66.03 66.79 67.38 68.22 70.69 72.16 72.46 72.64 73.42 74.50 74.94 75.32 75.17 76.11 75.73 74.94 73.92 73.77 73.62 74.68 75.58 76.05 77.06 77.27 77.83 77.86 77.79 76.34 77.45 77.21 76.28 76.98 77.94 76.42 75.75 73.74 75.87
58.05 57.51 57.99 59.54 61.15 59.36 57.43 58.56 58.75 60.59 62.16 65.77 65.95 66.34 67.11 67.55 69.51 71.29 72.25 72.71 72.80 73.66 74.48 75.22 75.52 76.57 77.28 75.34 75.34 74.85 75.11 75.07 75.34 76.28 76.55 77.12 77.63 77.83 77.45 77.72 76.86 77.41 75.60 75.56 77.44 77.12 74.20 74.98 76.32
58.42 57.33 58.42 57.46 58.62 58.46 56.40 54.76 58.54 59.88 62.18 65.38 66.58 67.47 68.07 68.37 68.81 70.28 71.58 72.58 72.83 73.37 74.51 75.29 75.89 75.89 76.65 76.81 76.35 75.76 78.06 77.54 77.04 76.76 75.05 76.08 77.13 77.12 77.45 76.93 77.53 76.77 77.38 74.94 77.16 76.83 76.42 72.79 75.79
53.33 57.51 59.93 58.62 57.29 51.07 56.79 49.87 55.81 57.97 58.72 63.31 65.18 66.67 67.67 68.06 69.75 70.65 71.31 72.02 72.82 73.45 74.97 75.98 76.26 76.31 76.07 77.45 76.20 76.18 74.56 74.28 73.57 74.39 75.45 76.47 77.44 76.58 76.83 77.47 77.43 78.18 77.77 77.31 76.91 77.01 77.19 77.57 73.93
52.85 54.66 57.61 58.94 56.53 56.21 55.02 51.94 53.03 58.84 57.40 59.54 62.33 65.59 67.57 68.88 69.14 70.05 71.44 72.13 73.17 73.86 74.34 75.63 76.52 76.75 76.65 77.38 77.26 76.40 74.47 73.64 74.39 74.68 76.26 77.08 77.12 76.97 76.83 77.53 77.75 77.73 76.74 77.84 78.17 78.39 78.00 77.14 75.72
56.05 55.31 56.32 57.68 55.84 50.23 55.38 54.59 51.49 56.23 60.76 61.01 62.94 65.83 67.03 68.33 69.41 70.36 71.86 72.67 72.98 73.91 74.31 75.09 76.13 76.54 76.65 76.87 76.22 76.04 75.14 74.82 75.87 74.48 76.54 74.52 75.22 76.23 77.27 77.54 77.92 78.34 77.79 77.47 77.13 78.78 77.61 77.78 77.34
54.97 54.56 48.30 45.86 47.58 48.02 55.87 53.99 55.24 59.76 62.16 64.83 63.46 64.36 66.64 68.14 69.04 69.93 70.77 71.54 72.68 73.39 73.97 74.39 75.52 75.84 76.35 76.03 75.95 75.93 75.63 75.62 75.35 75.44 74.54 75.63 74.71 75.80 76.54 77.33 77.41 76.94 78.12 77.71 77.70 78.22 78.06 77.44 77.65
53.41 53.83 49.30 43.09 44.77 49.29 54.42 51.76 56.24 61.49 64.50 66.13 67.41 66.83 67.12 68.23 68.75 69.11 70.99 71.97 71.49 73.27 73.97 74.29 74.88 75.37 75.98 76.05 76.06 76.70 76.76 74.66 76.91 75.94 75.63 74.84 77.18 75.29 77.28 77.00 76.71 77.08 78.05 77.66 77.92 76.69 76.41 77.12 76.63
52.99 51.18 56.32 52.04 53.41 49.28 51.29 55.17 59.98 61.35 62.85 64.72 66.13 67.12 66.96 67.50 68.49 68.95 70.81 72.05 72.75 73.20 74.11 74.35 74.77 75.40 75.48 75.44 76.25 76.27 76.36 75.52 77.47 75.72 78.18 76.10 77.13 76.70 77.06 77.03 76.94 77.32 77.03 77.76 77.95 76.02 76.39 77.43 77.22
53.15 55.80 50.77 51.78 46.12 45.54 51.29 51.88 53.61 59.00 60.37 63.72 64.56 66.00 67.43 67.04 67.75 69.12 70.39 71.98 73.06 73.62 73.83 74.48 75.07 75.10 75.35 75.25 75.67 75.13 75.54 76.39 76.30 76.29 75.48 76.80 77.81 77.97 77.11 76.71 76.87 77.40 77.94 78.12 77.63 76.55 76.90 76.73 76.06
50.37 50.17 51.58 52.05 51.39 47.54 47.24 50.72 60.56 60.96 62.62 63.71 64.83 66.56 67.89 68.10 67.52 67.96 70.41 72.10 72.78 73.26 71.64 72.07 74.78 74.97 74.49 75.27 75.50 75.38 75.37 75.07 76.53 76.42 75.83 76.67 77.14 78.27 76.79 77.00 76.97 76.51 76.82 77.70 77.93 77.20 76.40 76.31 76.69
53.10 51.01 51.62 47.15 47.86 51.27 50.99 51.77 62.78 62.70 64.60 65.40 66.39 67.48 68.85 69.01 68.83 69.22 68.19 69.37 70.05 72.06 72.99 71.69 72.89 73.44 74.91 75.03 75.01 75.67 75.38 75.26 74.67 75.40 75.50 76.38 75.93 77.63 77.23 77.01 77.39 76.74 76.80 77.54 76.93 76.41 76.40 76.17 75.86

GFSSGP_sfc_wetblb_111.txt.gz
Wetbulb
73.67 73.81 74.82 72.24 63.05 63.40 58.04 59.03 62.69 60.31 60.88 64.10 64.09 64.24 64.78 65.94 62.30 59.09 71.28 73.43 74.35 74.49 75.62 76.51 76.86 76.88 77.04 77.02 76.43 76.83 76.96 77.13 77.29 77.10 77.11 77.10 77.16 76.98 76.81 76.85 76.53 76.82 76.57 76.64 76.57 76.32 76.50 76.80 76.36
74.52 73.51 73.61 68.92 60.76 56.86 56.96 61.63 59.71 61.78 62.91 64.56 65.76 66.10 65.08 63.05 67.20 68.26 70.01 73.71 74.37 74.46 75.41 76.30 76.68 75.79 76.17 76.70 76.50 76.38 76.85 77.00 76.84 76.94 76.97 76.80 77.15 77.12 76.62 76.75 76.78 76.91 76.92 76.60 75.76 75.60 75.32 76.07 76.14
73.72 74.44 69.51 65.58 60.80 57.32 56.94 61.56 62.18 62.64 64.62 65.98 65.37 69.02 66.29 64.31 67.74 68.74 72.23 73.76 73.56 74.71 75.52 76.22 75.75 75.31 75.09 75.56 76.10 76.36 76.41 76.35 76.75 76.89 76.23 76.50 77.41 76.53 77.24 76.81 76.72 76.93 76.54 76.36 76.19 76.40 76.10 75.76 76.20
71.92 72.26 70.87 62.91 59.33 62.09 61.01 62.40 63.14 63.19 67.26 68.33 68.26 64.66 67.07 70.26 69.21 70.71 72.84 73.76 73.18 74.71 74.82 76.16 75.77 76.63 76.13 75.54 75.84 76.09 75.79 76.76 76.68 76.80 76.34 76.44 77.11 77.14 76.57 76.46 76.18 76.10 76.29 76.48 76.49 76.56 76.54 75.93 75.84
72.44 71.36 64.08 60.42 60.22 62.26 63.41 64.19 64.59 65.58 66.54 66.75 67.72 63.10 64.70 69.76 71.46 72.45 73.85 73.47 73.83 73.84 75.33 76.37 76.57 76.50 76.22 76.51 75.62 75.71 75.98 76.99 76.76 76.80 76.92 76.89 77.25 77.11 76.56 75.36 76.56 76.88 76.71 76.65 76.95 76.98 76.59 75.68 75.51
69.43 68.08 60.20 57.27 58.46 63.41 63.69 65.26 64.82 66.25 67.61 67.55 66.25 64.80 66.28 70.93 71.14 72.86 73.05 74.28 72.04 72.68 74.75 75.61 76.28 76.23 76.32 76.24 76.33 76.30 76.50 76.80 76.89 76.89 77.35 76.48 76.52 77.19 76.87 76.82 76.82 76.76 77.04 76.88 76.85 76.40 75.87 75.29 75.36
66.45 64.90 60.04 57.93 58.01 61.49 62.77 66.57 64.28 65.78 66.32 66.08 67.40 63.81 66.91 69.35 72.50 73.62 73.42 71.49 71.86 74.40 73.56 74.88 76.11 76.72 76.58 76.19 76.30 76.55 76.32 76.68 76.57 76.86 76.61 77.79 77.73 77.29 77.10 76.74 76.87 76.73 76.68 76.43 76.35 75.96 75.62 75.18 75.28
69.74 66.81 60.54 61.09 58.61 59.29 65.24 65.87 67.05 66.39 64.74 69.85 68.25 63.40 64.70 70.42 72.84 73.57 71.51 72.93 74.50 73.66 74.86 73.89 75.74 76.20 75.91 76.34 76.36 76.22 76.20 76.48 76.12 76.32 76.43 77.14 77.23 77.18 76.59 77.25 77.60 76.51 76.23 76.20 75.95 75.98 75.87 75.29 75.24
69.74 63.46 60.86 59.93 60.86 61.57 66.27 66.03 69.38 69.49 67.56 68.09 68.31 68.10 70.30 71.93 72.53 71.02 70.71 71.63 73.01 72.71 73.09 74.63 74.03 75.25 76.10 75.07 76.29 76.21 76.04 76.65 77.03 76.15 76.59 77.10 75.72 76.07 76.95 76.95 76.90 76.17 75.95 76.15 76.12 75.96 75.93 75.73 76.15
65.12 61.86 60.21 64.89 64.19 63.05 65.88 66.47 67.69 67.11 66.12 66.33 66.98 70.02 70.70 71.52 70.73 69.21 69.49 69.71 71.38 71.03 72.98 74.14 74.49 74.98 74.89 74.55 76.47 76.21 75.01 74.80 74.64 75.42 74.96 77.24 76.33 76.87 75.63 76.76 76.12 75.95 76.10 76.12 75.76 75.34 76.26 76.79 76.13
64.64 62.26 64.03 64.76 64.70 66.50 65.64 66.82 68.54 66.37 63.40 66.42 66.22 68.06 69.65 69.76 69.48 68.58 69.57 70.30 71.04 72.19 72.05 74.26 74.33 75.79 73.59 74.47 74.38 75.23 75.06 74.94 74.91 76.57 75.15 76.31 75.37 75.23 73.38 74.06 75.30 75.88 76.38 74.44 74.79 75.45 75.12 74.72 72.98
63.00 65.25 65.86 65.45 65.45 65.69 64.72 67.16 66.02 66.24 66.65 68.86 69.47 69.62 69.53 68.59 67.84 68.20 69.28 70.20 70.99 71.83 72.17 72.55 74.02 74.72 75.52 73.73 73.74 73.99 74.14 74.51 74.97 76.30 77.62 75.78 75.56 74.28 73.95 73.44 75.13 75.64 76.77 75.92 72.93 73.96 75.37 74.48 74.75
63.72 65.11 66.12 65.67 64.54 65.41 66.35 64.85 65.38 65.97 68.26 69.53 69.76 69.08 68.46 68.35 67.97 69.43 70.13 71.19 71.56 71.60 71.74 73.57 74.41 75.53 75.20 74.61 74.06 74.24 74.45 73.69 74.78 75.23 75.41 74.40 74.48 74.27 74.87 75.27 74.88 77.08 75.83 75.01 76.01 75.04 74.63 74.75 74.36
65.79 64.69 65.22 64.80 63.04 64.46 63.60 63.65 64.84 66.15 68.54 68.21 68.14 67.78 68.10 67.79 68.04 69.31 70.03 70.84 71.20 72.33 72.90 73.38 74.09 75.56 75.55 74.83 75.95 75.05 73.36 74.53 75.47 74.55 75.36 77.05 74.89 76.52 74.38 74.97 74.32 74.75 77.01 76.45 76.12 76.75 74.47 73.99 73.28
63.84 61.95 64.19 62.78 63.22 62.69 63.71 60.53 61.12 66.51 67.52 66.74 66.81 67.50 67.48 67.61 69.10 69.21 70.51 70.62 71.80 72.84 73.14 73.94 74.74 74.54 74.99 75.03 75.22 75.01 74.42 75.07 73.52 75.27 76.65 76.69 76.26 76.70 76.05 74.39 74.26 74.92 76.13 77.02 76.04 75.33 75.09 72.78 72.77
61.55 62.75 58.06 61.88 62.65 63.15 61.55 56.08 61.47 66.83 66.34 65.52 66.36 66.39 66.74 68.35 69.49 70.36 70.96 70.79 72.97 73.32 73.05 74.13 73.44 73.99 74.31 75.27 75.87 74.30 75.12 76.33 74.53 75.05 75.87 76.50 76.54 76.48 77.13 74.55 74.59 75.75 76.95 76.01 74.13 74.75 72.63 73.39 72.55
61.06 54.98 57.44 58.43 63.10 61.75 61.06 58.10 61.23 66.06 65.86 65.24 65.92 66.41 67.54 68.61 69.13 70.62 70.94 71.83 73.25 73.43 73.49 74.11 74.35 73.88 74.97 76.16 76.58 77.33 76.92 74.17 75.85 75.54 75.59 77.29 77.02 77.06 76.54 74.78 76.16 77.46 74.86 74.60 75.00 73.94 78.29 72.42 72.51
56.19 57.10 57.55 56.71 60.38 60.78 59.18 58.70 61.08 63.60 65.05 63.51 65.07 65.83 66.46 66.94 68.72 70.03 71.06 72.39 73.39 73.60 74.20 74.42 74.30 75.61 76.60 75.77 76.30 74.12 75.16 75.56 75.54 76.15 76.14 77.20 76.86 77.09 77.30 76.24 76.31 77.75 75.94 74.26 76.16 78.17 75.16 74.57 73.30
57.35 57.39 55.62 58.61 62.08 58.40 57.49 58.25 57.95 63.61 64.14 63.25 64.13 65.31 66.51 66.83 68.97 70.12 71.14 71.88 72.84 73.74 73.97 74.09 75.01 76.02 75.81 74.71 73.90 73.50 75.28 74.14 75.06 75.12 77.00 77.07 77.46 77.60 77.97 76.61 76.82 77.84 73.71 76.03 76.32 75.56 75.33 74.07 74.02
55.92 56.21 55.86 59.54 60.93 57.36 56.83 57.90 59.37 60.95 64.81 64.40 64.00 65.08 66.43 67.12 67.83 70.11 70.57 71.56 72.01 73.11 74.31 74.18 75.66 76.36 77.01 75.48 76.10 74.94 73.50 76.00 75.04 75.09 76.89 77.39 77.48 77.87 77.22 77.78 76.86 75.83 75.35 76.45 77.12 77.65 73.40 72.89 75.05
56.83 57.48 57.12 57.88 58.31 58.95 55.71 55.04 56.85 60.39 63.78 65.03 64.70 65.47 65.75 66.68 67.35 68.86 70.30 70.93 72.21 72.59 73.86 74.63 76.22 76.24 76.91 75.86 76.74 76.41 76.74 77.77 75.29 76.20 75.39 76.57 77.17 77.44 77.75 76.97 78.41 77.49 78.03 74.64 76.87 76.08 76.87 74.13 74.16
53.03 61.42 59.09 58.49 56.66 51.79 58.49 47.57 53.82 57.87 59.87 61.46 63.79 65.12 65.56 68.03 67.33 69.35 70.91 71.07 71.16 72.85 74.02 75.37 75.81 76.80 76.07 77.96 76.77 77.00 73.59 73.52 74.22 74.69 75.60 77.14 77.32 76.75 76.96 77.17 77.07 78.20 73.85 79.10 76.60 76.39 78.26 78.43 73.79
55.57 58.56 59.36 59.59 56.72 55.51 53.89 51.50 52.51 56.42 55.16 58.80 63.18 64.48 66.39 67.96 68.94 68.97 69.67 71.05 71.68 73.39 73.73 74.70 75.92 77.01 77.22 77.13 76.51 75.34 75.11 74.51 74.68 76.25 76.90 77.43 77.52 77.37 76.84 77.56 77.17 77.53 76.45 78.19 78.32 77.51 78.86 76.54 76.60
58.25 57.09 58.73 58.29 55.63 50.59 53.84 52.73 51.93 55.77 56.90 59.63 62.79 65.77 65.61 66.17 69.00 68.74 71.59 70.74 71.10 72.84 73.30 74.36 75.45 76.29 76.90 76.68 76.17 76.29 74.86 74.77 74.06 75.25 74.90 74.94 75.33 75.93 77.41 77.25 78.07 78.56 78.19 77.55 76.99 78.29 78.00 78.79 78.77
56.40 55.58 51.55 47.84 48.84 49.82 55.59 53.96 54.34 59.42 61.73 62.95 63.28 64.22 67.39 67.36 67.12 68.45 69.57 68.98 71.50 72.24 72.43 73.79 75.16 75.41 75.99 76.02 75.74 75.82 76.24 75.04 75.09 75.63 74.76 74.40 73.76 74.62 77.00 78.03 77.76 76.95 78.24 78.00 78.12 78.39 78.02 77.45 77.68
55.51 55.76 50.18 44.27 46.32 48.43 56.52 51.29 54.02 60.83 63.81 64.40 65.76 65.20 66.45 68.01 68.63 68.42 68.81 69.27 72.07 72.43 72.91 73.04 74.81 75.51 75.79 75.56 76.02 76.39 76.37 74.89 75.20 75.55 73.36 74.67 76.31 74.85 78.19 77.23 77.61 77.36 77.68 77.77 78.13 76.79 76.55 78.28 76.43
54.26 53.19 58.81 51.34 52.91 51.07 53.01 57.17 61.28 63.55 63.39 65.57 65.30 65.22 65.33 68.15 68.27 69.41 70.66 71.94 72.17 72.60 73.32 73.83 75.05 75.62 75.56 75.47 76.06 76.39 76.40 75.87 75.91 75.98 76.85 76.14 77.64 76.44 77.13 76.94 76.84 77.16 77.59 77.78 78.37 76.11 76.75 77.75 77.18
53.72 57.14 51.91 53.84 45.88 43.25 49.85 50.66 53.38 59.56 62.32 64.76 65.70 63.88 66.12 67.66 67.98 68.98 69.77 70.75 72.17 72.94 73.41 74.34 75.24 75.46 75.62 75.40 75.59 75.49 75.61 76.22 76.10 76.57 75.96 76.60 72.59 77.74 77.89 76.90 76.70 76.79 77.21 77.94 78.29 78.16 77.65 77.11 76.17
51.40 51.19 53.65 53.96 52.31 46.89 45.73 50.31 61.26 61.20 62.55 63.33 65.68 67.37 66.40 67.68 68.89 70.19 70.03 70.91 73.10 73.09 73.46 74.20 74.72 75.69 75.59 75.55 75.95 75.66 75.11 75.20 75.96 75.87 76.13 76.79 76.98 77.03 77.23 77.47 77.08 76.92 77.01 77.37 77.28 78.32 77.85 76.56 76.75
53.59 52.01 52.23 48.70 49.54 51.64 49.58 49.26 60.28 64.37 64.83 65.73 66.26 67.70 68.90 68.66 69.24 70.14 70.66 72.55 73.86 74.01 74.62 74.58 74.93 75.01 75.90 76.56 77.14 75.80 76.11 75.64 74.58 75.08 75.73 76.94 76.80 77.06 77.20 77.60 77.16 76.85 76.82 78.10 77.14 76.32 76.57 76.39 75.43

GFSSGP_sfc_wetblb_114.txt.gz
Wetbulb
73.21 72.45 73.13 71.44 61.82 62.69 57.70 57.31 61.32 59.81 60.33 64.08 65.84 65.24 63.10 63.74 61.73 57.51 70.97 72.51 72.83 72.74 74.74 76.22 77.19 77.20 77.20 76.63 77.47 77.04 77.32 77.27 77.14 77.31 77.50 77.56 77.57 77.48 76.91 77.09 77.06 76.86 76.98 76.93 76.68 76.76 76.61 76.58 75.76
71.88 72.97 73.20 68.02 58.93 55.42 56.05 60.35 58.66 60.73 62.33 65.95 66.97 65.37 63.64 61.55 66.58 68.30 69.54 72.89 73.28 73.42 74.83 74.84 77.05 77.03 76.95 76.69 76.80 77.38 77.17 77.14 77.19 77.29 77.18 77.97 77.06 77.93 76.98 76.99 76.96 77.52 77.13 76.12 75.45 75.87 76.09 76.59 76.09
70.69 72.33 67.00 62.41 58.86 56.23 55.79 60.55 60.42 62.14 64.28 66.77 65.10 66.13 64.69 63.64 67.72 68.83 72.38 73.20 73.12 74.23 74.37 74.55 75.97 75.79 76.52 76.45 76.65 76.76 76.62 77.29 77.10 76.93 77.03 77.97 76.95 77.24 76.97 77.11 77.16 76.74 76.80 76.84 76.46 76.43 75.87 76.48 75.92
71.24 71.83 69.18 59.83 56.47 61.78 60.20 61.21 61.82 64.12 66.11 66.32 64.90 62.48 66.31 68.63 68.58 71.35 73.01 72.70 73.77 74.09 73.39 75.40 76.33 76.56 75.59 76.45 76.68 76.47 77.02 76.98 77.58 77.72 77.69 77.42 77.79 77.23 76.59 76.35 76.18 76.51 76.78 76.76 76.83 76.51 75.68 76.01 74.96
71.93 69.86 61.33 58.74 59.30 62.41 62.54 62.63 65.05 64.14 65.29 64.73 64.85 62.28 63.96 68.22 71.18 72.97 73.17 74.02 73.43 73.54 72.89 75.81 76.67 76.63 76.49 75.75 76.00 76.20 77.26 76.98 77.71 77.60 77.26 77.48 77.44 76.00 76.34 76.57 77.24 76.93 76.95 76.70 76.76 75.95 75.62 75.23 74.52
67.86 68.23 60.04 57.33 56.10 62.06 62.74 64.64 65.59 65.05 65.77 64.83 63.87 63.56 64.42 69.45 71.50 72.43 73.02 72.19 74.08 73.11 74.11 75.00 76.56 76.80 76.46 76.33 76.33 76.62 77.06 77.34 77.05 77.46 76.93 77.61 77.92 76.94 76.92 77.57 77.99 77.10 76.93 76.62 76.23 75.40 75.40 75.25 74.32
64.51 64.45 59.74 58.01 57.85 60.16 61.98 65.48 65.20 64.81 64.20 64.01 66.48 61.95 65.34 68.79 71.51 71.57 72.27 72.82 72.99 72.80 73.63 74.41 75.06 76.29 76.71 76.94 76.84 76.82 76.92 77.17 77.44 77.01 77.01 77.66 77.35 76.95 78.12 78.25 77.79 76.79 76.76 76.51 76.15 75.43 75.18 75.01 74.07
67.86 65.95 60.12 59.68 57.39 58.30 65.61 66.28 67.34 66.03 63.47 68.27 67.69 61.91 62.99 69.53 70.60 72.31 72.57 72.72 73.54 73.77 72.84 74.17 74.98 74.52 74.89 75.39 76.38 76.58 76.49 76.80 77.02 77.05 77.19 78.44 78.05 77.27 76.96 78.00 77.72 76.73 76.37 76.15 76.18 76.06 75.62 75.25 74.65
69.94 62.91 59.31 59.61 58.66 59.65 66.02 65.39 67.53 68.96 66.46 66.27 67.56 66.49 68.38 70.57 70.88 70.94 70.42 71.41 72.22 73.06 72.43 73.64 74.59 74.07 76.17 75.76 75.56 76.40 76.54 76.95 76.29 76.26 77.21 77.93 75.49 75.44 76.05 77.03 77.40 76.34 76.26 76.21 76.40 76.39 75.97 75.66 75.59
65.30 61.90 61.35 64.60 64.37 62.25 65.97 65.19 66.65 66.01 65.52 65.30 65.71 68.45 69.12 69.94 68.35 68.32 69.62 69.80 70.89 71.44 71.40 73.92 73.75 74.13 74.02 73.75 75.98 75.49 75.22 74.63 72.87 70.95 69.75 73.44 75.95 77.18 75.54 76.40 76.48 76.20 76.26 76.01 76.26 76.90 76.73 76.15 74.48
64.85 61.24 64.64 65.40 66.28 65.65 65.60 65.64 67.44 65.27 63.03 65.39 65.33 66.47 68.29 68.20 67.67 68.19 68.52 68.68 70.09 71.07 73.66 73.15 72.72 74.57 72.65 74.43 75.44 73.20 73.15 72.17 70.25 68.46 68.87 72.29 74.50 74.11 74.38 75.29 74.66 75.51 76.29 72.59 72.93 75.75 75.26 75.68 75.37
62.69 65.04 65.79 65.87 66.25 65.11 64.57 67.30 65.84 65.85 66.12 67.96 68.45 68.23 68.07 67.05 67.13 67.82 68.24 69.55 71.14 71.27 72.20 72.95 73.85 74.06 75.82 74.50 75.11 73.99 73.59 70.55 68.09 69.66 67.91 70.85 73.62 74.57 72.65 73.61 74.92 76.74 70.50 67.85 70.51 73.21 76.01 73.95 73.77
63.47 64.73 66.28 66.25 66.28 65.28 65.53 65.21 65.85 64.56 68.14 68.96 69.22 68.40 66.87 66.96 67.39 68.68 69.69 70.89 71.62 70.78 71.75 72.99 74.51 76.36 77.23 73.37 74.47 73.79 74.39 73.59 73.57 71.19 69.66 73.80 73.74 76.43 75.30 76.59 72.50 71.83 72.72 70.94 73.03 73.16 73.93 75.14 74.77
65.10 65.54 65.23 65.01 64.88 64.55 63.96 63.81 65.55 65.70 67.78 67.74 67.64 67.16 66.77 66.71 67.52 68.67 69.04 69.48 70.50 71.63 71.61 73.80 74.28 76.56 76.63 76.20 75.78 72.95 75.43 75.64 74.11 73.49 71.71 71.35 74.10 77.68 76.42 75.94 76.31 71.07 71.86 72.81 72.84 76.40 72.94 75.11 73.33
66.40 62.79 63.02 62.85 62.99 63.17 64.44 59.68 62.29 65.95 67.09 66.42 66.40 66.54 66.57 66.84 68.17 68.21 69.66 69.60 71.39 72.17 73.90 72.94 73.86 75.17 76.03 77.32 73.97 74.81 75.06 75.60 75.45 75.83 78.53 77.79 77.73 79.16 75.76 75.12 75.90 74.59 77.62 78.09 77.42 76.45 74.73 73.65 73.71
62.94 61.50 57.24 61.22 62.49 62.98 62.09 56.36 63.36 65.94 65.87 65.00 65.57 65.65 65.94 66.91 67.60 69.25 69.99 70.15 72.10 72.36 73.98 74.36 73.39 73.20 74.46 73.21 77.29 77.10 75.16 72.77 75.97 75.80 76.97 77.64 78.18 78.84 78.50 76.80 73.54 75.45 75.43 77.85 76.62 74.97 73.69 72.93 73.76
61.15 55.29 56.17 57.94 61.98 61.57 60.24 57.99 62.59 66.46 65.02 64.15 64.95 64.95 64.98 66.36 68.23 69.61 69.50 71.25 72.39 73.02 74.28 72.93 74.25 73.88 75.25 76.54 72.78 74.95 76.52 75.87 76.56 75.45 75.99 78.23 77.70 78.40 78.20 75.62 77.51 78.09 75.16 75.49 75.34 72.31 74.40 70.32 72.22
54.57 57.03 56.65 56.40 60.19 60.96 58.72 58.68 60.60 63.24 64.78 63.79 64.55 64.39 65.70 66.75 67.00 69.25 69.62 71.92 72.48 73.25 74.19 73.61 73.03 74.00 76.87 76.52 76.93 78.02 73.94 77.32 73.93 75.41 76.70 78.90 78.04 78.82 76.90 78.38 76.68 75.76 75.10 71.31 74.50 72.54 75.04 76.34 72.26
57.85 56.82 55.54 57.75 60.65 58.11 55.80 56.17 59.24 62.55 63.42 63.98 64.02 63.78 65.59 66.56 68.50 69.22 70.77 72.18 71.63 72.72 73.90 75.23 73.38 77.20 75.87 75.29 71.52 74.07 75.45 75.45 72.81 77.20 77.92 78.66 78.02 78.89 79.03 77.45 74.11 67.74 71.49 76.27 74.73 74.80 75.64 75.68 70.98
58.33 57.65 55.58 58.74 59.65 57.49 55.89 56.16 59.16 60.77 62.28 64.39 64.09 64.98 65.66 65.81 66.28 68.81 69.80 71.30 71.18 73.18 73.49 75.00 75.74 77.12 76.34 76.64 74.55 73.42 76.16 73.62 75.45 77.94 78.43 74.47 78.01 79.14 78.09 76.41 74.59 72.63 72.63 77.65 76.66 74.52 75.74 75.59 73.84
57.67 57.23 56.31 55.80 57.72 57.86 55.68 53.42 55.06 58.21 61.48 63.35 65.08 65.91 66.20 66.34 65.05 68.33 69.45 70.61 72.19 73.06 73.19 74.85 75.30 76.98 77.40 77.24 75.82 72.26 73.67 76.18 74.80 75.56 76.22 77.15 77.97 78.68 79.68 77.91 75.92 73.62 73.94 75.77 77.82 77.56 76.43 74.66 72.78
54.93 60.66 57.81 57.11 53.69 50.38 56.40 47.27 53.55 55.98 58.17 60.93 63.31 65.43 65.20 64.61 68.30 68.46 68.50 68.86 71.33 73.32 73.84 75.01 76.14 77.04 76.37 77.38 77.02 73.33 73.42 73.67 75.90 75.62 76.00 75.51 78.36 76.99 78.16 79.09 75.14 68.51 68.68 73.84 77.67 77.75 76.06 76.46 74.41
54.52 60.02 59.05 56.80 54.41 53.38 53.39 50.17 53.13 55.51 54.53 58.86 62.27 64.34 66.08 67.47 67.03 67.90 68.41 69.47 69.77 72.07 73.94 75.04 75.78 77.16 77.63 78.74 75.54 76.02 77.59 76.54 76.56 76.20 75.38 79.54 78.99 76.90 77.30 78.38 78.71 72.75 72.77 75.03 78.10 77.97 77.20 76.35 72.68
59.26 59.16 56.29 54.44 53.23 48.31 52.60 51.78 50.79 53.35 55.44 58.43 62.95 64.62 65.82 65.77 67.81 68.71 68.75 70.20 72.37 72.31 73.74 74.25 75.36 75.81 76.65 77.50 76.44 77.54 73.86 71.12 75.24 74.99 74.98 75.14 76.21 77.14 78.60 78.07 78.82 79.08 75.59 76.61 78.10 79.14 77.89 76.91 72.82
57.03 55.57 49.83 46.67 48.11 47.67 54.67 52.54 53.13 57.76 60.71 60.51 60.94 63.73 66.02 65.75 67.63 67.56 68.66 69.77 70.94 70.60 73.07 74.53 75.46 75.02 76.01 76.72 76.54 75.93 73.72 72.16 75.59 76.03 75.84 72.98 75.28 75.69 76.53 78.12 78.44 77.71 77.39 77.88 79.25 79.21 79.21 78.38 77.25
54.33 53.90 50.37 43.33 44.96 47.58 53.96 49.51 53.31 59.97 62.46 63.09 63.67 64.11 66.70 66.99 67.82 67.99 67.92 69.25 69.21 70.71 71.62 73.68 75.18 75.22 75.46 76.09 77.02 76.93 76.43 75.46 75.57 77.35 74.63 73.22 73.01 76.89 77.94 77.52 77.94 77.96 78.21 78.10 79.08 78.26 77.43 78.05 77.87
53.47 51.57 56.39 52.76 50.02 48.83 48.79 52.29 58.46 60.96 60.66 61.56 62.60 64.22 65.15 65.70 66.58 68.10 70.44 69.99 69.79 70.53 71.31 74.92 75.12 75.23 75.51 75.69 76.79 77.09 77.56 77.15 77.56 76.94 71.79 74.02 76.65 76.04 77.45 78.07 77.74 78.04 77.63 79.11 78.99 77.64 78.12 76.17 78.57
54.27 56.04 50.51 53.33 44.66 42.55 47.53 49.62 51.04 57.36 59.00 62.64 62.76 64.13 65.71 66.33 65.73 67.28 68.54 70.30 68.56 69.46 71.32 74.98 75.50 75.39 75.37 75.25 75.85 75.72 76.48 77.23 78.24 78.42 76.52 75.74 75.29 72.48 71.21 76.40 77.39 76.97 77.20 79.11 78.48 77.10 76.53 77.73 77.73
50.70 50.27 51.90 52.62 52.28 45.46 44.29 50.71 58.43 58.32 56.88 63.00 63.36 65.03 65.61 65.30 66.21 68.26 68.05 69.55 70.69 72.08 73.31 73.90 74.72 75.05 74.89 75.24 75.35 75.71 75.22 75.80 77.29 77.07 77.79 77.89 72.93 70.78 75.64 77.75 77.85 77.58 78.01 78.29 77.98 77.92 76.80 75.66 77.43
53.14 51.38 50.86 47.42 48.56 51.26 50.58 50.41 59.05 60.34 62.25 64.39 64.68 65.57 67.33 67.63 68.82 69.98 70.64 68.61 70.19 72.85 72.28 69.41 73.48 73.37 74.51 75.29 74.62 75.95 75.61 76.04 75.73 76.40 76.98 76.87 77.11 76.48 76.45 78.00 78.73 78.47 78.44 77.27 78.45 77.39 76.20 76.01 75.72

GFSSGP_sfc_wetblb_117.txt.gz
Wetbulb
71.46 72.51 71.38 69.91 59.98 57.85 53.88 55.89 58.98 60.00 60.72 64.45 65.57 63.61 61.93 63.70 60.50 54.86 69.78 71.71 72.22 73.63 75.54 76.13 77.46 77.10 77.07 77.22 77.22 77.19 77.27 77.24 77.43 77.72 77.76 77.33 77.20 76.87 76.68 76.71 77.11 77.21 77.23 77.20 76.96 76.97 75.95 76.28 76.00
69.58 69.89 71.10 67.08 57.61 53.12 53.16 58.21 57.24 61.48 63.28 64.41 64.16 63.38 61.85 60.53 66.40 66.95 67.78 71.53 72.62 73.86 74.64 75.81 77.65 77.66 76.95 76.98 77.60 77.77 77.29 77.31 77.11 77.37 77.78 77.64 77.24 77.68 77.58 76.45 76.66 76.94 76.61 76.17 76.23 76.72 75.92 75.81 76.28
69.71 69.67 65.43 60.81 57.84 53.61 52.71 58.20 61.04 64.09 65.18 63.95 62.89 65.31 64.17 62.87 67.52 67.94 70.42 71.35 72.91 72.37 73.40 74.25 77.14 77.90 76.76 77.07 77.03 77.37 77.66 76.91 77.16 77.31 77.22 77.38 77.23 77.43 77.49 77.01 76.85 76.98 76.96 76.97 75.98 76.50 76.31 76.34 76.41
67.54 69.14 64.69 58.98 55.76 60.68 57.32 58.97 61.16 62.82 63.68 64.18 63.68 61.07 65.57 69.14 68.63 70.76 72.68 72.91 71.31 71.41 72.73 75.46 75.98 76.49 76.82 76.91 76.93 77.08 77.00 76.98 77.26 77.82 77.35 77.63 76.99 77.36 76.89 76.50 76.80 76.92 76.91 77.00 75.95 76.12 75.70 75.81 75.64
67.63 67.71 58.54 56.43 58.05 61.40 60.08 63.32 64.23 62.29 62.65 62.53 63.24 60.39 63.22 68.65 70.63 71.62 72.14 71.72 70.04 71.51 74.19 75.21 77.43 76.44 76.69 76.67 76.48 77.16 76.94 76.92 77.69 77.58 77.43 77.60 77.44 76.65 76.78 76.92 76.98 76.89 76.95 76.89 75.73 75.56 75.18 75.15 75.06
64.95 65.45 56.61 54.15 56.46 60.24 62.68 63.93 64.95 62.65 63.16 63.47 61.95 61.67 63.89 69.81 69.46 69.74 71.94 70.96 71.11 72.57 73.63 74.44 77.00 77.29 77.02 76.71 76.81 77.21 76.98 76.80 77.13 77.38 77.34 76.25 76.66 77.58 77.96 77.20 77.01 76.98 76.15 75.76 75.56 75.20 74.68 74.43 73.85
63.97 61.33 57.92 56.43 57.42 59.39 62.21 64.57 63.51 62.20 62.27 62.42 64.31 60.46 64.98 67.58 70.30 71.81 71.96 71.76 72.31 72.77 73.14 73.65 74.21 75.56 76.90 76.91 77.19 76.94 76.97 76.89 76.94 77.14 77.56 76.90 76.23 77.86 77.86 78.16 76.95 76.45 76.43 75.92 75.09 74.82 74.54 73.85 73.28
66.99 62.90 59.03 59.00 56.47 56.95 64.86 65.01 66.67 63.80 62.08 66.59 65.68 59.52 61.88 65.64 70.10 71.11 70.65 70.90 70.30 71.16 72.38 72.73 73.35 73.30 73.64 74.00 76.90 76.87 76.90 77.06 77.24 77.24 77.29 77.58 77.28 77.26 77.01 77.94 77.52 76.62 76.51 76.20 75.89 75.15 74.35 73.56 73.61
69.76 58.74 57.55 57.74 57.69 60.32 64.80 64.30 66.31 68.00 64.17 64.82 66.03 65.93 67.88 68.61 70.70 69.57 69.91 70.00 69.75 70.72 71.96 71.46 72.48 72.67 72.60 73.05 74.67 76.40 76.82 76.43 76.32 75.49 76.44 76.11 73.47 73.86 74.89 76.31 77.15 76.09 76.03 76.06 75.90 75.39 74.59 74.81 75.12
63.98 57.67 59.82 62.77 61.70 62.25 64.51 64.85 65.63 63.83 63.70 63.36 64.21 67.67 67.90 69.49 68.66 67.89 68.61 67.90 68.06 68.20 70.36 70.49 71.70 72.68 72.23 73.83 73.19 73.20 74.19 71.49 69.03 70.95 70.39 70.40 72.04 72.83 74.51 75.59 76.26 76.14 75.92 75.53 75.42 75.56 75.62 75.62 73.22
64.26 59.94 64.79 64.31 63.83 64.55 64.17 63.96 65.55 62.95 61.41 62.99 62.41 64.53 67.31 67.71 67.38 68.10 67.62 68.45 68.96 69.43 70.03 71.19 72.31 72.13 70.65 71.89 70.36 69.90 71.30 70.09 68.88 69.00 69.13 69.89 70.77 72.63 73.13 72.88 73.15 72.82 75.46 72.74 72.85 74.30 74.79 74.19 73.96
61.98 65.23 65.78 66.17 65.87 64.82 63.71 65.77 63.12 64.56 63.81 66.47 65.75 66.10 65.70 63.99 66.77 67.45 68.35 69.04 69.13 69.56 69.91 71.23 71.51 70.11 71.46 72.62 72.69 70.89 68.07 66.41 67.46 67.98 68.87 68.88 70.33 69.75 69.99 71.37 71.87 71.91 69.38 67.43 67.67 70.14 72.52 71.60 72.58
62.41 64.79 65.67 66.48 65.29 64.57 65.19 63.71 64.13 65.30 66.87 67.50 66.77 66.62 64.56 64.02 65.34 67.68 68.69 69.56 69.48 69.12 70.03 70.20 71.76 71.17 71.49 71.78 71.34 71.19 67.51 68.19 68.73 69.11 69.41 70.02 71.10 71.24 70.08 70.54 70.66 69.82 71.03 71.06 69.08 70.06 71.32 70.98 70.23
64.77 64.50 64.34 64.91 64.02 64.00 61.97 63.27 64.02 65.29 67.05 66.48 65.84 64.79 64.30 64.19 66.81 68.51 68.85 68.16 68.13 70.15 70.56 70.94 71.46 72.11 73.05 72.22 70.72 71.08 69.05 70.53 69.13 69.11 68.60 68.75 70.24 71.08 71.76 69.86 71.04 70.74 70.27 69.79 70.97 70.34 70.44 69.64 68.63
65.11 61.67 62.38 62.62 63.29 62.71 62.54 59.40 60.95 65.31 66.96 65.16 64.80 63.84 65.36 64.41 67.38 67.51 68.33 67.97 69.38 70.51 71.24 70.43 70.72 71.98 72.77 71.25 70.35 69.56 71.91 71.69 70.33 70.05 70.02 72.27 72.15 72.88 69.95 70.40 72.00 69.98 70.34 71.24 72.07 71.23 72.01 69.64 70.11
61.71 60.59 55.80 61.09 62.42 62.50 62.20 55.02 62.67 64.96 65.06 63.31 64.21 64.39 64.97 65.65 67.08 67.16 67.66 69.28 70.61 70.75 69.54 69.55 72.47 70.00 70.26 71.79 71.36 71.37 71.25 72.71 72.64 72.78 73.07 72.68 72.17 72.23 73.18 71.54 69.95 70.89 72.60 73.58 72.91 73.12 70.61 68.74 67.83
57.16 52.56 55.02 56.42 62.03 61.04 60.01 57.33 61.97 64.68 64.56 62.38 62.93 63.23 64.12 64.58 65.50 67.23 67.96 70.48 70.58 70.42 70.30 69.93 68.80 68.67 71.29 70.67 70.76 71.15 71.22 71.17 73.47 72.81 72.44 72.07 72.52 73.31 73.54 72.76 71.52 71.45 71.43 70.44 70.19 70.67 68.87 69.69 68.43
51.32 53.31 55.46 55.36 58.96 60.07 57.77 56.77 59.29 62.39 63.42 61.75 62.19 62.96 62.28 64.24 64.45 67.01 69.17 69.74 69.98 70.75 71.54 71.30 70.26 71.20 70.59 71.56 71.93 71.92 71.10 72.35 71.91 74.32 73.01 73.00 72.63 73.89 74.23 71.61 65.68 68.33 69.77 69.88 72.28 71.28 72.00 70.80 68.20
57.87 56.68 54.94 57.38 60.14 57.74 57.16 56.24 57.51 60.00 62.30 62.39 62.49 61.70 62.51 63.99 66.20 66.59 69.62 69.87 69.70 69.84 70.82 70.70 69.78 71.35 70.52 71.19 68.11 68.55 68.38 70.47 72.15 72.76 73.82 73.03 72.99 74.17 73.06 69.38 68.53 67.48 68.88 68.93 72.33 69.43 71.69 71.20 71.38
56.11 55.27 54.37 57.62 58.89 57.76 55.87 55.10 57.86 60.08 60.58 62.77 63.01 62.37 63.11 63.82 63.73 67.77 68.29 68.75 68.53 69.81 72.14 70.23 72.29 71.29 71.12 71.87 71.52 71.41 69.81 70.42 72.43 73.86 72.82 72.77 73.81 73.11 74.03 69.92 67.68 65.46 69.47 71.24 71.38 72.08 72.04 70.80 68.56
54.75 54.22 54.66 54.92 57.52 57.57 54.78 53.28 55.73 59.67 60.20 61.95 63.42 64.87 64.65 64.73 63.18 66.75 67.87 68.01 69.40 70.43 71.36 71.26 72.06 71.83 72.14 70.78 70.84 69.86 72.05 71.71 71.04 71.99 72.47 72.86 73.53 74.45 73.53 70.68 68.93 69.13 69.52 68.82 71.59 73.00 70.69 70.51 70.26
52.43 58.46 57.69 56.51 53.92 49.48 55.28 46.45 53.42 56.09 57.22 59.22 61.29 63.11 62.62 63.59 65.47 65.67 66.88 67.84 69.29 69.86 71.49 71.78 72.00 71.69 71.93 71.91 70.13 68.15 68.99 67.97 69.72 70.79 72.40 72.57 74.14 73.63 73.56 73.24 71.80 69.45 64.34 69.16 71.04 74.25 73.32 71.84 69.53
54.79 58.41 57.10 55.31 52.22 52.17 51.61 49.25 51.94 56.28 54.57 57.01 59.86 63.00 64.41 64.08 64.92 64.67 67.09 68.34 69.70 71.02 71.36 71.84 71.81 71.87 71.70 71.70 71.30 69.55 69.60 70.32 71.27 72.34 72.49 72.46 73.27 72.97 73.65 73.52 70.80 67.14 66.66 71.09 71.43 73.89 72.01 67.63 66.90
60.51 57.76 55.33 54.56 53.08 46.34 50.69 50.37 50.10 52.52 54.25 57.01 59.76 62.30 64.35 64.20 65.36 66.37 67.39 69.15 70.05 71.11 71.27 71.80 71.64 72.31 72.32 72.06 71.79 70.99 68.97 68.83 70.33 71.30 71.67 71.47 71.98 72.82 73.67 73.86 73.29 72.15 72.05 71.10 72.89 73.29 73.19 68.02 65.28
56.49 51.76 44.81 42.89 45.57 45.65 52.56 50.48 52.14 55.77 57.69 58.54 59.54 61.10 64.07 64.96 63.99 65.64 65.95 65.76 69.00 70.23 71.18 71.90 70.52 70.64 71.53 72.28 71.50 71.55 69.90 68.94 69.57 70.24 70.31 70.18 71.05 71.61 72.10 73.62 72.88 73.05 73.22 73.17 73.39 72.91 73.00 72.61 70.58
53.98 51.54 45.18 39.63 42.93 46.12 51.12 48.36 51.84 57.84 59.69 60.66 61.72 61.85 64.28 64.55 65.70 65.86 64.85 67.82 68.07 69.74 70.22 71.77 71.19 70.99 70.52 72.21 72.14 71.93 70.54 69.68 71.44 71.69 70.84 70.08 71.08 71.76 72.82 73.26 73.31 73.44 73.89 73.13 73.44 72.52 72.60 72.30 72.53
50.45 45.60 49.70 46.34 48.40 45.72 49.03 51.66 55.13 57.92 59.50 59.01 60.05 62.29 62.92 64.56 64.78 66.43 67.30 67.20 68.64 68.31 68.52 71.67 71.62 71.79 70.77 71.89 72.46 72.00 72.57 72.15 71.32 72.15 70.00 70.73 73.17 74.35 72.11 72.16 73.24 73.09 73.74 73.48 73.59 72.38 72.16 71.98 72.67
49.72 52.12 45.72 47.17 41.24 40.16 47.00 46.37 48.13 53.35 56.94 59.75 59.47 61.08 63.25 64.13 64.91 65.72 67.29 67.88 68.18 69.26 68.25 72.15 72.43 71.91 71.61 72.02 72.69 72.11 72.22 72.54 72.66 72.50 69.22 71.88 71.57 69.43 67.48 66.48 70.08 72.95 73.56 74.29 73.26 72.12 70.90 72.19 72.18
45.49 43.58 44.65 47.45 47.33 42.31 41.46 46.79 55.58 55.56 58.60 59.19 60.83 61.63 62.89 64.53 64.11 65.32 67.07 68.07 68.58 68.95 68.64 72.38 72.26 71.74 71.75 72.24 72.13 71.61 72.16 72.67 72.55 72.88 72.65 72.74 70.62 67.45 66.54 67.68 71.22 72.63 72.64 73.04 72.80 72.31 71.95 71.66 71.45
48.78 44.57 44.33 38.47 38.63 45.63 44.89 46.32 59.21 58.24 60.60 60.97 61.45 63.11 63.41 65.20 64.87 64.87 66.43 67.05 66.79 66.42 68.56 71.61 72.52 72.08 71.63 71.63 72.12 72.05 72.03 71.64 72.59 71.96 72.55 72.34 68.24 68.62 72.26 72.80 73.08 72.92 73.37 73.68 73.08 72.87 72.48 71.61 71.38

GFSSGP_sfc_wetblb_120.txt.gz
Wetbulb
72.45 72.77 71.44 69.46 58.82 57.26 53.96 55.52 60.59 59.06 60.09 62.74 63.62 62.32 60.98 62.19 58.31 53.91 68.62 70.85 72.50 73.27 74.39 76.04 77.47 77.13 77.27 77.28 77.28 77.12 77.15 77.07 76.96 77.23 77.41 76.91 76.87 76.84 76.76 76.85 76.97 77.06 76.87 76.72 76.22 76.44 76.22 76.38 76.16
69.32 69.75 70.07 65.81 54.61 50.99 53.53 59.41 57.44 59.97 62.26 64.09 63.93 63.60 62.20 60.65 66.28 66.70 67.97 71.56 73.60 74.03 74.21 74.95 77.33 77.65 76.86 77.12 77.04 77.17 77.07 77.20 77.13 76.84 76.58 76.63 76.78 76.79 76.68 76.92 76.76 76.47 76.96 76.70 76.09 76.11 76.33 76.08 76.11
69.02 70.07 64.74 59.76 55.82 53.44 53.74 58.72 59.17 61.44 63.74 63.30 62.77 65.27 63.91 62.42 66.95 67.57 70.44 72.78 74.03 73.61 74.37 75.23 77.30 77.21 76.92 77.09 77.01 77.21 77.14 76.99 76.93 76.81 76.98 76.93 76.95 76.60 76.67 76.44 75.92 76.33 75.81 76.61 75.92 76.14 76.50 76.25 75.84
68.46 67.61 63.09 58.05 55.44 58.71 57.90 60.83 61.64 61.44 63.30 64.53 64.04 61.33 65.62 69.04 67.69 69.28 71.51 73.21 72.30 72.57 72.46 76.60 77.08 76.55 77.16 76.75 77.11 77.09 76.93 77.22 77.22 77.22 77.16 77.20 77.10 76.86 76.67 76.83 76.56 77.08 76.17 76.17 76.17 76.09 76.28 76.14 76.08
69.85 65.15 56.20 54.96 57.32 60.33 62.25 62.35 62.15 60.22 61.50 62.72 64.12 61.03 63.18 68.38 70.12 70.53 70.82 71.49 70.93 71.22 72.63 73.91 77.43 77.13 76.66 76.98 77.07 76.98 76.83 77.06 77.06 77.27 77.04 76.88 76.61 76.64 76.78 76.94 76.69 76.78 76.42 75.62 75.45 75.31 75.62 75.70 75.78
64.86 63.70 53.98 52.57 56.59 60.98 62.64 64.24 62.95 61.47 62.37 63.18 62.61 62.41 63.07 69.90 69.64 70.02 70.18 70.19 72.31 73.06 73.84 74.03 76.14 76.71 76.58 76.90 76.90 76.96 76.89 77.30 77.33 77.59 76.82 76.77 76.91 77.35 77.17 76.81 76.75 76.06 75.67 75.37 74.81 74.51 74.73 74.78 75.42
62.04 60.29 54.63 56.53 56.60 60.05 61.05 65.15 63.00 61.11 61.48 62.14 65.20 60.76 63.49 67.23 69.96 69.44 69.65 72.20 73.00 73.47 73.39 73.39 73.36 75.22 76.84 77.18 76.94 76.97 76.80 77.06 77.28 77.17 76.38 77.12 77.24 77.17 76.98 76.45 76.31 75.67 75.11 74.21 74.22 73.64 73.59 73.86 74.56
66.08 62.85 57.37 58.35 56.54 57.83 62.27 64.21 65.67 62.61 60.86 66.90 66.85 60.75 60.98 66.01 70.11 69.69 70.88 71.34 71.76 72.68 73.14 72.47 72.84 73.34 73.27 74.46 76.95 76.72 76.88 76.44 77.41 77.14 76.57 76.93 77.23 76.84 76.62 77.44 77.15 76.12 75.81 74.92 74.28 73.95 74.20 74.04 74.23
69.48 58.75 55.76 55.65 57.22 59.41 65.29 62.03 65.93 65.70 63.32 64.96 66.13 65.78 67.00 69.50 69.53 68.58 68.23 68.59 69.53 71.46 71.26 72.06 72.02 72.10 72.24 73.06 74.79 76.34 76.92 76.96 77.04 76.76 76.98 73.60 72.20 72.87 74.20 76.10 76.48 75.92 75.50 75.09 74.95 74.98 74.89 75.06 75.38
62.49 56.47 58.09 60.06 61.05 61.46 64.55 65.16 63.38 62.49 61.89 62.84 64.31 66.48 68.34 68.82 68.45 67.39 66.88 66.60 68.48 69.38 70.12 71.26 71.56 71.43 71.93 74.19 72.53 72.64 72.08 69.72 70.98 69.71 68.96 69.62 70.86 71.97 73.87 75.09 76.14 76.09 75.62 75.23 75.81 76.05 76.00 75.37 72.80
63.55 58.79 64.06 61.28 62.93 64.81 62.98 63.56 65.61 62.49 60.00 63.53 62.78 64.57 67.19 67.77 67.53 67.55 67.13 67.33 67.63 68.99 70.42 70.50 71.09 70.82 70.62 71.40 70.50 71.33 69.64 68.52 68.86 67.14 68.08 69.28 70.04 70.71 72.80 72.41 72.33 72.01 74.27 72.02 72.04 73.39 73.92 73.52 72.95
62.11 65.08 65.75 64.91 65.42 63.94 63.58 64.82 63.43 63.71 63.41 66.34 66.00 67.08 67.28 66.46 67.51 67.41 67.63 67.27 67.15 68.39 69.70 70.38 70.72 69.58 71.13 70.31 69.90 69.88 66.77 66.67 67.47 67.39 68.36 68.18 69.49 69.57 69.91 70.66 71.13 71.02 70.46 66.91 66.76 69.46 71.67 70.21 70.62
62.49 63.87 65.38 65.63 64.76 64.04 63.81 62.68 63.63 63.78 66.70 67.47 66.49 66.94 66.02 65.92 66.71 67.94 68.95 68.97 68.49 68.21 68.77 69.69 69.92 70.74 71.27 70.59 69.89 67.91 67.06 67.24 68.24 68.05 68.57 69.28 68.83 69.21 70.38 70.16 69.41 67.90 69.68 69.57 68.38 68.93 68.99 69.87 70.34
64.30 63.43 63.38 64.12 62.71 62.42 61.00 61.42 63.29 64.88 66.80 65.10 65.29 63.48 64.85 66.27 66.88 67.70 68.36 68.35 67.96 68.64 68.41 69.73 69.69 71.34 71.34 70.05 69.39 67.35 67.06 67.08 68.61 68.04 68.34 68.15 68.65 69.57 70.12 68.53 68.96 68.75 69.60 68.26 69.53 69.25 69.80 68.15 67.59
64.44 60.70 62.02 62.53 62.59 60.47 62.44 58.89 59.83 65.29 65.36 64.40 62.92 62.84 62.89 66.33 67.91 67.60 68.37 67.96 68.52 68.94 69.21 69.33 70.16 71.44 70.57 70.20 70.43 67.52 69.42 69.74 68.34 68.28 68.27 68.10 69.32 70.08 69.33 69.80 69.65 69.48 69.22 69.51 71.40 71.63 70.30 69.52 68.81
61.12 60.07 54.77 60.57 62.19 62.38 61.53 54.59 61.91 64.71 63.68 62.69 62.19 62.75 63.80 66.79 67.50 67.96 68.52 68.69 69.39 69.20 68.69 69.59 71.86 70.35 69.74 69.70 69.58 69.94 70.25 70.27 68.80 68.88 69.52 70.35 71.29 72.06 70.69 69.28 69.14 70.79 70.78 71.02 70.30 70.68 70.02 68.16 68.03
55.02 50.52 55.08 56.75 62.01 60.77 59.71 56.24 60.42 64.05 64.49 61.09 61.23 61.57 64.37 66.17 67.22 67.36 68.55 69.58 69.58 68.93 68.57 68.18 68.10 69.20 70.11 69.97 70.07 69.56 70.54 70.66 70.24 70.17 71.02 71.12 71.80 72.57 71.33 71.43 70.75 70.46 69.55 70.06 70.12 69.40 68.07 67.63 67.46
50.42 52.12 54.64 54.24 58.61 59.62 57.83 57.80 59.54 60.34 63.38 62.63 61.09 61.69 63.70 64.19 65.24 67.36 69.07 69.89 69.39 68.80 68.91 68.29 68.16 69.81 69.48 70.78 70.78 69.32 70.09 71.36 72.80 71.56 70.90 71.21 71.91 72.74 70.96 66.70 65.66 67.57 68.71 68.30 70.54 68.67 71.03 67.33 67.06
56.46 54.96 54.20 56.58 59.54 56.84 56.48 57.27 58.57 59.71 61.11 61.98 62.30 60.08 62.83 63.38 66.02 68.70 69.28 69.46 69.50 69.45 68.80 68.28 69.31 69.15 68.73 69.66 69.05 68.26 68.12 68.95 71.90 71.86 72.22 72.48 71.88 73.20 70.71 67.05 64.71 67.65 67.67 69.52 70.51 67.85 70.55 67.80 68.31
56.31 54.81 54.30 57.11 58.74 57.59 56.30 55.60 58.45 59.33 60.54 61.96 62.46 63.03 61.77 61.78 65.23 66.55 67.20 68.57 69.34 68.95 68.47 68.72 69.57 68.71 69.38 69.29 70.16 69.17 69.31 69.45 71.29 72.76 72.53 72.98 72.33 72.70 71.17 68.44 63.73 68.79 69.89 68.71 70.72 71.38 69.51 69.61 68.31
54.50 53.47 53.65 54.33 57.10 57.16 55.48 52.92 55.18 59.00 61.05 61.69 62.98 64.14 62.96 63.10 64.66 65.48 66.03 66.91 68.72 68.27 68.72 69.71 69.68 69.41 70.86 70.62 69.77 70.35 70.07 70.35 70.07 70.29 70.76 71.16 72.61 72.84 71.25 69.65 66.82 69.27 67.44 66.66 70.04 71.64 70.88 69.34 69.08
48.51 58.76 57.24 55.93 53.55 48.92 55.17 46.23 52.74 56.00 57.79 59.86 61.32 62.37 63.38 63.22 65.56 65.80 65.56 66.82 69.14 68.97 70.19 70.21 70.42 70.39 70.46 70.71 68.43 68.68 67.48 67.06 68.34 69.90 70.66 71.61 72.42 72.81 72.02 70.65 69.71 69.26 63.86 68.28 70.50 73.62 70.44 69.04 66.97
53.91 58.82 57.14 56.13 52.05 51.69 51.28 48.35 50.26 55.93 54.81 57.37 60.33 62.38 63.55 64.26 65.42 65.16 65.62 67.48 69.25 69.90 70.26 70.47 71.05 70.15 70.55 70.18 69.06 67.49 67.60 67.99 69.62 69.98 70.65 71.02 71.42 72.03 73.10 72.13 70.51 65.37 65.96 70.09 71.44 72.22 66.68 67.46 65.63
59.10 55.73 54.57 54.45 51.36 45.01 50.24 49.52 48.85 51.76 54.72 57.56 60.31 62.13 63.33 63.83 65.32 65.82 66.60 67.81 68.36 70.06 70.27 70.13 70.54 69.01 69.97 70.54 70.31 68.58 68.91 68.50 69.14 69.97 70.18 70.26 70.37 71.42 72.17 72.27 71.15 70.13 70.72 70.65 71.88 72.45 68.76 64.22 64.50
55.77 50.54 44.80 44.13 43.96 43.74 51.99 50.11 50.86 56.39 57.92 58.91 59.87 61.40 62.84 63.79 64.63 65.16 65.67 66.69 67.90 69.08 69.76 70.35 70.25 69.29 69.82 70.34 70.39 69.71 68.66 68.78 69.46 70.11 70.06 69.67 69.84 70.27 71.33 72.17 71.43 71.51 71.58 71.59 72.33 72.21 71.53 69.57 67.85
51.96 47.81 42.96 37.96 41.88 45.04 51.44 46.89 49.65 57.83 57.97 60.24 61.78 62.61 63.38 64.29 64.84 64.70 66.62 67.12 68.07 68.76 69.58 70.38 69.24 69.86 70.28 70.55 70.02 70.67 69.17 67.84 69.68 70.05 69.96 69.95 69.99 70.42 71.77 72.88 72.14 71.73 72.49 72.03 72.04 71.45 71.81 71.20 71.53
49.98 46.96 50.83 44.21 45.74 44.54 47.87 51.33 55.77 56.77 58.17 58.61 59.96 61.52 61.97 64.46 64.47 65.09 66.28 67.62 68.55 68.78 69.50 70.24 69.18 69.88 69.21 70.66 70.57 70.32 69.34 68.45 70.15 71.25 70.20 69.60 70.88 72.58 71.87 72.44 72.21 72.22 72.80 71.80 71.98 71.29 70.68 70.23 71.24
49.79 51.09 43.85 44.56 38.73 38.90 45.74 46.41 47.69 52.82 55.86 56.91 58.43 59.65 60.84 63.45 63.73 64.31 65.34 67.32 67.97 69.80 70.33 70.65 70.62 70.18 69.58 70.20 71.29 70.87 70.71 71.07 71.16 70.85 68.69 69.72 71.17 70.92 70.47 69.61 70.13 71.84 71.76 72.57 71.77 71.28 70.14 70.89 70.85
43.97 42.13 41.36 43.73 43.40 40.88 41.61 45.39 53.98 53.95 57.32 57.21 58.26 60.34 60.16 62.16 63.50 64.56 65.54 66.34 68.06 69.52 69.76 71.04 70.80 70.94 69.70 70.69 70.94 69.97 70.22 71.38 71.55 71.28 69.27 70.27 70.26 67.85 67.59 66.68 68.53 71.64 71.77 71.67 71.63 71.02 70.46 70.27 70.40
44.79 42.08 39.61 36.49 35.64 41.88 43.53 44.98 55.90 55.74 59.25 59.82 59.81 60.18 61.37 63.29 64.82 65.14 65.91 66.01 66.37 67.07 67.41 70.73 71.22 71.03 70.40 70.95 70.99 70.26 70.43 71.43 70.64 70.98 71.71 71.91 69.87 69.21 67.81 67.04 70.63 71.03 72.07 71.80 71.67 71.22 72.05 70.75 70.18

GFSSGP_sfc_wetblb_123.txt.gz
Wetbulb
72.30 72.23 71.12 68.86 56.96 55.32 52.72 54.48 58.81 57.47 57.99 61.48 62.66 61.33 59.92 61.49 57.23 51.13 66.95 70.18 72.24 72.50 74.11 75.15 76.43 76.76 76.67 76.67 76.81 76.76 76.43 76.70 76.46 76.06 76.21 76.04 76.13 76.77 76.69 76.72 76.89 76.81 76.56 76.63 76.23 76.31 76.21 76.14 76.17
69.25 70.21 69.10 64.30 53.38 50.99 52.12 57.95 56.51 59.11 61.07 62.85 63.41 63.15 61.84 60.40 65.96 65.27 66.70 70.98 72.71 72.93 73.47 74.90 76.67 77.05 76.72 76.49 76.49 76.63 76.71 76.51 76.41 76.47 76.39 76.57 76.81 76.66 76.76 76.70 76.61 76.61 76.23 76.42 76.51 76.51 76.31 75.56 75.94
69.44 70.66 63.30 58.36 56.41 50.69 52.92 58.18 58.50 60.94 62.94 62.93 62.40 64.97 63.25 62.30 66.35 66.45 69.39 72.41 73.14 72.79 73.26 74.30 76.71 76.74 76.78 76.58 76.33 76.66 76.73 76.50 76.46 76.42 76.58 76.63 76.47 76.50 75.87 75.40 75.54 76.12 76.37 75.90 76.51 76.20 76.04 75.79 75.76
69.47 65.33 63.49 56.23 54.78 57.84 58.11 58.62 60.71 60.98 62.81 64.21 63.76 60.99 65.15 68.45 67.28 68.88 71.32 73.48 72.80 73.26 73.67 75.66 76.66 76.73 76.76 76.59 76.43 76.48 76.89 76.20 76.52 76.71 76.75 76.61 76.67 76.59 76.72 76.03 76.66 75.43 76.26 76.35 76.45 76.25 76.00 76.06 76.15
69.26 64.07 55.94 54.93 56.85 59.25 60.63 61.35 61.73 60.04 61.54 62.32 63.45 61.07 62.89 67.07 69.80 70.35 72.07 72.58 72.00 71.37 73.45 74.53 76.64 76.43 76.64 76.37 76.55 76.77 76.43 76.64 76.64 76.40 76.62 76.54 76.48 76.32 76.65 76.26 76.26 75.85 75.62 75.90 75.87 75.93 75.87 76.00 76.23
63.35 62.41 53.60 53.01 55.91 60.42 61.67 62.33 62.28 61.36 62.39 63.15 62.75 61.98 63.50 68.27 68.50 70.44 71.60 71.11 72.08 71.47 72.01 73.73 76.00 76.44 76.49 76.97 76.60 76.75 76.55 76.61 76.37 76.90 76.47 76.51 76.51 76.64 76.59 76.07 76.21 75.87 75.10 74.96 75.15 75.32 75.37 75.51 76.57
62.32 58.64 54.91 55.80 56.45 59.31 60.92 64.22 61.87 61.79 61.39 61.70 64.64 60.83 64.29 66.61 69.34 69.70 69.84 70.93 72.01 72.98 72.52 72.16 73.28 74.76 76.38 76.75 76.71 76.73 76.79 76.58 76.45 76.52 76.62 76.65 76.56 76.48 76.48 76.12 75.20 74.90 74.61 74.53 74.46 74.57 74.74 74.90 75.70
65.74 61.59 56.82 57.49 56.17 56.66 61.99 64.32 64.11 62.30 61.20 66.27 66.20 60.34 61.30 66.47 68.82 69.33 71.34 71.60 71.73 72.23 72.50 71.43 72.04 73.08 73.44 73.86 76.83 76.71 76.88 76.81 76.72 76.33 76.45 76.94 77.12 76.49 76.07 76.71 76.28 75.62 75.10 74.62 74.18 74.32 75.01 74.96 75.24
67.45 58.33 55.36 55.77 56.84 59.22 64.42 62.43 64.51 66.12 63.92 64.52 66.23 64.72 66.49 68.27 68.41 69.13 69.08 69.53 70.49 71.44 71.14 71.34 72.02 72.10 72.54 72.98 74.86 76.20 76.38 76.74 77.07 76.07 76.25 74.47 72.18 73.47 73.78 75.58 75.85 75.71 75.74 75.57 75.57 75.24 75.26 75.24 75.10
62.22 55.56 57.39 60.81 61.28 60.89 63.91 63.72 62.07 62.48 61.91 62.73 63.93 66.13 67.74 67.44 67.86 67.14 67.42 67.59 68.68 69.33 70.52 70.88 71.17 71.16 71.46 74.01 72.13 71.11 72.35 72.14 72.72 71.45 69.79 70.57 71.08 72.08 73.48 74.64 75.96 75.76 75.85 75.78 75.89 75.96 76.11 74.97 71.83
62.78 58.66 62.34 60.47 62.29 64.17 63.24 62.95 63.29 61.54 59.74 62.73 62.27 64.37 66.10 66.86 66.78 66.90 67.12 67.97 68.61 69.79 70.44 70.47 70.52 70.60 70.65 71.41 71.85 70.28 68.29 69.93 68.38 67.36 68.61 69.93 70.09 70.72 71.73 71.67 71.93 71.67 74.33 71.44 70.97 70.27 72.42 72.38 71.91
60.64 65.00 63.35 62.66 63.02 63.52 62.30 64.25 62.85 63.31 63.24 65.86 65.83 66.31 66.31 65.86 65.92 66.46 66.46 67.33 67.36 68.32 69.88 70.47 70.25 69.28 70.45 70.12 70.35 69.37 66.94 67.19 66.56 66.14 67.69 68.04 69.15 68.87 69.90 70.45 70.50 70.59 70.73 66.94 66.57 67.63 68.75 69.88 70.00
60.47 63.88 64.59 64.72 63.33 63.85 64.25 62.83 62.93 62.78 66.91 66.40 66.69 66.63 65.84 66.28 66.71 67.13 67.61 67.16 67.24 67.82 69.09 69.43 69.59 69.81 70.04 69.37 69.29 67.03 65.94 66.32 66.90 66.92 68.10 68.63 68.53 68.42 69.03 69.34 68.98 67.05 69.12 68.87 69.04 68.16 68.72 68.47 69.35
63.61 63.11 62.75 62.50 62.61 62.98 61.11 60.78 63.22 64.72 67.22 65.43 65.57 65.21 65.77 66.26 66.76 66.82 67.08 67.11 67.52 67.97 68.40 69.26 69.71 70.18 70.06 68.56 67.93 65.69 65.82 66.36 67.55 67.15 67.39 67.98 68.44 69.00 69.71 68.63 68.02 68.51 68.83 67.68 67.81 68.92 68.15 68.94 67.36
62.98 59.82 61.15 61.93 61.43 60.59 61.75 57.18 59.28 64.57 66.07 64.24 64.71 64.90 65.20 65.69 67.13 66.89 67.42 67.23 67.45 67.37 68.22 68.48 68.60 70.17 69.55 68.72 67.43 65.87 66.50 67.16 67.55 67.12 67.53 67.49 68.49 69.52 68.48 68.10 68.51 69.01 69.14 69.59 70.76 70.66 69.75 68.54 67.64
59.52 58.62 54.26 60.23 61.44 61.29 61.41 53.81 60.66 64.61 64.26 62.37 63.84 63.98 64.40 65.59 67.43 68.05 68.34 67.88 67.88 67.86 67.91 68.64 71.63 69.66 69.41 68.87 68.77 67.37 68.70 67.75 67.48 67.79 68.04 68.87 70.03 69.84 69.38 68.69 68.41 70.29 70.35 69.37 69.16 68.69 68.27 67.75 67.43
53.36 49.03 54.38 56.50 60.67 59.29 59.63 56.35 60.02 63.41 63.32 62.02 61.61 61.87 63.28 65.75 66.52 67.89 68.32 68.27 67.96 68.25 67.98 67.66 68.95 68.61 68.69 68.72 68.75 68.42 69.26 68.86 67.75 67.88 69.40 70.65 71.11 71.74 71.07 69.31 70.06 69.44 69.17 69.89 70.32 69.05 67.66 66.85 66.62
47.89 51.61 54.83 53.98 56.81 57.19 56.44 56.99 59.54 60.88 62.66 60.71 60.80 61.91 62.94 64.35 65.36 67.65 68.11 68.72 68.48 67.90 67.91 67.23 68.10 68.63 68.62 68.69 68.79 68.41 68.69 69.72 69.53 69.22 69.89 70.19 71.46 72.12 69.10 66.83 65.97 67.82 68.00 69.08 69.40 67.68 69.02 66.21 66.13
54.32 54.15 53.77 56.08 57.89 55.60 55.47 56.61 58.28 59.97 61.14 61.79 62.36 61.34 63.01 64.19 66.05 67.44 68.08 68.99 68.03 67.90 66.93 66.29 68.03 67.83 69.35 68.46 67.48 67.33 67.86 69.08 70.03 70.53 70.57 70.92 71.87 71.72 68.57 66.46 64.20 67.51 69.11 69.85 70.94 69.30 68.39 66.56 67.34
55.00 54.14 53.80 56.70 58.22 56.94 55.84 55.44 58.52 60.09 59.66 61.28 61.67 61.80 62.74 64.14 64.16 66.37 67.39 68.06 67.50 67.16 67.35 66.57 68.14 67.22 68.99 68.08 68.63 67.81 68.06 68.25 71.20 72.49 71.28 71.13 71.68 72.21 69.98 68.08 63.75 68.37 68.12 69.05 70.78 70.22 68.34 67.55 66.99
51.98 52.26 53.42 53.79 56.71 57.25 55.56 52.36 55.08 58.70 60.55 61.84 62.17 62.81 62.36 63.32 63.83 65.54 66.46 66.99 67.08 67.26 67.14 67.43 68.20 67.48 69.49 69.46 69.88 69.26 69.26 69.52 69.14 69.67 69.65 70.97 71.79 72.24 70.57 67.30 66.31 67.77 65.91 68.74 69.85 70.75 69.48 67.93 67.77
44.84 57.13 56.39 55.22 53.30 49.05 55.21 45.51 52.61 55.76 57.53 59.56 60.38 61.60 61.08 63.56 65.11 65.71 65.84 66.37 67.03 67.74 68.02 68.15 68.17 68.88 69.82 69.67 68.79 68.00 66.89 66.70 67.73 68.66 69.56 70.00 72.00 71.96 71.25 69.20 67.94 67.53 63.77 68.99 70.75 70.77 68.99 67.21 66.45
52.95 57.83 56.43 55.23 51.85 51.77 50.91 48.52 50.18 55.28 54.01 57.20 59.34 61.47 62.05 64.34 64.60 64.65 65.58 66.92 67.95 68.53 68.42 68.87 68.56 69.17 69.45 68.94 68.54 67.89 66.89 67.05 68.11 69.02 69.10 69.49 70.43 71.21 71.86 70.93 69.79 63.71 67.59 69.54 70.89 69.31 65.24 66.61 66.74
58.42 54.22 54.13 53.61 50.66 42.10 50.07 48.96 49.18 51.79 54.05 56.95 59.75 61.96 62.65 63.74 64.52 64.98 66.40 67.80 67.85 68.55 69.04 69.32 68.79 68.83 69.24 69.03 68.27 67.73 67.48 67.58 68.04 68.38 68.71 69.32 69.63 70.75 71.23 71.55 69.59 67.35 69.31 70.21 71.30 70.40 65.16 64.09 66.43
53.67 47.16 42.22 41.67 42.36 40.31 50.26 49.39 50.29 55.39 57.43 58.43 59.34 61.11 63.12 63.79 64.95 64.26 64.47 66.37 67.28 67.42 68.61 69.35 68.98 68.19 68.56 69.25 69.40 68.47 68.21 68.24 68.45 68.29 68.72 68.54 69.21 69.39 70.44 71.17 70.51 69.77 70.51 70.64 71.48 70.86 69.72 65.90 67.58
51.03 46.92 43.20 37.19 39.59 43.68 50.74 46.79 48.59 56.13 59.81 59.98 60.83 61.62 63.44 63.80 65.04 64.15 64.50 66.34 67.35 68.04 68.58 69.12 68.81 68.29 67.94 68.87 69.14 68.79 68.92 68.43 68.77 69.76 69.15 69.37 69.47 69.59 70.55 71.63 70.96 70.62 70.92 71.19 71.10 70.79 70.77 70.60 70.50
50.54 45.27 48.03 45.06 44.31 41.94 47.02 51.17 54.08 56.33 57.26 58.05 59.05 60.92 62.30 63.66 63.97 64.21 65.08 66.14 67.16 68.09 68.50 68.81 69.04 68.32 68.60 68.75 68.98 69.36 68.55 67.31 68.31 69.78 69.78 69.19 70.03 70.88 70.87 71.97 71.55 71.18 71.93 71.16 70.72 70.34 69.75 69.38 70.30
50.42 52.22 43.16 44.56 38.79 36.33 44.68 46.33 46.44 52.04 53.49 56.59 57.98 60.29 61.88 63.47 64.43 64.49 65.36 66.41 67.21 68.15 68.83 69.37 69.18 69.22 69.34 69.40 69.38 69.42 68.84 68.08 68.54 70.22 69.90 69.13 69.36 71.05 71.87 71.30 70.86 71.23 70.94 71.38 70.75 70.31 70.10 69.62 70.48
42.61 40.91 40.44 42.93 42.60 38.87 40.24 43.34 51.87 52.47 55.39 56.20 58.07 60.72 61.93 62.90 63.87 64.26 64.82 67.23 67.48 67.76 68.68 69.32 69.25 69.13 68.83 69.25 69.74 69.28 69.36 69.55 70.44 70.26 69.53 68.55 70.07 69.58 69.72 69.62 69.19 70.41 70.88 71.26 71.28 70.58 70.06 69.33 69.33
46.32 41.71 38.56 36.37 34.90 40.08 42.86 42.55 55.57 54.51 57.41 57.76 57.95 60.72 62.91 63.79 64.05 64.33 65.15 65.75 66.59 67.69 68.53 69.46 69.37 69.30 69.81 69.42 69.93 69.37 69.31 69.98 70.53 70.14 70.30 68.21 70.11 68.88 68.02 66.86 67.19 70.37 70.85 70.99 70.83 70.69 71.32 69.72 69.41